<?xml version="1.0" encoding="UTF-8" standalone="no" ?>
<gpx xmlns="http://www.topografix.com/GPX/1/1" xmlns:xsi="http://www.w3.org/2001/XMLSchema-instance" xsi:schemaLocation="http://www.topografix.com/GPX/1/1 http://www.topografix.com/GPX/1/1/gpx.xsd" version="1.1" creator="VisuGPX - https://www.visugpx.com">
  <metadata>
    <name>Quevreville-la-Poterie 16Km5</name>
    <desc><![CDATA[Boucle A-R au départ de Quevreville]]></desc>
  </metadata>
  <trk>
    <name><![CDATA[Quevreville-la-Poterie 16Km5_1]]></name>
    <trkseg>
      <trkpt lat="49.35473" lon="1.18957">
        <ele>136</ele>
        <time>2017-05-16T13:58:31Z</time>
      </trkpt>
      <trkpt lat="49.35477" lon="1.18957">
        <ele>136</ele>
        <time>2017-05-16T13:58:31Z</time>
      </trkpt>
      <trkpt lat="49.35482" lon="1.1896">
        <ele>134</ele>
        <time>2017-05-16T13:58:31Z</time>
      </trkpt>
      <trkpt lat="49.35487" lon="1.18961">
        <ele>134</ele>
        <time>2017-05-16T13:58:31Z</time>
      </trkpt>
      <trkpt lat="49.35491" lon="1.18962">
        <ele>134</ele>
        <time>2017-05-16T13:58:31Z</time>
      </trkpt>
      <trkpt lat="49.35496" lon="1.18964">
        <ele>134</ele>
        <time>2017-05-16T13:58:47Z</time>
      </trkpt>
      <trkpt lat="49.35501" lon="1.18963">
        <ele>134</ele>
        <time>2017-05-16T13:58:47Z</time>
      </trkpt>
      <trkpt lat="49.35503" lon="1.18965">
        <ele>134</ele>
        <time>2017-05-16T13:58:47Z</time>
      </trkpt>
      <trkpt lat="49.35507" lon="1.18965">
        <ele>134</ele>
        <time>2017-05-16T13:58:47Z</time>
      </trkpt>
      <trkpt lat="49.35512" lon="1.18962">
        <ele>134</ele>
        <time>2017-05-16T13:59:03Z</time>
      </trkpt>
      <trkpt lat="49.35515" lon="1.18961">
        <ele>134</ele>
        <time>2017-05-16T13:59:03Z</time>
      </trkpt>
      <trkpt lat="49.3552" lon="1.18958">
        <ele>136</ele>
        <time>2017-05-16T13:59:03Z</time>
      </trkpt>
      <trkpt lat="49.35521" lon="1.18957">
        <ele>136</ele>
        <time>2017-05-16T13:59:03Z</time>
      </trkpt>
      <trkpt lat="49.35522" lon="1.18952">
        <ele>136</ele>
        <time>2017-05-16T13:59:19Z</time>
      </trkpt>
      <trkpt lat="49.35523" lon="1.18947">
        <ele>136</ele>
        <time>2017-05-16T13:59:19Z</time>
      </trkpt>
      <trkpt lat="49.35525" lon="1.18939">
        <ele>136</ele>
        <time>2017-05-16T13:59:19Z</time>
      </trkpt>
      <trkpt lat="49.35528" lon="1.18931">
        <ele>136</ele>
        <time>2017-05-16T13:59:19Z</time>
      </trkpt>
      <trkpt lat="49.35532" lon="1.18911">
        <ele>136</ele>
        <time>2017-05-16T14:00:01Z</time>
      </trkpt>
      <trkpt lat="49.35532" lon="1.18905">
        <ele>136</ele>
        <time>2017-05-16T14:00:01Z</time>
      </trkpt>
      <trkpt lat="49.35533" lon="1.18899">
        <ele>136</ele>
        <time>2017-05-16T14:00:01Z</time>
      </trkpt>
      <trkpt lat="49.35533" lon="1.18892">
        <ele>136</ele>
        <time>2017-05-16T14:00:01Z</time>
      </trkpt>
      <trkpt lat="49.35531" lon="1.18882">
        <ele>136</ele>
        <time>2017-05-16T14:00:01Z</time>
      </trkpt>
      <trkpt lat="49.35531" lon="1.18879">
        <ele>136</ele>
        <time>2017-05-16T14:00:15Z</time>
      </trkpt>
      <trkpt lat="49.35529" lon="1.1887">
        <ele>137</ele>
        <time>2017-05-16T14:00:15Z</time>
      </trkpt>
      <trkpt lat="49.35529" lon="1.18867">
        <ele>137</ele>
        <time>2017-05-16T14:00:15Z</time>
      </trkpt>
      <trkpt lat="49.35528" lon="1.18861">
        <ele>137</ele>
        <time>2017-05-16T14:00:15Z</time>
      </trkpt>
      <trkpt lat="49.35525" lon="1.18855">
        <ele>137</ele>
        <time>2017-05-16T14:00:31Z</time>
      </trkpt>
      <trkpt lat="49.35522" lon="1.18852">
        <ele>137</ele>
        <time>2017-05-16T14:00:31Z</time>
      </trkpt>
      <trkpt lat="49.35519" lon="1.18846">
        <ele>137</ele>
        <time>2017-05-16T14:00:31Z</time>
      </trkpt>
      <trkpt lat="49.35516" lon="1.18841">
        <ele>137</ele>
        <time>2017-05-16T14:00:31Z</time>
      </trkpt>
      <trkpt lat="49.35513" lon="1.18832">
        <ele>137</ele>
        <time>2017-05-16T14:00:59Z</time>
      </trkpt>
      <trkpt lat="49.35512" lon="1.18829">
        <ele>137</ele>
        <time>2017-05-16T14:00:59Z</time>
      </trkpt>
      <trkpt lat="49.35507" lon="1.18823">
        <ele>137</ele>
        <time>2017-05-16T14:00:59Z</time>
      </trkpt>
      <trkpt lat="49.35505" lon="1.18817">
        <ele>137</ele>
        <time>2017-05-16T14:00:59Z</time>
      </trkpt>
      <trkpt lat="49.35505" lon="1.18813">
        <ele>137</ele>
        <time>2017-05-16T14:01:00Z</time>
      </trkpt>
      <trkpt lat="49.35505" lon="1.18812">
        <ele>137</ele>
        <time>2017-05-16T14:01:16Z</time>
      </trkpt>
      <trkpt lat="49.35501" lon="1.18805">
        <ele>137</ele>
        <time>2017-05-16T14:01:16Z</time>
      </trkpt>
      <trkpt lat="49.35499" lon="1.188">
        <ele>137</ele>
        <time>2017-05-16T14:01:16Z</time>
      </trkpt>
      <trkpt lat="49.35497" lon="1.18793">
        <ele>137</ele>
        <time>2017-05-16T14:01:16Z</time>
      </trkpt>
      <trkpt lat="49.35494" lon="1.18789">
        <ele>139</ele>
        <time>2017-05-16T14:01:33Z</time>
      </trkpt>
      <trkpt lat="49.35492" lon="1.18782">
        <ele>139</ele>
        <time>2017-05-16T14:01:33Z</time>
      </trkpt>
      <trkpt lat="49.3549" lon="1.18774">
        <ele>139</ele>
        <time>2017-05-16T14:01:33Z</time>
      </trkpt>
      <trkpt lat="49.35487" lon="1.18768">
        <ele>139</ele>
        <time>2017-05-16T14:01:33Z</time>
      </trkpt>
      <trkpt lat="49.35484" lon="1.18762">
        <ele>139</ele>
        <time>2017-05-16T14:01:47Z</time>
      </trkpt>
      <trkpt lat="49.35482" lon="1.18757">
        <ele>139</ele>
        <time>2017-05-16T14:01:47Z</time>
      </trkpt>
      <trkpt lat="49.3548" lon="1.18753">
        <ele>139</ele>
        <time>2017-05-16T14:01:47Z</time>
      </trkpt>
      <trkpt lat="49.35478" lon="1.18747">
        <ele>139</ele>
        <time>2017-05-16T14:01:47Z</time>
      </trkpt>
      <trkpt lat="49.35477" lon="1.18742">
        <ele>139</ele>
        <time>2017-05-16T14:02:04Z</time>
      </trkpt>
      <trkpt lat="49.35474" lon="1.18736">
        <ele>139</ele>
        <time>2017-05-16T14:02:04Z</time>
      </trkpt>
      <trkpt lat="49.35471" lon="1.18729">
        <ele>139</ele>
        <time>2017-05-16T14:02:04Z</time>
      </trkpt>
      <trkpt lat="49.35469" lon="1.18725">
        <ele>139</ele>
        <time>2017-05-16T14:02:04Z</time>
      </trkpt>
      <trkpt lat="49.35465" lon="1.18715">
        <ele>139</ele>
        <time>2017-05-16T14:02:19Z</time>
      </trkpt>
      <trkpt lat="49.35463" lon="1.1871">
        <ele>139</ele>
        <time>2017-05-16T14:02:19Z</time>
      </trkpt>
      <trkpt lat="49.35459" lon="1.18705">
        <ele>141</ele>
        <time>2017-05-16T14:02:19Z</time>
      </trkpt>
      <trkpt lat="49.35456" lon="1.18698">
        <ele>140</ele>
        <time>2017-05-16T14:02:19Z</time>
      </trkpt>
      <trkpt lat="49.35453" lon="1.18694">
        <ele>140</ele>
        <time>2017-05-16T14:02:35Z</time>
      </trkpt>
      <trkpt lat="49.35451" lon="1.18687">
        <ele>140</ele>
        <time>2017-05-16T14:02:35Z</time>
      </trkpt>
      <trkpt lat="49.35449" lon="1.18684">
        <ele>140</ele>
        <time>2017-05-16T14:02:35Z</time>
      </trkpt>
      <trkpt lat="49.35445" lon="1.18676">
        <ele>140</ele>
        <time>2017-05-16T14:02:35Z</time>
      </trkpt>
      <trkpt lat="49.35443" lon="1.18671">
        <ele>140</ele>
        <time>2017-05-16T14:02:52Z</time>
      </trkpt>
      <trkpt lat="49.3544" lon="1.18664">
        <ele>140</ele>
        <time>2017-05-16T14:02:53Z</time>
      </trkpt>
      <trkpt lat="49.35438" lon="1.18659">
        <ele>140</ele>
        <time>2017-05-16T14:02:53Z</time>
      </trkpt>
      <trkpt lat="49.35434" lon="1.18651">
        <ele>140</ele>
        <time>2017-05-16T14:02:53Z</time>
      </trkpt>
      <trkpt lat="49.35431" lon="1.18646">
        <ele>140</ele>
        <time>2017-05-16T14:03:08Z</time>
      </trkpt>
      <trkpt lat="49.35428" lon="1.18639">
        <ele>140</ele>
        <time>2017-05-16T14:03:08Z</time>
      </trkpt>
      <trkpt lat="49.35426" lon="1.18635">
        <ele>140</ele>
        <time>2017-05-16T14:03:08Z</time>
      </trkpt>
      <trkpt lat="49.35423" lon="1.18628">
        <ele>140</ele>
        <time>2017-05-16T14:03:08Z</time>
      </trkpt>
      <trkpt lat="49.35421" lon="1.18624">
        <ele>141</ele>
        <time>2017-05-16T14:03:23Z</time>
      </trkpt>
      <trkpt lat="49.35417" lon="1.18615">
        <ele>141</ele>
        <time>2017-05-16T14:03:23Z</time>
      </trkpt>
      <trkpt lat="49.35416" lon="1.18611">
        <ele>141</ele>
        <time>2017-05-16T14:03:23Z</time>
      </trkpt>
      <trkpt lat="49.35413" lon="1.18603">
        <ele>141</ele>
        <time>2017-05-16T14:03:23Z</time>
      </trkpt>
      <trkpt lat="49.35408" lon="1.18595">
        <ele>141</ele>
        <time>2017-05-16T14:03:39Z</time>
      </trkpt>
      <trkpt lat="49.35407" lon="1.18591">
        <ele>141</ele>
        <time>2017-05-16T14:03:39Z</time>
      </trkpt>
      <trkpt lat="49.35404" lon="1.18586">
        <ele>141</ele>
        <time>2017-05-16T14:03:39Z</time>
      </trkpt>
      <trkpt lat="49.35401" lon="1.1858">
        <ele>141</ele>
        <time>2017-05-16T14:03:39Z</time>
      </trkpt>
      <trkpt lat="49.35398" lon="1.18571">
        <ele>141</ele>
        <time>2017-05-16T14:03:56Z</time>
      </trkpt>
      <trkpt lat="49.35396" lon="1.18565">
        <ele>141</ele>
        <time>2017-05-16T14:03:56Z</time>
      </trkpt>
      <trkpt lat="49.35393" lon="1.18558">
        <ele>141</ele>
        <time>2017-05-16T14:03:56Z</time>
      </trkpt>
      <trkpt lat="49.3539" lon="1.18551">
        <ele>141</ele>
        <time>2017-05-16T14:03:56Z</time>
      </trkpt>
      <trkpt lat="49.35387" lon="1.18547">
        <ele>141</ele>
        <time>2017-05-16T14:04:11Z</time>
      </trkpt>
      <trkpt lat="49.35384" lon="1.18539">
        <ele>143</ele>
        <time>2017-05-16T14:04:12Z</time>
      </trkpt>
      <trkpt lat="49.35381" lon="1.18533">
        <ele>143</ele>
        <time>2017-05-16T14:04:12Z</time>
      </trkpt>
      <trkpt lat="49.35378" lon="1.18527">
        <ele>143</ele>
        <time>2017-05-16T14:04:12Z</time>
      </trkpt>
      <trkpt lat="49.35376" lon="1.1852">
        <ele>143</ele>
        <time>2017-05-16T14:04:27Z</time>
      </trkpt>
      <trkpt lat="49.35372" lon="1.18513">
        <ele>142</ele>
        <time>2017-05-16T14:04:27Z</time>
      </trkpt>
      <trkpt lat="49.3537" lon="1.18507">
        <ele>142</ele>
        <time>2017-05-16T14:04:27Z</time>
      </trkpt>
      <trkpt lat="49.35368" lon="1.18502">
        <ele>142</ele>
        <time>2017-05-16T14:04:27Z</time>
      </trkpt>
      <trkpt lat="49.35364" lon="1.18493">
        <ele>142</ele>
        <time>2017-05-16T14:04:43Z</time>
      </trkpt>
      <trkpt lat="49.35362" lon="1.18489">
        <ele>142</ele>
        <time>2017-05-16T14:04:43Z</time>
      </trkpt>
      <trkpt lat="49.35358" lon="1.18481">
        <ele>142</ele>
        <time>2017-05-16T14:04:43Z</time>
      </trkpt>
      <trkpt lat="49.35355" lon="1.18478">
        <ele>142</ele>
        <time>2017-05-16T14:04:43Z</time>
      </trkpt>
      <trkpt lat="49.35352" lon="1.18469">
        <ele>142</ele>
        <time>2017-05-16T14:04:59Z</time>
      </trkpt>
      <trkpt lat="49.35347" lon="1.18463">
        <ele>142</ele>
        <time>2017-05-16T14:04:59Z</time>
      </trkpt>
      <trkpt lat="49.35345" lon="1.1846">
        <ele>142</ele>
        <time>2017-05-16T14:04:59Z</time>
      </trkpt>
      <trkpt lat="49.35341" lon="1.18452">
        <ele>144</ele>
        <time>2017-05-16T14:04:59Z</time>
      </trkpt>
      <trkpt lat="49.35338" lon="1.18443">
        <ele>144</ele>
        <time>2017-05-16T14:05:16Z</time>
      </trkpt>
      <trkpt lat="49.35336" lon="1.1844">
        <ele>144</ele>
        <time>2017-05-16T14:05:16Z</time>
      </trkpt>
      <trkpt lat="49.35331" lon="1.18431">
        <ele>144</ele>
        <time>2017-05-16T14:05:16Z</time>
      </trkpt>
      <trkpt lat="49.35326" lon="1.18423">
        <ele>144</ele>
        <time>2017-05-16T14:05:16Z</time>
      </trkpt>
      <trkpt lat="49.35324" lon="1.18419">
        <ele>144</ele>
        <time>2017-05-16T14:05:32Z</time>
      </trkpt>
      <trkpt lat="49.3532" lon="1.18413">
        <ele>144</ele>
        <time>2017-05-16T14:05:32Z</time>
      </trkpt>
      <trkpt lat="49.35316" lon="1.18411">
        <ele>144</ele>
        <time>2017-05-16T14:05:32Z</time>
      </trkpt>
      <trkpt lat="49.35314" lon="1.18408">
        <ele>144</ele>
        <time>2017-05-16T14:05:32Z</time>
      </trkpt>
      <trkpt lat="49.3531" lon="1.18405">
        <ele>144</ele>
        <time>2017-05-16T14:05:47Z</time>
      </trkpt>
      <trkpt lat="49.35307" lon="1.18402">
        <ele>144</ele>
        <time>2017-05-16T14:05:47Z</time>
      </trkpt>
      <trkpt lat="49.35302" lon="1.18398">
        <ele>144</ele>
        <time>2017-05-16T14:05:47Z</time>
      </trkpt>
      <trkpt lat="49.353" lon="1.18396">
        <ele>144</ele>
        <time>2017-05-16T14:05:47Z</time>
      </trkpt>
      <trkpt lat="49.35297" lon="1.18391">
        <ele>144</ele>
        <time>2017-05-16T14:06:05Z</time>
      </trkpt>
      <trkpt lat="49.3529" lon="1.18385">
        <ele>142</ele>
        <time>2017-05-16T14:06:05Z</time>
      </trkpt>
      <trkpt lat="49.35287" lon="1.18383">
        <ele>142</ele>
        <time>2017-05-16T14:06:05Z</time>
      </trkpt>
      <trkpt lat="49.35281" lon="1.18377">
        <ele>142</ele>
        <time>2017-05-16T14:06:05Z</time>
      </trkpt>
      <trkpt lat="49.35277" lon="1.18374">
        <ele>143</ele>
        <time>2017-05-16T14:06:20Z</time>
      </trkpt>
      <trkpt lat="49.35272" lon="1.18371">
        <ele>143</ele>
        <time>2017-05-16T14:06:20Z</time>
      </trkpt>
      <trkpt lat="49.35268" lon="1.18367">
        <ele>143</ele>
        <time>2017-05-16T14:06:20Z</time>
      </trkpt>
      <trkpt lat="49.35263" lon="1.18365">
        <ele>143</ele>
        <time>2017-05-16T14:06:20Z</time>
      </trkpt>
      <trkpt lat="49.3526" lon="1.18361">
        <ele>143</ele>
        <time>2017-05-16T14:06:35Z</time>
      </trkpt>
      <trkpt lat="49.35255" lon="1.18357">
        <ele>143</ele>
        <time>2017-05-16T14:06:35Z</time>
      </trkpt>
      <trkpt lat="49.35252" lon="1.18354">
        <ele>143</ele>
        <time>2017-05-16T14:06:35Z</time>
      </trkpt>
      <trkpt lat="49.35247" lon="1.18351">
        <ele>143</ele>
        <time>2017-05-16T14:06:35Z</time>
      </trkpt>
      <trkpt lat="49.35242" lon="1.18348">
        <ele>143</ele>
        <time>2017-05-16T14:06:55Z</time>
      </trkpt>
      <trkpt lat="49.35237" lon="1.18347">
        <ele>143</ele>
        <time>2017-05-16T14:06:55Z</time>
      </trkpt>
      <trkpt lat="49.35238" lon="1.18344">
        <ele>143</ele>
        <time>2017-05-16T14:06:55Z</time>
      </trkpt>
      <trkpt lat="49.3524" lon="1.18339">
        <ele>143</ele>
        <time>2017-05-16T14:06:56Z</time>
      </trkpt>
      <trkpt lat="49.3524" lon="1.18332">
        <ele>143</ele>
        <time>2017-05-16T14:06:56Z</time>
      </trkpt>
      <trkpt lat="49.35237" lon="1.18329">
        <ele>143</ele>
        <time>2017-05-16T14:07:12Z</time>
      </trkpt>
      <trkpt lat="49.35233" lon="1.18327">
        <ele>143</ele>
        <time>2017-05-16T14:07:12Z</time>
      </trkpt>
      <trkpt lat="49.35228" lon="1.18324">
        <ele>143</ele>
        <time>2017-05-16T14:07:12Z</time>
      </trkpt>
      <trkpt lat="49.35223" lon="1.18321">
        <ele>143</ele>
        <time>2017-05-16T14:07:12Z</time>
      </trkpt>
      <trkpt lat="49.35216" lon="1.18318">
        <ele>143</ele>
        <time>2017-05-16T14:07:39Z</time>
      </trkpt>
      <trkpt lat="49.35216" lon="1.18317">
        <ele>143</ele>
        <time>2017-05-16T14:07:39Z</time>
      </trkpt>
      <trkpt lat="49.35213" lon="1.18312">
        <ele>143</ele>
        <time>2017-05-16T14:07:39Z</time>
      </trkpt>
      <trkpt lat="49.3521" lon="1.18308">
        <ele>143</ele>
        <time>2017-05-16T14:07:39Z</time>
      </trkpt>
      <trkpt lat="49.35205" lon="1.18301">
        <ele>142</ele>
        <time>2017-05-16T14:07:39Z</time>
      </trkpt>
      <trkpt lat="49.35201" lon="1.18297">
        <ele>142</ele>
        <time>2017-05-16T14:07:55Z</time>
      </trkpt>
      <trkpt lat="49.35196" lon="1.18292">
        <ele>142</ele>
        <time>2017-05-16T14:07:55Z</time>
      </trkpt>
      <trkpt lat="49.35194" lon="1.18288">
        <ele>144</ele>
        <time>2017-05-16T14:07:55Z</time>
      </trkpt>
      <trkpt lat="49.35188" lon="1.18282">
        <ele>144</ele>
        <time>2017-05-16T14:07:55Z</time>
      </trkpt>
      <trkpt lat="49.35183" lon="1.18277">
        <ele>144</ele>
        <time>2017-05-16T14:08:11Z</time>
      </trkpt>
      <trkpt lat="49.35181" lon="1.18272">
        <ele>144</ele>
        <time>2017-05-16T14:08:11Z</time>
      </trkpt>
      <trkpt lat="49.35174" lon="1.18264">
        <ele>144</ele>
        <time>2017-05-16T14:08:11Z</time>
      </trkpt>
      <trkpt lat="49.35172" lon="1.18261">
        <ele>144</ele>
        <time>2017-05-16T14:08:11Z</time>
      </trkpt>
      <trkpt lat="49.35171" lon="1.18257">
        <ele>144</ele>
        <time>2017-05-16T14:08:27Z</time>
      </trkpt>
      <trkpt lat="49.35166" lon="1.1825">
        <ele>144</ele>
        <time>2017-05-16T14:08:27Z</time>
      </trkpt>
      <trkpt lat="49.35163" lon="1.18243">
        <ele>144</ele>
        <time>2017-05-16T14:08:27Z</time>
      </trkpt>
      <trkpt lat="49.35159" lon="1.18238">
        <ele>144</ele>
        <time>2017-05-16T14:08:27Z</time>
      </trkpt>
      <trkpt lat="49.35157" lon="1.1823">
        <ele>144</ele>
        <time>2017-05-16T14:08:43Z</time>
      </trkpt>
      <trkpt lat="49.35155" lon="1.18228">
        <ele>144</ele>
        <time>2017-05-16T14:08:43Z</time>
      </trkpt>
      <trkpt lat="49.3515" lon="1.18219">
        <ele>144</ele>
        <time>2017-05-16T14:08:43Z</time>
      </trkpt>
      <trkpt lat="49.35147" lon="1.18213">
        <ele>144</ele>
        <time>2017-05-16T14:08:43Z</time>
      </trkpt>
      <trkpt lat="49.3514" lon="1.18208">
        <ele>144</ele>
        <time>2017-05-16T14:08:59Z</time>
      </trkpt>
      <trkpt lat="49.35135" lon="1.18207">
        <ele>144</ele>
        <time>2017-05-16T14:08:59Z</time>
      </trkpt>
      <trkpt lat="49.35129" lon="1.18208">
        <ele>144</ele>
        <time>2017-05-16T14:08:59Z</time>
      </trkpt>
      <trkpt lat="49.35124" lon="1.18211">
        <ele>142</ele>
        <time>2017-05-16T14:08:59Z</time>
      </trkpt>
      <trkpt lat="49.35117" lon="1.18213">
        <ele>142</ele>
        <time>2017-05-16T14:09:16Z</time>
      </trkpt>
      <trkpt lat="49.35113" lon="1.18214">
        <ele>142</ele>
        <time>2017-05-16T14:09:16Z</time>
      </trkpt>
      <trkpt lat="49.35107" lon="1.18216">
        <ele>142</ele>
        <time>2017-05-16T14:09:16Z</time>
      </trkpt>
      <trkpt lat="49.35103" lon="1.18218">
        <ele>142</ele>
        <time>2017-05-16T14:09:16Z</time>
      </trkpt>
      <trkpt lat="49.35098" lon="1.18217">
        <ele>142</ele>
        <time>2017-05-16T14:09:32Z</time>
      </trkpt>
      <trkpt lat="49.35095" lon="1.18216">
        <ele>142</ele>
        <time>2017-05-16T14:09:32Z</time>
      </trkpt>
      <trkpt lat="49.35089" lon="1.18213">
        <ele>142</ele>
        <time>2017-05-16T14:09:32Z</time>
      </trkpt>
      <trkpt lat="49.35084" lon="1.18212">
        <ele>142</ele>
        <time>2017-05-16T14:09:32Z</time>
      </trkpt>
      <trkpt lat="49.35078" lon="1.18209">
        <ele>142</ele>
        <time>2017-05-16T14:09:47Z</time>
      </trkpt>
      <trkpt lat="49.35075" lon="1.18207">
        <ele>142</ele>
        <time>2017-05-16T14:09:47Z</time>
      </trkpt>
      <trkpt lat="49.35068" lon="1.18205">
        <ele>142</ele>
        <time>2017-05-16T14:09:47Z</time>
      </trkpt>
      <trkpt lat="49.35064" lon="1.18203">
        <ele>142</ele>
        <time>2017-05-16T14:09:47Z</time>
      </trkpt>
      <trkpt lat="49.35059" lon="1.18201">
        <ele>142</ele>
        <time>2017-05-16T14:10:03Z</time>
      </trkpt>
      <trkpt lat="49.35054" lon="1.18199">
        <ele>142</ele>
        <time>2017-05-16T14:10:04Z</time>
      </trkpt>
      <trkpt lat="49.3505" lon="1.18197">
        <ele>142</ele>
        <time>2017-05-16T14:10:04Z</time>
      </trkpt>
      <trkpt lat="49.35045" lon="1.18193">
        <ele>142</ele>
        <time>2017-05-16T14:10:04Z</time>
      </trkpt>
      <trkpt lat="49.35039" lon="1.18189">
        <ele>140</ele>
        <time>2017-05-16T14:10:20Z</time>
      </trkpt>
      <trkpt lat="49.35034" lon="1.18187">
        <ele>140</ele>
        <time>2017-05-16T14:10:20Z</time>
      </trkpt>
      <trkpt lat="49.3503" lon="1.18184">
        <ele>140</ele>
        <time>2017-05-16T14:10:20Z</time>
      </trkpt>
      <trkpt lat="49.35026" lon="1.18182">
        <ele>140</ele>
        <time>2017-05-16T14:10:20Z</time>
      </trkpt>
      <trkpt lat="49.35023" lon="1.18179">
        <ele>140</ele>
        <time>2017-05-16T14:10:36Z</time>
      </trkpt>
      <trkpt lat="49.35017" lon="1.18176">
        <ele>140</ele>
        <time>2017-05-16T14:10:36Z</time>
      </trkpt>
      <trkpt lat="49.35011" lon="1.18175">
        <ele>140</ele>
        <time>2017-05-16T14:10:37Z</time>
      </trkpt>
      <trkpt lat="49.35007" lon="1.18174">
        <ele>140</ele>
        <time>2017-05-16T14:10:37Z</time>
      </trkpt>
      <trkpt lat="49.35001" lon="1.1817">
        <ele>140</ele>
        <time>2017-05-16T14:10:52Z</time>
      </trkpt>
      <trkpt lat="49.34997" lon="1.18168">
        <ele>140</ele>
        <time>2017-05-16T14:10:52Z</time>
      </trkpt>
      <trkpt lat="49.34993" lon="1.18166">
        <ele>140</ele>
        <time>2017-05-16T14:10:52Z</time>
      </trkpt>
      <trkpt lat="49.34986" lon="1.18163">
        <ele>140</ele>
        <time>2017-05-16T14:10:52Z</time>
      </trkpt>
      <trkpt lat="49.34982" lon="1.18161">
        <ele>140</ele>
        <time>2017-05-16T14:11:07Z</time>
      </trkpt>
      <trkpt lat="49.34976" lon="1.18158">
        <ele>140</ele>
        <time>2017-05-16T14:11:07Z</time>
      </trkpt>
      <trkpt lat="49.34973" lon="1.18155">
        <ele>140</ele>
        <time>2017-05-16T14:11:07Z</time>
      </trkpt>
      <trkpt lat="49.34966" lon="1.18151">
        <ele>140</ele>
        <time>2017-05-16T14:11:07Z</time>
      </trkpt>
      <trkpt lat="49.34961" lon="1.18148">
        <ele>140</ele>
        <time>2017-05-16T14:11:23Z</time>
      </trkpt>
      <trkpt lat="49.34958" lon="1.18147">
        <ele>139</ele>
        <time>2017-05-16T14:11:23Z</time>
      </trkpt>
      <trkpt lat="49.34954" lon="1.18146">
        <ele>139</ele>
        <time>2017-05-16T14:11:23Z</time>
      </trkpt>
      <trkpt lat="49.34948" lon="1.18142">
        <ele>139</ele>
        <time>2017-05-16T14:11:23Z</time>
      </trkpt>
      <trkpt lat="49.34944" lon="1.1814">
        <ele>139</ele>
        <time>2017-05-16T14:11:39Z</time>
      </trkpt>
      <trkpt lat="49.34938" lon="1.18136">
        <ele>139</ele>
        <time>2017-05-16T14:11:39Z</time>
      </trkpt>
      <trkpt lat="49.34933" lon="1.18132">
        <ele>139</ele>
        <time>2017-05-16T14:11:39Z</time>
      </trkpt>
      <trkpt lat="49.34929" lon="1.18129">
        <ele>139</ele>
        <time>2017-05-16T14:11:39Z</time>
      </trkpt>
      <trkpt lat="49.34925" lon="1.18124">
        <ele>140</ele>
        <time>2017-05-16T14:11:55Z</time>
      </trkpt>
      <trkpt lat="49.34922" lon="1.18121">
        <ele>140</ele>
        <time>2017-05-16T14:11:55Z</time>
      </trkpt>
      <trkpt lat="49.34917" lon="1.18117">
        <ele>140</ele>
        <time>2017-05-16T14:11:55Z</time>
      </trkpt>
      <trkpt lat="49.34911" lon="1.18111">
        <ele>140</ele>
        <time>2017-05-16T14:11:55Z</time>
      </trkpt>
      <trkpt lat="49.34907" lon="1.18106">
        <ele>140</ele>
        <time>2017-05-16T14:12:11Z</time>
      </trkpt>
      <trkpt lat="49.34903" lon="1.18102">
        <ele>140</ele>
        <time>2017-05-16T14:12:11Z</time>
      </trkpt>
      <trkpt lat="49.34899" lon="1.18097">
        <ele>140</ele>
        <time>2017-05-16T14:12:11Z</time>
      </trkpt>
      <trkpt lat="49.34896" lon="1.18091">
        <ele>140</ele>
        <time>2017-05-16T14:12:11Z</time>
      </trkpt>
      <trkpt lat="49.34892" lon="1.18085">
        <ele>140</ele>
        <time>2017-05-16T14:12:28Z</time>
      </trkpt>
      <trkpt lat="49.34889" lon="1.18077">
        <ele>140</ele>
        <time>2017-05-16T14:12:28Z</time>
      </trkpt>
      <trkpt lat="49.34888" lon="1.18074">
        <ele>140</ele>
        <time>2017-05-16T14:12:29Z</time>
      </trkpt>
      <trkpt lat="49.34884" lon="1.18065">
        <ele>140</ele>
        <time>2017-05-16T14:12:29Z</time>
      </trkpt>
      <trkpt lat="49.34883" lon="1.1806">
        <ele>140</ele>
        <time>2017-05-16T14:12:44Z</time>
      </trkpt>
      <trkpt lat="49.34879" lon="1.18049">
        <ele>140</ele>
        <time>2017-05-16T14:12:45Z</time>
      </trkpt>
      <trkpt lat="49.34877" lon="1.18045">
        <ele>140</ele>
        <time>2017-05-16T14:12:45Z</time>
      </trkpt>
      <trkpt lat="49.34876" lon="1.18036">
        <ele>140</ele>
        <time>2017-05-16T14:12:45Z</time>
      </trkpt>
      <trkpt lat="49.34875" lon="1.1803">
        <ele>140</ele>
        <time>2017-05-16T14:12:59Z</time>
      </trkpt>
      <trkpt lat="49.34875" lon="1.18024">
        <ele>140</ele>
        <time>2017-05-16T14:12:59Z</time>
      </trkpt>
      <trkpt lat="49.34872" lon="1.18017">
        <ele>141</ele>
        <time>2017-05-16T14:12:59Z</time>
      </trkpt>
      <trkpt lat="49.34872" lon="1.18016">
        <ele>141</ele>
        <time>2017-05-16T14:12:59Z</time>
      </trkpt>
      <trkpt lat="49.34872" lon="1.18011">
        <ele>141</ele>
        <time>2017-05-16T14:13:16Z</time>
      </trkpt>
      <trkpt lat="49.34871" lon="1.18001">
        <ele>141</ele>
        <time>2017-05-16T14:13:16Z</time>
      </trkpt>
      <trkpt lat="49.34869" lon="1.17995">
        <ele>141</ele>
        <time>2017-05-16T14:13:16Z</time>
      </trkpt>
      <trkpt lat="49.34869" lon="1.17981">
        <ele>141</ele>
        <time>2017-05-16T14:13:16Z</time>
      </trkpt>
      <trkpt lat="49.34866" lon="1.17973">
        <ele>141</ele>
        <time>2017-05-16T14:13:31Z</time>
      </trkpt>
      <trkpt lat="49.34865" lon="1.17973">
        <ele>141</ele>
        <time>2017-05-16T14:13:31Z</time>
      </trkpt>
      <trkpt lat="49.34863" lon="1.17961">
        <ele>141</ele>
        <time>2017-05-16T14:13:31Z</time>
      </trkpt>
      <trkpt lat="49.34862" lon="1.1796">
        <ele>141</ele>
        <time>2017-05-16T14:13:31Z</time>
      </trkpt>
      <trkpt lat="49.34862" lon="1.17949">
        <ele>142</ele>
        <time>2017-05-16T14:13:47Z</time>
      </trkpt>
      <trkpt lat="49.34859" lon="1.17942">
        <ele>142</ele>
        <time>2017-05-16T14:13:47Z</time>
      </trkpt>
      <trkpt lat="49.34856" lon="1.17941">
        <ele>142</ele>
        <time>2017-05-16T14:13:47Z</time>
      </trkpt>
      <trkpt lat="49.34855" lon="1.17928">
        <ele>142</ele>
        <time>2017-05-16T14:13:47Z</time>
      </trkpt>
      <trkpt lat="49.34852" lon="1.17916">
        <ele>142</ele>
        <time>2017-05-16T14:14:03Z</time>
      </trkpt>
      <trkpt lat="49.3485" lon="1.1791">
        <ele>142</ele>
        <time>2017-05-16T14:14:03Z</time>
      </trkpt>
      <trkpt lat="49.3485" lon="1.17903">
        <ele>142</ele>
        <time>2017-05-16T14:14:03Z</time>
      </trkpt>
      <trkpt lat="49.34848" lon="1.17895">
        <ele>142</ele>
        <time>2017-05-16T14:14:03Z</time>
      </trkpt>
      <trkpt lat="49.34847" lon="1.17881">
        <ele>142</ele>
        <time>2017-05-16T14:14:23Z</time>
      </trkpt>
      <trkpt lat="49.34846" lon="1.17876">
        <ele>142</ele>
        <time>2017-05-16T14:14:23Z</time>
      </trkpt>
      <trkpt lat="49.34845" lon="1.17868">
        <ele>139</ele>
        <time>2017-05-16T14:14:23Z</time>
      </trkpt>
      <trkpt lat="49.34846" lon="1.17868">
        <ele>139</ele>
        <time>2017-05-16T14:14:23Z</time>
      </trkpt>
      <trkpt lat="49.34853" lon="1.17866">
        <ele>139</ele>
        <time>2017-05-16T14:14:23Z</time>
      </trkpt>
      <trkpt lat="49.34855" lon="1.17861">
        <ele>139</ele>
        <time>2017-05-16T14:15:19Z</time>
      </trkpt>
      <trkpt lat="49.34846" lon="1.1786">
        <ele>139</ele>
        <time>2017-05-16T14:15:19Z</time>
      </trkpt>
      <trkpt lat="49.34841" lon="1.17854">
        <ele>139</ele>
        <time>2017-05-16T14:15:19Z</time>
      </trkpt>
      <trkpt lat="49.34836" lon="1.17852">
        <ele>139</ele>
        <time>2017-05-16T14:15:19Z</time>
      </trkpt>
      <trkpt lat="49.34833" lon="1.17846">
        <ele>139</ele>
        <time>2017-05-16T14:15:19Z</time>
      </trkpt>
      <trkpt lat="49.3483" lon="1.17837">
        <ele>139</ele>
        <time>2017-05-16T14:15:36Z</time>
      </trkpt>
      <trkpt lat="49.34827" lon="1.17834">
        <ele>139</ele>
        <time>2017-05-16T14:15:36Z</time>
      </trkpt>
      <trkpt lat="49.34824" lon="1.17828">
        <ele>139</ele>
        <time>2017-05-16T14:15:36Z</time>
      </trkpt>
      <trkpt lat="49.34823" lon="1.1782">
        <ele>139</ele>
        <time>2017-05-16T14:15:36Z</time>
      </trkpt>
      <trkpt lat="49.34822" lon="1.17815">
        <ele>139</ele>
        <time>2017-05-16T14:15:51Z</time>
      </trkpt>
      <trkpt lat="49.34819" lon="1.17806">
        <ele>139</ele>
        <time>2017-05-16T14:15:51Z</time>
      </trkpt>
      <trkpt lat="49.34814" lon="1.17803">
        <ele>139</ele>
        <time>2017-05-16T14:15:51Z</time>
      </trkpt>
      <trkpt lat="49.34811" lon="1.17803">
        <ele>139</ele>
        <time>2017-05-16T14:15:51Z</time>
      </trkpt>
      <trkpt lat="49.34804" lon="1.17803">
        <ele>139</ele>
        <time>2017-05-16T14:16:07Z</time>
      </trkpt>
      <trkpt lat="49.348" lon="1.17804">
        <ele>139</ele>
        <time>2017-05-16T14:16:07Z</time>
      </trkpt>
      <trkpt lat="49.34795" lon="1.17806">
        <ele>139</ele>
        <time>2017-05-16T14:16:07Z</time>
      </trkpt>
      <trkpt lat="49.3479" lon="1.17806">
        <ele>135</ele>
        <time>2017-05-16T14:16:07Z</time>
      </trkpt>
      <trkpt lat="49.34787" lon="1.17808">
        <ele>135</ele>
        <time>2017-05-16T14:16:24Z</time>
      </trkpt>
      <trkpt lat="49.34782" lon="1.17809">
        <ele>135</ele>
        <time>2017-05-16T14:16:24Z</time>
      </trkpt>
      <trkpt lat="49.34777" lon="1.1781">
        <ele>135</ele>
        <time>2017-05-16T14:16:24Z</time>
      </trkpt>
      <trkpt lat="49.34774" lon="1.17812">
        <ele>135</ele>
        <time>2017-05-16T14:16:24Z</time>
      </trkpt>
      <trkpt lat="49.34767" lon="1.17813">
        <ele>135</ele>
        <time>2017-05-16T14:16:41Z</time>
      </trkpt>
      <trkpt lat="49.34762" lon="1.17815">
        <ele>135</ele>
        <time>2017-05-16T14:16:41Z</time>
      </trkpt>
      <trkpt lat="49.3476" lon="1.17816">
        <ele>135</ele>
        <time>2017-05-16T14:16:41Z</time>
      </trkpt>
      <trkpt lat="49.34754" lon="1.17818">
        <ele>135</ele>
        <time>2017-05-16T14:16:41Z</time>
      </trkpt>
      <trkpt lat="49.34751" lon="1.17819">
        <ele>135</ele>
        <time>2017-05-16T14:16:55Z</time>
      </trkpt>
      <trkpt lat="49.34746" lon="1.17821">
        <ele>135</ele>
        <time>2017-05-16T14:16:55Z</time>
      </trkpt>
      <trkpt lat="49.3474" lon="1.17822">
        <ele>135</ele>
        <time>2017-05-16T14:16:55Z</time>
      </trkpt>
      <trkpt lat="49.34737" lon="1.17823">
        <ele>135</ele>
        <time>2017-05-16T14:16:55Z</time>
      </trkpt>
      <trkpt lat="49.34733" lon="1.17823">
        <ele>135</ele>
        <time>2017-05-16T14:17:11Z</time>
      </trkpt>
      <trkpt lat="49.34729" lon="1.17825">
        <ele>135</ele>
        <time>2017-05-16T14:17:11Z</time>
      </trkpt>
      <trkpt lat="49.34724" lon="1.17826">
        <ele>135</ele>
        <time>2017-05-16T14:17:11Z</time>
      </trkpt>
      <trkpt lat="49.3472" lon="1.17827">
        <ele>135</ele>
        <time>2017-05-16T14:17:11Z</time>
      </trkpt>
      <trkpt lat="49.34715" lon="1.17827">
        <ele>135</ele>
        <time>2017-05-16T14:17:28Z</time>
      </trkpt>
      <trkpt lat="49.34709" lon="1.17829">
        <ele>135</ele>
        <time>2017-05-16T14:17:28Z</time>
      </trkpt>
      <trkpt lat="49.34706" lon="1.17829">
        <ele>135</ele>
        <time>2017-05-16T14:17:28Z</time>
      </trkpt>
      <trkpt lat="49.347" lon="1.17831">
        <ele>135</ele>
        <time>2017-05-16T14:17:28Z</time>
      </trkpt>
      <trkpt lat="49.34697" lon="1.1783">
        <ele>135</ele>
        <time>2017-05-16T14:17:43Z</time>
      </trkpt>
      <trkpt lat="49.34691" lon="1.17832">
        <ele>135</ele>
        <time>2017-05-16T14:17:43Z</time>
      </trkpt>
      <trkpt lat="49.34686" lon="1.17835">
        <ele>135</ele>
        <time>2017-05-16T14:17:43Z</time>
      </trkpt>
      <trkpt lat="49.34681" lon="1.17836">
        <ele>135</ele>
        <time>2017-05-16T14:17:43Z</time>
      </trkpt>
      <trkpt lat="49.34677" lon="1.17837">
        <ele>135</ele>
        <time>2017-05-16T14:18:00Z</time>
      </trkpt>
      <trkpt lat="49.34672" lon="1.17838">
        <ele>135</ele>
        <time>2017-05-16T14:18:00Z</time>
      </trkpt>
      <trkpt lat="49.34667" lon="1.17839">
        <ele>135</ele>
        <time>2017-05-16T14:18:00Z</time>
      </trkpt>
      <trkpt lat="49.34662" lon="1.1784">
        <ele>135</ele>
        <time>2017-05-16T14:18:00Z</time>
      </trkpt>
      <trkpt lat="49.34658" lon="1.17841">
        <ele>135</ele>
        <time>2017-05-16T14:18:15Z</time>
      </trkpt>
      <trkpt lat="49.34653" lon="1.17843">
        <ele>135</ele>
        <time>2017-05-16T14:18:15Z</time>
      </trkpt>
      <trkpt lat="49.34647" lon="1.17845">
        <ele>135</ele>
        <time>2017-05-16T14:18:15Z</time>
      </trkpt>
      <trkpt lat="49.34644" lon="1.17846">
        <ele>135</ele>
        <time>2017-05-16T14:18:15Z</time>
      </trkpt>
      <trkpt lat="49.34638" lon="1.17848">
        <ele>135</ele>
        <time>2017-05-16T14:18:31Z</time>
      </trkpt>
      <trkpt lat="49.34632" lon="1.17849">
        <ele>135</ele>
        <time>2017-05-16T14:18:32Z</time>
      </trkpt>
      <trkpt lat="49.34627" lon="1.17851">
        <ele>135</ele>
        <time>2017-05-16T14:18:32Z</time>
      </trkpt>
      <trkpt lat="49.34621" lon="1.17852">
        <ele>136</ele>
        <time>2017-05-16T14:18:33Z</time>
      </trkpt>
      <trkpt lat="49.34617" lon="1.17851">
        <ele>136</ele>
        <time>2017-05-16T14:18:47Z</time>
      </trkpt>
      <trkpt lat="49.34612" lon="1.1785">
        <ele>136</ele>
        <time>2017-05-16T14:18:47Z</time>
      </trkpt>
      <trkpt lat="49.34609" lon="1.1785">
        <ele>136</ele>
        <time>2017-05-16T14:18:47Z</time>
      </trkpt>
      <trkpt lat="49.34604" lon="1.17851">
        <ele>136</ele>
        <time>2017-05-16T14:18:47Z</time>
      </trkpt>
      <trkpt lat="49.34599" lon="1.17852">
        <ele>136</ele>
        <time>2017-05-16T14:19:03Z</time>
      </trkpt>
      <trkpt lat="49.34594" lon="1.17853">
        <ele>136</ele>
        <time>2017-05-16T14:19:03Z</time>
      </trkpt>
      <trkpt lat="49.34588" lon="1.17854">
        <ele>136</ele>
        <time>2017-05-16T14:19:03Z</time>
      </trkpt>
      <trkpt lat="49.34583" lon="1.17856">
        <ele>136</ele>
        <time>2017-05-16T14:19:03Z</time>
      </trkpt>
      <trkpt lat="49.34578" lon="1.17856">
        <ele>136</ele>
        <time>2017-05-16T14:19:20Z</time>
      </trkpt>
      <trkpt lat="49.34572" lon="1.17857">
        <ele>136</ele>
        <time>2017-05-16T14:19:20Z</time>
      </trkpt>
      <trkpt lat="49.34568" lon="1.17856">
        <ele>136</ele>
        <time>2017-05-16T14:19:20Z</time>
      </trkpt>
      <trkpt lat="49.34563" lon="1.17857">
        <ele>136</ele>
        <time>2017-05-16T14:19:21Z</time>
      </trkpt>
      <trkpt lat="49.34559" lon="1.17858">
        <ele>136</ele>
        <time>2017-05-16T14:19:36Z</time>
      </trkpt>
      <trkpt lat="49.34555" lon="1.17858">
        <ele>136</ele>
        <time>2017-05-16T14:19:36Z</time>
      </trkpt>
      <trkpt lat="49.34548" lon="1.17858">
        <ele>136</ele>
        <time>2017-05-16T14:19:36Z</time>
      </trkpt>
      <trkpt lat="49.34545" lon="1.17859">
        <ele>136</ele>
        <time>2017-05-16T14:19:36Z</time>
      </trkpt>
      <trkpt lat="49.34538" lon="1.17859">
        <ele>137</ele>
        <time>2017-05-16T14:19:51Z</time>
      </trkpt>
      <trkpt lat="49.34534" lon="1.1786">
        <ele>137</ele>
        <time>2017-05-16T14:19:51Z</time>
      </trkpt>
      <trkpt lat="49.34531" lon="1.1786">
        <ele>137</ele>
        <time>2017-05-16T14:19:51Z</time>
      </trkpt>
      <trkpt lat="49.34525" lon="1.17861">
        <ele>137</ele>
        <time>2017-05-16T14:19:51Z</time>
      </trkpt>
      <trkpt lat="49.34519" lon="1.17861">
        <ele>137</ele>
        <time>2017-05-16T14:20:07Z</time>
      </trkpt>
      <trkpt lat="49.34517" lon="1.17861">
        <ele>137</ele>
        <time>2017-05-16T14:20:07Z</time>
      </trkpt>
      <trkpt lat="49.34511" lon="1.17861">
        <ele>137</ele>
        <time>2017-05-16T14:20:07Z</time>
      </trkpt>
      <trkpt lat="49.34507" lon="1.1786">
        <ele>137</ele>
        <time>2017-05-16T14:20:07Z</time>
      </trkpt>
      <trkpt lat="49.34502" lon="1.17861">
        <ele>137</ele>
        <time>2017-05-16T14:20:23Z</time>
      </trkpt>
      <trkpt lat="49.34496" lon="1.17861">
        <ele>137</ele>
        <time>2017-05-16T14:20:23Z</time>
      </trkpt>
      <trkpt lat="49.34492" lon="1.17861">
        <ele>137</ele>
        <time>2017-05-16T14:20:23Z</time>
      </trkpt>
      <trkpt lat="49.34487" lon="1.17861">
        <ele>137</ele>
        <time>2017-05-16T14:20:23Z</time>
      </trkpt>
      <trkpt lat="49.34481" lon="1.17862">
        <ele>137</ele>
        <time>2017-05-16T14:20:40Z</time>
      </trkpt>
      <trkpt lat="49.34476" lon="1.17862">
        <ele>137</ele>
        <time>2017-05-16T14:20:40Z</time>
      </trkpt>
      <trkpt lat="49.34472" lon="1.17862">
        <ele>137</ele>
        <time>2017-05-16T14:20:40Z</time>
      </trkpt>
      <trkpt lat="49.34466" lon="1.17862">
        <ele>137</ele>
        <time>2017-05-16T14:20:40Z</time>
      </trkpt>
      <trkpt lat="49.34462" lon="1.17862">
        <ele>137</ele>
        <time>2017-05-16T14:20:56Z</time>
      </trkpt>
      <trkpt lat="49.34457" lon="1.17862">
        <ele>135</ele>
        <time>2017-05-16T14:20:56Z</time>
      </trkpt>
      <trkpt lat="49.34451" lon="1.17862">
        <ele>135</ele>
        <time>2017-05-16T14:20:56Z</time>
      </trkpt>
      <trkpt lat="49.34447" lon="1.17862">
        <ele>135</ele>
        <time>2017-05-16T14:20:56Z</time>
      </trkpt>
      <trkpt lat="49.34442" lon="1.17861">
        <ele>135</ele>
        <time>2017-05-16T14:21:12Z</time>
      </trkpt>
      <trkpt lat="49.34438" lon="1.17861">
        <ele>135</ele>
        <time>2017-05-16T14:21:12Z</time>
      </trkpt>
      <trkpt lat="49.34433" lon="1.17862">
        <ele>135</ele>
        <time>2017-05-16T14:21:12Z</time>
      </trkpt>
      <trkpt lat="49.34427" lon="1.17862">
        <ele>135</ele>
        <time>2017-05-16T14:21:12Z</time>
      </trkpt>
      <trkpt lat="49.34423" lon="1.17862">
        <ele>135</ele>
        <time>2017-05-16T14:21:27Z</time>
      </trkpt>
      <trkpt lat="49.34418" lon="1.17862">
        <ele>135</ele>
        <time>2017-05-16T14:21:27Z</time>
      </trkpt>
      <trkpt lat="49.34414" lon="1.17861">
        <ele>135</ele>
        <time>2017-05-16T14:21:27Z</time>
      </trkpt>
      <trkpt lat="49.3441" lon="1.17861">
        <ele>135</ele>
        <time>2017-05-16T14:21:27Z</time>
      </trkpt>
      <trkpt lat="49.34403" lon="1.17862">
        <ele>135</ele>
        <time>2017-05-16T14:21:44Z</time>
      </trkpt>
      <trkpt lat="49.34399" lon="1.17862">
        <ele>135</ele>
        <time>2017-05-16T14:21:44Z</time>
      </trkpt>
      <trkpt lat="49.34393" lon="1.17861">
        <ele>135</ele>
        <time>2017-05-16T14:21:44Z</time>
      </trkpt>
      <trkpt lat="49.34388" lon="1.1786">
        <ele>135</ele>
        <time>2017-05-16T14:21:44Z</time>
      </trkpt>
      <trkpt lat="49.34386" lon="1.1786">
        <ele>135</ele>
        <time>2017-05-16T14:21:59Z</time>
      </trkpt>
      <trkpt lat="49.34378" lon="1.1786">
        <ele>135</ele>
        <time>2017-05-16T14:21:59Z</time>
      </trkpt>
      <trkpt lat="49.34372" lon="1.17861">
        <ele>134</ele>
        <time>2017-05-16T14:22:00Z</time>
      </trkpt>
      <trkpt lat="49.34367" lon="1.17861">
        <ele>134</ele>
        <time>2017-05-16T14:22:00Z</time>
      </trkpt>
      <trkpt lat="49.3436" lon="1.17861">
        <ele>134</ele>
        <time>2017-05-16T14:22:17Z</time>
      </trkpt>
      <trkpt lat="49.34356" lon="1.17861">
        <ele>134</ele>
        <time>2017-05-16T14:22:17Z</time>
      </trkpt>
      <trkpt lat="49.34352" lon="1.1786">
        <ele>134</ele>
        <time>2017-05-16T14:22:17Z</time>
      </trkpt>
      <trkpt lat="49.34347" lon="1.17859">
        <ele>134</ele>
        <time>2017-05-16T14:22:17Z</time>
      </trkpt>
      <trkpt lat="49.34343" lon="1.17859">
        <ele>134</ele>
        <time>2017-05-16T14:22:33Z</time>
      </trkpt>
      <trkpt lat="49.34337" lon="1.17858">
        <ele>134</ele>
        <time>2017-05-16T14:22:33Z</time>
      </trkpt>
      <trkpt lat="49.34333" lon="1.17858">
        <ele>134</ele>
        <time>2017-05-16T14:22:33Z</time>
      </trkpt>
      <trkpt lat="49.34327" lon="1.17857">
        <ele>134</ele>
        <time>2017-05-16T14:22:33Z</time>
      </trkpt>
      <trkpt lat="49.34323" lon="1.17856">
        <ele>134</ele>
        <time>2017-05-16T14:22:47Z</time>
      </trkpt>
      <trkpt lat="49.34319" lon="1.17856">
        <ele>134</ele>
        <time>2017-05-16T14:22:47Z</time>
      </trkpt>
      <trkpt lat="49.34314" lon="1.17856">
        <ele>134</ele>
        <time>2017-05-16T14:22:47Z</time>
      </trkpt>
      <trkpt lat="49.34309" lon="1.17856">
        <ele>134</ele>
        <time>2017-05-16T14:22:47Z</time>
      </trkpt>
      <trkpt lat="49.34303" lon="1.17855">
        <ele>134</ele>
        <time>2017-05-16T14:23:03Z</time>
      </trkpt>
      <trkpt lat="49.34299" lon="1.17855">
        <ele>134</ele>
        <time>2017-05-16T14:23:03Z</time>
      </trkpt>
      <trkpt lat="49.34292" lon="1.17855">
        <ele>134</ele>
        <time>2017-05-16T14:23:03Z</time>
      </trkpt>
      <trkpt lat="49.34287" lon="1.17855">
        <ele>134</ele>
        <time>2017-05-16T14:23:03Z</time>
      </trkpt>
      <trkpt lat="49.34282" lon="1.17855">
        <ele>134</ele>
        <time>2017-05-16T14:23:20Z</time>
      </trkpt>
      <trkpt lat="49.34278" lon="1.17855">
        <ele>134</ele>
        <time>2017-05-16T14:23:20Z</time>
      </trkpt>
      <trkpt lat="49.34272" lon="1.17855">
        <ele>134</ele>
        <time>2017-05-16T14:23:20Z</time>
      </trkpt>
      <trkpt lat="49.34267" lon="1.17855">
        <ele>134</ele>
        <time>2017-05-16T14:23:20Z</time>
      </trkpt>
      <trkpt lat="49.34263" lon="1.17855">
        <ele>134</ele>
        <time>2017-05-16T14:23:35Z</time>
      </trkpt>
      <trkpt lat="49.34259" lon="1.17855">
        <ele>134</ele>
        <time>2017-05-16T14:23:35Z</time>
      </trkpt>
      <trkpt lat="49.34252" lon="1.17856">
        <ele>134</ele>
        <time>2017-05-16T14:23:37Z</time>
      </trkpt>
      <trkpt lat="49.34247" lon="1.17857">
        <ele>134</ele>
        <time>2017-05-16T14:23:37Z</time>
      </trkpt>
      <trkpt lat="49.34244" lon="1.17857">
        <ele>134</ele>
        <time>2017-05-16T14:23:52Z</time>
      </trkpt>
      <trkpt lat="49.3424" lon="1.17858">
        <ele>134</ele>
        <time>2017-05-16T14:23:52Z</time>
      </trkpt>
      <trkpt lat="49.34234" lon="1.17858">
        <ele>134</ele>
        <time>2017-05-16T14:23:52Z</time>
      </trkpt>
      <trkpt lat="49.34232" lon="1.17858">
        <ele>134</ele>
        <time>2017-05-16T14:23:52Z</time>
      </trkpt>
      <trkpt lat="49.34228" lon="1.17855">
        <ele>134</ele>
        <time>2017-05-16T14:25:07Z</time>
      </trkpt>
      <trkpt lat="49.34228" lon="1.17859">
        <ele>134</ele>
        <time>2017-05-16T14:25:07Z</time>
      </trkpt>
      <trkpt lat="49.34224" lon="1.1786">
        <ele>134</ele>
        <time>2017-05-16T14:25:07Z</time>
      </trkpt>
      <trkpt lat="49.34218" lon="1.17861">
        <ele>134</ele>
        <time>2017-05-16T14:25:07Z</time>
      </trkpt>
      <trkpt lat="49.34213" lon="1.17861">
        <ele>134</ele>
        <time>2017-05-16T14:25:07Z</time>
      </trkpt>
      <trkpt lat="49.34208" lon="1.17861">
        <ele>132</ele>
        <time>2017-05-16T14:25:23Z</time>
      </trkpt>
      <trkpt lat="49.34204" lon="1.17861">
        <ele>132</ele>
        <time>2017-05-16T14:25:23Z</time>
      </trkpt>
      <trkpt lat="49.34198" lon="1.17863">
        <ele>132</ele>
        <time>2017-05-16T14:25:23Z</time>
      </trkpt>
      <trkpt lat="49.34194" lon="1.17864">
        <ele>132</ele>
        <time>2017-05-16T14:25:23Z</time>
      </trkpt>
      <trkpt lat="49.34189" lon="1.17864">
        <ele>132</ele>
        <time>2017-05-16T14:25:39Z</time>
      </trkpt>
      <trkpt lat="49.34184" lon="1.17865">
        <ele>132</ele>
        <time>2017-05-16T14:25:40Z</time>
      </trkpt>
      <trkpt lat="49.34179" lon="1.17866">
        <ele>132</ele>
        <time>2017-05-16T14:25:40Z</time>
      </trkpt>
      <trkpt lat="49.34174" lon="1.17867">
        <ele>132</ele>
        <time>2017-05-16T14:25:40Z</time>
      </trkpt>
      <trkpt lat="49.34169" lon="1.17867">
        <ele>132</ele>
        <time>2017-05-16T14:25:56Z</time>
      </trkpt>
      <trkpt lat="49.34164" lon="1.17868">
        <ele>132</ele>
        <time>2017-05-16T14:25:56Z</time>
      </trkpt>
      <trkpt lat="49.34159" lon="1.17869">
        <ele>132</ele>
        <time>2017-05-16T14:25:56Z</time>
      </trkpt>
      <trkpt lat="49.34155" lon="1.1787">
        <ele>132</ele>
        <time>2017-05-16T14:25:56Z</time>
      </trkpt>
      <trkpt lat="49.34151" lon="1.1787">
        <ele>132</ele>
        <time>2017-05-16T14:26:11Z</time>
      </trkpt>
      <trkpt lat="49.34145" lon="1.17871">
        <ele>132</ele>
        <time>2017-05-16T14:26:11Z</time>
      </trkpt>
      <trkpt lat="49.34141" lon="1.17871">
        <ele>132</ele>
        <time>2017-05-16T14:26:11Z</time>
      </trkpt>
      <trkpt lat="49.34134" lon="1.17872">
        <ele>132</ele>
        <time>2017-05-16T14:26:11Z</time>
      </trkpt>
      <trkpt lat="49.34129" lon="1.17872">
        <ele>132</ele>
        <time>2017-05-16T14:26:28Z</time>
      </trkpt>
      <trkpt lat="49.34127" lon="1.17873">
        <ele>132</ele>
        <time>2017-05-16T14:26:28Z</time>
      </trkpt>
      <trkpt lat="49.34121" lon="1.17875">
        <ele>131</ele>
        <time>2017-05-16T14:26:28Z</time>
      </trkpt>
      <trkpt lat="49.34116" lon="1.17876">
        <ele>131</ele>
        <time>2017-05-16T14:26:28Z</time>
      </trkpt>
      <trkpt lat="49.34112" lon="1.17877">
        <ele>131</ele>
        <time>2017-05-16T14:26:43Z</time>
      </trkpt>
      <trkpt lat="49.34106" lon="1.17879">
        <ele>131</ele>
        <time>2017-05-16T14:26:43Z</time>
      </trkpt>
      <trkpt lat="49.34102" lon="1.17881">
        <ele>131</ele>
        <time>2017-05-16T14:26:43Z</time>
      </trkpt>
      <trkpt lat="49.34102" lon="1.17881">
        <ele>131</ele>
        <time>2017-05-16T14:26:43Z</time>
      </trkpt>
      <trkpt lat="49.341" lon="1.17881">
        <ele>131</ele>
        <time>2017-05-16T14:27:00Z</time>
      </trkpt>
      <trkpt lat="49.34094" lon="1.17882">
        <ele>131</ele>
        <time>2017-05-16T14:27:01Z</time>
      </trkpt>
      <trkpt lat="49.34091" lon="1.17882">
        <ele>131</ele>
        <time>2017-05-16T14:27:01Z</time>
      </trkpt>
      <trkpt lat="49.34085" lon="1.17884">
        <ele>131</ele>
        <time>2017-05-16T14:27:01Z</time>
      </trkpt>
      <trkpt lat="49.3408" lon="1.17886">
        <ele>131</ele>
        <time>2017-05-16T14:27:16Z</time>
      </trkpt>
      <trkpt lat="49.34076" lon="1.17887">
        <ele>131</ele>
        <time>2017-05-16T14:27:16Z</time>
      </trkpt>
      <trkpt lat="49.34071" lon="1.17888">
        <ele>131</ele>
        <time>2017-05-16T14:27:16Z</time>
      </trkpt>
      <trkpt lat="49.34066" lon="1.1789">
        <ele>131</ele>
        <time>2017-05-16T14:27:16Z</time>
      </trkpt>
      <trkpt lat="49.34062" lon="1.1789">
        <ele>131</ele>
        <time>2017-05-16T14:27:31Z</time>
      </trkpt>
      <trkpt lat="49.34056" lon="1.17893">
        <ele>131</ele>
        <time>2017-05-16T14:27:31Z</time>
      </trkpt>
      <trkpt lat="49.34052" lon="1.17894">
        <ele>131</ele>
        <time>2017-05-16T14:27:31Z</time>
      </trkpt>
      <trkpt lat="49.34048" lon="1.17895">
        <ele>131</ele>
        <time>2017-05-16T14:27:31Z</time>
      </trkpt>
      <trkpt lat="49.34043" lon="1.17896">
        <ele>131</ele>
        <time>2017-05-16T14:27:47Z</time>
      </trkpt>
      <trkpt lat="49.34039" lon="1.17898">
        <ele>131</ele>
        <time>2017-05-16T14:27:47Z</time>
      </trkpt>
      <trkpt lat="49.34035" lon="1.17901">
        <ele>131</ele>
        <time>2017-05-16T14:27:47Z</time>
      </trkpt>
      <trkpt lat="49.3403" lon="1.17903">
        <ele>131</ele>
        <time>2017-05-16T14:27:47Z</time>
      </trkpt>
      <trkpt lat="49.34025" lon="1.17904">
        <ele>131</ele>
        <time>2017-05-16T14:28:03Z</time>
      </trkpt>
      <trkpt lat="49.34019" lon="1.17907">
        <ele>131</ele>
        <time>2017-05-16T14:28:03Z</time>
      </trkpt>
      <trkpt lat="49.34016" lon="1.17909">
        <ele>131</ele>
        <time>2017-05-16T14:28:03Z</time>
      </trkpt>
      <trkpt lat="49.3401" lon="1.17912">
        <ele>131</ele>
        <time>2017-05-16T14:28:03Z</time>
      </trkpt>
      <trkpt lat="49.34007" lon="1.17913">
        <ele>131</ele>
        <time>2017-05-16T14:28:19Z</time>
      </trkpt>
      <trkpt lat="49.34002" lon="1.17914">
        <ele>131</ele>
        <time>2017-05-16T14:28:20Z</time>
      </trkpt>
      <trkpt lat="49.33997" lon="1.17916">
        <ele>131</ele>
        <time>2017-05-16T14:28:20Z</time>
      </trkpt>
      <trkpt lat="49.33993" lon="1.17917">
        <ele>131</ele>
        <time>2017-05-16T14:28:20Z</time>
      </trkpt>
      <trkpt lat="49.33988" lon="1.1792">
        <ele>131</ele>
        <time>2017-05-16T14:28:35Z</time>
      </trkpt>
      <trkpt lat="49.33982" lon="1.17922">
        <ele>131</ele>
        <time>2017-05-16T14:28:35Z</time>
      </trkpt>
      <trkpt lat="49.33979" lon="1.17923">
        <ele>131</ele>
        <time>2017-05-16T14:28:35Z</time>
      </trkpt>
      <trkpt lat="49.33974" lon="1.17925">
        <ele>131</ele>
        <time>2017-05-16T14:28:35Z</time>
      </trkpt>
      <trkpt lat="49.3397" lon="1.17928">
        <ele>131</ele>
        <time>2017-05-16T14:28:51Z</time>
      </trkpt>
      <trkpt lat="49.33964" lon="1.17929">
        <ele>131</ele>
        <time>2017-05-16T14:28:51Z</time>
      </trkpt>
      <trkpt lat="49.33959" lon="1.17932">
        <ele>131</ele>
        <time>2017-05-16T14:28:51Z</time>
      </trkpt>
      <trkpt lat="49.33954" lon="1.17934">
        <ele>130</ele>
        <time>2017-05-16T14:28:51Z</time>
      </trkpt>
      <trkpt lat="49.33948" lon="1.17936">
        <ele>130</ele>
        <time>2017-05-16T14:29:07Z</time>
      </trkpt>
      <trkpt lat="49.33943" lon="1.17939">
        <ele>130</ele>
        <time>2017-05-16T14:29:07Z</time>
      </trkpt>
      <trkpt lat="49.33939" lon="1.1794">
        <ele>130</ele>
        <time>2017-05-16T14:29:07Z</time>
      </trkpt>
      <trkpt lat="49.33934" lon="1.17944">
        <ele>130</ele>
        <time>2017-05-16T14:29:07Z</time>
      </trkpt>
      <trkpt lat="49.3393" lon="1.17946">
        <ele>130</ele>
        <time>2017-05-16T14:29:24Z</time>
      </trkpt>
      <trkpt lat="49.33924" lon="1.17949">
        <ele>130</ele>
        <time>2017-05-16T14:29:24Z</time>
      </trkpt>
      <trkpt lat="49.33921" lon="1.17949">
        <ele>130</ele>
        <time>2017-05-16T14:29:24Z</time>
      </trkpt>
      <trkpt lat="49.33915" lon="1.17952">
        <ele>130</ele>
        <time>2017-05-16T14:29:24Z</time>
      </trkpt>
      <trkpt lat="49.33911" lon="1.17953">
        <ele>130</ele>
        <time>2017-05-16T14:29:39Z</time>
      </trkpt>
      <trkpt lat="49.33907" lon="1.17956">
        <ele>130</ele>
        <time>2017-05-16T14:29:39Z</time>
      </trkpt>
      <trkpt lat="49.33901" lon="1.17957">
        <ele>130</ele>
        <time>2017-05-16T14:29:39Z</time>
      </trkpt>
      <trkpt lat="49.33898" lon="1.17958">
        <ele>130</ele>
        <time>2017-05-16T14:29:39Z</time>
      </trkpt>
      <trkpt lat="49.33892" lon="1.17961">
        <ele>130</ele>
        <time>2017-05-16T14:29:55Z</time>
      </trkpt>
      <trkpt lat="49.33888" lon="1.17963">
        <ele>130</ele>
        <time>2017-05-16T14:29:55Z</time>
      </trkpt>
      <trkpt lat="49.33883" lon="1.17965">
        <ele>130</ele>
        <time>2017-05-16T14:29:55Z</time>
      </trkpt>
      <trkpt lat="49.33878" lon="1.17968">
        <ele>130</ele>
        <time>2017-05-16T14:29:55Z</time>
      </trkpt>
      <trkpt lat="49.33872" lon="1.1797">
        <ele>129</ele>
        <time>2017-05-16T14:30:11Z</time>
      </trkpt>
      <trkpt lat="49.33868" lon="1.17971">
        <ele>129</ele>
        <time>2017-05-16T14:30:11Z</time>
      </trkpt>
      <trkpt lat="49.33863" lon="1.17974">
        <ele>129</ele>
        <time>2017-05-16T14:30:11Z</time>
      </trkpt>
      <trkpt lat="49.3386" lon="1.17975">
        <ele>129</ele>
        <time>2017-05-16T14:30:11Z</time>
      </trkpt>
      <trkpt lat="49.33854" lon="1.17977">
        <ele>129</ele>
        <time>2017-05-16T14:30:28Z</time>
      </trkpt>
      <trkpt lat="49.33851" lon="1.17979">
        <ele>129</ele>
        <time>2017-05-16T14:30:28Z</time>
      </trkpt>
      <trkpt lat="49.33846" lon="1.17981">
        <ele>129</ele>
        <time>2017-05-16T14:30:28Z</time>
      </trkpt>
      <trkpt lat="49.33842" lon="1.17983">
        <ele>129</ele>
        <time>2017-05-16T14:30:28Z</time>
      </trkpt>
      <trkpt lat="49.33837" lon="1.17985">
        <ele>129</ele>
        <time>2017-05-16T14:30:43Z</time>
      </trkpt>
      <trkpt lat="49.33833" lon="1.17987">
        <ele>129</ele>
        <time>2017-05-16T14:30:43Z</time>
      </trkpt>
      <trkpt lat="49.33828" lon="1.17989">
        <ele>129</ele>
        <time>2017-05-16T14:30:43Z</time>
      </trkpt>
      <trkpt lat="49.33823" lon="1.1799">
        <ele>129</ele>
        <time>2017-05-16T14:30:43Z</time>
      </trkpt>
      <trkpt lat="49.33818" lon="1.17994">
        <ele>129</ele>
        <time>2017-05-16T14:31:00Z</time>
      </trkpt>
      <trkpt lat="49.33814" lon="1.17996">
        <ele>129</ele>
        <time>2017-05-16T14:31:00Z</time>
      </trkpt>
      <trkpt lat="49.33809" lon="1.17998">
        <ele>129</ele>
        <time>2017-05-16T14:31:00Z</time>
      </trkpt>
      <trkpt lat="49.33804" lon="1.17998">
        <ele>129</ele>
        <time>2017-05-16T14:31:00Z</time>
      </trkpt>
      <trkpt lat="49.33799" lon="1.18002">
        <ele>129</ele>
        <time>2017-05-16T14:31:15Z</time>
      </trkpt>
      <trkpt lat="49.33793" lon="1.18004">
        <ele>129</ele>
        <time>2017-05-16T14:31:15Z</time>
      </trkpt>
      <trkpt lat="49.33787" lon="1.18007">
        <ele>127</ele>
        <time>2017-05-16T14:31:15Z</time>
      </trkpt>
      <trkpt lat="49.33784" lon="1.18009">
        <ele>127</ele>
        <time>2017-05-16T14:31:15Z</time>
      </trkpt>
      <trkpt lat="49.33779" lon="1.18011">
        <ele>127</ele>
        <time>2017-05-16T14:31:31Z</time>
      </trkpt>
      <trkpt lat="49.33774" lon="1.18013">
        <ele>127</ele>
        <time>2017-05-16T14:31:31Z</time>
      </trkpt>
      <trkpt lat="49.33769" lon="1.18015">
        <ele>127</ele>
        <time>2017-05-16T14:31:31Z</time>
      </trkpt>
      <trkpt lat="49.33766" lon="1.18016">
        <ele>127</ele>
        <time>2017-05-16T14:31:31Z</time>
      </trkpt>
      <trkpt lat="49.3376" lon="1.18019">
        <ele>127</ele>
        <time>2017-05-16T14:31:49Z</time>
      </trkpt>
      <trkpt lat="49.33756" lon="1.18019">
        <ele>127</ele>
        <time>2017-05-16T14:31:49Z</time>
      </trkpt>
      <trkpt lat="49.33753" lon="1.1802">
        <ele>127</ele>
        <time>2017-05-16T14:31:49Z</time>
      </trkpt>
      <trkpt lat="49.33745" lon="1.18024">
        <ele>127</ele>
        <time>2017-05-16T14:31:49Z</time>
      </trkpt>
      <trkpt lat="49.33741" lon="1.18026">
        <ele>127</ele>
        <time>2017-05-16T14:32:03Z</time>
      </trkpt>
      <trkpt lat="49.33736" lon="1.18028">
        <ele>127</ele>
        <time>2017-05-16T14:32:03Z</time>
      </trkpt>
      <trkpt lat="49.33732" lon="1.18029">
        <ele>127</ele>
        <time>2017-05-16T14:32:03Z</time>
      </trkpt>
      <trkpt lat="49.33728" lon="1.18031">
        <ele>127</ele>
        <time>2017-05-16T14:32:03Z</time>
      </trkpt>
      <trkpt lat="49.33722" lon="1.18034">
        <ele>127</ele>
        <time>2017-05-16T14:32:19Z</time>
      </trkpt>
      <trkpt lat="49.33717" lon="1.18035">
        <ele>127</ele>
        <time>2017-05-16T14:32:19Z</time>
      </trkpt>
      <trkpt lat="49.33714" lon="1.18036">
        <ele>127</ele>
        <time>2017-05-16T14:32:19Z</time>
      </trkpt>
      <trkpt lat="49.33709" lon="1.18038">
        <ele>127</ele>
        <time>2017-05-16T14:32:20Z</time>
      </trkpt>
      <trkpt lat="49.33705" lon="1.1804">
        <ele>126</ele>
        <time>2017-05-16T14:32:35Z</time>
      </trkpt>
      <trkpt lat="49.33697" lon="1.18043">
        <ele>126</ele>
        <time>2017-05-16T14:32:35Z</time>
      </trkpt>
      <trkpt lat="49.33694" lon="1.18044">
        <ele>126</ele>
        <time>2017-05-16T14:32:35Z</time>
      </trkpt>
      <trkpt lat="49.33689" lon="1.18047">
        <ele>126</ele>
        <time>2017-05-16T14:32:35Z</time>
      </trkpt>
      <trkpt lat="49.33684" lon="1.18048">
        <ele>126</ele>
        <time>2017-05-16T14:32:51Z</time>
      </trkpt>
      <trkpt lat="49.33679" lon="1.18051">
        <ele>126</ele>
        <time>2017-05-16T14:32:51Z</time>
      </trkpt>
      <trkpt lat="49.33674" lon="1.18053">
        <ele>126</ele>
        <time>2017-05-16T14:32:51Z</time>
      </trkpt>
      <trkpt lat="49.33669" lon="1.18055">
        <ele>126</ele>
        <time>2017-05-16T14:32:51Z</time>
      </trkpt>
      <trkpt lat="49.33665" lon="1.18057">
        <ele>126</ele>
        <time>2017-05-16T14:33:07Z</time>
      </trkpt>
      <trkpt lat="49.3366" lon="1.18058">
        <ele>126</ele>
        <time>2017-05-16T14:33:07Z</time>
      </trkpt>
      <trkpt lat="49.33656" lon="1.1806">
        <ele>126</ele>
        <time>2017-05-16T14:33:07Z</time>
      </trkpt>
      <trkpt lat="49.33653" lon="1.18062">
        <ele>126</ele>
        <time>2017-05-16T14:33:07Z</time>
      </trkpt>
      <trkpt lat="49.33646" lon="1.18064">
        <ele>126</ele>
        <time>2017-05-16T14:33:25Z</time>
      </trkpt>
      <trkpt lat="49.33642" lon="1.18064">
        <ele>126</ele>
        <time>2017-05-16T14:33:25Z</time>
      </trkpt>
      <trkpt lat="49.33637" lon="1.1806">
        <ele>126</ele>
        <time>2017-05-16T14:33:25Z</time>
      </trkpt>
      <trkpt lat="49.33631" lon="1.18058">
        <ele>126</ele>
        <time>2017-05-16T14:33:25Z</time>
      </trkpt>
      <trkpt lat="49.33628" lon="1.18056">
        <ele>126</ele>
        <time>2017-05-16T14:33:39Z</time>
      </trkpt>
      <trkpt lat="49.33623" lon="1.18052">
        <ele>125</ele>
        <time>2017-05-16T14:33:39Z</time>
      </trkpt>
      <trkpt lat="49.33618" lon="1.18048">
        <ele>125</ele>
        <time>2017-05-16T14:33:39Z</time>
      </trkpt>
      <trkpt lat="49.33613" lon="1.18044">
        <ele>125</ele>
        <time>2017-05-16T14:33:39Z</time>
      </trkpt>
      <trkpt lat="49.33608" lon="1.18041">
        <ele>124</ele>
        <time>2017-05-16T14:33:55Z</time>
      </trkpt>
      <trkpt lat="49.33606" lon="1.18039">
        <ele>124</ele>
        <time>2017-05-16T14:33:55Z</time>
      </trkpt>
      <trkpt lat="49.33601" lon="1.18041">
        <ele>124</ele>
        <time>2017-05-16T14:33:55Z</time>
      </trkpt>
      <trkpt lat="49.33598" lon="1.18039">
        <ele>124</ele>
        <time>2017-05-16T14:33:55Z</time>
      </trkpt>
      <trkpt lat="49.33595" lon="1.18036">
        <ele>124</ele>
        <time>2017-05-16T14:34:11Z</time>
      </trkpt>
      <trkpt lat="49.33593" lon="1.18033">
        <ele>124</ele>
        <time>2017-05-16T14:34:11Z</time>
      </trkpt>
      <trkpt lat="49.33588" lon="1.18029">
        <ele>124</ele>
        <time>2017-05-16T14:34:11Z</time>
      </trkpt>
      <trkpt lat="49.33583" lon="1.18024">
        <ele>124</ele>
        <time>2017-05-16T14:34:11Z</time>
      </trkpt>
      <trkpt lat="49.33579" lon="1.18021">
        <ele>124</ele>
        <time>2017-05-16T14:34:27Z</time>
      </trkpt>
      <trkpt lat="49.33576" lon="1.1802">
        <ele>124</ele>
        <time>2017-05-16T14:34:27Z</time>
      </trkpt>
      <trkpt lat="49.33571" lon="1.18016">
        <ele>124</ele>
        <time>2017-05-16T14:34:27Z</time>
      </trkpt>
      <trkpt lat="49.33567" lon="1.18011">
        <ele>124</ele>
        <time>2017-05-16T14:34:27Z</time>
      </trkpt>
      <trkpt lat="49.33562" lon="1.18008">
        <ele>124</ele>
        <time>2017-05-16T14:34:43Z</time>
      </trkpt>
      <trkpt lat="49.33558" lon="1.18005">
        <ele>124</ele>
        <time>2017-05-16T14:34:43Z</time>
      </trkpt>
      <trkpt lat="49.33552" lon="1.17999">
        <ele>124</ele>
        <time>2017-05-16T14:34:43Z</time>
      </trkpt>
      <trkpt lat="49.33548" lon="1.17995">
        <ele>124</ele>
        <time>2017-05-16T14:34:43Z</time>
      </trkpt>
      <trkpt lat="49.33542" lon="1.17993">
        <ele>124</ele>
        <time>2017-05-16T14:34:59Z</time>
      </trkpt>
      <trkpt lat="49.33538" lon="1.17989">
        <ele>125</ele>
        <time>2017-05-16T14:34:59Z</time>
      </trkpt>
      <trkpt lat="49.33534" lon="1.17985">
        <ele>125</ele>
        <time>2017-05-16T14:34:59Z</time>
      </trkpt>
      <trkpt lat="49.3353" lon="1.17983">
        <ele>125</ele>
        <time>2017-05-16T14:34:59Z</time>
      </trkpt>
      <trkpt lat="49.33524" lon="1.17978">
        <ele>125</ele>
        <time>2017-05-16T14:35:16Z</time>
      </trkpt>
      <trkpt lat="49.33518" lon="1.17973">
        <ele>125</ele>
        <time>2017-05-16T14:35:16Z</time>
      </trkpt>
      <trkpt lat="49.33516" lon="1.17971">
        <ele>125</ele>
        <time>2017-05-16T14:35:16Z</time>
      </trkpt>
      <trkpt lat="49.3351" lon="1.17966">
        <ele>125</ele>
        <time>2017-05-16T14:35:16Z</time>
      </trkpt>
      <trkpt lat="49.33507" lon="1.17964">
        <ele>125</ele>
        <time>2017-05-16T14:35:32Z</time>
      </trkpt>
      <trkpt lat="49.33501" lon="1.17959">
        <ele>125</ele>
        <time>2017-05-16T14:35:32Z</time>
      </trkpt>
      <trkpt lat="49.33497" lon="1.17954">
        <ele>125</ele>
        <time>2017-05-16T14:35:32Z</time>
      </trkpt>
      <trkpt lat="49.33493" lon="1.17952">
        <ele>125</ele>
        <time>2017-05-16T14:35:32Z</time>
      </trkpt>
      <trkpt lat="49.33488" lon="1.17947">
        <ele>125</ele>
        <time>2017-05-16T14:35:49Z</time>
      </trkpt>
      <trkpt lat="49.33485" lon="1.17942">
        <ele>125</ele>
        <time>2017-05-16T14:35:49Z</time>
      </trkpt>
      <trkpt lat="49.33481" lon="1.17938">
        <ele>125</ele>
        <time>2017-05-16T14:35:49Z</time>
      </trkpt>
      <trkpt lat="49.33476" lon="1.17934">
        <ele>125</ele>
        <time>2017-05-16T14:35:49Z</time>
      </trkpt>
      <trkpt lat="49.33471" lon="1.17929">
        <ele>125</ele>
        <time>2017-05-16T14:36:03Z</time>
      </trkpt>
      <trkpt lat="49.33467" lon="1.17925">
        <ele>125</ele>
        <time>2017-05-16T14:36:03Z</time>
      </trkpt>
      <trkpt lat="49.33462" lon="1.17921">
        <ele>125</ele>
        <time>2017-05-16T14:36:03Z</time>
      </trkpt>
      <trkpt lat="49.33457" lon="1.17915">
        <ele>124</ele>
        <time>2017-05-16T14:36:03Z</time>
      </trkpt>
      <trkpt lat="49.33454" lon="1.17912">
        <ele>124</ele>
        <time>2017-05-16T14:36:19Z</time>
      </trkpt>
      <trkpt lat="49.33448" lon="1.17905">
        <ele>124</ele>
        <time>2017-05-16T14:36:19Z</time>
      </trkpt>
      <trkpt lat="49.33445" lon="1.17902">
        <ele>124</ele>
        <time>2017-05-16T14:36:19Z</time>
      </trkpt>
      <trkpt lat="49.33442" lon="1.17899">
        <ele>124</ele>
        <time>2017-05-16T14:36:19Z</time>
      </trkpt>
      <trkpt lat="49.33438" lon="1.17893">
        <ele>124</ele>
        <time>2017-05-16T14:36:35Z</time>
      </trkpt>
      <trkpt lat="49.33435" lon="1.1789">
        <ele>124</ele>
        <time>2017-05-16T14:36:35Z</time>
      </trkpt>
      <trkpt lat="49.3343" lon="1.17886">
        <ele>124</ele>
        <time>2017-05-16T14:36:35Z</time>
      </trkpt>
      <trkpt lat="49.33426" lon="1.1788">
        <ele>124</ele>
        <time>2017-05-16T14:36:35Z</time>
      </trkpt>
      <trkpt lat="49.33421" lon="1.17876">
        <ele>124</ele>
        <time>2017-05-16T14:36:53Z</time>
      </trkpt>
      <trkpt lat="49.33417" lon="1.1787">
        <ele>122</ele>
        <time>2017-05-16T14:36:53Z</time>
      </trkpt>
      <trkpt lat="49.33414" lon="1.17867">
        <ele>122</ele>
        <time>2017-05-16T14:36:53Z</time>
      </trkpt>
      <trkpt lat="49.33408" lon="1.17859">
        <ele>122</ele>
        <time>2017-05-16T14:36:53Z</time>
      </trkpt>
      <trkpt lat="49.33404" lon="1.17855">
        <ele>122</ele>
        <time>2017-05-16T14:37:07Z</time>
      </trkpt>
      <trkpt lat="49.33401" lon="1.17852">
        <ele>122</ele>
        <time>2017-05-16T14:37:07Z</time>
      </trkpt>
      <trkpt lat="49.334" lon="1.17847">
        <ele>122</ele>
        <time>2017-05-16T14:37:07Z</time>
      </trkpt>
      <trkpt lat="49.33395" lon="1.17841">
        <ele>122</ele>
        <time>2017-05-16T14:37:07Z</time>
      </trkpt>
      <trkpt lat="49.3339" lon="1.17837">
        <ele>122</ele>
        <time>2017-05-16T14:37:24Z</time>
      </trkpt>
      <trkpt lat="49.33387" lon="1.17834">
        <ele>122</ele>
        <time>2017-05-16T14:37:24Z</time>
      </trkpt>
      <trkpt lat="49.33383" lon="1.1783">
        <ele>122</ele>
        <time>2017-05-16T14:37:24Z</time>
      </trkpt>
      <trkpt lat="49.33379" lon="1.17825">
        <ele>122</ele>
        <time>2017-05-16T14:37:24Z</time>
      </trkpt>
      <trkpt lat="49.33375" lon="1.1782">
        <ele>121</ele>
        <time>2017-05-16T14:37:39Z</time>
      </trkpt>
      <trkpt lat="49.33371" lon="1.17816">
        <ele>121</ele>
        <time>2017-05-16T14:37:39Z</time>
      </trkpt>
      <trkpt lat="49.33365" lon="1.17809">
        <ele>121</ele>
        <time>2017-05-16T14:37:39Z</time>
      </trkpt>
      <trkpt lat="49.33362" lon="1.17806">
        <ele>121</ele>
        <time>2017-05-16T14:37:39Z</time>
      </trkpt>
      <trkpt lat="49.33358" lon="1.178">
        <ele>121</ele>
        <time>2017-05-16T14:37:57Z</time>
      </trkpt>
      <trkpt lat="49.33353" lon="1.17795">
        <ele>121</ele>
        <time>2017-05-16T14:37:57Z</time>
      </trkpt>
      <trkpt lat="49.3335" lon="1.17791">
        <ele>122</ele>
        <time>2017-05-16T14:37:57Z</time>
      </trkpt>
      <trkpt lat="49.33344" lon="1.17786">
        <ele>122</ele>
        <time>2017-05-16T14:37:57Z</time>
      </trkpt>
      <trkpt lat="49.33341" lon="1.17783">
        <ele>122</ele>
        <time>2017-05-16T14:38:11Z</time>
      </trkpt>
      <trkpt lat="49.33337" lon="1.1778">
        <ele>122</ele>
        <time>2017-05-16T14:38:11Z</time>
      </trkpt>
      <trkpt lat="49.33331" lon="1.17776">
        <ele>122</ele>
        <time>2017-05-16T14:38:11Z</time>
      </trkpt>
      <trkpt lat="49.33327" lon="1.17774">
        <ele>122</ele>
        <time>2017-05-16T14:38:12Z</time>
      </trkpt>
      <trkpt lat="49.33322" lon="1.17772">
        <ele>122</ele>
        <time>2017-05-16T14:38:27Z</time>
      </trkpt>
      <trkpt lat="49.33316" lon="1.1777">
        <ele>122</ele>
        <time>2017-05-16T14:38:27Z</time>
      </trkpt>
      <trkpt lat="49.33313" lon="1.17769">
        <ele>122</ele>
        <time>2017-05-16T14:38:27Z</time>
      </trkpt>
      <trkpt lat="49.33308" lon="1.17769">
        <ele>122</ele>
        <time>2017-05-16T14:38:27Z</time>
      </trkpt>
      <trkpt lat="49.33302" lon="1.17772">
        <ele>122</ele>
        <time>2017-05-16T14:38:44Z</time>
      </trkpt>
      <trkpt lat="49.33299" lon="1.17773">
        <ele>122</ele>
        <time>2017-05-16T14:38:44Z</time>
      </trkpt>
      <trkpt lat="49.33295" lon="1.1778">
        <ele>122</ele>
        <time>2017-05-16T14:38:44Z</time>
      </trkpt>
      <trkpt lat="49.33292" lon="1.17788">
        <ele>122</ele>
        <time>2017-05-16T14:38:44Z</time>
      </trkpt>
      <trkpt lat="49.3329" lon="1.17794">
        <ele>121</ele>
        <time>2017-05-16T14:38:59Z</time>
      </trkpt>
      <trkpt lat="49.33288" lon="1.178">
        <ele>121</ele>
        <time>2017-05-16T14:38:59Z</time>
      </trkpt>
      <trkpt lat="49.33286" lon="1.17807">
        <ele>121</ele>
        <time>2017-05-16T14:38:59Z</time>
      </trkpt>
      <trkpt lat="49.33284" lon="1.17815">
        <ele>121</ele>
        <time>2017-05-16T14:38:59Z</time>
      </trkpt>
      <trkpt lat="49.33281" lon="1.17826">
        <ele>121</ele>
        <time>2017-05-16T14:39:15Z</time>
      </trkpt>
      <trkpt lat="49.3328" lon="1.17829">
        <ele>121</ele>
        <time>2017-05-16T14:39:15Z</time>
      </trkpt>
      <trkpt lat="49.33279" lon="1.17832">
        <ele>121</ele>
        <time>2017-05-16T14:39:15Z</time>
      </trkpt>
      <trkpt lat="49.33278" lon="1.17839">
        <ele>121</ele>
        <time>2017-05-16T14:39:15Z</time>
      </trkpt>
      <trkpt lat="49.33277" lon="1.17844">
        <ele>121</ele>
        <time>2017-05-16T14:39:32Z</time>
      </trkpt>
      <trkpt lat="49.33275" lon="1.17851">
        <ele>121</ele>
        <time>2017-05-16T14:39:32Z</time>
      </trkpt>
      <trkpt lat="49.33272" lon="1.17859">
        <ele>121</ele>
        <time>2017-05-16T14:39:32Z</time>
      </trkpt>
      <trkpt lat="49.3327" lon="1.17865">
        <ele>121</ele>
        <time>2017-05-16T14:39:32Z</time>
      </trkpt>
      <trkpt lat="49.33268" lon="1.17874">
        <ele>121</ele>
        <time>2017-05-16T14:39:49Z</time>
      </trkpt>
      <trkpt lat="49.33265" lon="1.1788">
        <ele>121</ele>
        <time>2017-05-16T14:39:49Z</time>
      </trkpt>
      <trkpt lat="49.33263" lon="1.17887">
        <ele>121</ele>
        <time>2017-05-16T14:39:49Z</time>
      </trkpt>
      <trkpt lat="49.33259" lon="1.17896">
        <ele>121</ele>
        <time>2017-05-16T14:39:49Z</time>
      </trkpt>
      <trkpt lat="49.33257" lon="1.17903">
        <ele>121</ele>
        <time>2017-05-16T14:40:03Z</time>
      </trkpt>
      <trkpt lat="49.33255" lon="1.17909">
        <ele>121</ele>
        <time>2017-05-16T14:40:03Z</time>
      </trkpt>
      <trkpt lat="49.33253" lon="1.17916">
        <ele>121</ele>
        <time>2017-05-16T14:40:03Z</time>
      </trkpt>
      <trkpt lat="49.3325" lon="1.17923">
        <ele>121</ele>
        <time>2017-05-16T14:40:03Z</time>
      </trkpt>
      <trkpt lat="49.33248" lon="1.1793">
        <ele>121</ele>
        <time>2017-05-16T14:40:20Z</time>
      </trkpt>
      <trkpt lat="49.33246" lon="1.17939">
        <ele>121</ele>
        <time>2017-05-16T14:40:20Z</time>
      </trkpt>
      <trkpt lat="49.33244" lon="1.17945">
        <ele>121</ele>
        <time>2017-05-16T14:40:20Z</time>
      </trkpt>
      <trkpt lat="49.33242" lon="1.17954">
        <ele>121</ele>
        <time>2017-05-16T14:40:20Z</time>
      </trkpt>
      <trkpt lat="49.3324" lon="1.17959">
        <ele>121</ele>
        <time>2017-05-16T14:40:35Z</time>
      </trkpt>
      <trkpt lat="49.33238" lon="1.17966">
        <ele>121</ele>
        <time>2017-05-16T14:40:35Z</time>
      </trkpt>
      <trkpt lat="49.33236" lon="1.17973">
        <ele>121</ele>
        <time>2017-05-16T14:40:35Z</time>
      </trkpt>
      <trkpt lat="49.33234" lon="1.17978">
        <ele>121</ele>
        <time>2017-05-16T14:40:35Z</time>
      </trkpt>
      <trkpt lat="49.33231" lon="1.17985">
        <ele>121</ele>
        <time>2017-05-16T14:40:52Z</time>
      </trkpt>
      <trkpt lat="49.3323" lon="1.17993">
        <ele>121</ele>
        <time>2017-05-16T14:40:52Z</time>
      </trkpt>
      <trkpt lat="49.33229" lon="1.18">
        <ele>121</ele>
        <time>2017-05-16T14:40:52Z</time>
      </trkpt>
      <trkpt lat="49.33228" lon="1.18003">
        <ele>121</ele>
        <time>2017-05-16T14:40:52Z</time>
      </trkpt>
      <trkpt lat="49.33224" lon="1.18012">
        <ele>121</ele>
        <time>2017-05-16T14:41:07Z</time>
      </trkpt>
      <trkpt lat="49.33222" lon="1.18018">
        <ele>121</ele>
        <time>2017-05-16T14:41:07Z</time>
      </trkpt>
      <trkpt lat="49.33219" lon="1.18028">
        <ele>121</ele>
        <time>2017-05-16T14:41:07Z</time>
      </trkpt>
      <trkpt lat="49.33218" lon="1.18034">
        <ele>121</ele>
        <time>2017-05-16T14:41:07Z</time>
      </trkpt>
      <trkpt lat="49.33217" lon="1.1804">
        <ele>121</ele>
        <time>2017-05-16T14:41:23Z</time>
      </trkpt>
      <trkpt lat="49.33213" lon="1.18051">
        <ele>121</ele>
        <time>2017-05-16T14:41:23Z</time>
      </trkpt>
      <trkpt lat="49.33211" lon="1.18057">
        <ele>121</ele>
        <time>2017-05-16T14:41:23Z</time>
      </trkpt>
      <trkpt lat="49.33209" lon="1.18065">
        <ele>121</ele>
        <time>2017-05-16T14:41:23Z</time>
      </trkpt>
      <trkpt lat="49.33207" lon="1.18072">
        <ele>123</ele>
        <time>2017-05-16T14:41:39Z</time>
      </trkpt>
      <trkpt lat="49.33205" lon="1.18079">
        <ele>123</ele>
        <time>2017-05-16T14:41:39Z</time>
      </trkpt>
      <trkpt lat="49.33203" lon="1.18084">
        <ele>123</ele>
        <time>2017-05-16T14:41:39Z</time>
      </trkpt>
      <trkpt lat="49.33201" lon="1.18089">
        <ele>123</ele>
        <time>2017-05-16T14:41:39Z</time>
      </trkpt>
      <trkpt lat="49.33199" lon="1.18097">
        <ele>123</ele>
        <time>2017-05-16T14:41:57Z</time>
      </trkpt>
      <trkpt lat="49.33196" lon="1.18108">
        <ele>123</ele>
        <time>2017-05-16T14:41:57Z</time>
      </trkpt>
      <trkpt lat="49.33194" lon="1.18114">
        <ele>123</ele>
        <time>2017-05-16T14:41:57Z</time>
      </trkpt>
      <trkpt lat="49.33192" lon="1.18119">
        <ele>123</ele>
        <time>2017-05-16T14:41:57Z</time>
      </trkpt>
      <trkpt lat="49.33192" lon="1.18126">
        <ele>123</ele>
        <time>2017-05-16T14:42:12Z</time>
      </trkpt>
      <trkpt lat="49.33188" lon="1.18134">
        <ele>123</ele>
        <time>2017-05-16T14:42:12Z</time>
      </trkpt>
      <trkpt lat="49.33186" lon="1.18138">
        <ele>123</ele>
        <time>2017-05-16T14:42:12Z</time>
      </trkpt>
      <trkpt lat="49.33184" lon="1.18146">
        <ele>123</ele>
        <time>2017-05-16T14:42:12Z</time>
      </trkpt>
      <trkpt lat="49.33181" lon="1.18154">
        <ele>123</ele>
        <time>2017-05-16T14:42:27Z</time>
      </trkpt>
      <trkpt lat="49.33178" lon="1.18159">
        <ele>123</ele>
        <time>2017-05-16T14:42:27Z</time>
      </trkpt>
      <trkpt lat="49.33176" lon="1.18164">
        <ele>123</ele>
        <time>2017-05-16T14:42:27Z</time>
      </trkpt>
      <trkpt lat="49.33175" lon="1.18167">
        <ele>123</ele>
        <time>2017-05-16T14:42:27Z</time>
      </trkpt>
      <trkpt lat="49.33174" lon="1.18176">
        <ele>123</ele>
        <time>2017-05-16T14:42:43Z</time>
      </trkpt>
      <trkpt lat="49.33171" lon="1.18183">
        <ele>123</ele>
        <time>2017-05-16T14:42:43Z</time>
      </trkpt>
      <trkpt lat="49.3317" lon="1.18188">
        <ele>123</ele>
        <time>2017-05-16T14:42:43Z</time>
      </trkpt>
      <trkpt lat="49.33168" lon="1.18194">
        <ele>123</ele>
        <time>2017-05-16T14:42:43Z</time>
      </trkpt>
      <trkpt lat="49.33166" lon="1.182">
        <ele>123</ele>
        <time>2017-05-16T14:43:00Z</time>
      </trkpt>
      <trkpt lat="49.33164" lon="1.18207">
        <ele>123</ele>
        <time>2017-05-16T14:43:00Z</time>
      </trkpt>
      <trkpt lat="49.33161" lon="1.18214">
        <ele>119</ele>
        <time>2017-05-16T14:43:00Z</time>
      </trkpt>
      <trkpt lat="49.33159" lon="1.1822">
        <ele>119</ele>
        <time>2017-05-16T14:43:00Z</time>
      </trkpt>
      <trkpt lat="49.33158" lon="1.18228">
        <ele>119</ele>
        <time>2017-05-16T14:43:16Z</time>
      </trkpt>
      <trkpt lat="49.33156" lon="1.18237">
        <ele>119</ele>
        <time>2017-05-16T14:43:16Z</time>
      </trkpt>
      <trkpt lat="49.33155" lon="1.18243">
        <ele>119</ele>
        <time>2017-05-16T14:43:16Z</time>
      </trkpt>
      <trkpt lat="49.33153" lon="1.1825">
        <ele>119</ele>
        <time>2017-05-16T14:43:16Z</time>
      </trkpt>
      <trkpt lat="49.3315" lon="1.18258">
        <ele>119</ele>
        <time>2017-05-16T14:43:31Z</time>
      </trkpt>
      <trkpt lat="49.33148" lon="1.18265">
        <ele>119</ele>
        <time>2017-05-16T14:43:31Z</time>
      </trkpt>
      <trkpt lat="49.33146" lon="1.18271">
        <ele>119</ele>
        <time>2017-05-16T14:43:31Z</time>
      </trkpt>
      <trkpt lat="49.33144" lon="1.1828">
        <ele>119</ele>
        <time>2017-05-16T14:43:31Z</time>
      </trkpt>
      <trkpt lat="49.33141" lon="1.18289">
        <ele>119</ele>
        <time>2017-05-16T14:43:48Z</time>
      </trkpt>
      <trkpt lat="49.33139" lon="1.18295">
        <ele>116</ele>
        <time>2017-05-16T14:43:48Z</time>
      </trkpt>
      <trkpt lat="49.33136" lon="1.18302">
        <ele>116</ele>
        <time>2017-05-16T14:43:48Z</time>
      </trkpt>
      <trkpt lat="49.33134" lon="1.18307">
        <ele>116</ele>
        <time>2017-05-16T14:43:48Z</time>
      </trkpt>
      <trkpt lat="49.33133" lon="1.18312">
        <ele>116</ele>
        <time>2017-05-16T14:44:04Z</time>
      </trkpt>
      <trkpt lat="49.33132" lon="1.18322">
        <ele>116</ele>
        <time>2017-05-16T14:44:04Z</time>
      </trkpt>
      <trkpt lat="49.3313" lon="1.18329">
        <ele>116</ele>
        <time>2017-05-16T14:44:04Z</time>
      </trkpt>
      <trkpt lat="49.33129" lon="1.18336">
        <ele>116</ele>
        <time>2017-05-16T14:44:04Z</time>
      </trkpt>
      <trkpt lat="49.33127" lon="1.18344">
        <ele>116</ele>
        <time>2017-05-16T14:44:19Z</time>
      </trkpt>
      <trkpt lat="49.33125" lon="1.18351">
        <ele>120</ele>
        <time>2017-05-16T14:44:19Z</time>
      </trkpt>
      <trkpt lat="49.33123" lon="1.18358">
        <ele>120</ele>
        <time>2017-05-16T14:44:19Z</time>
      </trkpt>
      <trkpt lat="49.33121" lon="1.18365">
        <ele>120</ele>
        <time>2017-05-16T14:44:19Z</time>
      </trkpt>
      <trkpt lat="49.33119" lon="1.1837">
        <ele>120</ele>
        <time>2017-05-16T14:44:35Z</time>
      </trkpt>
      <trkpt lat="49.33117" lon="1.18379">
        <ele>115</ele>
        <time>2017-05-16T14:44:35Z</time>
      </trkpt>
      <trkpt lat="49.33115" lon="1.18385">
        <ele>115</ele>
        <time>2017-05-16T14:44:35Z</time>
      </trkpt>
      <trkpt lat="49.33113" lon="1.18391">
        <ele>115</ele>
        <time>2017-05-16T14:44:35Z</time>
      </trkpt>
      <trkpt lat="49.33111" lon="1.18398">
        <ele>115</ele>
        <time>2017-05-16T14:44:51Z</time>
      </trkpt>
      <trkpt lat="49.33109" lon="1.18403">
        <ele>115</ele>
        <time>2017-05-16T14:44:51Z</time>
      </trkpt>
      <trkpt lat="49.33106" lon="1.18413">
        <ele>115</ele>
        <time>2017-05-16T14:44:51Z</time>
      </trkpt>
      <trkpt lat="49.33104" lon="1.1842">
        <ele>115</ele>
        <time>2017-05-16T14:44:51Z</time>
      </trkpt>
      <trkpt lat="49.33102" lon="1.18427">
        <ele>115</ele>
        <time>2017-05-16T14:45:08Z</time>
      </trkpt>
      <trkpt lat="49.33099" lon="1.18435">
        <ele>115</ele>
        <time>2017-05-16T14:45:08Z</time>
      </trkpt>
      <trkpt lat="49.33097" lon="1.18441">
        <ele>115</ele>
        <time>2017-05-16T14:45:08Z</time>
      </trkpt>
      <trkpt lat="49.33095" lon="1.18448">
        <ele>115</ele>
        <time>2017-05-16T14:45:08Z</time>
      </trkpt>
      <trkpt lat="49.33093" lon="1.18455">
        <ele>115</ele>
        <time>2017-05-16T14:45:23Z</time>
      </trkpt>
      <trkpt lat="49.33091" lon="1.18462">
        <ele>112</ele>
        <time>2017-05-16T14:45:23Z</time>
      </trkpt>
      <trkpt lat="49.33088" lon="1.18473">
        <ele>112</ele>
        <time>2017-05-16T14:45:23Z</time>
      </trkpt>
      <trkpt lat="49.33087" lon="1.18477">
        <ele>112</ele>
        <time>2017-05-16T14:45:23Z</time>
      </trkpt>
      <trkpt lat="49.33084" lon="1.18485">
        <ele>112</ele>
        <time>2017-05-16T14:45:41Z</time>
      </trkpt>
      <trkpt lat="49.33082" lon="1.1849">
        <ele>112</ele>
        <time>2017-05-16T14:45:41Z</time>
      </trkpt>
      <trkpt lat="49.3308" lon="1.18501">
        <ele>112</ele>
        <time>2017-05-16T14:45:41Z</time>
      </trkpt>
      <trkpt lat="49.33077" lon="1.18507">
        <ele>112</ele>
        <time>2017-05-16T14:45:41Z</time>
      </trkpt>
      <trkpt lat="49.33075" lon="1.18513">
        <ele>112</ele>
        <time>2017-05-16T14:45:55Z</time>
      </trkpt>
      <trkpt lat="49.33074" lon="1.1852">
        <ele>112</ele>
        <time>2017-05-16T14:45:55Z</time>
      </trkpt>
      <trkpt lat="49.33072" lon="1.18528">
        <ele>112</ele>
        <time>2017-05-16T14:45:55Z</time>
      </trkpt>
      <trkpt lat="49.3307" lon="1.18535">
        <ele>112</ele>
        <time>2017-05-16T14:45:55Z</time>
      </trkpt>
      <trkpt lat="49.33067" lon="1.18543">
        <ele>111</ele>
        <time>2017-05-16T14:46:11Z</time>
      </trkpt>
      <trkpt lat="49.33064" lon="1.18551">
        <ele>111</ele>
        <time>2017-05-16T14:46:11Z</time>
      </trkpt>
      <trkpt lat="49.33061" lon="1.18559">
        <ele>111</ele>
        <time>2017-05-16T14:46:11Z</time>
      </trkpt>
      <trkpt lat="49.33058" lon="1.18564">
        <ele>111</ele>
        <time>2017-05-16T14:46:11Z</time>
      </trkpt>
      <trkpt lat="49.33057" lon="1.18568">
        <ele>111</ele>
        <time>2017-05-16T14:46:27Z</time>
      </trkpt>
      <trkpt lat="49.33054" lon="1.18579">
        <ele>111</ele>
        <time>2017-05-16T14:46:27Z</time>
      </trkpt>
      <trkpt lat="49.33052" lon="1.18583">
        <ele>111</ele>
        <time>2017-05-16T14:46:27Z</time>
      </trkpt>
      <trkpt lat="49.3305" lon="1.18591">
        <ele>111</ele>
        <time>2017-05-16T14:46:27Z</time>
      </trkpt>
      <trkpt lat="49.33047" lon="1.18599">
        <ele>111</ele>
        <time>2017-05-16T14:46:47Z</time>
      </trkpt>
      <trkpt lat="49.33046" lon="1.18605">
        <ele>111</ele>
        <time>2017-05-16T14:46:47Z</time>
      </trkpt>
      <trkpt lat="49.33042" lon="1.18613">
        <ele>111</ele>
        <time>2017-05-16T14:46:47Z</time>
      </trkpt>
      <trkpt lat="49.33039" lon="1.18623">
        <ele>114</ele>
        <time>2017-05-16T14:46:47Z</time>
      </trkpt>
      <trkpt lat="49.33038" lon="1.18628">
        <ele>113</ele>
        <time>2017-05-16T14:47:05Z</time>
      </trkpt>
      <trkpt lat="49.33032" lon="1.18637">
        <ele>113</ele>
        <time>2017-05-16T14:47:05Z</time>
      </trkpt>
      <trkpt lat="49.33032" lon="1.18644">
        <ele>113</ele>
        <time>2017-05-16T14:47:05Z</time>
      </trkpt>
      <trkpt lat="49.33028" lon="1.18655">
        <ele>113</ele>
        <time>2017-05-16T14:47:05Z</time>
      </trkpt>
      <trkpt lat="49.33028" lon="1.1866">
        <ele>113</ele>
        <time>2017-05-16T14:47:21Z</time>
      </trkpt>
      <trkpt lat="49.33025" lon="1.18669">
        <ele>113</ele>
        <time>2017-05-16T14:47:21Z</time>
      </trkpt>
      <trkpt lat="49.33024" lon="1.18673">
        <ele>113</ele>
        <time>2017-05-16T14:47:21Z</time>
      </trkpt>
      <trkpt lat="49.33022" lon="1.18682">
        <ele>113</ele>
        <time>2017-05-16T14:47:22Z</time>
      </trkpt>
      <trkpt lat="49.33021" lon="1.18687">
        <ele>113</ele>
        <time>2017-05-16T14:47:36Z</time>
      </trkpt>
      <trkpt lat="49.3302" lon="1.18692">
        <ele>113</ele>
        <time>2017-05-16T14:47:37Z</time>
      </trkpt>
      <trkpt lat="49.33017" lon="1.18699">
        <ele>113</ele>
        <time>2017-05-16T14:47:37Z</time>
      </trkpt>
      <trkpt lat="49.33015" lon="1.18706">
        <ele>113</ele>
        <time>2017-05-16T14:47:37Z</time>
      </trkpt>
      <trkpt lat="49.33013" lon="1.18713">
        <ele>109</ele>
        <time>2017-05-16T14:47:51Z</time>
      </trkpt>
      <trkpt lat="49.3301" lon="1.18723">
        <ele>109</ele>
        <time>2017-05-16T14:47:51Z</time>
      </trkpt>
      <trkpt lat="49.33007" lon="1.18734">
        <ele>109</ele>
        <time>2017-05-16T14:47:52Z</time>
      </trkpt>
      <trkpt lat="49.33001" lon="1.18742">
        <ele>109</ele>
        <time>2017-05-16T14:47:52Z</time>
      </trkpt>
      <trkpt lat="49.33" lon="1.18751">
        <ele>109</ele>
        <time>2017-05-16T14:48:07Z</time>
      </trkpt>
      <trkpt lat="49.32998" lon="1.18759">
        <ele>109</ele>
        <time>2017-05-16T14:48:07Z</time>
      </trkpt>
      <trkpt lat="49.32996" lon="1.18763">
        <ele>109</ele>
        <time>2017-05-16T14:48:07Z</time>
      </trkpt>
      <trkpt lat="49.32995" lon="1.18767">
        <ele>109</ele>
        <time>2017-05-16T14:48:07Z</time>
      </trkpt>
      <trkpt lat="49.32995" lon="1.18768">
        <ele>109</ele>
        <time>2017-05-16T14:48:23Z</time>
      </trkpt>
      <trkpt lat="49.32993" lon="1.18774">
        <ele>109</ele>
        <time>2017-05-16T14:48:23Z</time>
      </trkpt>
      <trkpt lat="49.32992" lon="1.18776">
        <ele>109</ele>
        <time>2017-05-16T14:48:23Z</time>
      </trkpt>
      <trkpt lat="49.32988" lon="1.18783">
        <ele>109</ele>
        <time>2017-05-16T14:48:23Z</time>
      </trkpt>
      <trkpt lat="49.32987" lon="1.1879">
        <ele>109</ele>
        <time>2017-05-16T14:48:39Z</time>
      </trkpt>
      <trkpt lat="49.32987" lon="1.18797">
        <ele>105</ele>
        <time>2017-05-16T14:48:40Z</time>
      </trkpt>
      <trkpt lat="49.32985" lon="1.18802">
        <ele>105</ele>
        <time>2017-05-16T14:48:40Z</time>
      </trkpt>
      <trkpt lat="49.32983" lon="1.18811">
        <ele>105</ele>
        <time>2017-05-16T14:48:40Z</time>
      </trkpt>
      <trkpt lat="49.32982" lon="1.1882">
        <ele>105</ele>
        <time>2017-05-16T14:48:57Z</time>
      </trkpt>
      <trkpt lat="49.32982" lon="1.18823">
        <ele>105</ele>
        <time>2017-05-16T14:48:57Z</time>
      </trkpt>
      <trkpt lat="49.32978" lon="1.18832">
        <ele>105</ele>
        <time>2017-05-16T14:48:57Z</time>
      </trkpt>
      <trkpt lat="49.32976" lon="1.18841">
        <ele>105</ele>
        <time>2017-05-16T14:48:57Z</time>
      </trkpt>
      <trkpt lat="49.32974" lon="1.18845">
        <ele>105</ele>
        <time>2017-05-16T14:49:12Z</time>
      </trkpt>
      <trkpt lat="49.32973" lon="1.18852">
        <ele>105</ele>
        <time>2017-05-16T14:49:12Z</time>
      </trkpt>
      <trkpt lat="49.3297" lon="1.18857">
        <ele>105</ele>
        <time>2017-05-16T14:49:14Z</time>
      </trkpt>
      <trkpt lat="49.32968" lon="1.18866">
        <ele>105</ele>
        <time>2017-05-16T14:49:14Z</time>
      </trkpt>
      <trkpt lat="49.32968" lon="1.18869">
        <ele>105</ele>
        <time>2017-05-16T14:49:27Z</time>
      </trkpt>
      <trkpt lat="49.32965" lon="1.18875">
        <ele>98</ele>
        <time>2017-05-16T14:49:27Z</time>
      </trkpt>
      <trkpt lat="49.32962" lon="1.18884">
        <ele>98</ele>
        <time>2017-05-16T14:49:27Z</time>
      </trkpt>
      <trkpt lat="49.32961" lon="1.1889">
        <ele>98</ele>
        <time>2017-05-16T14:49:27Z</time>
      </trkpt>
      <trkpt lat="49.32959" lon="1.18896">
        <ele>98</ele>
        <time>2017-05-16T14:49:43Z</time>
      </trkpt>
      <trkpt lat="49.32958" lon="1.18902">
        <ele>93</ele>
        <time>2017-05-16T14:49:43Z</time>
      </trkpt>
      <trkpt lat="49.32957" lon="1.18907">
        <ele>93</ele>
        <time>2017-05-16T14:49:43Z</time>
      </trkpt>
      <trkpt lat="49.32954" lon="1.18916">
        <ele>93</ele>
        <time>2017-05-16T14:49:43Z</time>
      </trkpt>
      <trkpt lat="49.32952" lon="1.18922">
        <ele>93</ele>
        <time>2017-05-16T14:49:59Z</time>
      </trkpt>
      <trkpt lat="49.32948" lon="1.18931">
        <ele>93</ele>
        <time>2017-05-16T14:49:59Z</time>
      </trkpt>
      <trkpt lat="49.32948" lon="1.18935">
        <ele>93</ele>
        <time>2017-05-16T14:49:59Z</time>
      </trkpt>
      <trkpt lat="49.32946" lon="1.18943">
        <ele>93</ele>
        <time>2017-05-16T14:49:59Z</time>
      </trkpt>
      <trkpt lat="49.32944" lon="1.1895">
        <ele>93</ele>
        <time>2017-05-16T14:50:15Z</time>
      </trkpt>
      <trkpt lat="49.32943" lon="1.18956">
        <ele>93</ele>
        <time>2017-05-16T14:50:16Z</time>
      </trkpt>
      <trkpt lat="49.32939" lon="1.18964">
        <ele>89</ele>
        <time>2017-05-16T14:50:16Z</time>
      </trkpt>
      <trkpt lat="49.32937" lon="1.18971">
        <ele>89</ele>
        <time>2017-05-16T14:50:16Z</time>
      </trkpt>
      <trkpt lat="49.32935" lon="1.18979">
        <ele>89</ele>
        <time>2017-05-16T14:50:32Z</time>
      </trkpt>
      <trkpt lat="49.32934" lon="1.18984">
        <ele>89</ele>
        <time>2017-05-16T14:50:32Z</time>
      </trkpt>
      <trkpt lat="49.32932" lon="1.18991">
        <ele>89</ele>
        <time>2017-05-16T14:50:32Z</time>
      </trkpt>
      <trkpt lat="49.3293" lon="1.18999">
        <ele>89</ele>
        <time>2017-05-16T14:50:32Z</time>
      </trkpt>
      <trkpt lat="49.32928" lon="1.19006">
        <ele>89</ele>
        <time>2017-05-16T14:50:48Z</time>
      </trkpt>
      <trkpt lat="49.32926" lon="1.19014">
        <ele>89</ele>
        <time>2017-05-16T14:50:48Z</time>
      </trkpt>
      <trkpt lat="49.32925" lon="1.19019">
        <ele>89</ele>
        <time>2017-05-16T14:50:48Z</time>
      </trkpt>
      <trkpt lat="49.32923" lon="1.19026">
        <ele>89</ele>
        <time>2017-05-16T14:50:48Z</time>
      </trkpt>
      <trkpt lat="49.32922" lon="1.19033">
        <ele>89</ele>
        <time>2017-05-16T14:51:04Z</time>
      </trkpt>
      <trkpt lat="49.32919" lon="1.19041">
        <ele>89</ele>
        <time>2017-05-16T14:51:04Z</time>
      </trkpt>
      <trkpt lat="49.32918" lon="1.19048">
        <ele>86</ele>
        <time>2017-05-16T14:51:04Z</time>
      </trkpt>
      <trkpt lat="49.32914" lon="1.19057">
        <ele>86</ele>
        <time>2017-05-16T14:51:04Z</time>
      </trkpt>
      <trkpt lat="49.32912" lon="1.19061">
        <ele>86</ele>
        <time>2017-05-16T14:51:20Z</time>
      </trkpt>
      <trkpt lat="49.32911" lon="1.19067">
        <ele>86</ele>
        <time>2017-05-16T14:51:20Z</time>
      </trkpt>
      <trkpt lat="49.32909" lon="1.19073">
        <ele>86</ele>
        <time>2017-05-16T14:51:20Z</time>
      </trkpt>
      <trkpt lat="49.32908" lon="1.19079">
        <ele>86</ele>
        <time>2017-05-16T14:51:20Z</time>
      </trkpt>
      <trkpt lat="49.32906" lon="1.19085">
        <ele>86</ele>
        <time>2017-05-16T14:51:37Z</time>
      </trkpt>
      <trkpt lat="49.32904" lon="1.19092">
        <ele>86</ele>
        <time>2017-05-16T14:51:37Z</time>
      </trkpt>
      <trkpt lat="49.32901" lon="1.19098">
        <ele>86</ele>
        <time>2017-05-16T14:51:37Z</time>
      </trkpt>
      <trkpt lat="49.32899" lon="1.19109">
        <ele>86</ele>
        <time>2017-05-16T14:51:37Z</time>
      </trkpt>
      <trkpt lat="49.32897" lon="1.19114">
        <ele>86</ele>
        <time>2017-05-16T14:51:52Z</time>
      </trkpt>
      <trkpt lat="49.32896" lon="1.19119">
        <ele>86</ele>
        <time>2017-05-16T14:51:52Z</time>
      </trkpt>
      <trkpt lat="49.32893" lon="1.19126">
        <ele>80</ele>
        <time>2017-05-16T14:51:52Z</time>
      </trkpt>
      <trkpt lat="49.32891" lon="1.19132">
        <ele>80</ele>
        <time>2017-05-16T14:51:52Z</time>
      </trkpt>
      <trkpt lat="49.32889" lon="1.19138">
        <ele>80</ele>
        <time>2017-05-16T14:52:08Z</time>
      </trkpt>
      <trkpt lat="49.32887" lon="1.19146">
        <ele>80</ele>
        <time>2017-05-16T14:52:08Z</time>
      </trkpt>
      <trkpt lat="49.32884" lon="1.19153">
        <ele>80</ele>
        <time>2017-05-16T14:52:08Z</time>
      </trkpt>
      <trkpt lat="49.32882" lon="1.19159">
        <ele>80</ele>
        <time>2017-05-16T14:52:08Z</time>
      </trkpt>
      <trkpt lat="49.32881" lon="1.19165">
        <ele>80</ele>
        <time>2017-05-16T14:52:23Z</time>
      </trkpt>
      <trkpt lat="49.32879" lon="1.1917">
        <ele>80</ele>
        <time>2017-05-16T14:52:23Z</time>
      </trkpt>
      <trkpt lat="49.32877" lon="1.19179">
        <ele>80</ele>
        <time>2017-05-16T14:52:23Z</time>
      </trkpt>
      <trkpt lat="49.32875" lon="1.19183">
        <ele>80</ele>
        <time>2017-05-16T14:52:23Z</time>
      </trkpt>
      <trkpt lat="49.32873" lon="1.1919">
        <ele>71</ele>
        <time>2017-05-16T14:52:40Z</time>
      </trkpt>
      <trkpt lat="49.3287" lon="1.19199">
        <ele>71</ele>
        <time>2017-05-16T14:52:40Z</time>
      </trkpt>
      <trkpt lat="49.32868" lon="1.19204">
        <ele>71</ele>
        <time>2017-05-16T14:52:40Z</time>
      </trkpt>
      <trkpt lat="49.32866" lon="1.19212">
        <ele>68</ele>
        <time>2017-05-16T14:52:40Z</time>
      </trkpt>
      <trkpt lat="49.32864" lon="1.19219">
        <ele>68</ele>
        <time>2017-05-16T14:52:55Z</time>
      </trkpt>
      <trkpt lat="49.32862" lon="1.19227">
        <ele>68</ele>
        <time>2017-05-16T14:52:55Z</time>
      </trkpt>
      <trkpt lat="49.3286" lon="1.19234">
        <ele>68</ele>
        <time>2017-05-16T14:52:55Z</time>
      </trkpt>
      <trkpt lat="49.32858" lon="1.1924">
        <ele>68</ele>
        <time>2017-05-16T14:52:55Z</time>
      </trkpt>
      <trkpt lat="49.32856" lon="1.19246">
        <ele>68</ele>
        <time>2017-05-16T14:53:11Z</time>
      </trkpt>
      <trkpt lat="49.32855" lon="1.19251">
        <ele>68</ele>
        <time>2017-05-16T14:53:11Z</time>
      </trkpt>
      <trkpt lat="49.32851" lon="1.19263">
        <ele>68</ele>
        <time>2017-05-16T14:53:11Z</time>
      </trkpt>
      <trkpt lat="49.3285" lon="1.19268">
        <ele>68</ele>
        <time>2017-05-16T14:53:11Z</time>
      </trkpt>
      <trkpt lat="49.32849" lon="1.19273">
        <ele>68</ele>
        <time>2017-05-16T14:53:27Z</time>
      </trkpt>
      <trkpt lat="49.32846" lon="1.19282">
        <ele>68</ele>
        <time>2017-05-16T14:53:27Z</time>
      </trkpt>
      <trkpt lat="49.32845" lon="1.19288">
        <ele>68</ele>
        <time>2017-05-16T14:53:27Z</time>
      </trkpt>
      <trkpt lat="49.32842" lon="1.19294">
        <ele>67</ele>
        <time>2017-05-16T14:53:27Z</time>
      </trkpt>
      <trkpt lat="49.3284" lon="1.19301">
        <ele>67</ele>
        <time>2017-05-16T14:53:44Z</time>
      </trkpt>
      <trkpt lat="49.32838" lon="1.19309">
        <ele>67</ele>
        <time>2017-05-16T14:53:44Z</time>
      </trkpt>
      <trkpt lat="49.32836" lon="1.19315">
        <ele>67</ele>
        <time>2017-05-16T14:53:44Z</time>
      </trkpt>
      <trkpt lat="49.32832" lon="1.19326">
        <ele>67</ele>
        <time>2017-05-16T14:53:44Z</time>
      </trkpt>
      <trkpt lat="49.3283" lon="1.19332">
        <ele>67</ele>
        <time>2017-05-16T14:53:59Z</time>
      </trkpt>
      <trkpt lat="49.32828" lon="1.19337">
        <ele>67</ele>
        <time>2017-05-16T14:53:59Z</time>
      </trkpt>
      <trkpt lat="49.32825" lon="1.19342">
        <ele>67</ele>
        <time>2017-05-16T14:53:59Z</time>
      </trkpt>
      <trkpt lat="49.32822" lon="1.19347">
        <ele>67</ele>
        <time>2017-05-16T14:53:59Z</time>
      </trkpt>
      <trkpt lat="49.32819" lon="1.19354">
        <ele>67</ele>
        <time>2017-05-16T14:54:15Z</time>
      </trkpt>
      <trkpt lat="49.32819" lon="1.19358">
        <ele>67</ele>
        <time>2017-05-16T14:54:15Z</time>
      </trkpt>
      <trkpt lat="49.3282" lon="1.19362">
        <ele>67</ele>
        <time>2017-05-16T14:54:15Z</time>
      </trkpt>
      <trkpt lat="49.32822" lon="1.19367">
        <ele>67</ele>
        <time>2017-05-16T14:54:15Z</time>
      </trkpt>
      <trkpt lat="49.32828" lon="1.19384">
        <ele>64</ele>
        <time>2017-05-16T15:01:03Z</time>
      </trkpt>
      <trkpt lat="49.32828" lon="1.19384">
        <ele>64</ele>
        <time>2017-05-16T15:01:03Z</time>
      </trkpt>
      <trkpt lat="49.32829" lon="1.19392">
        <ele>64</ele>
        <time>2017-05-16T15:01:03Z</time>
      </trkpt>
      <trkpt lat="49.3283" lon="1.19396">
        <ele>64</ele>
        <time>2017-05-16T15:01:03Z</time>
      </trkpt>
      <trkpt lat="49.32832" lon="1.19403">
        <ele>64</ele>
        <time>2017-05-16T15:01:03Z</time>
      </trkpt>
      <trkpt lat="49.32834" lon="1.19406">
        <ele>64</ele>
        <time>2017-05-16T15:01:19Z</time>
      </trkpt>
      <trkpt lat="49.32835" lon="1.19411">
        <ele>64</ele>
        <time>2017-05-16T15:01:19Z</time>
      </trkpt>
      <trkpt lat="49.32838" lon="1.19416">
        <ele>64</ele>
        <time>2017-05-16T15:01:19Z</time>
      </trkpt>
      <trkpt lat="49.32841" lon="1.19424">
        <ele>64</ele>
        <time>2017-05-16T15:01:19Z</time>
      </trkpt>
      <trkpt lat="49.32842" lon="1.19433">
        <ele>64</ele>
        <time>2017-05-16T15:01:35Z</time>
      </trkpt>
      <trkpt lat="49.32845" lon="1.19438">
        <ele>64</ele>
        <time>2017-05-16T15:01:35Z</time>
      </trkpt>
      <trkpt lat="49.32845" lon="1.19444">
        <ele>64</ele>
        <time>2017-05-16T15:01:35Z</time>
      </trkpt>
      <trkpt lat="49.32846" lon="1.19451">
        <ele>64</ele>
        <time>2017-05-16T15:01:35Z</time>
      </trkpt>
      <trkpt lat="49.32847" lon="1.19457">
        <ele>64</ele>
        <time>2017-05-16T15:01:53Z</time>
      </trkpt>
      <trkpt lat="49.32851" lon="1.19462">
        <ele>63</ele>
        <time>2017-05-16T15:01:53Z</time>
      </trkpt>
      <trkpt lat="49.32848" lon="1.19467">
        <ele>63</ele>
        <time>2017-05-16T15:01:53Z</time>
      </trkpt>
      <trkpt lat="49.3285" lon="1.19475">
        <ele>63</ele>
        <time>2017-05-16T15:01:53Z</time>
      </trkpt>
      <trkpt lat="49.32853" lon="1.1948">
        <ele>63</ele>
        <time>2017-05-16T15:02:08Z</time>
      </trkpt>
      <trkpt lat="49.32854" lon="1.19486">
        <ele>63</ele>
        <time>2017-05-16T15:02:08Z</time>
      </trkpt>
      <trkpt lat="49.32858" lon="1.19492">
        <ele>63</ele>
        <time>2017-05-16T15:02:08Z</time>
      </trkpt>
      <trkpt lat="49.32858" lon="1.19498">
        <ele>63</ele>
        <time>2017-05-16T15:02:08Z</time>
      </trkpt>
      <trkpt lat="49.3286" lon="1.19505">
        <ele>63</ele>
        <time>2017-05-16T15:02:24Z</time>
      </trkpt>
      <trkpt lat="49.32862" lon="1.1951">
        <ele>63</ele>
        <time>2017-05-16T15:02:24Z</time>
      </trkpt>
      <trkpt lat="49.32864" lon="1.19517">
        <ele>63</ele>
        <time>2017-05-16T15:02:24Z</time>
      </trkpt>
      <trkpt lat="49.32867" lon="1.19524">
        <ele>63</ele>
        <time>2017-05-16T15:02:24Z</time>
      </trkpt>
      <trkpt lat="49.3287" lon="1.19531">
        <ele>63</ele>
        <time>2017-05-16T15:02:40Z</time>
      </trkpt>
      <trkpt lat="49.3287" lon="1.19536">
        <ele>63</ele>
        <time>2017-05-16T15:02:40Z</time>
      </trkpt>
      <trkpt lat="49.32868" lon="1.19541">
        <ele>63</ele>
        <time>2017-05-16T15:02:40Z</time>
      </trkpt>
      <trkpt lat="49.32867" lon="1.19545">
        <ele>64</ele>
        <time>2017-05-16T15:02:40Z</time>
      </trkpt>
      <trkpt lat="49.32864" lon="1.1955">
        <ele>64</ele>
        <time>2017-05-16T15:02:55Z</time>
      </trkpt>
      <trkpt lat="49.32861" lon="1.19557">
        <ele>64</ele>
        <time>2017-05-16T15:02:55Z</time>
      </trkpt>
      <trkpt lat="49.32859" lon="1.1956">
        <ele>64</ele>
        <time>2017-05-16T15:02:55Z</time>
      </trkpt>
      <trkpt lat="49.32856" lon="1.19564">
        <ele>64</ele>
        <time>2017-05-16T15:02:55Z</time>
      </trkpt>
      <trkpt lat="49.3285" lon="1.1957">
        <ele>64</ele>
        <time>2017-05-16T15:03:11Z</time>
      </trkpt>
      <trkpt lat="49.32846" lon="1.19574">
        <ele>64</ele>
        <time>2017-05-16T15:03:11Z</time>
      </trkpt>
      <trkpt lat="49.32842" lon="1.19577">
        <ele>64</ele>
        <time>2017-05-16T15:03:11Z</time>
      </trkpt>
      <trkpt lat="49.32836" lon="1.19581">
        <ele>64</ele>
        <time>2017-05-16T15:03:11Z</time>
      </trkpt>
      <trkpt lat="49.32831" lon="1.19586">
        <ele>64</ele>
        <time>2017-05-16T15:03:27Z</time>
      </trkpt>
      <trkpt lat="49.32828" lon="1.19588">
        <ele>64</ele>
        <time>2017-05-16T15:03:27Z</time>
      </trkpt>
      <trkpt lat="49.32823" lon="1.19593">
        <ele>64</ele>
        <time>2017-05-16T15:03:27Z</time>
      </trkpt>
      <trkpt lat="49.32818" lon="1.19595">
        <ele>64</ele>
        <time>2017-05-16T15:03:27Z</time>
      </trkpt>
      <trkpt lat="49.32816" lon="1.19596">
        <ele>64</ele>
        <time>2017-05-16T15:03:44Z</time>
      </trkpt>
      <trkpt lat="49.32815" lon="1.19599">
        <ele>64</ele>
        <time>2017-05-16T15:03:44Z</time>
      </trkpt>
      <trkpt lat="49.32812" lon="1.19601">
        <ele>64</ele>
        <time>2017-05-16T15:03:44Z</time>
      </trkpt>
      <trkpt lat="49.32807" lon="1.19603">
        <ele>64</ele>
        <time>2017-05-16T15:03:44Z</time>
      </trkpt>
      <trkpt lat="49.32803" lon="1.19606">
        <ele>64</ele>
        <time>2017-05-16T15:04:00Z</time>
      </trkpt>
      <trkpt lat="49.328" lon="1.19609">
        <ele>64</ele>
        <time>2017-05-16T15:04:00Z</time>
      </trkpt>
      <trkpt lat="49.32796" lon="1.1961">
        <ele>64</ele>
        <time>2017-05-16T15:04:00Z</time>
      </trkpt>
      <trkpt lat="49.3279" lon="1.19616">
        <ele>57</ele>
        <time>2017-05-16T15:04:00Z</time>
      </trkpt>
      <trkpt lat="49.32787" lon="1.19619">
        <ele>57</ele>
        <time>2017-05-16T15:04:16Z</time>
      </trkpt>
      <trkpt lat="49.32783" lon="1.19623">
        <ele>57</ele>
        <time>2017-05-16T15:04:16Z</time>
      </trkpt>
      <trkpt lat="49.32778" lon="1.19626">
        <ele>58</ele>
        <time>2017-05-16T15:04:16Z</time>
      </trkpt>
      <trkpt lat="49.32773" lon="1.19631">
        <ele>58</ele>
        <time>2017-05-16T15:04:16Z</time>
      </trkpt>
      <trkpt lat="49.32769" lon="1.19633">
        <ele>58</ele>
        <time>2017-05-16T15:04:31Z</time>
      </trkpt>
      <trkpt lat="49.32766" lon="1.19635">
        <ele>58</ele>
        <time>2017-05-16T15:04:31Z</time>
      </trkpt>
      <trkpt lat="49.32761" lon="1.19638">
        <ele>58</ele>
        <time>2017-05-16T15:04:32Z</time>
      </trkpt>
      <trkpt lat="49.32757" lon="1.19642">
        <ele>58</ele>
        <time>2017-05-16T15:04:32Z</time>
      </trkpt>
      <trkpt lat="49.32754" lon="1.19645">
        <ele>58</ele>
        <time>2017-05-16T15:04:48Z</time>
      </trkpt>
      <trkpt lat="49.32749" lon="1.1965">
        <ele>58</ele>
        <time>2017-05-16T15:04:48Z</time>
      </trkpt>
      <trkpt lat="49.32745" lon="1.19653">
        <ele>58</ele>
        <time>2017-05-16T15:04:48Z</time>
      </trkpt>
      <trkpt lat="49.3274" lon="1.19657">
        <ele>58</ele>
        <time>2017-05-16T15:04:48Z</time>
      </trkpt>
      <trkpt lat="49.32736" lon="1.19661">
        <ele>58</ele>
        <time>2017-05-16T15:05:03Z</time>
      </trkpt>
      <trkpt lat="49.32732" lon="1.19666">
        <ele>58</ele>
        <time>2017-05-16T15:05:04Z</time>
      </trkpt>
      <trkpt lat="49.32728" lon="1.19669">
        <ele>58</ele>
        <time>2017-05-16T15:05:04Z</time>
      </trkpt>
      <trkpt lat="49.32724" lon="1.19673">
        <ele>58</ele>
        <time>2017-05-16T15:05:04Z</time>
      </trkpt>
      <trkpt lat="49.3272" lon="1.19677">
        <ele>58</ele>
        <time>2017-05-16T15:05:20Z</time>
      </trkpt>
      <trkpt lat="49.32717" lon="1.1968">
        <ele>58</ele>
        <time>2017-05-16T15:05:20Z</time>
      </trkpt>
      <trkpt lat="49.32712" lon="1.19683">
        <ele>58</ele>
        <time>2017-05-16T15:05:20Z</time>
      </trkpt>
      <trkpt lat="49.32708" lon="1.19686">
        <ele>48</ele>
        <time>2017-05-16T15:05:20Z</time>
      </trkpt>
      <trkpt lat="49.32705" lon="1.19689">
        <ele>48</ele>
        <time>2017-05-16T15:05:36Z</time>
      </trkpt>
      <trkpt lat="49.327" lon="1.19693">
        <ele>48</ele>
        <time>2017-05-16T15:05:36Z</time>
      </trkpt>
      <trkpt lat="49.32695" lon="1.19696">
        <ele>48</ele>
        <time>2017-05-16T15:05:36Z</time>
      </trkpt>
      <trkpt lat="49.32692" lon="1.19699">
        <ele>48</ele>
        <time>2017-05-16T15:05:36Z</time>
      </trkpt>
      <trkpt lat="49.32686" lon="1.19704">
        <ele>48</ele>
        <time>2017-05-16T15:05:51Z</time>
      </trkpt>
      <trkpt lat="49.32682" lon="1.19709">
        <ele>47</ele>
        <time>2017-05-16T15:05:51Z</time>
      </trkpt>
      <trkpt lat="49.32679" lon="1.19711">
        <ele>47</ele>
        <time>2017-05-16T15:05:51Z</time>
      </trkpt>
      <trkpt lat="49.32674" lon="1.19714">
        <ele>47</ele>
        <time>2017-05-16T15:05:51Z</time>
      </trkpt>
      <trkpt lat="49.3267" lon="1.19718">
        <ele>47</ele>
        <time>2017-05-16T15:06:08Z</time>
      </trkpt>
      <trkpt lat="49.32666" lon="1.19722">
        <ele>47</ele>
        <time>2017-05-16T15:06:08Z</time>
      </trkpt>
      <trkpt lat="49.32663" lon="1.19726">
        <ele>47</ele>
        <time>2017-05-16T15:06:08Z</time>
      </trkpt>
      <trkpt lat="49.32659" lon="1.19728">
        <ele>47</ele>
        <time>2017-05-16T15:06:08Z</time>
      </trkpt>
      <trkpt lat="49.32655" lon="1.19731">
        <ele>47</ele>
        <time>2017-05-16T15:06:25Z</time>
      </trkpt>
      <trkpt lat="49.32651" lon="1.19734">
        <ele>47</ele>
        <time>2017-05-16T15:06:25Z</time>
      </trkpt>
      <trkpt lat="49.32648" lon="1.19738">
        <ele>47</ele>
        <time>2017-05-16T15:06:25Z</time>
      </trkpt>
      <trkpt lat="49.32641" lon="1.1974">
        <ele>47</ele>
        <time>2017-05-16T15:06:25Z</time>
      </trkpt>
      <trkpt lat="49.32638" lon="1.19742">
        <ele>47</ele>
        <time>2017-05-16T15:06:39Z</time>
      </trkpt>
      <trkpt lat="49.32635" lon="1.19742">
        <ele>47</ele>
        <time>2017-05-16T15:06:39Z</time>
      </trkpt>
      <trkpt lat="49.32632" lon="1.19745">
        <ele>47</ele>
        <time>2017-05-16T15:06:39Z</time>
      </trkpt>
      <trkpt lat="49.32628" lon="1.19747">
        <ele>47</ele>
        <time>2017-05-16T15:06:39Z</time>
      </trkpt>
      <trkpt lat="49.32623" lon="1.1975">
        <ele>37</ele>
        <time>2017-05-16T15:06:57Z</time>
      </trkpt>
      <trkpt lat="49.32622" lon="1.19754">
        <ele>37</ele>
        <time>2017-05-16T15:06:57Z</time>
      </trkpt>
      <trkpt lat="49.3262" lon="1.19759">
        <ele>37</ele>
        <time>2017-05-16T15:06:57Z</time>
      </trkpt>
      <trkpt lat="49.32618" lon="1.19768">
        <ele>37</ele>
        <time>2017-05-16T15:06:57Z</time>
      </trkpt>
      <trkpt lat="49.32617" lon="1.19772">
        <ele>37</ele>
        <time>2017-05-16T15:07:11Z</time>
      </trkpt>
      <trkpt lat="49.32617" lon="1.19782">
        <ele>37</ele>
        <time>2017-05-16T15:07:11Z</time>
      </trkpt>
      <trkpt lat="49.32618" lon="1.19789">
        <ele>37</ele>
        <time>2017-05-16T15:07:11Z</time>
      </trkpt>
      <trkpt lat="49.32619" lon="1.19793">
        <ele>36</ele>
        <time>2017-05-16T15:07:11Z</time>
      </trkpt>
      <trkpt lat="49.32619" lon="1.19799">
        <ele>36</ele>
        <time>2017-05-16T15:07:27Z</time>
      </trkpt>
      <trkpt lat="49.3262" lon="1.19807">
        <ele>36</ele>
        <time>2017-05-16T15:07:27Z</time>
      </trkpt>
      <trkpt lat="49.32619" lon="1.19815">
        <ele>36</ele>
        <time>2017-05-16T15:07:27Z</time>
      </trkpt>
      <trkpt lat="49.3262" lon="1.19821">
        <ele>36</ele>
        <time>2017-05-16T15:07:27Z</time>
      </trkpt>
      <trkpt lat="49.32621" lon="1.19826">
        <ele>36</ele>
        <time>2017-05-16T15:07:44Z</time>
      </trkpt>
      <trkpt lat="49.32621" lon="1.19833">
        <ele>36</ele>
        <time>2017-05-16T15:07:44Z</time>
      </trkpt>
      <trkpt lat="49.32623" lon="1.19841">
        <ele>36</ele>
        <time>2017-05-16T15:07:44Z</time>
      </trkpt>
      <trkpt lat="49.32623" lon="1.19846">
        <ele>36</ele>
        <time>2017-05-16T15:07:44Z</time>
      </trkpt>
      <trkpt lat="49.32624" lon="1.19854">
        <ele>36</ele>
        <time>2017-05-16T15:07:59Z</time>
      </trkpt>
      <trkpt lat="49.32625" lon="1.1986">
        <ele>47</ele>
        <time>2017-05-16T15:07:59Z</time>
      </trkpt>
      <trkpt lat="49.32627" lon="1.19869">
        <ele>47</ele>
        <time>2017-05-16T15:07:59Z</time>
      </trkpt>
      <trkpt lat="49.32627" lon="1.19874">
        <ele>47</ele>
        <time>2017-05-16T15:07:59Z</time>
      </trkpt>
      <trkpt lat="49.32627" lon="1.19879">
        <ele>45</ele>
        <time>2017-05-16T15:08:16Z</time>
      </trkpt>
      <trkpt lat="49.32627" lon="1.19887">
        <ele>45</ele>
        <time>2017-05-16T15:08:16Z</time>
      </trkpt>
      <trkpt lat="49.32628" lon="1.19894">
        <ele>45</ele>
        <time>2017-05-16T15:08:17Z</time>
      </trkpt>
      <trkpt lat="49.32629" lon="1.19903">
        <ele>45</ele>
        <time>2017-05-16T15:08:17Z</time>
      </trkpt>
      <trkpt lat="49.32629" lon="1.19908">
        <ele>45</ele>
        <time>2017-05-16T15:08:31Z</time>
      </trkpt>
      <trkpt lat="49.32629" lon="1.19916">
        <ele>45</ele>
        <time>2017-05-16T15:08:31Z</time>
      </trkpt>
      <trkpt lat="49.32627" lon="1.19923">
        <ele>45</ele>
        <time>2017-05-16T15:08:31Z</time>
      </trkpt>
      <trkpt lat="49.32627" lon="1.19928">
        <ele>45</ele>
        <time>2017-05-16T15:08:31Z</time>
      </trkpt>
      <trkpt lat="49.32628" lon="1.19935">
        <ele>45</ele>
        <time>2017-05-16T15:08:47Z</time>
      </trkpt>
      <trkpt lat="49.3263" lon="1.19944">
        <ele>45</ele>
        <time>2017-05-16T15:08:47Z</time>
      </trkpt>
      <trkpt lat="49.3263" lon="1.19949">
        <ele>45</ele>
        <time>2017-05-16T15:08:47Z</time>
      </trkpt>
      <trkpt lat="49.32629" lon="1.19954">
        <ele>45</ele>
        <time>2017-05-16T15:08:47Z</time>
      </trkpt>
      <trkpt lat="49.32627" lon="1.19966">
        <ele>45</ele>
        <time>2017-05-16T15:09:04Z</time>
      </trkpt>
      <trkpt lat="49.32626" lon="1.19973">
        <ele>45</ele>
        <time>2017-05-16T15:09:04Z</time>
      </trkpt>
      <trkpt lat="49.32628" lon="1.1998">
        <ele>45</ele>
        <time>2017-05-16T15:09:04Z</time>
      </trkpt>
      <trkpt lat="49.32626" lon="1.19988">
        <ele>45</ele>
        <time>2017-05-16T15:09:04Z</time>
      </trkpt>
      <trkpt lat="49.32626" lon="1.19996">
        <ele>45</ele>
        <time>2017-05-16T15:09:21Z</time>
      </trkpt>
      <trkpt lat="49.32627" lon="1.20003">
        <ele>45</ele>
        <time>2017-05-16T15:09:21Z</time>
      </trkpt>
      <trkpt lat="49.32627" lon="1.20011">
        <ele>45</ele>
        <time>2017-05-16T15:09:21Z</time>
      </trkpt>
      <trkpt lat="49.32625" lon="1.2002">
        <ele>45</ele>
        <time>2017-05-16T15:09:21Z</time>
      </trkpt>
      <trkpt lat="49.32626" lon="1.20021">
        <ele>45</ele>
        <time>2017-05-16T15:09:35Z</time>
      </trkpt>
      <trkpt lat="49.32624" lon="1.20033">
        <ele>36</ele>
        <time>2017-05-16T15:09:35Z</time>
      </trkpt>
      <trkpt lat="49.32624" lon="1.20037">
        <ele>36</ele>
        <time>2017-05-16T15:09:35Z</time>
      </trkpt>
      <trkpt lat="49.32623" lon="1.20041">
        <ele>36</ele>
        <time>2017-05-16T15:09:35Z</time>
      </trkpt>
      <trkpt lat="49.32623" lon="1.20047">
        <ele>37</ele>
        <time>2017-05-16T15:09:51Z</time>
      </trkpt>
      <trkpt lat="49.3262" lon="1.20054">
        <ele>37</ele>
        <time>2017-05-16T15:09:51Z</time>
      </trkpt>
      <trkpt lat="49.32618" lon="1.20057">
        <ele>37</ele>
        <time>2017-05-16T15:09:51Z</time>
      </trkpt>
      <trkpt lat="49.32614" lon="1.2006">
        <ele>37</ele>
        <time>2017-05-16T15:09:51Z</time>
      </trkpt>
      <trkpt lat="49.32612" lon="1.20064">
        <ele>37</ele>
        <time>2017-05-16T15:10:09Z</time>
      </trkpt>
      <trkpt lat="49.32606" lon="1.20068">
        <ele>37</ele>
        <time>2017-05-16T15:10:09Z</time>
      </trkpt>
      <trkpt lat="49.32603" lon="1.2007">
        <ele>37</ele>
        <time>2017-05-16T15:10:09Z</time>
      </trkpt>
      <trkpt lat="49.32598" lon="1.2007">
        <ele>37</ele>
        <time>2017-05-16T15:10:09Z</time>
      </trkpt>
      <trkpt lat="49.32594" lon="1.2007">
        <ele>37</ele>
        <time>2017-05-16T15:10:23Z</time>
      </trkpt>
      <trkpt lat="49.32588" lon="1.20069">
        <ele>37</ele>
        <time>2017-05-16T15:10:23Z</time>
      </trkpt>
      <trkpt lat="49.32585" lon="1.20065">
        <ele>37</ele>
        <time>2017-05-16T15:10:23Z</time>
      </trkpt>
      <trkpt lat="49.32582" lon="1.20063">
        <ele>37</ele>
        <time>2017-05-16T15:10:23Z</time>
      </trkpt>
      <trkpt lat="49.32575" lon="1.2006">
        <ele>37</ele>
        <time>2017-05-16T15:10:40Z</time>
      </trkpt>
      <trkpt lat="49.32573" lon="1.20058">
        <ele>37</ele>
        <time>2017-05-16T15:10:40Z</time>
      </trkpt>
      <trkpt lat="49.3257" lon="1.20056">
        <ele>37</ele>
        <time>2017-05-16T15:10:40Z</time>
      </trkpt>
      <trkpt lat="49.32564" lon="1.20052">
        <ele>37</ele>
        <time>2017-05-16T15:10:40Z</time>
      </trkpt>
      <trkpt lat="49.32561" lon="1.20049">
        <ele>37</ele>
        <time>2017-05-16T15:10:55Z</time>
      </trkpt>
      <trkpt lat="49.32556" lon="1.20049">
        <ele>37</ele>
        <time>2017-05-16T15:10:55Z</time>
      </trkpt>
      <trkpt lat="49.32551" lon="1.20046">
        <ele>37</ele>
        <time>2017-05-16T15:10:55Z</time>
      </trkpt>
      <trkpt lat="49.32547" lon="1.20042">
        <ele>37</ele>
        <time>2017-05-16T15:10:55Z</time>
      </trkpt>
      <trkpt lat="49.32542" lon="1.2004">
        <ele>36</ele>
        <time>2017-05-16T15:11:11Z</time>
      </trkpt>
      <trkpt lat="49.32537" lon="1.20039">
        <ele>31</ele>
        <time>2017-05-16T15:11:11Z</time>
      </trkpt>
      <trkpt lat="49.32532" lon="1.20037">
        <ele>31</ele>
        <time>2017-05-16T15:11:11Z</time>
      </trkpt>
      <trkpt lat="49.32529" lon="1.20035">
        <ele>31</ele>
        <time>2017-05-16T15:11:11Z</time>
      </trkpt>
      <trkpt lat="49.32521" lon="1.20034">
        <ele>31</ele>
        <time>2017-05-16T15:11:28Z</time>
      </trkpt>
      <trkpt lat="49.32517" lon="1.20033">
        <ele>31</ele>
        <time>2017-05-16T15:11:28Z</time>
      </trkpt>
      <trkpt lat="49.32512" lon="1.20034">
        <ele>31</ele>
        <time>2017-05-16T15:11:28Z</time>
      </trkpt>
      <trkpt lat="49.32507" lon="1.20032">
        <ele>31</ele>
        <time>2017-05-16T15:11:28Z</time>
      </trkpt>
      <trkpt lat="49.32502" lon="1.2003">
        <ele>31</ele>
        <time>2017-05-16T15:11:44Z</time>
      </trkpt>
      <trkpt lat="49.32498" lon="1.20029">
        <ele>31</ele>
        <time>2017-05-16T15:11:44Z</time>
      </trkpt>
      <trkpt lat="49.32494" lon="1.20027">
        <ele>31</ele>
        <time>2017-05-16T15:11:44Z</time>
      </trkpt>
      <trkpt lat="49.32489" lon="1.20025">
        <ele>31</ele>
        <time>2017-05-16T15:11:44Z</time>
      </trkpt>
      <trkpt lat="49.32484" lon="1.20022">
        <ele>31</ele>
        <time>2017-05-16T15:12:01Z</time>
      </trkpt>
      <trkpt lat="49.3248" lon="1.20018">
        <ele>31</ele>
        <time>2017-05-16T15:12:01Z</time>
      </trkpt>
      <trkpt lat="49.32476" lon="1.20016">
        <ele>31</ele>
        <time>2017-05-16T15:12:01Z</time>
      </trkpt>
      <trkpt lat="49.32471" lon="1.20012">
        <ele>31</ele>
        <time>2017-05-16T15:12:01Z</time>
      </trkpt>
      <trkpt lat="49.32468" lon="1.2001">
        <ele>31</ele>
        <time>2017-05-16T15:12:15Z</time>
      </trkpt>
      <trkpt lat="49.3246" lon="1.20007">
        <ele>31</ele>
        <time>2017-05-16T15:12:15Z</time>
      </trkpt>
      <trkpt lat="49.32458" lon="1.20004">
        <ele>26</ele>
        <time>2017-05-16T15:12:15Z</time>
      </trkpt>
      <trkpt lat="49.32452" lon="1.2">
        <ele>26</ele>
        <time>2017-05-16T15:12:15Z</time>
      </trkpt>
      <trkpt lat="49.32447" lon="1.19999">
        <ele>26</ele>
        <time>2017-05-16T15:12:31Z</time>
      </trkpt>
      <trkpt lat="49.32442" lon="1.19995">
        <ele>26</ele>
        <time>2017-05-16T15:12:31Z</time>
      </trkpt>
      <trkpt lat="49.32438" lon="1.19992">
        <ele>26</ele>
        <time>2017-05-16T15:12:31Z</time>
      </trkpt>
      <trkpt lat="49.32433" lon="1.1999">
        <ele>26</ele>
        <time>2017-05-16T15:12:31Z</time>
      </trkpt>
      <trkpt lat="49.32428" lon="1.19988">
        <ele>26</ele>
        <time>2017-05-16T15:12:48Z</time>
      </trkpt>
      <trkpt lat="49.32423" lon="1.19986">
        <ele>26</ele>
        <time>2017-05-16T15:12:48Z</time>
      </trkpt>
      <trkpt lat="49.32419" lon="1.19983">
        <ele>26</ele>
        <time>2017-05-16T15:12:48Z</time>
      </trkpt>
      <trkpt lat="49.32414" lon="1.1998">
        <ele>26</ele>
        <time>2017-05-16T15:12:48Z</time>
      </trkpt>
      <trkpt lat="49.3241" lon="1.1998">
        <ele>26</ele>
        <time>2017-05-16T15:13:03Z</time>
      </trkpt>
      <trkpt lat="49.32403" lon="1.19978">
        <ele>26</ele>
        <time>2017-05-16T15:13:03Z</time>
      </trkpt>
      <trkpt lat="49.324" lon="1.19977">
        <ele>26</ele>
        <time>2017-05-16T15:13:03Z</time>
      </trkpt>
      <trkpt lat="49.32394" lon="1.19976">
        <ele>26</ele>
        <time>2017-05-16T15:13:03Z</time>
      </trkpt>
      <trkpt lat="49.32389" lon="1.19975">
        <ele>26</ele>
        <time>2017-05-16T15:13:21Z</time>
      </trkpt>
      <trkpt lat="49.32383" lon="1.19974">
        <ele>26</ele>
        <time>2017-05-16T15:13:21Z</time>
      </trkpt>
      <trkpt lat="49.32381" lon="1.19973">
        <ele>26</ele>
        <time>2017-05-16T15:13:21Z</time>
      </trkpt>
      <trkpt lat="49.32379" lon="1.1997">
        <ele>26</ele>
        <time>2017-05-16T15:13:21Z</time>
      </trkpt>
      <trkpt lat="49.32375" lon="1.1997">
        <ele>23</ele>
        <time>2017-05-16T15:13:35Z</time>
      </trkpt>
      <trkpt lat="49.32369" lon="1.19968">
        <ele>23</ele>
        <time>2017-05-16T15:13:35Z</time>
      </trkpt>
      <trkpt lat="49.32366" lon="1.19968">
        <ele>23</ele>
        <time>2017-05-16T15:13:35Z</time>
      </trkpt>
      <trkpt lat="49.32364" lon="1.19971">
        <ele>23</ele>
        <time>2017-05-16T15:13:35Z</time>
      </trkpt>
      <trkpt lat="49.32359" lon="1.19972">
        <ele>23</ele>
        <time>2017-05-16T15:13:51Z</time>
      </trkpt>
      <trkpt lat="49.32355" lon="1.19973">
        <ele>23</ele>
        <time>2017-05-16T15:13:51Z</time>
      </trkpt>
      <trkpt lat="49.32349" lon="1.19971">
        <ele>23</ele>
        <time>2017-05-16T15:13:51Z</time>
      </trkpt>
      <trkpt lat="49.32345" lon="1.19971">
        <ele>23</ele>
        <time>2017-05-16T15:13:51Z</time>
      </trkpt>
      <trkpt lat="49.3234" lon="1.19971">
        <ele>23</ele>
        <time>2017-05-16T15:14:08Z</time>
      </trkpt>
      <trkpt lat="49.32336" lon="1.19972">
        <ele>23</ele>
        <time>2017-05-16T15:14:08Z</time>
      </trkpt>
      <trkpt lat="49.32332" lon="1.19971">
        <ele>23</ele>
        <time>2017-05-16T15:14:08Z</time>
      </trkpt>
      <trkpt lat="49.32327" lon="1.19971">
        <ele>23</ele>
        <time>2017-05-16T15:14:08Z</time>
      </trkpt>
      <trkpt lat="49.32322" lon="1.19971">
        <ele>23</ele>
        <time>2017-05-16T15:14:24Z</time>
      </trkpt>
      <trkpt lat="49.32316" lon="1.19971">
        <ele>23</ele>
        <time>2017-05-16T15:14:24Z</time>
      </trkpt>
      <trkpt lat="49.32312" lon="1.19972">
        <ele>23</ele>
        <time>2017-05-16T15:14:24Z</time>
      </trkpt>
      <trkpt lat="49.32307" lon="1.19973">
        <ele>23</ele>
        <time>2017-05-16T15:14:24Z</time>
      </trkpt>
      <trkpt lat="49.32301" lon="1.19974">
        <ele>23</ele>
        <time>2017-05-16T15:14:40Z</time>
      </trkpt>
      <trkpt lat="49.32296" lon="1.19974">
        <ele>23</ele>
        <time>2017-05-16T15:14:40Z</time>
      </trkpt>
      <trkpt lat="49.32293" lon="1.19974">
        <ele>23</ele>
        <time>2017-05-16T15:14:40Z</time>
      </trkpt>
      <trkpt lat="49.32285" lon="1.19975">
        <ele>21</ele>
        <time>2017-05-16T15:14:40Z</time>
      </trkpt>
      <trkpt lat="49.3228" lon="1.19975">
        <ele>21</ele>
        <time>2017-05-16T15:14:55Z</time>
      </trkpt>
      <trkpt lat="49.32275" lon="1.19976">
        <ele>21</ele>
        <time>2017-05-16T15:14:55Z</time>
      </trkpt>
      <trkpt lat="49.32271" lon="1.19977">
        <ele>21</ele>
        <time>2017-05-16T15:14:55Z</time>
      </trkpt>
      <trkpt lat="49.32266" lon="1.19977">
        <ele>21</ele>
        <time>2017-05-16T15:14:55Z</time>
      </trkpt>
      <trkpt lat="49.32259" lon="1.19976">
        <ele>21</ele>
        <time>2017-05-16T15:15:12Z</time>
      </trkpt>
      <trkpt lat="49.32255" lon="1.19977">
        <ele>21</ele>
        <time>2017-05-16T15:15:12Z</time>
      </trkpt>
      <trkpt lat="49.3225" lon="1.19978">
        <ele>21</ele>
        <time>2017-05-16T15:15:12Z</time>
      </trkpt>
      <trkpt lat="49.32245" lon="1.19979">
        <ele>21</ele>
        <time>2017-05-16T15:15:12Z</time>
      </trkpt>
      <trkpt lat="49.3224" lon="1.1998">
        <ele>21</ele>
        <time>2017-05-16T15:15:28Z</time>
      </trkpt>
      <trkpt lat="49.32235" lon="1.19981">
        <ele>21</ele>
        <time>2017-05-16T15:15:28Z</time>
      </trkpt>
      <trkpt lat="49.32232" lon="1.19981">
        <ele>21</ele>
        <time>2017-05-16T15:15:28Z</time>
      </trkpt>
      <trkpt lat="49.32224" lon="1.19981">
        <ele>21</ele>
        <time>2017-05-16T15:15:28Z</time>
      </trkpt>
      <trkpt lat="49.32221" lon="1.19982">
        <ele>21</ele>
        <time>2017-05-16T15:15:44Z</time>
      </trkpt>
      <trkpt lat="49.32216" lon="1.19983">
        <ele>21</ele>
        <time>2017-05-16T15:15:44Z</time>
      </trkpt>
      <trkpt lat="49.32211" lon="1.19983">
        <ele>21</ele>
        <time>2017-05-16T15:15:44Z</time>
      </trkpt>
      <trkpt lat="49.32206" lon="1.19984">
        <ele>17</ele>
        <time>2017-05-16T15:15:44Z</time>
      </trkpt>
      <trkpt lat="49.32201" lon="1.19984">
        <ele>17</ele>
        <time>2017-05-16T15:16:00Z</time>
      </trkpt>
      <trkpt lat="49.32196" lon="1.19985">
        <ele>17</ele>
        <time>2017-05-16T15:16:00Z</time>
      </trkpt>
      <trkpt lat="49.32192" lon="1.19985">
        <ele>17</ele>
        <time>2017-05-16T15:16:00Z</time>
      </trkpt>
      <trkpt lat="49.32187" lon="1.19986">
        <ele>17</ele>
        <time>2017-05-16T15:16:00Z</time>
      </trkpt>
      <trkpt lat="49.32182" lon="1.19988">
        <ele>17</ele>
        <time>2017-05-16T15:16:16Z</time>
      </trkpt>
      <trkpt lat="49.32175" lon="1.19989">
        <ele>17</ele>
        <time>2017-05-16T15:16:16Z</time>
      </trkpt>
      <trkpt lat="49.32171" lon="1.1999">
        <ele>17</ele>
        <time>2017-05-16T15:16:16Z</time>
      </trkpt>
      <trkpt lat="49.32167" lon="1.19989">
        <ele>17</ele>
        <time>2017-05-16T15:16:16Z</time>
      </trkpt>
      <trkpt lat="49.32162" lon="1.19991">
        <ele>17</ele>
        <time>2017-05-16T15:16:31Z</time>
      </trkpt>
      <trkpt lat="49.32156" lon="1.19992">
        <ele>17</ele>
        <time>2017-05-16T15:16:31Z</time>
      </trkpt>
      <trkpt lat="49.32151" lon="1.19993">
        <ele>17</ele>
        <time>2017-05-16T15:16:31Z</time>
      </trkpt>
      <trkpt lat="49.32147" lon="1.19994">
        <ele>17</ele>
        <time>2017-05-16T15:16:32Z</time>
      </trkpt>
      <trkpt lat="49.32141" lon="1.19995">
        <ele>17</ele>
        <time>2017-05-16T15:16:48Z</time>
      </trkpt>
      <trkpt lat="49.32136" lon="1.19995">
        <ele>17</ele>
        <time>2017-05-16T15:16:48Z</time>
      </trkpt>
      <trkpt lat="49.32133" lon="1.19996">
        <ele>17</ele>
        <time>2017-05-16T15:16:48Z</time>
      </trkpt>
      <trkpt lat="49.32128" lon="1.19997">
        <ele>17</ele>
        <time>2017-05-16T15:16:48Z</time>
      </trkpt>
      <trkpt lat="49.32125" lon="1.19997">
        <ele>14</ele>
        <time>2017-05-16T15:17:04Z</time>
      </trkpt>
      <trkpt lat="49.32117" lon="1.19999">
        <ele>14</ele>
        <time>2017-05-16T15:17:04Z</time>
      </trkpt>
      <trkpt lat="49.32112" lon="1.20001">
        <ele>14</ele>
        <time>2017-05-16T15:17:04Z</time>
      </trkpt>
      <trkpt lat="49.32108" lon="1.20003">
        <ele>14</ele>
        <time>2017-05-16T15:17:04Z</time>
      </trkpt>
      <trkpt lat="49.32102" lon="1.20004">
        <ele>14</ele>
        <time>2017-05-16T15:17:20Z</time>
      </trkpt>
      <trkpt lat="49.32097" lon="1.20006">
        <ele>14</ele>
        <time>2017-05-16T15:17:20Z</time>
      </trkpt>
      <trkpt lat="49.32092" lon="1.20008">
        <ele>14</ele>
        <time>2017-05-16T15:17:20Z</time>
      </trkpt>
      <trkpt lat="49.32087" lon="1.20008">
        <ele>14</ele>
        <time>2017-05-16T15:17:20Z</time>
      </trkpt>
      <trkpt lat="49.32084" lon="1.20008">
        <ele>14</ele>
        <time>2017-05-16T15:17:35Z</time>
      </trkpt>
      <trkpt lat="49.32079" lon="1.20009">
        <ele>14</ele>
        <time>2017-05-16T15:17:35Z</time>
      </trkpt>
      <trkpt lat="49.32075" lon="1.20011">
        <ele>14</ele>
        <time>2017-05-16T15:17:35Z</time>
      </trkpt>
      <trkpt lat="49.32069" lon="1.20013">
        <ele>14</ele>
        <time>2017-05-16T15:17:35Z</time>
      </trkpt>
      <trkpt lat="49.32065" lon="1.20014">
        <ele>14</ele>
        <time>2017-05-16T15:17:51Z</time>
      </trkpt>
      <trkpt lat="49.32061" lon="1.20015">
        <ele>14</ele>
        <time>2017-05-16T15:17:51Z</time>
      </trkpt>
      <trkpt lat="49.32057" lon="1.20015">
        <ele>14</ele>
        <time>2017-05-16T15:17:51Z</time>
      </trkpt>
      <trkpt lat="49.32052" lon="1.20016">
        <ele>14</ele>
        <time>2017-05-16T15:17:51Z</time>
      </trkpt>
      <trkpt lat="49.32046" lon="1.20017">
        <ele>14</ele>
        <time>2017-05-16T15:18:07Z</time>
      </trkpt>
      <trkpt lat="49.32042" lon="1.20018">
        <ele>13</ele>
        <time>2017-05-16T15:18:07Z</time>
      </trkpt>
      <trkpt lat="49.32039" lon="1.20018">
        <ele>13</ele>
        <time>2017-05-16T15:18:07Z</time>
      </trkpt>
      <trkpt lat="49.32033" lon="1.20018">
        <ele>13</ele>
        <time>2017-05-16T15:18:07Z</time>
      </trkpt>
      <trkpt lat="49.32027" lon="1.20017">
        <ele>13</ele>
        <time>2017-05-16T15:18:24Z</time>
      </trkpt>
      <trkpt lat="49.32021" lon="1.20018">
        <ele>13</ele>
        <time>2017-05-16T15:18:24Z</time>
      </trkpt>
      <trkpt lat="49.32017" lon="1.20018">
        <ele>13</ele>
        <time>2017-05-16T15:18:24Z</time>
      </trkpt>
      <trkpt lat="49.32011" lon="1.2002">
        <ele>13</ele>
        <time>2017-05-16T15:18:24Z</time>
      </trkpt>
      <trkpt lat="49.32007" lon="1.20018">
        <ele>13</ele>
        <time>2017-05-16T15:18:40Z</time>
      </trkpt>
      <trkpt lat="49.32002" lon="1.20017">
        <ele>13</ele>
        <time>2017-05-16T15:18:40Z</time>
      </trkpt>
      <trkpt lat="49.31998" lon="1.20015">
        <ele>13</ele>
        <time>2017-05-16T15:18:40Z</time>
      </trkpt>
      <trkpt lat="49.31992" lon="1.20013">
        <ele>13</ele>
        <time>2017-05-16T15:18:40Z</time>
      </trkpt>
      <trkpt lat="49.31988" lon="1.20016">
        <ele>13</ele>
        <time>2017-05-16T15:18:55Z</time>
      </trkpt>
      <trkpt lat="49.31983" lon="1.20015">
        <ele>13</ele>
        <time>2017-05-16T15:18:55Z</time>
      </trkpt>
      <trkpt lat="49.31978" lon="1.20013">
        <ele>13</ele>
        <time>2017-05-16T15:18:55Z</time>
      </trkpt>
      <trkpt lat="49.31974" lon="1.20012">
        <ele>13</ele>
        <time>2017-05-16T15:18:55Z</time>
      </trkpt>
      <trkpt lat="49.31969" lon="1.20013">
        <ele>13</ele>
        <time>2017-05-16T15:19:11Z</time>
      </trkpt>
      <trkpt lat="49.31963" lon="1.20011">
        <ele>13</ele>
        <time>2017-05-16T15:19:12Z</time>
      </trkpt>
      <trkpt lat="49.31959" lon="1.20011">
        <ele>13</ele>
        <time>2017-05-16T15:19:12Z</time>
      </trkpt>
      <trkpt lat="49.31953" lon="1.20011">
        <ele>13</ele>
        <time>2017-05-16T15:19:12Z</time>
      </trkpt>
      <trkpt lat="49.31948" lon="1.20011">
        <ele>13</ele>
        <time>2017-05-16T15:19:28Z</time>
      </trkpt>
      <trkpt lat="49.31945" lon="1.20011">
        <ele>13</ele>
        <time>2017-05-16T15:19:29Z</time>
      </trkpt>
      <trkpt lat="49.31939" lon="1.20012">
        <ele>13</ele>
        <time>2017-05-16T15:19:29Z</time>
      </trkpt>
      <trkpt lat="49.31934" lon="1.2001">
        <ele>13</ele>
        <time>2017-05-16T15:19:29Z</time>
      </trkpt>
      <trkpt lat="49.31927" lon="1.20012">
        <ele>13</ele>
        <time>2017-05-16T15:28:47Z</time>
      </trkpt>
      <trkpt lat="49.31925" lon="1.20011">
        <ele>13</ele>
        <time>2017-05-16T15:28:47Z</time>
      </trkpt>
      <trkpt lat="49.3192" lon="1.20013">
        <ele>13</ele>
        <time>2017-05-16T15:28:47Z</time>
      </trkpt>
      <trkpt lat="49.31916" lon="1.20014">
        <ele>13</ele>
        <time>2017-05-16T15:28:47Z</time>
      </trkpt>
      <trkpt lat="49.31913" lon="1.20012">
        <ele>13</ele>
        <time>2017-05-16T15:28:47Z</time>
      </trkpt>
      <trkpt lat="49.31908" lon="1.20013">
        <ele>13</ele>
        <time>2017-05-16T15:29:04Z</time>
      </trkpt>
      <trkpt lat="49.31902" lon="1.20015">
        <ele>13</ele>
        <time>2017-05-16T15:29:04Z</time>
      </trkpt>
      <trkpt lat="49.319" lon="1.20015">
        <ele>13</ele>
        <time>2017-05-16T15:29:04Z</time>
      </trkpt>
      <trkpt lat="49.31895" lon="1.20016">
        <ele>13</ele>
        <time>2017-05-16T15:29:04Z</time>
      </trkpt>
      <trkpt lat="49.31892" lon="1.20016">
        <ele>13</ele>
        <time>2017-05-16T15:29:19Z</time>
      </trkpt>
      <trkpt lat="49.31886" lon="1.20016">
        <ele>13</ele>
        <time>2017-05-16T15:29:19Z</time>
      </trkpt>
      <trkpt lat="49.31882" lon="1.20016">
        <ele>13</ele>
        <time>2017-05-16T15:29:19Z</time>
      </trkpt>
      <trkpt lat="49.31876" lon="1.20017">
        <ele>13</ele>
        <time>2017-05-16T15:29:19Z</time>
      </trkpt>
      <trkpt lat="49.31871" lon="1.20016">
        <ele>12</ele>
        <time>2017-05-16T15:29:35Z</time>
      </trkpt>
      <trkpt lat="49.31867" lon="1.20016">
        <ele>12</ele>
        <time>2017-05-16T15:29:35Z</time>
      </trkpt>
      <trkpt lat="49.31863" lon="1.20017">
        <ele>12</ele>
        <time>2017-05-16T15:29:35Z</time>
      </trkpt>
      <trkpt lat="49.31855" lon="1.20018">
        <ele>12</ele>
        <time>2017-05-16T15:29:35Z</time>
      </trkpt>
      <trkpt lat="49.3185" lon="1.20018">
        <ele>12</ele>
        <time>2017-05-16T15:29:51Z</time>
      </trkpt>
      <trkpt lat="49.31846" lon="1.20016">
        <ele>12</ele>
        <time>2017-05-16T15:29:53Z</time>
      </trkpt>
      <trkpt lat="49.31842" lon="1.20017">
        <ele>12</ele>
        <time>2017-05-16T15:29:53Z</time>
      </trkpt>
      <trkpt lat="49.31836" lon="1.20017">
        <ele>12</ele>
        <time>2017-05-16T15:29:53Z</time>
      </trkpt>
      <trkpt lat="49.31832" lon="1.20016">
        <ele>12</ele>
        <time>2017-05-16T15:30:07Z</time>
      </trkpt>
      <trkpt lat="49.31826" lon="1.20017">
        <ele>12</ele>
        <time>2017-05-16T15:30:07Z</time>
      </trkpt>
      <trkpt lat="49.31821" lon="1.20017">
        <ele>12</ele>
        <time>2017-05-16T15:30:07Z</time>
      </trkpt>
      <trkpt lat="49.31817" lon="1.20016">
        <ele>12</ele>
        <time>2017-05-16T15:30:07Z</time>
      </trkpt>
      <trkpt lat="49.31811" lon="1.20015">
        <ele>12</ele>
        <time>2017-05-16T15:30:23Z</time>
      </trkpt>
      <trkpt lat="49.31807" lon="1.20016">
        <ele>12</ele>
        <time>2017-05-16T15:30:23Z</time>
      </trkpt>
      <trkpt lat="49.31804" lon="1.20017">
        <ele>12</ele>
        <time>2017-05-16T15:30:23Z</time>
      </trkpt>
      <trkpt lat="49.31797" lon="1.20016">
        <ele>12</ele>
        <time>2017-05-16T15:30:23Z</time>
      </trkpt>
      <trkpt lat="49.31793" lon="1.20015">
        <ele>12</ele>
        <time>2017-05-16T15:30:40Z</time>
      </trkpt>
      <trkpt lat="49.31788" lon="1.20016">
        <ele>13</ele>
        <time>2017-05-16T15:30:40Z</time>
      </trkpt>
      <trkpt lat="49.31783" lon="1.20017">
        <ele>13</ele>
        <time>2017-05-16T15:30:40Z</time>
      </trkpt>
      <trkpt lat="49.3178" lon="1.20017">
        <ele>13</ele>
        <time>2017-05-16T15:30:40Z</time>
      </trkpt>
      <trkpt lat="49.31775" lon="1.20018">
        <ele>13</ele>
        <time>2017-05-16T15:30:56Z</time>
      </trkpt>
      <trkpt lat="49.3177" lon="1.20018">
        <ele>13</ele>
        <time>2017-05-16T15:30:57Z</time>
      </trkpt>
      <trkpt lat="49.31766" lon="1.20017">
        <ele>13</ele>
        <time>2017-05-16T15:30:58Z</time>
      </trkpt>
      <trkpt lat="49.3176" lon="1.20017">
        <ele>13</ele>
        <time>2017-05-16T15:30:58Z</time>
      </trkpt>
      <trkpt lat="49.31756" lon="1.20017">
        <ele>13</ele>
        <time>2017-05-16T15:31:12Z</time>
      </trkpt>
      <trkpt lat="49.31753" lon="1.20018">
        <ele>13</ele>
        <time>2017-05-16T15:31:12Z</time>
      </trkpt>
      <trkpt lat="49.31747" lon="1.20022">
        <ele>13</ele>
        <time>2017-05-16T15:31:12Z</time>
      </trkpt>
      <trkpt lat="49.31744" lon="1.20022">
        <ele>13</ele>
        <time>2017-05-16T15:31:12Z</time>
      </trkpt>
      <trkpt lat="49.31741" lon="1.20027">
        <ele>13</ele>
        <time>2017-05-16T15:31:27Z</time>
      </trkpt>
      <trkpt lat="49.31737" lon="1.20032">
        <ele>13</ele>
        <time>2017-05-16T15:31:27Z</time>
      </trkpt>
      <trkpt lat="49.31734" lon="1.20035">
        <ele>13</ele>
        <time>2017-05-16T15:31:27Z</time>
      </trkpt>
      <trkpt lat="49.31729" lon="1.20036">
        <ele>13</ele>
        <time>2017-05-16T15:31:27Z</time>
      </trkpt>
      <trkpt lat="49.31721" lon="1.20039">
        <ele>13</ele>
        <time>2017-05-16T15:31:52Z</time>
      </trkpt>
      <trkpt lat="49.3172" lon="1.20038">
        <ele>13</ele>
        <time>2017-05-16T15:31:52Z</time>
      </trkpt>
      <trkpt lat="49.31719" lon="1.20036">
        <ele>13</ele>
        <time>2017-05-16T15:31:52Z</time>
      </trkpt>
      <trkpt lat="49.31719" lon="1.20032">
        <ele>13</ele>
        <time>2017-05-16T15:31:52Z</time>
      </trkpt>
      <trkpt lat="49.31716" lon="1.20029">
        <ele>13</ele>
        <time>2017-05-16T15:31:52Z</time>
      </trkpt>
      <trkpt lat="49.31716" lon="1.20021">
        <ele>13</ele>
        <time>2017-05-16T15:32:25Z</time>
      </trkpt>
      <trkpt lat="49.3171" lon="1.2002">
        <ele>13</ele>
        <time>2017-05-16T15:32:25Z</time>
      </trkpt>
      <trkpt lat="49.31706" lon="1.20018">
        <ele>13</ele>
        <time>2017-05-16T15:32:25Z</time>
      </trkpt>
      <trkpt lat="49.31704" lon="1.20018">
        <ele>13</ele>
        <time>2017-05-16T15:32:25Z</time>
      </trkpt>
      <trkpt lat="49.317" lon="1.20018">
        <ele>13</ele>
        <time>2017-05-16T15:32:25Z</time>
      </trkpt>
      <trkpt lat="49.31691" lon="1.20019">
        <ele>13</ele>
        <time>2017-05-16T15:33:03Z</time>
      </trkpt>
      <trkpt lat="49.31687" lon="1.20021">
        <ele>13</ele>
        <time>2017-05-16T15:33:03Z</time>
      </trkpt>
      <trkpt lat="49.31683" lon="1.20021">
        <ele>13</ele>
        <time>2017-05-16T15:33:03Z</time>
      </trkpt>
      <trkpt lat="49.3168" lon="1.20023">
        <ele>13</ele>
        <time>2017-05-16T15:33:04Z</time>
      </trkpt>
      <trkpt lat="49.31674" lon="1.20024">
        <ele>13</ele>
        <time>2017-05-16T15:33:04Z</time>
      </trkpt>
      <trkpt lat="49.3167" lon="1.20024">
        <ele>13</ele>
        <time>2017-05-16T15:33:20Z</time>
      </trkpt>
      <trkpt lat="49.31664" lon="1.20022">
        <ele>13</ele>
        <time>2017-05-16T15:33:20Z</time>
      </trkpt>
      <trkpt lat="49.31661" lon="1.20023">
        <ele>13</ele>
        <time>2017-05-16T15:33:20Z</time>
      </trkpt>
      <trkpt lat="49.31654" lon="1.20021">
        <ele>13</ele>
        <time>2017-05-16T15:33:20Z</time>
      </trkpt>
      <trkpt lat="49.3165" lon="1.20021">
        <ele>13</ele>
        <time>2017-05-16T15:33:35Z</time>
      </trkpt>
      <trkpt lat="49.31644" lon="1.20021">
        <ele>13</ele>
        <time>2017-05-16T15:33:36Z</time>
      </trkpt>
      <trkpt lat="49.31641" lon="1.2002">
        <ele>13</ele>
        <time>2017-05-16T15:33:36Z</time>
      </trkpt>
      <trkpt lat="49.31637" lon="1.20018">
        <ele>13</ele>
        <time>2017-05-16T15:33:36Z</time>
      </trkpt>
      <trkpt lat="49.31632" lon="1.20015">
        <ele>13</ele>
        <time>2017-05-16T15:33:51Z</time>
      </trkpt>
      <trkpt lat="49.31631" lon="1.20013">
        <ele>13</ele>
        <time>2017-05-16T15:33:51Z</time>
      </trkpt>
      <trkpt lat="49.31624" lon="1.20009">
        <ele>10</ele>
        <time>2017-05-16T15:33:51Z</time>
      </trkpt>
      <trkpt lat="49.3162" lon="1.20006">
        <ele>10</ele>
        <time>2017-05-16T15:33:51Z</time>
      </trkpt>
      <trkpt lat="49.31616" lon="1.20004">
        <ele>10</ele>
        <time>2017-05-16T15:34:07Z</time>
      </trkpt>
      <trkpt lat="49.3161" lon="1.20002">
        <ele>10</ele>
        <time>2017-05-16T15:34:07Z</time>
      </trkpt>
      <trkpt lat="49.31607" lon="1.2">
        <ele>10</ele>
        <time>2017-05-16T15:34:07Z</time>
      </trkpt>
      <trkpt lat="49.31602" lon="1.19997">
        <ele>10</ele>
        <time>2017-05-16T15:34:07Z</time>
      </trkpt>
      <trkpt lat="49.31599" lon="1.19993">
        <ele>10</ele>
        <time>2017-05-16T15:34:24Z</time>
      </trkpt>
      <trkpt lat="49.31596" lon="1.19992">
        <ele>10</ele>
        <time>2017-05-16T15:34:24Z</time>
      </trkpt>
      <trkpt lat="49.3159" lon="1.19988">
        <ele>10</ele>
        <time>2017-05-16T15:34:24Z</time>
      </trkpt>
      <trkpt lat="49.31585" lon="1.19986">
        <ele>10</ele>
        <time>2017-05-16T15:34:24Z</time>
      </trkpt>
      <trkpt lat="49.31581" lon="1.19983">
        <ele>10</ele>
        <time>2017-05-16T15:34:39Z</time>
      </trkpt>
      <trkpt lat="49.31575" lon="1.19978">
        <ele>10</ele>
        <time>2017-05-16T15:34:39Z</time>
      </trkpt>
      <trkpt lat="49.31571" lon="1.19978">
        <ele>10</ele>
        <time>2017-05-16T15:34:39Z</time>
      </trkpt>
      <trkpt lat="49.31566" lon="1.19979">
        <ele>10</ele>
        <time>2017-05-16T15:34:39Z</time>
      </trkpt>
      <trkpt lat="49.31557" lon="1.19981">
        <ele>10</ele>
        <time>2017-05-16T15:34:55Z</time>
      </trkpt>
      <trkpt lat="49.31555" lon="1.1998">
        <ele>10</ele>
        <time>2017-05-16T15:34:55Z</time>
      </trkpt>
      <trkpt lat="49.31551" lon="1.1998">
        <ele>10</ele>
        <time>2017-05-16T15:34:55Z</time>
      </trkpt>
      <trkpt lat="49.31544" lon="1.19983">
        <ele>10</ele>
        <time>2017-05-16T15:34:55Z</time>
      </trkpt>
      <trkpt lat="49.31541" lon="1.19977">
        <ele>11</ele>
        <time>2017-05-16T15:35:19Z</time>
      </trkpt>
      <trkpt lat="49.31541" lon="1.19972">
        <ele>11</ele>
        <time>2017-05-16T15:35:19Z</time>
      </trkpt>
      <trkpt lat="49.31541" lon="1.1997">
        <ele>11</ele>
        <time>2017-05-16T15:35:19Z</time>
      </trkpt>
      <trkpt lat="49.31541" lon="1.1997">
        <ele>11</ele>
        <time>2017-05-16T15:35:19Z</time>
      </trkpt>
      <trkpt lat="49.3154" lon="1.19969">
        <ele>11</ele>
        <time>2017-05-16T15:35:19Z</time>
      </trkpt>
      <trkpt lat="49.3154" lon="1.19961">
        <ele>11</ele>
        <time>2017-05-16T15:35:39Z</time>
      </trkpt>
      <trkpt lat="49.3154" lon="1.1996">
        <ele>11</ele>
        <time>2017-05-16T15:35:39Z</time>
      </trkpt>
      <trkpt lat="49.3154" lon="1.19959">
        <ele>11</ele>
        <time>2017-05-16T15:35:39Z</time>
      </trkpt>
      <trkpt lat="49.3154" lon="1.19954">
        <ele>10</ele>
        <time>2017-05-16T15:35:39Z</time>
      </trkpt>
      <trkpt lat="49.3154" lon="1.19945">
        <ele>10</ele>
        <time>2017-05-16T15:35:40Z</time>
      </trkpt>
      <trkpt lat="49.31539" lon="1.19938">
        <ele>10</ele>
        <time>2017-05-16T15:35:56Z</time>
      </trkpt>
      <trkpt lat="49.3154" lon="1.19933">
        <ele>10</ele>
        <time>2017-05-16T15:35:56Z</time>
      </trkpt>
      <trkpt lat="49.31539" lon="1.19922">
        <ele>10</ele>
        <time>2017-05-16T15:35:56Z</time>
      </trkpt>
      <trkpt lat="49.31539" lon="1.19914">
        <ele>10</ele>
        <time>2017-05-16T15:35:56Z</time>
      </trkpt>
      <trkpt lat="49.31539" lon="1.19908">
        <ele>10</ele>
        <time>2017-05-16T15:36:11Z</time>
      </trkpt>
      <trkpt lat="49.31537" lon="1.19902">
        <ele>10</ele>
        <time>2017-05-16T15:36:11Z</time>
      </trkpt>
      <trkpt lat="49.31534" lon="1.19898">
        <ele>10</ele>
        <time>2017-05-16T15:36:11Z</time>
      </trkpt>
      <trkpt lat="49.31532" lon="1.19891">
        <ele>10</ele>
        <time>2017-05-16T15:36:11Z</time>
      </trkpt>
      <trkpt lat="49.3153" lon="1.19883">
        <ele>10</ele>
        <time>2017-05-16T15:36:28Z</time>
      </trkpt>
      <trkpt lat="49.31527" lon="1.1988">
        <ele>10</ele>
        <time>2017-05-16T15:36:28Z</time>
      </trkpt>
      <trkpt lat="49.31523" lon="1.19876">
        <ele>10</ele>
        <time>2017-05-16T15:36:28Z</time>
      </trkpt>
      <trkpt lat="49.31517" lon="1.19869">
        <ele>10</ele>
        <time>2017-05-16T15:36:28Z</time>
      </trkpt>
      <trkpt lat="49.31515" lon="1.19865">
        <ele>10</ele>
        <time>2017-05-16T15:36:43Z</time>
      </trkpt>
      <trkpt lat="49.31509" lon="1.19863">
        <ele>10</ele>
        <time>2017-05-16T15:36:43Z</time>
      </trkpt>
      <trkpt lat="49.31506" lon="1.19861">
        <ele>10</ele>
        <time>2017-05-16T15:36:43Z</time>
      </trkpt>
      <trkpt lat="49.315" lon="1.19858">
        <ele>10</ele>
        <time>2017-05-16T15:36:43Z</time>
      </trkpt>
      <trkpt lat="49.31493" lon="1.19854">
        <ele>10</ele>
        <time>2017-05-16T15:37:01Z</time>
      </trkpt>
      <trkpt lat="49.31488" lon="1.19852">
        <ele>10</ele>
        <time>2017-05-16T15:37:01Z</time>
      </trkpt>
      <trkpt lat="49.31486" lon="1.19852">
        <ele>10</ele>
        <time>2017-05-16T15:37:01Z</time>
      </trkpt>
      <trkpt lat="49.31478" lon="1.19853">
        <ele>10</ele>
        <time>2017-05-16T15:37:01Z</time>
      </trkpt>
      <trkpt lat="49.31476" lon="1.19853">
        <ele>10</ele>
        <time>2017-05-16T15:37:15Z</time>
      </trkpt>
      <trkpt lat="49.31472" lon="1.19852">
        <ele>10</ele>
        <time>2017-05-16T15:37:15Z</time>
      </trkpt>
      <trkpt lat="49.31467" lon="1.19852">
        <ele>10</ele>
        <time>2017-05-16T15:37:15Z</time>
      </trkpt>
      <trkpt lat="49.31463" lon="1.19853">
        <ele>10</ele>
        <time>2017-05-16T15:37:15Z</time>
      </trkpt>
      <trkpt lat="49.31454" lon="1.19855">
        <ele>11</ele>
        <time>2017-05-16T15:37:31Z</time>
      </trkpt>
      <trkpt lat="49.31449" lon="1.19856">
        <ele>11</ele>
        <time>2017-05-16T15:37:32Z</time>
      </trkpt>
      <trkpt lat="49.31446" lon="1.19857">
        <ele>11</ele>
        <time>2017-05-16T15:37:32Z</time>
      </trkpt>
      <trkpt lat="49.31441" lon="1.19858">
        <ele>11</ele>
        <time>2017-05-16T15:37:32Z</time>
      </trkpt>
      <trkpt lat="49.31436" lon="1.19858">
        <ele>11</ele>
        <time>2017-05-16T15:37:48Z</time>
      </trkpt>
      <trkpt lat="49.31433" lon="1.19858">
        <ele>11</ele>
        <time>2017-05-16T15:37:48Z</time>
      </trkpt>
      <trkpt lat="49.31428" lon="1.19859">
        <ele>11</ele>
        <time>2017-05-16T15:37:48Z</time>
      </trkpt>
      <trkpt lat="49.31423" lon="1.19859">
        <ele>11</ele>
        <time>2017-05-16T15:37:48Z</time>
      </trkpt>
      <trkpt lat="49.31418" lon="1.19859">
        <ele>11</ele>
        <time>2017-05-16T15:38:06Z</time>
      </trkpt>
      <trkpt lat="49.31413" lon="1.19854">
        <ele>11</ele>
        <time>2017-05-16T15:38:06Z</time>
      </trkpt>
      <trkpt lat="49.31408" lon="1.19851">
        <ele>11</ele>
        <time>2017-05-16T15:38:06Z</time>
      </trkpt>
      <trkpt lat="49.31403" lon="1.19848">
        <ele>11</ele>
        <time>2017-05-16T15:38:06Z</time>
      </trkpt>
      <trkpt lat="49.314" lon="1.19846">
        <ele>11</ele>
        <time>2017-05-16T15:38:19Z</time>
      </trkpt>
      <trkpt lat="49.31396" lon="1.19839">
        <ele>11</ele>
        <time>2017-05-16T15:38:19Z</time>
      </trkpt>
      <trkpt lat="49.31393" lon="1.19836">
        <ele>11</ele>
        <time>2017-05-16T15:38:19Z</time>
      </trkpt>
      <trkpt lat="49.31389" lon="1.19833">
        <ele>11</ele>
        <time>2017-05-16T15:38:19Z</time>
      </trkpt>
      <trkpt lat="49.31384" lon="1.1983">
        <ele>11</ele>
        <time>2017-05-16T15:38:36Z</time>
      </trkpt>
      <trkpt lat="49.31381" lon="1.19826">
        <ele>11</ele>
        <time>2017-05-16T15:38:36Z</time>
      </trkpt>
      <trkpt lat="49.31373" lon="1.19822">
        <ele>13</ele>
        <time>2017-05-16T15:38:36Z</time>
      </trkpt>
      <trkpt lat="49.31372" lon="1.19818">
        <ele>13</ele>
        <time>2017-05-16T15:38:36Z</time>
      </trkpt>
      <trkpt lat="49.31367" lon="1.19817">
        <ele>13</ele>
        <time>2017-05-16T15:38:52Z</time>
      </trkpt>
      <trkpt lat="49.31362" lon="1.19817">
        <ele>13</ele>
        <time>2017-05-16T15:38:52Z</time>
      </trkpt>
      <trkpt lat="49.31358" lon="1.19816">
        <ele>13</ele>
        <time>2017-05-16T15:38:52Z</time>
      </trkpt>
      <trkpt lat="49.31353" lon="1.19818">
        <ele>13</ele>
        <time>2017-05-16T15:38:52Z</time>
      </trkpt>
      <trkpt lat="49.31351" lon="1.19818">
        <ele>13</ele>
        <time>2017-05-16T15:39:07Z</time>
      </trkpt>
      <trkpt lat="49.31346" lon="1.19817">
        <ele>13</ele>
        <time>2017-05-16T15:39:07Z</time>
      </trkpt>
      <trkpt lat="49.31342" lon="1.19816">
        <ele>13</ele>
        <time>2017-05-16T15:39:07Z</time>
      </trkpt>
      <trkpt lat="49.31337" lon="1.19816">
        <ele>13</ele>
        <time>2017-05-16T15:39:07Z</time>
      </trkpt>
      <trkpt lat="49.31333" lon="1.19817">
        <ele>13</ele>
        <time>2017-05-16T15:39:24Z</time>
      </trkpt>
      <trkpt lat="49.31327" lon="1.19817">
        <ele>13</ele>
        <time>2017-05-16T15:39:24Z</time>
      </trkpt>
      <trkpt lat="49.31322" lon="1.19817">
        <ele>13</ele>
        <time>2017-05-16T15:39:24Z</time>
      </trkpt>
      <trkpt lat="49.31317" lon="1.19817">
        <ele>13</ele>
        <time>2017-05-16T15:39:24Z</time>
      </trkpt>
      <trkpt lat="49.31312" lon="1.19816">
        <ele>13</ele>
        <time>2017-05-16T15:39:40Z</time>
      </trkpt>
      <trkpt lat="49.31308" lon="1.19818">
        <ele>13</ele>
        <time>2017-05-16T15:39:40Z</time>
      </trkpt>
      <trkpt lat="49.31305" lon="1.19818">
        <ele>13</ele>
        <time>2017-05-16T15:39:40Z</time>
      </trkpt>
      <trkpt lat="49.31297" lon="1.19819">
        <ele>13</ele>
        <time>2017-05-16T15:39:40Z</time>
      </trkpt>
      <trkpt lat="49.31294" lon="1.19819">
        <ele>13</ele>
        <time>2017-05-16T15:39:55Z</time>
      </trkpt>
      <trkpt lat="49.31289" lon="1.19818">
        <ele>12</ele>
        <time>2017-05-16T15:39:55Z</time>
      </trkpt>
      <trkpt lat="49.31286" lon="1.19816">
        <ele>12</ele>
        <time>2017-05-16T15:39:55Z</time>
      </trkpt>
      <trkpt lat="49.31281" lon="1.19817">
        <ele>12</ele>
        <time>2017-05-16T15:39:55Z</time>
      </trkpt>
      <trkpt lat="49.31275" lon="1.19818">
        <ele>12</ele>
        <time>2017-05-16T15:40:12Z</time>
      </trkpt>
      <trkpt lat="49.31266" lon="1.19819">
        <ele>12</ele>
        <time>2017-05-16T15:40:12Z</time>
      </trkpt>
      <trkpt lat="49.31263" lon="1.19819">
        <ele>12</ele>
        <time>2017-05-16T15:40:12Z</time>
      </trkpt>
      <trkpt lat="49.31258" lon="1.19818">
        <ele>12</ele>
        <time>2017-05-16T15:40:12Z</time>
      </trkpt>
      <trkpt lat="49.31255" lon="1.19819">
        <ele>12</ele>
        <time>2017-05-16T15:40:28Z</time>
      </trkpt>
      <trkpt lat="49.31249" lon="1.19819">
        <ele>12</ele>
        <time>2017-05-16T15:40:28Z</time>
      </trkpt>
      <trkpt lat="49.31244" lon="1.19819">
        <ele>12</ele>
        <time>2017-05-16T15:40:28Z</time>
      </trkpt>
      <trkpt lat="49.31239" lon="1.19819">
        <ele>12</ele>
        <time>2017-05-16T15:40:28Z</time>
      </trkpt>
      <trkpt lat="49.31235" lon="1.1982">
        <ele>12</ele>
        <time>2017-05-16T15:40:44Z</time>
      </trkpt>
      <trkpt lat="49.31227" lon="1.19821">
        <ele>12</ele>
        <time>2017-05-16T15:40:44Z</time>
      </trkpt>
      <trkpt lat="49.31223" lon="1.1982">
        <ele>12</ele>
        <time>2017-05-16T15:40:44Z</time>
      </trkpt>
      <trkpt lat="49.3122" lon="1.19821">
        <ele>12</ele>
        <time>2017-05-16T15:40:44Z</time>
      </trkpt>
      <trkpt lat="49.31215" lon="1.19825">
        <ele>12</ele>
        <time>2017-05-16T15:40:59Z</time>
      </trkpt>
      <trkpt lat="49.31209" lon="1.19825">
        <ele>12</ele>
        <time>2017-05-16T15:40:59Z</time>
      </trkpt>
      <trkpt lat="49.31203" lon="1.19827">
        <ele>13</ele>
        <time>2017-05-16T15:40:59Z</time>
      </trkpt>
      <trkpt lat="49.31199" lon="1.19828">
        <ele>13</ele>
        <time>2017-05-16T15:40:59Z</time>
      </trkpt>
      <trkpt lat="49.31192" lon="1.1983">
        <ele>13</ele>
        <time>2017-05-16T15:41:15Z</time>
      </trkpt>
      <trkpt lat="49.31189" lon="1.19826">
        <ele>13</ele>
        <time>2017-05-16T15:41:15Z</time>
      </trkpt>
      <trkpt lat="49.31186" lon="1.19823">
        <ele>13</ele>
        <time>2017-05-16T15:41:15Z</time>
      </trkpt>
      <trkpt lat="49.3118" lon="1.19824">
        <ele>13</ele>
        <time>2017-05-16T15:41:15Z</time>
      </trkpt>
      <trkpt lat="49.31176" lon="1.19826">
        <ele>13</ele>
        <time>2017-05-16T15:41:33Z</time>
      </trkpt>
      <trkpt lat="49.31171" lon="1.19831">
        <ele>13</ele>
        <time>2017-05-16T15:41:33Z</time>
      </trkpt>
      <trkpt lat="49.31167" lon="1.19834">
        <ele>13</ele>
        <time>2017-05-16T15:41:33Z</time>
      </trkpt>
      <trkpt lat="49.31162" lon="1.19838">
        <ele>13</ele>
        <time>2017-05-16T15:41:33Z</time>
      </trkpt>
      <trkpt lat="49.31159" lon="1.19842">
        <ele>13</ele>
        <time>2017-05-16T15:41:47Z</time>
      </trkpt>
      <trkpt lat="49.31156" lon="1.19845">
        <ele>13</ele>
        <time>2017-05-16T15:41:47Z</time>
      </trkpt>
      <trkpt lat="49.31154" lon="1.19848">
        <ele>13</ele>
        <time>2017-05-16T15:41:47Z</time>
      </trkpt>
      <trkpt lat="49.31151" lon="1.19853">
        <ele>13</ele>
        <time>2017-05-16T15:41:47Z</time>
      </trkpt>
      <trkpt lat="49.31145" lon="1.1986">
        <ele>13</ele>
        <time>2017-05-16T15:42:04Z</time>
      </trkpt>
      <trkpt lat="49.3114" lon="1.19864">
        <ele>13</ele>
        <time>2017-05-16T15:42:04Z</time>
      </trkpt>
      <trkpt lat="49.31136" lon="1.19867">
        <ele>13</ele>
        <time>2017-05-16T15:42:04Z</time>
      </trkpt>
      <trkpt lat="49.31133" lon="1.19872">
        <ele>13</ele>
        <time>2017-05-16T15:42:04Z</time>
      </trkpt>
      <trkpt lat="49.31131" lon="1.19875">
        <ele>13</ele>
        <time>2017-05-16T15:42:19Z</time>
      </trkpt>
      <trkpt lat="49.31128" lon="1.19885">
        <ele>12</ele>
        <time>2017-05-16T15:42:19Z</time>
      </trkpt>
      <trkpt lat="49.31127" lon="1.1989">
        <ele>12</ele>
        <time>2017-05-16T15:42:19Z</time>
      </trkpt>
      <trkpt lat="49.31123" lon="1.19897">
        <ele>12</ele>
        <time>2017-05-16T15:42:19Z</time>
      </trkpt>
      <trkpt lat="49.3112" lon="1.19902">
        <ele>12</ele>
        <time>2017-05-16T15:42:35Z</time>
      </trkpt>
      <trkpt lat="49.31115" lon="1.19908">
        <ele>12</ele>
        <time>2017-05-16T15:42:35Z</time>
      </trkpt>
      <trkpt lat="49.31112" lon="1.19911">
        <ele>12</ele>
        <time>2017-05-16T15:42:35Z</time>
      </trkpt>
      <trkpt lat="49.3111" lon="1.19916">
        <ele>12</ele>
        <time>2017-05-16T15:42:35Z</time>
      </trkpt>
      <trkpt lat="49.31107" lon="1.19925">
        <ele>12</ele>
        <time>2017-05-16T15:42:51Z</time>
      </trkpt>
      <trkpt lat="49.31104" lon="1.1993">
        <ele>12</ele>
        <time>2017-05-16T15:42:51Z</time>
      </trkpt>
      <trkpt lat="49.311" lon="1.19933">
        <ele>12</ele>
        <time>2017-05-16T15:42:51Z</time>
      </trkpt>
      <trkpt lat="49.31098" lon="1.19941">
        <ele>12</ele>
        <time>2017-05-16T15:42:51Z</time>
      </trkpt>
      <trkpt lat="49.31095" lon="1.19948">
        <ele>12</ele>
        <time>2017-05-16T15:43:07Z</time>
      </trkpt>
      <trkpt lat="49.31093" lon="1.19954">
        <ele>12</ele>
        <time>2017-05-16T15:43:07Z</time>
      </trkpt>
      <trkpt lat="49.31091" lon="1.19957">
        <ele>12</ele>
        <time>2017-05-16T15:43:07Z</time>
      </trkpt>
      <trkpt lat="49.31089" lon="1.19964">
        <ele>13</ele>
        <time>2017-05-16T15:43:07Z</time>
      </trkpt>
      <trkpt lat="49.31087" lon="1.1997">
        <ele>13</ele>
        <time>2017-05-16T15:43:24Z</time>
      </trkpt>
      <trkpt lat="49.31084" lon="1.19976">
        <ele>13</ele>
        <time>2017-05-16T15:43:24Z</time>
      </trkpt>
      <trkpt lat="49.31083" lon="1.19984">
        <ele>13</ele>
        <time>2017-05-16T15:43:24Z</time>
      </trkpt>
      <trkpt lat="49.31081" lon="1.19988">
        <ele>13</ele>
        <time>2017-05-16T15:43:24Z</time>
      </trkpt>
      <trkpt lat="49.31079" lon="1.19997">
        <ele>13</ele>
        <time>2017-05-16T15:43:40Z</time>
      </trkpt>
      <trkpt lat="49.31077" lon="1.20003">
        <ele>13</ele>
        <time>2017-05-16T15:43:40Z</time>
      </trkpt>
      <trkpt lat="49.31075" lon="1.20011">
        <ele>13</ele>
        <time>2017-05-16T15:43:40Z</time>
      </trkpt>
      <trkpt lat="49.31074" lon="1.2002">
        <ele>13</ele>
        <time>2017-05-16T15:43:40Z</time>
      </trkpt>
      <trkpt lat="49.31073" lon="1.20026">
        <ele>13</ele>
        <time>2017-05-16T15:43:56Z</time>
      </trkpt>
      <trkpt lat="49.31069" lon="1.2003">
        <ele>13</ele>
        <time>2017-05-16T15:43:56Z</time>
      </trkpt>
      <trkpt lat="49.31066" lon="1.2003">
        <ele>13</ele>
        <time>2017-05-16T15:43:56Z</time>
      </trkpt>
      <trkpt lat="49.31061" lon="1.20028">
        <ele>13</ele>
        <time>2017-05-16T15:43:56Z</time>
      </trkpt>
      <trkpt lat="49.31057" lon="1.20026">
        <ele>13</ele>
        <time>2017-05-16T15:44:11Z</time>
      </trkpt>
      <trkpt lat="49.31051" lon="1.20023">
        <ele>13</ele>
        <time>2017-05-16T15:44:11Z</time>
      </trkpt>
      <trkpt lat="49.31047" lon="1.20019">
        <ele>13</ele>
        <time>2017-05-16T15:44:11Z</time>
      </trkpt>
      <trkpt lat="49.31043" lon="1.20015">
        <ele>13</ele>
        <time>2017-05-16T15:44:11Z</time>
      </trkpt>
      <trkpt lat="49.31038" lon="1.20012">
        <ele>10</ele>
        <time>2017-05-16T15:44:27Z</time>
      </trkpt>
      <trkpt lat="49.31034" lon="1.20012">
        <ele>10</ele>
        <time>2017-05-16T15:44:27Z</time>
      </trkpt>
      <trkpt lat="49.31028" lon="1.2001">
        <ele>10</ele>
        <time>2017-05-16T15:44:27Z</time>
      </trkpt>
      <trkpt lat="49.31027" lon="1.2001">
        <ele>10</ele>
        <time>2017-05-16T15:44:27Z</time>
      </trkpt>
      <trkpt lat="49.31022" lon="1.20009">
        <ele>10</ele>
        <time>2017-05-16T15:44:44Z</time>
      </trkpt>
      <trkpt lat="49.31014" lon="1.20006">
        <ele>10</ele>
        <time>2017-05-16T15:44:44Z</time>
      </trkpt>
      <trkpt lat="49.31011" lon="1.20002">
        <ele>10</ele>
        <time>2017-05-16T15:44:44Z</time>
      </trkpt>
      <trkpt lat="49.31009" lon="1.19997">
        <ele>10</ele>
        <time>2017-05-16T15:44:44Z</time>
      </trkpt>
      <trkpt lat="49.30999" lon="1.19994">
        <ele>10</ele>
        <time>2017-05-16T15:45:01Z</time>
      </trkpt>
      <trkpt lat="49.30995" lon="1.1999">
        <ele>10</ele>
        <time>2017-05-16T15:45:01Z</time>
      </trkpt>
      <trkpt lat="49.3099" lon="1.19989">
        <ele>10</ele>
        <time>2017-05-16T15:45:01Z</time>
      </trkpt>
      <trkpt lat="49.30985" lon="1.1999">
        <ele>10</ele>
        <time>2017-05-16T15:45:01Z</time>
      </trkpt>
      <trkpt lat="49.30983" lon="1.19992">
        <ele>10</ele>
        <time>2017-05-16T15:45:23Z</time>
      </trkpt>
      <trkpt lat="49.30984" lon="1.19991">
        <ele>10</ele>
        <time>2017-05-16T15:45:23Z</time>
      </trkpt>
      <trkpt lat="49.30984" lon="1.19991">
        <ele>10</ele>
        <time>2017-05-16T15:45:24Z</time>
      </trkpt>
      <trkpt lat="49.30989" lon="1.1999">
        <ele>10</ele>
        <time>2017-05-16T15:45:24Z</time>
      </trkpt>
      <trkpt lat="49.30992" lon="1.1999">
        <ele>10</ele>
        <time>2017-05-16T15:45:24Z</time>
      </trkpt>
      <trkpt lat="49.30994" lon="1.19989">
        <ele>10</ele>
        <time>2017-05-16T15:46:03Z</time>
      </trkpt>
      <trkpt lat="49.30994" lon="1.19989">
        <ele>10</ele>
        <time>2017-05-16T15:46:03Z</time>
      </trkpt>
      <trkpt lat="49.30994" lon="1.19989">
        <ele>10</ele>
        <time>2017-05-16T15:46:03Z</time>
      </trkpt>
      <trkpt lat="49.30991" lon="1.19999">
        <ele>10</ele>
        <time>2017-05-16T15:46:03Z</time>
      </trkpt>
      <trkpt lat="49.30992" lon="1.20008">
        <ele>10</ele>
        <time>2017-05-16T15:46:03Z</time>
      </trkpt>
      <trkpt lat="49.3099" lon="1.20019">
        <ele>10</ele>
        <time>2017-05-16T15:46:21Z</time>
      </trkpt>
      <trkpt lat="49.30989" lon="1.2003">
        <ele>10</ele>
        <time>2017-05-16T15:46:21Z</time>
      </trkpt>
      <trkpt lat="49.30988" lon="1.20036">
        <ele>10</ele>
        <time>2017-05-16T15:46:21Z</time>
      </trkpt>
      <trkpt lat="49.30991" lon="1.20044">
        <ele>8</ele>
        <time>2017-05-16T15:46:21Z</time>
      </trkpt>
      <trkpt lat="49.30991" lon="1.20051">
        <ele>8</ele>
        <time>2017-05-16T15:46:36Z</time>
      </trkpt>
      <trkpt lat="49.30988" lon="1.20055">
        <ele>8</ele>
        <time>2017-05-16T15:46:36Z</time>
      </trkpt>
      <trkpt lat="49.30992" lon="1.20063">
        <ele>8</ele>
        <time>2017-05-16T15:46:36Z</time>
      </trkpt>
      <trkpt lat="49.30996" lon="1.20071">
        <ele>8</ele>
        <time>2017-05-16T15:46:36Z</time>
      </trkpt>
      <trkpt lat="49.30995" lon="1.20077">
        <ele>8</ele>
        <time>2017-05-16T15:46:51Z</time>
      </trkpt>
      <trkpt lat="49.30999" lon="1.20084">
        <ele>8</ele>
        <time>2017-05-16T15:46:51Z</time>
      </trkpt>
      <trkpt lat="49.30998" lon="1.2009">
        <ele>8</ele>
        <time>2017-05-16T15:46:51Z</time>
      </trkpt>
      <trkpt lat="49.30997" lon="1.20097">
        <ele>8</ele>
        <time>2017-05-16T15:46:51Z</time>
      </trkpt>
      <trkpt lat="49.30998" lon="1.20103">
        <ele>8</ele>
        <time>2017-05-16T15:47:07Z</time>
      </trkpt>
      <trkpt lat="49.30997" lon="1.20108">
        <ele>8</ele>
        <time>2017-05-16T15:47:07Z</time>
      </trkpt>
      <trkpt lat="49.31001" lon="1.20115">
        <ele>8</ele>
        <time>2017-05-16T15:47:07Z</time>
      </trkpt>
      <trkpt lat="49.30998" lon="1.20124">
        <ele>8</ele>
        <time>2017-05-16T15:47:07Z</time>
      </trkpt>
      <trkpt lat="49.31002" lon="1.2013">
        <ele>5</ele>
        <time>2017-05-16T15:47:23Z</time>
      </trkpt>
      <trkpt lat="49.31004" lon="1.20138">
        <ele>5</ele>
        <time>2017-05-16T15:47:23Z</time>
      </trkpt>
      <trkpt lat="49.31005" lon="1.20146">
        <ele>5</ele>
        <time>2017-05-16T15:47:23Z</time>
      </trkpt>
      <trkpt lat="49.31005" lon="1.20154">
        <ele>5</ele>
        <time>2017-05-16T15:47:23Z</time>
      </trkpt>
      <trkpt lat="49.31006" lon="1.20161">
        <ele>5</ele>
        <time>2017-05-16T15:47:39Z</time>
      </trkpt>
      <trkpt lat="49.31008" lon="1.20168">
        <ele>5</ele>
        <time>2017-05-16T15:47:40Z</time>
      </trkpt>
      <trkpt lat="49.31009" lon="1.20175">
        <ele>5</ele>
        <time>2017-05-16T15:47:40Z</time>
      </trkpt>
      <trkpt lat="49.31009" lon="1.20182">
        <ele>5</ele>
        <time>2017-05-16T15:47:40Z</time>
      </trkpt>
      <trkpt lat="49.31012" lon="1.20196">
        <ele>5</ele>
        <time>2017-05-16T15:48:19Z</time>
      </trkpt>
      <trkpt lat="49.31012" lon="1.20199">
        <ele>5</ele>
        <time>2017-05-16T15:48:19Z</time>
      </trkpt>
      <trkpt lat="49.31013" lon="1.20199">
        <ele>5</ele>
        <time>2017-05-16T15:48:19Z</time>
      </trkpt>
      <trkpt lat="49.31015" lon="1.20199">
        <ele>5</ele>
        <time>2017-05-16T15:48:19Z</time>
      </trkpt>
      <trkpt lat="49.31016" lon="1.20208">
        <ele>5</ele>
        <time>2017-05-16T15:48:19Z</time>
      </trkpt>
      <trkpt lat="49.31016" lon="1.20216">
        <ele>6</ele>
        <time>2017-05-16T15:48:35Z</time>
      </trkpt>
      <trkpt lat="49.31018" lon="1.20223">
        <ele>6</ele>
        <time>2017-05-16T15:48:35Z</time>
      </trkpt>
      <trkpt lat="49.3102" lon="1.2023">
        <ele>6</ele>
        <time>2017-05-16T15:48:35Z</time>
      </trkpt>
      <trkpt lat="49.31022" lon="1.20236">
        <ele>6</ele>
        <time>2017-05-16T15:48:35Z</time>
      </trkpt>
      <trkpt lat="49.31023" lon="1.20243">
        <ele>6</ele>
        <time>2017-05-16T15:48:52Z</time>
      </trkpt>
      <trkpt lat="49.31023" lon="1.20251">
        <ele>6</ele>
        <time>2017-05-16T15:48:52Z</time>
      </trkpt>
      <trkpt lat="49.31024" lon="1.20255">
        <ele>6</ele>
        <time>2017-05-16T15:48:52Z</time>
      </trkpt>
      <trkpt lat="49.31027" lon="1.20262">
        <ele>6</ele>
        <time>2017-05-16T15:48:52Z</time>
      </trkpt>
      <trkpt lat="49.31027" lon="1.20268">
        <ele>6</ele>
        <time>2017-05-16T15:49:09Z</time>
      </trkpt>
      <trkpt lat="49.31027" lon="1.20276">
        <ele>6</ele>
        <time>2017-05-16T15:49:09Z</time>
      </trkpt>
      <trkpt lat="49.31028" lon="1.20283">
        <ele>6</ele>
        <time>2017-05-16T15:49:09Z</time>
      </trkpt>
      <trkpt lat="49.31029" lon="1.20293">
        <ele>8</ele>
        <time>2017-05-16T15:49:09Z</time>
      </trkpt>
      <trkpt lat="49.31029" lon="1.20297">
        <ele>8</ele>
        <time>2017-05-16T15:49:24Z</time>
      </trkpt>
      <trkpt lat="49.3103" lon="1.20304">
        <ele>8</ele>
        <time>2017-05-16T15:49:24Z</time>
      </trkpt>
      <trkpt lat="49.31031" lon="1.20312">
        <ele>8</ele>
        <time>2017-05-16T15:49:24Z</time>
      </trkpt>
      <trkpt lat="49.31029" lon="1.20318">
        <ele>8</ele>
        <time>2017-05-16T15:49:24Z</time>
      </trkpt>
      <trkpt lat="49.31034" lon="1.20327">
        <ele>8</ele>
        <time>2017-05-16T15:49:40Z</time>
      </trkpt>
      <trkpt lat="49.31035" lon="1.20334">
        <ele>8</ele>
        <time>2017-05-16T15:49:40Z</time>
      </trkpt>
      <trkpt lat="49.31038" lon="1.20339">
        <ele>8</ele>
        <time>2017-05-16T15:49:41Z</time>
      </trkpt>
      <trkpt lat="49.3104" lon="1.20348">
        <ele>8</ele>
        <time>2017-05-16T15:49:41Z</time>
      </trkpt>
      <trkpt lat="49.31043" lon="1.20355">
        <ele>10</ele>
        <time>2017-05-16T15:49:55Z</time>
      </trkpt>
      <trkpt lat="49.31046" lon="1.20359">
        <ele>10</ele>
        <time>2017-05-16T15:49:55Z</time>
      </trkpt>
      <trkpt lat="49.31043" lon="1.20368">
        <ele>10</ele>
        <time>2017-05-16T15:49:55Z</time>
      </trkpt>
      <trkpt lat="49.31043" lon="1.20373">
        <ele>10</ele>
        <time>2017-05-16T15:49:55Z</time>
      </trkpt>
      <trkpt lat="49.31045" lon="1.20377">
        <ele>9</ele>
        <time>2017-05-16T15:50:11Z</time>
      </trkpt>
      <trkpt lat="49.31043" lon="1.20386">
        <ele>9</ele>
        <time>2017-05-16T15:50:11Z</time>
      </trkpt>
      <trkpt lat="49.31046" lon="1.20395">
        <ele>9</ele>
        <time>2017-05-16T15:50:11Z</time>
      </trkpt>
      <trkpt lat="49.31049" lon="1.20398">
        <ele>9</ele>
        <time>2017-05-16T15:50:11Z</time>
      </trkpt>
      <trkpt lat="49.3105" lon="1.20402">
        <ele>9</ele>
        <time>2017-05-16T15:50:27Z</time>
      </trkpt>
      <trkpt lat="49.31051" lon="1.20409">
        <ele>9</ele>
        <time>2017-05-16T15:50:27Z</time>
      </trkpt>
      <trkpt lat="49.31053" lon="1.20421">
        <ele>9</ele>
        <time>2017-05-16T15:50:27Z</time>
      </trkpt>
      <trkpt lat="49.31056" lon="1.20422">
        <ele>9</ele>
        <time>2017-05-16T15:50:27Z</time>
      </trkpt>
      <trkpt lat="49.31059" lon="1.20427">
        <ele>9</ele>
        <time>2017-05-16T15:50:44Z</time>
      </trkpt>
      <trkpt lat="49.31061" lon="1.20431">
        <ele>9</ele>
        <time>2017-05-16T15:50:44Z</time>
      </trkpt>
      <trkpt lat="49.31061" lon="1.20436">
        <ele>9</ele>
        <time>2017-05-16T15:50:44Z</time>
      </trkpt>
      <trkpt lat="49.31064" lon="1.20443">
        <ele>9</ele>
        <time>2017-05-16T15:50:44Z</time>
      </trkpt>
      <trkpt lat="49.31065" lon="1.20448">
        <ele>9</ele>
        <time>2017-05-16T15:51:00Z</time>
      </trkpt>
      <trkpt lat="49.31068" lon="1.20456">
        <ele>9</ele>
        <time>2017-05-16T15:51:00Z</time>
      </trkpt>
      <trkpt lat="49.31068" lon="1.20462">
        <ele>8</ele>
        <time>2017-05-16T15:51:00Z</time>
      </trkpt>
      <trkpt lat="49.31069" lon="1.20471">
        <ele>8</ele>
        <time>2017-05-16T15:51:00Z</time>
      </trkpt>
      <trkpt lat="49.3107" lon="1.20476">
        <ele>8</ele>
        <time>2017-05-16T15:51:15Z</time>
      </trkpt>
      <trkpt lat="49.31072" lon="1.20484">
        <ele>8</ele>
        <time>2017-05-16T15:51:15Z</time>
      </trkpt>
      <trkpt lat="49.31072" lon="1.20492">
        <ele>8</ele>
        <time>2017-05-16T15:51:15Z</time>
      </trkpt>
      <trkpt lat="49.31073" lon="1.20499">
        <ele>8</ele>
        <time>2017-05-16T15:51:15Z</time>
      </trkpt>
      <trkpt lat="49.31074" lon="1.20506">
        <ele>8</ele>
        <time>2017-05-16T15:51:31Z</time>
      </trkpt>
      <trkpt lat="49.31074" lon="1.20514">
        <ele>8</ele>
        <time>2017-05-16T15:51:31Z</time>
      </trkpt>
      <trkpt lat="49.31077" lon="1.2052">
        <ele>8</ele>
        <time>2017-05-16T15:51:31Z</time>
      </trkpt>
      <trkpt lat="49.31077" lon="1.20527">
        <ele>8</ele>
        <time>2017-05-16T15:51:31Z</time>
      </trkpt>
      <trkpt lat="49.31078" lon="1.20533">
        <ele>8</ele>
        <time>2017-05-16T15:51:47Z</time>
      </trkpt>
      <trkpt lat="49.31077" lon="1.20542">
        <ele>8</ele>
        <time>2017-05-16T15:51:47Z</time>
      </trkpt>
      <trkpt lat="49.31079" lon="1.20549">
        <ele>8</ele>
        <time>2017-05-16T15:51:47Z</time>
      </trkpt>
      <trkpt lat="49.31078" lon="1.20556">
        <ele>8</ele>
        <time>2017-05-16T15:51:47Z</time>
      </trkpt>
      <trkpt lat="49.31079" lon="1.20565">
        <ele>8</ele>
        <time>2017-05-16T15:52:04Z</time>
      </trkpt>
      <trkpt lat="49.3108" lon="1.2057">
        <ele>8</ele>
        <time>2017-05-16T15:52:04Z</time>
      </trkpt>
      <trkpt lat="49.31081" lon="1.2058">
        <ele>8</ele>
        <time>2017-05-16T15:52:04Z</time>
      </trkpt>
      <trkpt lat="49.31082" lon="1.20583">
        <ele>8</ele>
        <time>2017-05-16T15:52:04Z</time>
      </trkpt>
      <trkpt lat="49.31083" lon="1.20593">
        <ele>8</ele>
        <time>2017-05-16T15:52:19Z</time>
      </trkpt>
      <trkpt lat="49.31083" lon="1.20597">
        <ele>8</ele>
        <time>2017-05-16T15:52:19Z</time>
      </trkpt>
      <trkpt lat="49.31086" lon="1.20608">
        <ele>8</ele>
        <time>2017-05-16T15:52:19Z</time>
      </trkpt>
      <trkpt lat="49.31085" lon="1.20612">
        <ele>8</ele>
        <time>2017-05-16T15:52:19Z</time>
      </trkpt>
      <trkpt lat="49.31083" lon="1.2062">
        <ele>8</ele>
        <time>2017-05-16T15:52:36Z</time>
      </trkpt>
      <trkpt lat="49.31084" lon="1.20628">
        <ele>8</ele>
        <time>2017-05-16T15:52:36Z</time>
      </trkpt>
      <trkpt lat="49.3108" lon="1.20635">
        <ele>8</ele>
        <time>2017-05-16T15:52:36Z</time>
      </trkpt>
      <trkpt lat="49.31081" lon="1.20643">
        <ele>8</ele>
        <time>2017-05-16T15:52:36Z</time>
      </trkpt>
      <trkpt lat="49.31083" lon="1.2065">
        <ele>8</ele>
        <time>2017-05-16T15:52:52Z</time>
      </trkpt>
      <trkpt lat="49.31083" lon="1.20659">
        <ele>8</ele>
        <time>2017-05-16T15:52:52Z</time>
      </trkpt>
      <trkpt lat="49.31083" lon="1.20664">
        <ele>8</ele>
        <time>2017-05-16T15:52:52Z</time>
      </trkpt>
      <trkpt lat="49.31084" lon="1.2067">
        <ele>8</ele>
        <time>2017-05-16T15:52:52Z</time>
      </trkpt>
      <trkpt lat="49.31085" lon="1.20676">
        <ele>8</ele>
        <time>2017-05-16T15:53:07Z</time>
      </trkpt>
      <trkpt lat="49.31088" lon="1.20683">
        <ele>8</ele>
        <time>2017-05-16T15:53:07Z</time>
      </trkpt>
      <trkpt lat="49.31089" lon="1.20688">
        <ele>8</ele>
        <time>2017-05-16T15:53:07Z</time>
      </trkpt>
      <trkpt lat="49.31088" lon="1.20693">
        <ele>8</ele>
        <time>2017-05-16T15:53:07Z</time>
      </trkpt>
      <trkpt lat="49.31087" lon="1.20702">
        <ele>8</ele>
        <time>2017-05-16T15:53:24Z</time>
      </trkpt>
      <trkpt lat="49.31089" lon="1.20707">
        <ele>8</ele>
        <time>2017-05-16T15:53:24Z</time>
      </trkpt>
      <trkpt lat="49.31084" lon="1.20713">
        <ele>7</ele>
        <time>2017-05-16T15:53:24Z</time>
      </trkpt>
      <trkpt lat="49.31084" lon="1.20718">
        <ele>7</ele>
        <time>2017-05-16T15:53:24Z</time>
      </trkpt>
      <trkpt lat="49.31086" lon="1.20727">
        <ele>7</ele>
        <time>2017-05-16T15:53:39Z</time>
      </trkpt>
      <trkpt lat="49.31083" lon="1.20732">
        <ele>7</ele>
        <time>2017-05-16T15:53:39Z</time>
      </trkpt>
      <trkpt lat="49.31084" lon="1.20738">
        <ele>7</ele>
        <time>2017-05-16T15:53:39Z</time>
      </trkpt>
      <trkpt lat="49.31087" lon="1.20745">
        <ele>7</ele>
        <time>2017-05-16T15:53:39Z</time>
      </trkpt>
      <trkpt lat="49.31091" lon="1.20749">
        <ele>7</ele>
        <time>2017-05-16T15:53:55Z</time>
      </trkpt>
      <trkpt lat="49.31091" lon="1.20752">
        <ele>7</ele>
        <time>2017-05-16T15:53:56Z</time>
      </trkpt>
      <trkpt lat="49.3109" lon="1.20758">
        <ele>7</ele>
        <time>2017-05-16T15:53:56Z</time>
      </trkpt>
      <trkpt lat="49.31094" lon="1.20766">
        <ele>7</ele>
        <time>2017-05-16T15:53:56Z</time>
      </trkpt>
      <trkpt lat="49.31094" lon="1.20776">
        <ele>7</ele>
        <time>2017-05-16T15:54:12Z</time>
      </trkpt>
      <trkpt lat="49.31097" lon="1.20783">
        <ele>7</ele>
        <time>2017-05-16T15:54:12Z</time>
      </trkpt>
      <trkpt lat="49.31096" lon="1.20786">
        <ele>7</ele>
        <time>2017-05-16T15:54:13Z</time>
      </trkpt>
      <trkpt lat="49.31101" lon="1.20788">
        <ele>7</ele>
        <time>2017-05-16T15:54:13Z</time>
      </trkpt>
      <trkpt lat="49.31101" lon="1.20789">
        <ele>7</ele>
        <time>2017-05-16T15:54:27Z</time>
      </trkpt>
      <trkpt lat="49.31103" lon="1.20794">
        <ele>8</ele>
        <time>2017-05-16T15:54:27Z</time>
      </trkpt>
      <trkpt lat="49.31104" lon="1.208">
        <ele>8</ele>
        <time>2017-05-16T15:54:27Z</time>
      </trkpt>
      <trkpt lat="49.31105" lon="1.20803">
        <ele>8</ele>
        <time>2017-05-16T15:54:27Z</time>
      </trkpt>
      <trkpt lat="49.31104" lon="1.20811">
        <ele>8</ele>
        <time>2017-05-16T15:54:43Z</time>
      </trkpt>
      <trkpt lat="49.31106" lon="1.20816">
        <ele>8</ele>
        <time>2017-05-16T15:54:43Z</time>
      </trkpt>
      <trkpt lat="49.31106" lon="1.20822">
        <ele>8</ele>
        <time>2017-05-16T15:54:43Z</time>
      </trkpt>
      <trkpt lat="49.31105" lon="1.20826">
        <ele>8</ele>
        <time>2017-05-16T15:54:43Z</time>
      </trkpt>
      <trkpt lat="49.3111" lon="1.20839">
        <ele>8</ele>
        <time>2017-05-16T15:54:59Z</time>
      </trkpt>
      <trkpt lat="49.31112" lon="1.20843">
        <ele>8</ele>
        <time>2017-05-16T15:54:59Z</time>
      </trkpt>
      <trkpt lat="49.31116" lon="1.2085">
        <ele>8</ele>
        <time>2017-05-16T15:55:00Z</time>
      </trkpt>
      <trkpt lat="49.31118" lon="1.20855">
        <ele>8</ele>
        <time>2017-05-16T15:55:00Z</time>
      </trkpt>
      <trkpt lat="49.31118" lon="1.20864">
        <ele>8</ele>
        <time>2017-05-16T15:55:16Z</time>
      </trkpt>
      <trkpt lat="49.31117" lon="1.20869">
        <ele>8</ele>
        <time>2017-05-16T15:55:16Z</time>
      </trkpt>
      <trkpt lat="49.31114" lon="1.20876">
        <ele>8</ele>
        <time>2017-05-16T15:55:16Z</time>
      </trkpt>
      <trkpt lat="49.31119" lon="1.20886">
        <ele>8</ele>
        <time>2017-05-16T15:55:16Z</time>
      </trkpt>
      <trkpt lat="49.31118" lon="1.20891">
        <ele>8</ele>
        <time>2017-05-16T15:55:31Z</time>
      </trkpt>
      <trkpt lat="49.31123" lon="1.20898">
        <ele>8</ele>
        <time>2017-05-16T15:55:32Z</time>
      </trkpt>
      <trkpt lat="49.31125" lon="1.20905">
        <ele>10</ele>
        <time>2017-05-16T15:55:32Z</time>
      </trkpt>
      <trkpt lat="49.31126" lon="1.20914">
        <ele>10</ele>
        <time>2017-05-16T15:55:32Z</time>
      </trkpt>
      <trkpt lat="49.31127" lon="1.20922">
        <ele>10</ele>
        <time>2017-05-16T15:55:49Z</time>
      </trkpt>
      <trkpt lat="49.31127" lon="1.2093">
        <ele>10</ele>
        <time>2017-05-16T15:55:49Z</time>
      </trkpt>
      <trkpt lat="49.31127" lon="1.20936">
        <ele>10</ele>
        <time>2017-05-16T15:55:49Z</time>
      </trkpt>
      <trkpt lat="49.31127" lon="1.20944">
        <ele>10</ele>
        <time>2017-05-16T15:55:49Z</time>
      </trkpt>
      <trkpt lat="49.31127" lon="1.20951">
        <ele>10</ele>
        <time>2017-05-16T15:56:03Z</time>
      </trkpt>
      <trkpt lat="49.31128" lon="1.2096">
        <ele>10</ele>
        <time>2017-05-16T15:56:03Z</time>
      </trkpt>
      <trkpt lat="49.31129" lon="1.20966">
        <ele>10</ele>
        <time>2017-05-16T15:56:03Z</time>
      </trkpt>
      <trkpt lat="49.3113" lon="1.20975">
        <ele>10</ele>
        <time>2017-05-16T15:56:03Z</time>
      </trkpt>
      <trkpt lat="49.31132" lon="1.20981">
        <ele>10</ele>
        <time>2017-05-16T15:56:19Z</time>
      </trkpt>
      <trkpt lat="49.31133" lon="1.20987">
        <ele>10</ele>
        <time>2017-05-16T15:56:19Z</time>
      </trkpt>
      <trkpt lat="49.31135" lon="1.20995">
        <ele>10</ele>
        <time>2017-05-16T15:56:19Z</time>
      </trkpt>
      <trkpt lat="49.31137" lon="1.20999">
        <ele>10</ele>
        <time>2017-05-16T15:56:19Z</time>
      </trkpt>
      <trkpt lat="49.31138" lon="1.21005">
        <ele>10</ele>
        <time>2017-05-16T15:56:36Z</time>
      </trkpt>
      <trkpt lat="49.3114" lon="1.2101">
        <ele>10</ele>
        <time>2017-05-16T15:56:36Z</time>
      </trkpt>
      <trkpt lat="49.31142" lon="1.21017">
        <ele>10</ele>
        <time>2017-05-16T15:56:36Z</time>
      </trkpt>
      <trkpt lat="49.31144" lon="1.21023">
        <ele>10</ele>
        <time>2017-05-16T15:56:36Z</time>
      </trkpt>
      <trkpt lat="49.31147" lon="1.21029">
        <ele>10</ele>
        <time>2017-05-16T15:56:51Z</time>
      </trkpt>
      <trkpt lat="49.31148" lon="1.21035">
        <ele>10</ele>
        <time>2017-05-16T15:56:51Z</time>
      </trkpt>
      <trkpt lat="49.31149" lon="1.21043">
        <ele>9</ele>
        <time>2017-05-16T15:56:51Z</time>
      </trkpt>
      <trkpt lat="49.31149" lon="1.21049">
        <ele>9</ele>
        <time>2017-05-16T15:56:51Z</time>
      </trkpt>
      <trkpt lat="49.31149" lon="1.21056">
        <ele>9</ele>
        <time>2017-05-16T15:57:11Z</time>
      </trkpt>
      <trkpt lat="49.31148" lon="1.2106">
        <ele>9</ele>
        <time>2017-05-16T15:57:11Z</time>
      </trkpt>
      <trkpt lat="49.3115" lon="1.21063">
        <ele>9</ele>
        <time>2017-05-16T15:57:11Z</time>
      </trkpt>
      <trkpt lat="49.31149" lon="1.21066">
        <ele>9</ele>
        <time>2017-05-16T15:57:11Z</time>
      </trkpt>
      <trkpt lat="49.3115" lon="1.21071">
        <ele>9</ele>
        <time>2017-05-16T15:57:11Z</time>
      </trkpt>
      <trkpt lat="49.31153" lon="1.21078">
        <ele>9</ele>
        <time>2017-05-16T15:57:36Z</time>
      </trkpt>
      <trkpt lat="49.31152" lon="1.21082">
        <ele>9</ele>
        <time>2017-05-16T15:57:36Z</time>
      </trkpt>
      <trkpt lat="49.31152" lon="1.21086">
        <ele>9</ele>
        <time>2017-05-16T15:57:36Z</time>
      </trkpt>
      <trkpt lat="49.31152" lon="1.21091">
        <ele>9</ele>
        <time>2017-05-16T15:57:36Z</time>
      </trkpt>
      <trkpt lat="49.31154" lon="1.21099">
        <ele>9</ele>
        <time>2017-05-16T15:57:36Z</time>
      </trkpt>
      <trkpt lat="49.31155" lon="1.21102">
        <ele>9</ele>
        <time>2017-05-16T15:57:51Z</time>
      </trkpt>
      <trkpt lat="49.31155" lon="1.2111">
        <ele>9</ele>
        <time>2017-05-16T15:57:51Z</time>
      </trkpt>
      <trkpt lat="49.31156" lon="1.21116">
        <ele>9</ele>
        <time>2017-05-16T15:57:51Z</time>
      </trkpt>
      <trkpt lat="49.31157" lon="1.21122">
        <ele>9</ele>
        <time>2017-05-16T15:57:51Z</time>
      </trkpt>
      <trkpt lat="49.31159" lon="1.21132">
        <ele>8</ele>
        <time>2017-05-16T15:58:07Z</time>
      </trkpt>
      <trkpt lat="49.3116" lon="1.21137">
        <ele>8</ele>
        <time>2017-05-16T15:58:07Z</time>
      </trkpt>
      <trkpt lat="49.31162" lon="1.21143">
        <ele>8</ele>
        <time>2017-05-16T15:58:07Z</time>
      </trkpt>
      <trkpt lat="49.31165" lon="1.2115">
        <ele>8</ele>
        <time>2017-05-16T15:58:07Z</time>
      </trkpt>
      <trkpt lat="49.31165" lon="1.21157">
        <ele>8</ele>
        <time>2017-05-16T15:58:25Z</time>
      </trkpt>
      <trkpt lat="49.31167" lon="1.21165">
        <ele>8</ele>
        <time>2017-05-16T15:58:25Z</time>
      </trkpt>
      <trkpt lat="49.31168" lon="1.2117">
        <ele>8</ele>
        <time>2017-05-16T15:58:25Z</time>
      </trkpt>
      <trkpt lat="49.3117" lon="1.21171">
        <ele>8</ele>
        <time>2017-05-16T15:58:25Z</time>
      </trkpt>
      <trkpt lat="49.31172" lon="1.21176">
        <ele>8</ele>
        <time>2017-05-16T15:58:39Z</time>
      </trkpt>
      <trkpt lat="49.31173" lon="1.21184">
        <ele>8</ele>
        <time>2017-05-16T15:58:39Z</time>
      </trkpt>
      <trkpt lat="49.31176" lon="1.21193">
        <ele>8</ele>
        <time>2017-05-16T15:58:39Z</time>
      </trkpt>
      <trkpt lat="49.31177" lon="1.21197">
        <ele>8</ele>
        <time>2017-05-16T15:58:39Z</time>
      </trkpt>
      <trkpt lat="49.31177" lon="1.21199">
        <ele>8</ele>
        <time>2017-05-16T15:58:55Z</time>
      </trkpt>
      <trkpt lat="49.31179" lon="1.21211">
        <ele>9</ele>
        <time>2017-05-16T15:58:55Z</time>
      </trkpt>
      <trkpt lat="49.31179" lon="1.21217">
        <ele>9</ele>
        <time>2017-05-16T15:58:55Z</time>
      </trkpt>
      <trkpt lat="49.31178" lon="1.21219">
        <ele>9</ele>
        <time>2017-05-16T15:58:55Z</time>
      </trkpt>
      <trkpt lat="49.31176" lon="1.2123">
        <ele>9</ele>
        <time>2017-05-16T15:59:11Z</time>
      </trkpt>
      <trkpt lat="49.31175" lon="1.21234">
        <ele>9</ele>
        <time>2017-05-16T15:59:11Z</time>
      </trkpt>
      <trkpt lat="49.31174" lon="1.21246">
        <ele>9</ele>
        <time>2017-05-16T15:59:11Z</time>
      </trkpt>
      <trkpt lat="49.31173" lon="1.2125">
        <ele>9</ele>
        <time>2017-05-16T15:59:11Z</time>
      </trkpt>
      <trkpt lat="49.31176" lon="1.21259">
        <ele>9</ele>
        <time>2017-05-16T15:59:27Z</time>
      </trkpt>
      <trkpt lat="49.31175" lon="1.21268">
        <ele>9</ele>
        <time>2017-05-16T15:59:27Z</time>
      </trkpt>
      <trkpt lat="49.31174" lon="1.21274">
        <ele>9</ele>
        <time>2017-05-16T15:59:27Z</time>
      </trkpt>
      <trkpt lat="49.31172" lon="1.2128">
        <ele>9</ele>
        <time>2017-05-16T15:59:27Z</time>
      </trkpt>
      <trkpt lat="49.31169" lon="1.21286">
        <ele>9</ele>
        <time>2017-05-16T15:59:43Z</time>
      </trkpt>
      <trkpt lat="49.31166" lon="1.21289">
        <ele>9</ele>
        <time>2017-05-16T15:59:43Z</time>
      </trkpt>
      <trkpt lat="49.31165" lon="1.21298">
        <ele>11</ele>
        <time>2017-05-16T15:59:43Z</time>
      </trkpt>
      <trkpt lat="49.31164" lon="1.21304">
        <ele>11</ele>
        <time>2017-05-16T15:59:43Z</time>
      </trkpt>
      <trkpt lat="49.31162" lon="1.21311">
        <ele>11</ele>
        <time>2017-05-16T15:59:59Z</time>
      </trkpt>
      <trkpt lat="49.31162" lon="1.2132">
        <ele>11</ele>
        <time>2017-05-16T15:59:59Z</time>
      </trkpt>
      <trkpt lat="49.31162" lon="1.2133">
        <ele>11</ele>
        <time>2017-05-16T15:59:59Z</time>
      </trkpt>
      <trkpt lat="49.31161" lon="1.21334">
        <ele>11</ele>
        <time>2017-05-16T15:59:59Z</time>
      </trkpt>
      <trkpt lat="49.31159" lon="1.21344">
        <ele>11</ele>
        <time>2017-05-16T16:00:15Z</time>
      </trkpt>
      <trkpt lat="49.31161" lon="1.21349">
        <ele>11</ele>
        <time>2017-05-16T16:00:15Z</time>
      </trkpt>
      <trkpt lat="49.3116" lon="1.21356">
        <ele>11</ele>
        <time>2017-05-16T16:00:15Z</time>
      </trkpt>
      <trkpt lat="49.31158" lon="1.21364">
        <ele>11</ele>
        <time>2017-05-16T16:00:15Z</time>
      </trkpt>
      <trkpt lat="49.31158" lon="1.21382">
        <ele>9</ele>
        <time>2017-05-16T16:00:31Z</time>
      </trkpt>
      <trkpt lat="49.31157" lon="1.21392">
        <ele>9</ele>
        <time>2017-05-16T16:00:31Z</time>
      </trkpt>
      <trkpt lat="49.31158" lon="1.21398">
        <ele>9</ele>
        <time>2017-05-16T16:00:31Z</time>
      </trkpt>
      <trkpt lat="49.31157" lon="1.21401">
        <ele>9</ele>
        <time>2017-05-16T16:00:31Z</time>
      </trkpt>
      <trkpt lat="49.31153" lon="1.21406">
        <ele>9</ele>
        <time>2017-05-16T16:00:48Z</time>
      </trkpt>
      <trkpt lat="49.31154" lon="1.21411">
        <ele>9</ele>
        <time>2017-05-16T16:00:48Z</time>
      </trkpt>
      <trkpt lat="49.31151" lon="1.21417">
        <ele>9</ele>
        <time>2017-05-16T16:00:48Z</time>
      </trkpt>
      <trkpt lat="49.3115" lon="1.21423">
        <ele>9</ele>
        <time>2017-05-16T16:00:48Z</time>
      </trkpt>
      <trkpt lat="49.31149" lon="1.21428">
        <ele>9</ele>
        <time>2017-05-16T16:01:03Z</time>
      </trkpt>
      <trkpt lat="49.31146" lon="1.21439">
        <ele>9</ele>
        <time>2017-05-16T16:01:03Z</time>
      </trkpt>
      <trkpt lat="49.31145" lon="1.21444">
        <ele>9</ele>
        <time>2017-05-16T16:01:03Z</time>
      </trkpt>
      <trkpt lat="49.31144" lon="1.21452">
        <ele>9</ele>
        <time>2017-05-16T16:01:03Z</time>
      </trkpt>
      <trkpt lat="49.31141" lon="1.21451">
        <ele>9</ele>
        <time>2017-05-16T16:01:19Z</time>
      </trkpt>
      <trkpt lat="49.31139" lon="1.2146">
        <ele>9</ele>
        <time>2017-05-16T16:01:20Z</time>
      </trkpt>
      <trkpt lat="49.3114" lon="1.21475">
        <ele>9</ele>
        <time>2017-05-16T16:01:21Z</time>
      </trkpt>
      <trkpt lat="49.31137" lon="1.21476">
        <ele>9</ele>
        <time>2017-05-16T16:01:21Z</time>
      </trkpt>
      <trkpt lat="49.31134" lon="1.2148">
        <ele>9</ele>
        <time>2017-05-16T16:01:35Z</time>
      </trkpt>
      <trkpt lat="49.31133" lon="1.21482">
        <ele>9</ele>
        <time>2017-05-16T16:01:35Z</time>
      </trkpt>
      <trkpt lat="49.31132" lon="1.2149">
        <ele>9</ele>
        <time>2017-05-16T16:01:35Z</time>
      </trkpt>
      <trkpt lat="49.31129" lon="1.21501">
        <ele>9</ele>
        <time>2017-05-16T16:01:35Z</time>
      </trkpt>
      <trkpt lat="49.31127" lon="1.21506">
        <ele>9</ele>
        <time>2017-05-16T16:01:52Z</time>
      </trkpt>
      <trkpt lat="49.31124" lon="1.21513">
        <ele>7</ele>
        <time>2017-05-16T16:01:52Z</time>
      </trkpt>
      <trkpt lat="49.31122" lon="1.21521">
        <ele>7</ele>
        <time>2017-05-16T16:01:53Z</time>
      </trkpt>
      <trkpt lat="49.3112" lon="1.21525">
        <ele>7</ele>
        <time>2017-05-16T16:01:53Z</time>
      </trkpt>
      <trkpt lat="49.3112" lon="1.21532">
        <ele>7</ele>
        <time>2017-05-16T16:02:07Z</time>
      </trkpt>
      <trkpt lat="49.31117" lon="1.21542">
        <ele>9</ele>
        <time>2017-05-16T16:02:07Z</time>
      </trkpt>
      <trkpt lat="49.31116" lon="1.21547">
        <ele>9</ele>
        <time>2017-05-16T16:02:07Z</time>
      </trkpt>
      <trkpt lat="49.31113" lon="1.21552">
        <ele>9</ele>
        <time>2017-05-16T16:02:07Z</time>
      </trkpt>
      <trkpt lat="49.31114" lon="1.21564">
        <ele>9</ele>
        <time>2017-05-16T16:02:23Z</time>
      </trkpt>
      <trkpt lat="49.31115" lon="1.21565">
        <ele>9</ele>
        <time>2017-05-16T16:02:23Z</time>
      </trkpt>
      <trkpt lat="49.31108" lon="1.21572">
        <ele>9</ele>
        <time>2017-05-16T16:02:23Z</time>
      </trkpt>
      <trkpt lat="49.31106" lon="1.21578">
        <ele>9</ele>
        <time>2017-05-16T16:02:23Z</time>
      </trkpt>
      <trkpt lat="49.31101" lon="1.21584">
        <ele>9</ele>
        <time>2017-05-16T16:02:40Z</time>
      </trkpt>
      <trkpt lat="49.31102" lon="1.21591">
        <ele>9</ele>
        <time>2017-05-16T16:02:40Z</time>
      </trkpt>
      <trkpt lat="49.31101" lon="1.21599">
        <ele>9</ele>
        <time>2017-05-16T16:02:40Z</time>
      </trkpt>
      <trkpt lat="49.31102" lon="1.21606">
        <ele>9</ele>
        <time>2017-05-16T16:02:40Z</time>
      </trkpt>
      <trkpt lat="49.311" lon="1.21614">
        <ele>9</ele>
        <time>2017-05-16T16:02:56Z</time>
      </trkpt>
      <trkpt lat="49.311" lon="1.2162">
        <ele>9</ele>
        <time>2017-05-16T16:02:56Z</time>
      </trkpt>
      <trkpt lat="49.31099" lon="1.21629">
        <ele>9</ele>
        <time>2017-05-16T16:02:56Z</time>
      </trkpt>
      <trkpt lat="49.31099" lon="1.21636">
        <ele>9</ele>
        <time>2017-05-16T16:02:56Z</time>
      </trkpt>
      <trkpt lat="49.31098" lon="1.21641">
        <ele>9</ele>
        <time>2017-05-16T16:03:13Z</time>
      </trkpt>
      <trkpt lat="49.31097" lon="1.2165">
        <ele>9</ele>
        <time>2017-05-16T16:03:13Z</time>
      </trkpt>
      <trkpt lat="49.31098" lon="1.21655">
        <ele>9</ele>
        <time>2017-05-16T16:03:13Z</time>
      </trkpt>
      <trkpt lat="49.31099" lon="1.21665">
        <ele>9</ele>
        <time>2017-05-16T16:03:13Z</time>
      </trkpt>
      <trkpt lat="49.31099" lon="1.2167">
        <ele>9</ele>
        <time>2017-05-16T16:03:27Z</time>
      </trkpt>
      <trkpt lat="49.31097" lon="1.21676">
        <ele>9</ele>
        <time>2017-05-16T16:03:27Z</time>
      </trkpt>
      <trkpt lat="49.31095" lon="1.21687">
        <ele>9</ele>
        <time>2017-05-16T16:03:27Z</time>
      </trkpt>
      <trkpt lat="49.31096" lon="1.21691">
        <ele>9</ele>
        <time>2017-05-16T16:03:27Z</time>
      </trkpt>
      <trkpt lat="49.31096" lon="1.21697">
        <ele>9</ele>
        <time>2017-05-16T16:03:44Z</time>
      </trkpt>
      <trkpt lat="49.31098" lon="1.21704">
        <ele>9</ele>
        <time>2017-05-16T16:03:44Z</time>
      </trkpt>
      <trkpt lat="49.31097" lon="1.2171">
        <ele>7</ele>
        <time>2017-05-16T16:03:44Z</time>
      </trkpt>
      <trkpt lat="49.31096" lon="1.21715">
        <ele>7</ele>
        <time>2017-05-16T16:03:44Z</time>
      </trkpt>
      <trkpt lat="49.31096" lon="1.21723">
        <ele>7</ele>
        <time>2017-05-16T16:04:00Z</time>
      </trkpt>
      <trkpt lat="49.31098" lon="1.21731">
        <ele>7</ele>
        <time>2017-05-16T16:04:00Z</time>
      </trkpt>
      <trkpt lat="49.311" lon="1.21735">
        <ele>7</ele>
        <time>2017-05-16T16:04:00Z</time>
      </trkpt>
      <trkpt lat="49.31098" lon="1.21746">
        <ele>7</ele>
        <time>2017-05-16T16:04:00Z</time>
      </trkpt>
      <trkpt lat="49.31099" lon="1.2175">
        <ele>7</ele>
        <time>2017-05-16T16:04:16Z</time>
      </trkpt>
      <trkpt lat="49.31098" lon="1.21755">
        <ele>7</ele>
        <time>2017-05-16T16:04:16Z</time>
      </trkpt>
      <trkpt lat="49.31097" lon="1.21763">
        <ele>7</ele>
        <time>2017-05-16T16:04:16Z</time>
      </trkpt>
      <trkpt lat="49.31097" lon="1.21772">
        <ele>7</ele>
        <time>2017-05-16T16:04:16Z</time>
      </trkpt>
      <trkpt lat="49.31096" lon="1.21779">
        <ele>7</ele>
        <time>2017-05-16T16:04:32Z</time>
      </trkpt>
      <trkpt lat="49.31096" lon="1.21786">
        <ele>7</ele>
        <time>2017-05-16T16:04:32Z</time>
      </trkpt>
      <trkpt lat="49.31095" lon="1.21792">
        <ele>7</ele>
        <time>2017-05-16T16:04:32Z</time>
      </trkpt>
      <trkpt lat="49.31097" lon="1.21799">
        <ele>7</ele>
        <time>2017-05-16T16:04:32Z</time>
      </trkpt>
      <trkpt lat="49.31098" lon="1.21805">
        <ele>7</ele>
        <time>2017-05-16T16:04:47Z</time>
      </trkpt>
      <trkpt lat="49.31098" lon="1.2181">
        <ele>7</ele>
        <time>2017-05-16T16:04:47Z</time>
      </trkpt>
      <trkpt lat="49.31098" lon="1.21821">
        <ele>7</ele>
        <time>2017-05-16T16:04:47Z</time>
      </trkpt>
      <trkpt lat="49.31097" lon="1.21826">
        <ele>7</ele>
        <time>2017-05-16T16:04:47Z</time>
      </trkpt>
      <trkpt lat="49.31095" lon="1.2183">
        <ele>7</ele>
        <time>2017-05-16T16:05:03Z</time>
      </trkpt>
      <trkpt lat="49.31098" lon="1.21845">
        <ele>7</ele>
        <time>2017-05-16T16:05:03Z</time>
      </trkpt>
      <trkpt lat="49.31097" lon="1.2185">
        <ele>7</ele>
        <time>2017-05-16T16:05:03Z</time>
      </trkpt>
      <trkpt lat="49.31097" lon="1.21857">
        <ele>7</ele>
        <time>2017-05-16T16:05:03Z</time>
      </trkpt>
      <trkpt lat="49.31097" lon="1.21865">
        <ele>7</ele>
        <time>2017-05-16T16:05:21Z</time>
      </trkpt>
      <trkpt lat="49.31097" lon="1.21874">
        <ele>7</ele>
        <time>2017-05-16T16:05:21Z</time>
      </trkpt>
      <trkpt lat="49.31098" lon="1.21881">
        <ele>7</ele>
        <time>2017-05-16T16:05:21Z</time>
      </trkpt>
      <trkpt lat="49.31097" lon="1.21885">
        <ele>7</ele>
        <time>2017-05-16T16:05:21Z</time>
      </trkpt>
      <trkpt lat="49.31097" lon="1.21892">
        <ele>7</ele>
        <time>2017-05-16T16:05:36Z</time>
      </trkpt>
      <trkpt lat="49.31098" lon="1.21901">
        <ele>7</ele>
        <time>2017-05-16T16:05:36Z</time>
      </trkpt>
      <trkpt lat="49.31097" lon="1.21907">
        <ele>7</ele>
        <time>2017-05-16T16:05:36Z</time>
      </trkpt>
      <trkpt lat="49.31097" lon="1.2192">
        <ele>7</ele>
        <time>2017-05-16T16:05:36Z</time>
      </trkpt>
      <trkpt lat="49.31096" lon="1.21927">
        <ele>7</ele>
        <time>2017-05-16T16:05:53Z</time>
      </trkpt>
      <trkpt lat="49.31097" lon="1.21936">
        <ele>7</ele>
        <time>2017-05-16T16:05:53Z</time>
      </trkpt>
      <trkpt lat="49.31098" lon="1.21942">
        <ele>7</ele>
        <time>2017-05-16T16:05:53Z</time>
      </trkpt>
      <trkpt lat="49.31099" lon="1.21951">
        <ele>7</ele>
        <time>2017-05-16T16:05:53Z</time>
      </trkpt>
      <trkpt lat="49.31098" lon="1.21955">
        <ele>7</ele>
        <time>2017-05-16T16:06:08Z</time>
      </trkpt>
      <trkpt lat="49.31099" lon="1.21963">
        <ele>7</ele>
        <time>2017-05-16T16:06:08Z</time>
      </trkpt>
      <trkpt lat="49.31099" lon="1.2197">
        <ele>7</ele>
        <time>2017-05-16T16:06:08Z</time>
      </trkpt>
      <trkpt lat="49.31099" lon="1.21976">
        <ele>7</ele>
        <time>2017-05-16T16:06:08Z</time>
      </trkpt>
      <trkpt lat="49.311" lon="1.21983">
        <ele>7</ele>
        <time>2017-05-16T16:06:23Z</time>
      </trkpt>
      <trkpt lat="49.311" lon="1.21988">
        <ele>7</ele>
        <time>2017-05-16T16:06:23Z</time>
      </trkpt>
      <trkpt lat="49.31103" lon="1.21997">
        <ele>7</ele>
        <time>2017-05-16T16:06:23Z</time>
      </trkpt>
      <trkpt lat="49.31103" lon="1.22004">
        <ele>7</ele>
        <time>2017-05-16T16:06:23Z</time>
      </trkpt>
      <trkpt lat="49.31103" lon="1.22009">
        <ele>7</ele>
        <time>2017-05-16T16:06:39Z</time>
      </trkpt>
      <trkpt lat="49.31104" lon="1.22016">
        <ele>7</ele>
        <time>2017-05-16T16:06:39Z</time>
      </trkpt>
      <trkpt lat="49.31107" lon="1.22023">
        <ele>7</ele>
        <time>2017-05-16T16:06:39Z</time>
      </trkpt>
      <trkpt lat="49.31108" lon="1.22027">
        <ele>7</ele>
        <time>2017-05-16T16:06:39Z</time>
      </trkpt>
      <trkpt lat="49.31107" lon="1.22036">
        <ele>7</ele>
        <time>2017-05-16T16:06:56Z</time>
      </trkpt>
      <trkpt lat="49.31108" lon="1.22044">
        <ele>7</ele>
        <time>2017-05-16T16:06:56Z</time>
      </trkpt>
      <trkpt lat="49.31108" lon="1.22053">
        <ele>7</ele>
        <time>2017-05-16T16:06:56Z</time>
      </trkpt>
      <trkpt lat="49.31109" lon="1.2206">
        <ele>7</ele>
        <time>2017-05-16T16:06:56Z</time>
      </trkpt>
      <trkpt lat="49.31111" lon="1.22067">
        <ele>7</ele>
        <time>2017-05-16T16:07:13Z</time>
      </trkpt>
      <trkpt lat="49.31111" lon="1.22074">
        <ele>7</ele>
        <time>2017-05-16T16:07:13Z</time>
      </trkpt>
      <trkpt lat="49.31111" lon="1.22083">
        <ele>7</ele>
        <time>2017-05-16T16:07:13Z</time>
      </trkpt>
      <trkpt lat="49.31112" lon="1.22093">
        <ele>7</ele>
        <time>2017-05-16T16:07:13Z</time>
      </trkpt>
      <trkpt lat="49.31112" lon="1.22102">
        <ele>7</ele>
        <time>2017-05-16T16:07:27Z</time>
      </trkpt>
      <trkpt lat="49.31112" lon="1.22108">
        <ele>7</ele>
        <time>2017-05-16T16:07:27Z</time>
      </trkpt>
      <trkpt lat="49.31111" lon="1.22115">
        <ele>7</ele>
        <time>2017-05-16T16:07:27Z</time>
      </trkpt>
      <trkpt lat="49.31113" lon="1.22121">
        <ele>7</ele>
        <time>2017-05-16T16:07:27Z</time>
      </trkpt>
      <trkpt lat="49.31113" lon="1.2213">
        <ele>7</ele>
        <time>2017-05-16T16:07:44Z</time>
      </trkpt>
      <trkpt lat="49.3111" lon="1.22133">
        <ele>7</ele>
        <time>2017-05-16T16:07:44Z</time>
      </trkpt>
      <trkpt lat="49.3111" lon="1.22144">
        <ele>7</ele>
        <time>2017-05-16T16:07:44Z</time>
      </trkpt>
      <trkpt lat="49.3111" lon="1.22149">
        <ele>7</ele>
        <time>2017-05-16T16:07:44Z</time>
      </trkpt>
      <trkpt lat="49.31109" lon="1.22157">
        <ele>7</ele>
        <time>2017-05-16T16:07:59Z</time>
      </trkpt>
      <trkpt lat="49.31108" lon="1.22162">
        <ele>7</ele>
        <time>2017-05-16T16:07:59Z</time>
      </trkpt>
      <trkpt lat="49.31109" lon="1.22173">
        <ele>7</ele>
        <time>2017-05-16T16:07:59Z</time>
      </trkpt>
      <trkpt lat="49.31111" lon="1.22178">
        <ele>7</ele>
        <time>2017-05-16T16:07:59Z</time>
      </trkpt>
      <trkpt lat="49.31112" lon="1.22185">
        <ele>7</ele>
        <time>2017-05-16T16:08:16Z</time>
      </trkpt>
      <trkpt lat="49.31114" lon="1.22191">
        <ele>7</ele>
        <time>2017-05-16T16:08:16Z</time>
      </trkpt>
      <trkpt lat="49.31114" lon="1.22196">
        <ele>7</ele>
        <time>2017-05-16T16:08:16Z</time>
      </trkpt>
      <trkpt lat="49.31118" lon="1.22207">
        <ele>7</ele>
        <time>2017-05-16T16:08:16Z</time>
      </trkpt>
      <trkpt lat="49.31114" lon="1.22213">
        <ele>6</ele>
        <time>2017-05-16T16:08:32Z</time>
      </trkpt>
      <trkpt lat="49.31115" lon="1.22219">
        <ele>6</ele>
        <time>2017-05-16T16:08:32Z</time>
      </trkpt>
      <trkpt lat="49.31117" lon="1.22227">
        <ele>6</ele>
        <time>2017-05-16T16:08:32Z</time>
      </trkpt>
      <trkpt lat="49.31117" lon="1.22233">
        <ele>6</ele>
        <time>2017-05-16T16:08:32Z</time>
      </trkpt>
      <trkpt lat="49.31118" lon="1.22244">
        <ele>6</ele>
        <time>2017-05-16T16:08:47Z</time>
      </trkpt>
      <trkpt lat="49.3112" lon="1.22251">
        <ele>6</ele>
        <time>2017-05-16T16:08:47Z</time>
      </trkpt>
      <trkpt lat="49.31121" lon="1.22258">
        <ele>6</ele>
        <time>2017-05-16T16:08:47Z</time>
      </trkpt>
      <trkpt lat="49.31123" lon="1.22264">
        <ele>6</ele>
        <time>2017-05-16T16:08:47Z</time>
      </trkpt>
      <trkpt lat="49.31123" lon="1.22273">
        <ele>6</ele>
        <time>2017-05-16T16:09:04Z</time>
      </trkpt>
      <trkpt lat="49.31124" lon="1.22278">
        <ele>6</ele>
        <time>2017-05-16T16:09:04Z</time>
      </trkpt>
      <trkpt lat="49.31124" lon="1.22286">
        <ele>6</ele>
        <time>2017-05-16T16:09:04Z</time>
      </trkpt>
      <trkpt lat="49.31126" lon="1.22297">
        <ele>6</ele>
        <time>2017-05-16T16:09:04Z</time>
      </trkpt>
      <trkpt lat="49.31127" lon="1.22304">
        <ele>6</ele>
        <time>2017-05-16T16:09:20Z</time>
      </trkpt>
      <trkpt lat="49.31129" lon="1.22311">
        <ele>6</ele>
        <time>2017-05-16T16:09:20Z</time>
      </trkpt>
      <trkpt lat="49.31129" lon="1.22318">
        <ele>6</ele>
        <time>2017-05-16T16:09:20Z</time>
      </trkpt>
      <trkpt lat="49.31131" lon="1.22325">
        <ele>6</ele>
        <time>2017-05-16T16:09:20Z</time>
      </trkpt>
      <trkpt lat="49.31131" lon="1.22335">
        <ele>6</ele>
        <time>2017-05-16T16:09:35Z</time>
      </trkpt>
      <trkpt lat="49.31132" lon="1.22343">
        <ele>6</ele>
        <time>2017-05-16T16:09:35Z</time>
      </trkpt>
      <trkpt lat="49.31132" lon="1.22351">
        <ele>6</ele>
        <time>2017-05-16T16:09:35Z</time>
      </trkpt>
      <trkpt lat="49.31132" lon="1.22357">
        <ele>6</ele>
        <time>2017-05-16T16:09:35Z</time>
      </trkpt>
      <trkpt lat="49.31134" lon="1.22365">
        <ele>6</ele>
        <time>2017-05-16T16:09:51Z</time>
      </trkpt>
      <trkpt lat="49.31137" lon="1.22373">
        <ele>6</ele>
        <time>2017-05-16T16:09:51Z</time>
      </trkpt>
      <trkpt lat="49.3114" lon="1.22378">
        <ele>7</ele>
        <time>2017-05-16T16:09:51Z</time>
      </trkpt>
      <trkpt lat="49.31141" lon="1.2238">
        <ele>7</ele>
        <time>2017-05-16T16:09:51Z</time>
      </trkpt>
      <trkpt lat="49.31149" lon="1.2239">
        <ele>7</ele>
        <time>2017-05-16T16:11:07Z</time>
      </trkpt>
      <trkpt lat="49.31149" lon="1.22391">
        <ele>7</ele>
        <time>2017-05-16T16:11:07Z</time>
      </trkpt>
      <trkpt lat="49.3115" lon="1.2239">
        <ele>7</ele>
        <time>2017-05-16T16:11:07Z</time>
      </trkpt>
      <trkpt lat="49.3115" lon="1.22391">
        <ele>7</ele>
        <time>2017-05-16T16:11:07Z</time>
      </trkpt>
      <trkpt lat="49.31154" lon="1.22396">
        <ele>7</ele>
        <time>2017-05-16T16:11:07Z</time>
      </trkpt>
      <trkpt lat="49.31156" lon="1.22399">
        <ele>7</ele>
        <time>2017-05-16T16:11:23Z</time>
      </trkpt>
      <trkpt lat="49.3116" lon="1.22403">
        <ele>7</ele>
        <time>2017-05-16T16:11:23Z</time>
      </trkpt>
      <trkpt lat="49.31164" lon="1.22408">
        <ele>7</ele>
        <time>2017-05-16T16:11:23Z</time>
      </trkpt>
      <trkpt lat="49.31168" lon="1.22412">
        <ele>7</ele>
        <time>2017-05-16T16:11:23Z</time>
      </trkpt>
      <trkpt lat="49.31178" lon="1.22418">
        <ele>7</ele>
        <time>2017-05-16T16:12:08Z</time>
      </trkpt>
      <trkpt lat="49.31178" lon="1.22418">
        <ele>7</ele>
        <time>2017-05-16T16:12:08Z</time>
      </trkpt>
      <trkpt lat="49.31181" lon="1.22421">
        <ele>7</ele>
        <time>2017-05-16T16:12:08Z</time>
      </trkpt>
      <trkpt lat="49.31184" lon="1.22425">
        <ele>7</ele>
        <time>2017-05-16T16:12:08Z</time>
      </trkpt>
      <trkpt lat="49.31189" lon="1.22431">
        <ele>7</ele>
        <time>2017-05-16T16:12:08Z</time>
      </trkpt>
      <trkpt lat="49.31193" lon="1.22434">
        <ele>7</ele>
        <time>2017-05-16T16:12:23Z</time>
      </trkpt>
      <trkpt lat="49.31196" lon="1.22437">
        <ele>7</ele>
        <time>2017-05-16T16:12:23Z</time>
      </trkpt>
      <trkpt lat="49.312" lon="1.22442">
        <ele>7</ele>
        <time>2017-05-16T16:12:23Z</time>
      </trkpt>
      <trkpt lat="49.31203" lon="1.22447">
        <ele>7</ele>
        <time>2017-05-16T16:12:23Z</time>
      </trkpt>
      <trkpt lat="49.31206" lon="1.22451">
        <ele>7</ele>
        <time>2017-05-16T16:12:43Z</time>
      </trkpt>
      <trkpt lat="49.31211" lon="1.22456">
        <ele>7</ele>
        <time>2017-05-16T16:12:43Z</time>
      </trkpt>
      <trkpt lat="49.31213" lon="1.22458">
        <ele>8</ele>
        <time>2017-05-16T16:12:43Z</time>
      </trkpt>
      <trkpt lat="49.31214" lon="1.22459">
        <ele>8</ele>
        <time>2017-05-16T16:12:43Z</time>
      </trkpt>
      <trkpt lat="49.31216" lon="1.22461">
        <ele>8</ele>
        <time>2017-05-16T16:12:43Z</time>
      </trkpt>
      <trkpt lat="49.31221" lon="1.22464">
        <ele>8</ele>
        <time>2017-05-16T16:12:59Z</time>
      </trkpt>
      <trkpt lat="49.31224" lon="1.22468">
        <ele>8</ele>
        <time>2017-05-16T16:12:59Z</time>
      </trkpt>
      <trkpt lat="49.31228" lon="1.22471">
        <ele>8</ele>
        <time>2017-05-16T16:12:59Z</time>
      </trkpt>
      <trkpt lat="49.31232" lon="1.22474">
        <ele>8</ele>
        <time>2017-05-16T16:12:59Z</time>
      </trkpt>
      <trkpt lat="49.31236" lon="1.22479">
        <ele>8</ele>
        <time>2017-05-16T16:13:15Z</time>
      </trkpt>
      <trkpt lat="49.31242" lon="1.22485">
        <ele>8</ele>
        <time>2017-05-16T16:13:15Z</time>
      </trkpt>
      <trkpt lat="49.31246" lon="1.2249">
        <ele>8</ele>
        <time>2017-05-16T16:13:15Z</time>
      </trkpt>
      <trkpt lat="49.3125" lon="1.22496">
        <ele>8</ele>
        <time>2017-05-16T16:13:15Z</time>
      </trkpt>
      <trkpt lat="49.31252" lon="1.22501">
        <ele>8</ele>
        <time>2017-05-16T16:13:32Z</time>
      </trkpt>
      <trkpt lat="49.31257" lon="1.22505">
        <ele>8</ele>
        <time>2017-05-16T16:13:32Z</time>
      </trkpt>
      <trkpt lat="49.31263" lon="1.2251">
        <ele>8</ele>
        <time>2017-05-16T16:13:32Z</time>
      </trkpt>
      <trkpt lat="49.31268" lon="1.22514">
        <ele>8</ele>
        <time>2017-05-16T16:13:32Z</time>
      </trkpt>
      <trkpt lat="49.31274" lon="1.22518">
        <ele>8</ele>
        <time>2017-05-16T16:13:48Z</time>
      </trkpt>
      <trkpt lat="49.31276" lon="1.22522">
        <ele>8</ele>
        <time>2017-05-16T16:13:48Z</time>
      </trkpt>
      <trkpt lat="49.31281" lon="1.22525">
        <ele>8</ele>
        <time>2017-05-16T16:13:48Z</time>
      </trkpt>
      <trkpt lat="49.31281" lon="1.22529">
        <ele>8</ele>
        <time>2017-05-16T16:13:48Z</time>
      </trkpt>
      <trkpt lat="49.31287" lon="1.22532">
        <ele>8</ele>
        <time>2017-05-16T16:14:03Z</time>
      </trkpt>
      <trkpt lat="49.31288" lon="1.22535">
        <ele>8</ele>
        <time>2017-05-16T16:14:03Z</time>
      </trkpt>
      <trkpt lat="49.31297" lon="1.22541">
        <ele>7</ele>
        <time>2017-05-16T16:14:03Z</time>
      </trkpt>
      <trkpt lat="49.31299" lon="1.22542">
        <ele>7</ele>
        <time>2017-05-16T16:14:03Z</time>
      </trkpt>
      <trkpt lat="49.31303" lon="1.22545">
        <ele>7</ele>
        <time>2017-05-16T16:14:19Z</time>
      </trkpt>
      <trkpt lat="49.3131" lon="1.22552">
        <ele>7</ele>
        <time>2017-05-16T16:14:19Z</time>
      </trkpt>
      <trkpt lat="49.31311" lon="1.22555">
        <ele>7</ele>
        <time>2017-05-16T16:14:19Z</time>
      </trkpt>
      <trkpt lat="49.31315" lon="1.22561">
        <ele>7</ele>
        <time>2017-05-16T16:14:19Z</time>
      </trkpt>
      <trkpt lat="49.31323" lon="1.22565">
        <ele>7</ele>
        <time>2017-05-16T16:14:35Z</time>
      </trkpt>
      <trkpt lat="49.3133" lon="1.2257">
        <ele>7</ele>
        <time>2017-05-16T16:14:35Z</time>
      </trkpt>
      <trkpt lat="49.31331" lon="1.22572">
        <ele>7</ele>
        <time>2017-05-16T16:14:36Z</time>
      </trkpt>
      <trkpt lat="49.31336" lon="1.22574">
        <ele>7</ele>
        <time>2017-05-16T16:14:36Z</time>
      </trkpt>
      <trkpt lat="49.31341" lon="1.22577">
        <ele>7</ele>
        <time>2017-05-16T16:14:52Z</time>
      </trkpt>
      <trkpt lat="49.31345" lon="1.22578">
        <ele>7</ele>
        <time>2017-05-16T16:14:52Z</time>
      </trkpt>
      <trkpt lat="49.31349" lon="1.22581">
        <ele>7</ele>
        <time>2017-05-16T16:14:52Z</time>
      </trkpt>
      <trkpt lat="49.31354" lon="1.22587">
        <ele>7</ele>
        <time>2017-05-16T16:14:52Z</time>
      </trkpt>
      <trkpt lat="49.31357" lon="1.22592">
        <ele>7</ele>
        <time>2017-05-16T16:15:07Z</time>
      </trkpt>
      <trkpt lat="49.31362" lon="1.22595">
        <ele>7</ele>
        <time>2017-05-16T16:15:07Z</time>
      </trkpt>
      <trkpt lat="49.31365" lon="1.22601">
        <ele>7</ele>
        <time>2017-05-16T16:15:07Z</time>
      </trkpt>
      <trkpt lat="49.31369" lon="1.22604">
        <ele>7</ele>
        <time>2017-05-16T16:15:07Z</time>
      </trkpt>
      <trkpt lat="49.31373" lon="1.22608">
        <ele>7</ele>
        <time>2017-05-16T16:15:24Z</time>
      </trkpt>
      <trkpt lat="49.31379" lon="1.22614">
        <ele>6</ele>
        <time>2017-05-16T16:15:24Z</time>
      </trkpt>
      <trkpt lat="49.31383" lon="1.22617">
        <ele>6</ele>
        <time>2017-05-16T16:15:24Z</time>
      </trkpt>
      <trkpt lat="49.31389" lon="1.22621">
        <ele>6</ele>
        <time>2017-05-16T16:15:24Z</time>
      </trkpt>
      <trkpt lat="49.31392" lon="1.22624">
        <ele>6</ele>
        <time>2017-05-16T16:15:40Z</time>
      </trkpt>
      <trkpt lat="49.31393" lon="1.22628">
        <ele>8</ele>
        <time>2017-05-16T16:15:40Z</time>
      </trkpt>
      <trkpt lat="49.31396" lon="1.22634">
        <ele>8</ele>
        <time>2017-05-16T16:15:40Z</time>
      </trkpt>
      <trkpt lat="49.31399" lon="1.22638">
        <ele>8</ele>
        <time>2017-05-16T16:15:40Z</time>
      </trkpt>
      <trkpt lat="49.31403" lon="1.22641">
        <ele>8</ele>
        <time>2017-05-16T16:15:56Z</time>
      </trkpt>
      <trkpt lat="49.31406" lon="1.22646">
        <ele>8</ele>
        <time>2017-05-16T16:15:56Z</time>
      </trkpt>
      <trkpt lat="49.31411" lon="1.2265">
        <ele>8</ele>
        <time>2017-05-16T16:15:56Z</time>
      </trkpt>
      <trkpt lat="49.31416" lon="1.22655">
        <ele>8</ele>
        <time>2017-05-16T16:15:56Z</time>
      </trkpt>
      <trkpt lat="49.31417" lon="1.22657">
        <ele>8</ele>
        <time>2017-05-16T16:16:11Z</time>
      </trkpt>
      <trkpt lat="49.31426" lon="1.22666">
        <ele>8</ele>
        <time>2017-05-16T16:16:11Z</time>
      </trkpt>
      <trkpt lat="49.31429" lon="1.2267">
        <ele>8</ele>
        <time>2017-05-16T16:16:11Z</time>
      </trkpt>
      <trkpt lat="49.31433" lon="1.22673">
        <ele>8</ele>
        <time>2017-05-16T16:16:11Z</time>
      </trkpt>
      <trkpt lat="49.31438" lon="1.22678">
        <ele>8</ele>
        <time>2017-05-16T16:16:27Z</time>
      </trkpt>
      <trkpt lat="49.31442" lon="1.22683">
        <ele>8</ele>
        <time>2017-05-16T16:16:27Z</time>
      </trkpt>
      <trkpt lat="49.31446" lon="1.22687">
        <ele>8</ele>
        <time>2017-05-16T16:16:27Z</time>
      </trkpt>
      <trkpt lat="49.31451" lon="1.2269">
        <ele>8</ele>
        <time>2017-05-16T16:16:27Z</time>
      </trkpt>
      <trkpt lat="49.31458" lon="1.22698">
        <ele>8</ele>
        <time>2017-05-16T16:16:43Z</time>
      </trkpt>
      <trkpt lat="49.3146" lon="1.22701">
        <ele>7</ele>
        <time>2017-05-16T16:16:43Z</time>
      </trkpt>
      <trkpt lat="49.31467" lon="1.22706">
        <ele>7</ele>
        <time>2017-05-16T16:16:43Z</time>
      </trkpt>
      <trkpt lat="49.31471" lon="1.2271">
        <ele>8</ele>
        <time>2017-05-16T16:16:43Z</time>
      </trkpt>
      <trkpt lat="49.31475" lon="1.22714">
        <ele>8</ele>
        <time>2017-05-16T16:17:00Z</time>
      </trkpt>
      <trkpt lat="49.31477" lon="1.22716">
        <ele>8</ele>
        <time>2017-05-16T16:17:00Z</time>
      </trkpt>
      <trkpt lat="49.31483" lon="1.22724">
        <ele>8</ele>
        <time>2017-05-16T16:17:00Z</time>
      </trkpt>
      <trkpt lat="49.31485" lon="1.22728">
        <ele>8</ele>
        <time>2017-05-16T16:17:00Z</time>
      </trkpt>
      <trkpt lat="49.3149" lon="1.22733">
        <ele>8</ele>
        <time>2017-05-16T16:17:16Z</time>
      </trkpt>
      <trkpt lat="49.31492" lon="1.22735">
        <ele>8</ele>
        <time>2017-05-16T16:17:16Z</time>
      </trkpt>
      <trkpt lat="49.31496" lon="1.2274">
        <ele>8</ele>
        <time>2017-05-16T16:17:16Z</time>
      </trkpt>
      <trkpt lat="49.31499" lon="1.22744">
        <ele>8</ele>
        <time>2017-05-16T16:17:16Z</time>
      </trkpt>
      <trkpt lat="49.31503" lon="1.22749">
        <ele>8</ele>
        <time>2017-05-16T16:17:33Z</time>
      </trkpt>
      <trkpt lat="49.31504" lon="1.22753">
        <ele>8</ele>
        <time>2017-05-16T16:17:33Z</time>
      </trkpt>
      <trkpt lat="49.31508" lon="1.22758">
        <ele>8</ele>
        <time>2017-05-16T16:17:33Z</time>
      </trkpt>
      <trkpt lat="49.31511" lon="1.22763">
        <ele>8</ele>
        <time>2017-05-16T16:17:33Z</time>
      </trkpt>
      <trkpt lat="49.31502" lon="1.22763">
        <ele>8</ele>
        <time>2017-05-16T16:22:15Z</time>
      </trkpt>
      <trkpt lat="49.31502" lon="1.22763">
        <ele>8</ele>
        <time>2017-05-16T16:22:15Z</time>
      </trkpt>
      <trkpt lat="49.31502" lon="1.22764">
        <ele>8</ele>
        <time>2017-05-16T16:22:15Z</time>
      </trkpt>
      <trkpt lat="49.31502" lon="1.22763">
        <ele>8</ele>
        <time>2017-05-16T16:22:15Z</time>
      </trkpt>
      <trkpt lat="49.31502" lon="1.22763">
        <ele>8</ele>
        <time>2017-05-16T16:22:15Z</time>
      </trkpt>
      <trkpt lat="49.31509" lon="1.22775">
        <ele>8</ele>
        <time>2017-05-16T16:23:36Z</time>
      </trkpt>
      <trkpt lat="49.31509" lon="1.22775">
        <ele>8</ele>
        <time>2017-05-16T16:23:36Z</time>
      </trkpt>
      <trkpt lat="49.31509" lon="1.22775">
        <ele>8</ele>
        <time>2017-05-16T16:23:36Z</time>
      </trkpt>
      <trkpt lat="49.31509" lon="1.22775">
        <ele>8</ele>
        <time>2017-05-16T16:23:36Z</time>
      </trkpt>
      <trkpt lat="49.31509" lon="1.22775">
        <ele>8</ele>
        <time>2017-05-16T16:23:36Z</time>
      </trkpt>
      <trkpt lat="49.3151" lon="1.22775">
        <ele>8</ele>
        <time>2017-05-16T16:30:35Z</time>
      </trkpt>
      <trkpt lat="49.31504" lon="1.22783">
        <ele>8</ele>
        <time>2017-05-16T16:30:35Z</time>
      </trkpt>
      <trkpt lat="49.31501" lon="1.22788">
        <ele>8</ele>
        <time>2017-05-16T16:30:35Z</time>
      </trkpt>
      <trkpt lat="49.31501" lon="1.22791">
        <ele>8</ele>
        <time>2017-05-16T16:30:36Z</time>
      </trkpt>
      <trkpt lat="49.31498" lon="1.22796">
        <ele>9</ele>
        <time>2017-05-16T16:30:36Z</time>
      </trkpt>
      <trkpt lat="49.31497" lon="1.228">
        <ele>9</ele>
        <time>2017-05-16T16:30:51Z</time>
      </trkpt>
      <trkpt lat="49.31497" lon="1.22805">
        <ele>9</ele>
        <time>2017-05-16T16:30:51Z</time>
      </trkpt>
      <trkpt lat="49.31496" lon="1.2281">
        <ele>9</ele>
        <time>2017-05-16T16:30:51Z</time>
      </trkpt>
      <trkpt lat="49.31499" lon="1.22816">
        <ele>9</ele>
        <time>2017-05-16T16:30:51Z</time>
      </trkpt>
      <trkpt lat="49.31506" lon="1.22824">
        <ele>9</ele>
        <time>2017-05-16T16:31:08Z</time>
      </trkpt>
      <trkpt lat="49.31511" lon="1.22826">
        <ele>9</ele>
        <time>2017-05-16T16:31:08Z</time>
      </trkpt>
      <trkpt lat="49.31515" lon="1.22835">
        <ele>9</ele>
        <time>2017-05-16T16:31:08Z</time>
      </trkpt>
      <trkpt lat="49.31516" lon="1.2284">
        <ele>9</ele>
        <time>2017-05-16T16:31:08Z</time>
      </trkpt>
      <trkpt lat="49.31521" lon="1.22846">
        <ele>9</ele>
        <time>2017-05-16T16:31:23Z</time>
      </trkpt>
      <trkpt lat="49.31523" lon="1.22855">
        <ele>9</ele>
        <time>2017-05-16T16:31:23Z</time>
      </trkpt>
      <trkpt lat="49.31524" lon="1.22862">
        <ele>9</ele>
        <time>2017-05-16T16:31:23Z</time>
      </trkpt>
      <trkpt lat="49.31529" lon="1.22865">
        <ele>9</ele>
        <time>2017-05-16T16:31:23Z</time>
      </trkpt>
      <trkpt lat="49.31539" lon="1.22882">
        <ele>8</ele>
        <time>2017-05-16T16:31:55Z</time>
      </trkpt>
      <trkpt lat="49.31543" lon="1.22885">
        <ele>9</ele>
        <time>2017-05-16T16:31:55Z</time>
      </trkpt>
      <trkpt lat="49.3155" lon="1.22906">
        <ele>9</ele>
        <time>2017-05-16T16:31:55Z</time>
      </trkpt>
      <trkpt lat="49.31551" lon="1.22911">
        <ele>9</ele>
        <time>2017-05-16T16:31:55Z</time>
      </trkpt>
      <trkpt lat="49.31557" lon="1.22919">
        <ele>9</ele>
        <time>2017-05-16T16:31:55Z</time>
      </trkpt>
      <trkpt lat="49.31562" lon="1.22933">
        <ele>9</ele>
        <time>2017-05-16T16:32:23Z</time>
      </trkpt>
      <trkpt lat="49.31571" lon="1.22943">
        <ele>9</ele>
        <time>2017-05-16T16:32:24Z</time>
      </trkpt>
      <trkpt lat="49.31572" lon="1.22945">
        <ele>9</ele>
        <time>2017-05-16T16:32:25Z</time>
      </trkpt>
      <trkpt lat="49.31573" lon="1.22947">
        <ele>9</ele>
        <time>2017-05-16T16:32:25Z</time>
      </trkpt>
      <trkpt lat="49.31574" lon="1.22961">
        <ele>10</ele>
        <time>2017-05-16T16:32:25Z</time>
      </trkpt>
      <trkpt lat="49.31576" lon="1.22966">
        <ele>10</ele>
        <time>2017-05-16T16:32:39Z</time>
      </trkpt>
      <trkpt lat="49.31583" lon="1.22972">
        <ele>10</ele>
        <time>2017-05-16T16:32:40Z</time>
      </trkpt>
      <trkpt lat="49.31586" lon="1.22978">
        <ele>10</ele>
        <time>2017-05-16T16:32:40Z</time>
      </trkpt>
      <trkpt lat="49.31587" lon="1.22979">
        <ele>10</ele>
        <time>2017-05-16T16:32:40Z</time>
      </trkpt>
      <trkpt lat="49.3159" lon="1.22991">
        <ele>10</ele>
        <time>2017-05-16T16:33:00Z</time>
      </trkpt>
      <trkpt lat="49.31594" lon="1.22997">
        <ele>10</ele>
        <time>2017-05-16T16:33:00Z</time>
      </trkpt>
      <trkpt lat="49.316" lon="1.23002">
        <ele>10</ele>
        <time>2017-05-16T16:33:00Z</time>
      </trkpt>
      <trkpt lat="49.31602" lon="1.23011">
        <ele>10</ele>
        <time>2017-05-16T16:33:00Z</time>
      </trkpt>
      <trkpt lat="49.31603" lon="1.23018">
        <ele>10</ele>
        <time>2017-05-16T16:33:15Z</time>
      </trkpt>
      <trkpt lat="49.31605" lon="1.23024">
        <ele>10</ele>
        <time>2017-05-16T16:33:15Z</time>
      </trkpt>
      <trkpt lat="49.31603" lon="1.23031">
        <ele>10</ele>
        <time>2017-05-16T16:33:15Z</time>
      </trkpt>
      <trkpt lat="49.31605" lon="1.23035">
        <ele>10</ele>
        <time>2017-05-16T16:33:15Z</time>
      </trkpt>
      <trkpt lat="49.31611" lon="1.23036">
        <ele>10</ele>
        <time>2017-05-16T16:33:31Z</time>
      </trkpt>
      <trkpt lat="49.31616" lon="1.23039">
        <ele>10</ele>
        <time>2017-05-16T16:33:31Z</time>
      </trkpt>
      <trkpt lat="49.31624" lon="1.23043">
        <ele>11</ele>
        <time>2017-05-16T16:33:31Z</time>
      </trkpt>
      <trkpt lat="49.31626" lon="1.23046">
        <ele>10</ele>
        <time>2017-05-16T16:33:31Z</time>
      </trkpt>
      <trkpt lat="49.31628" lon="1.23045">
        <ele>10</ele>
        <time>2017-05-16T16:34:03Z</time>
      </trkpt>
      <trkpt lat="49.31633" lon="1.2304">
        <ele>9</ele>
        <time>2017-05-16T16:34:04Z</time>
      </trkpt>
      <trkpt lat="49.31638" lon="1.23039">
        <ele>9</ele>
        <time>2017-05-16T16:34:04Z</time>
      </trkpt>
      <trkpt lat="49.31642" lon="1.23039">
        <ele>9</ele>
        <time>2017-05-16T16:34:04Z</time>
      </trkpt>
      <trkpt lat="49.31644" lon="1.23044">
        <ele>10</ele>
        <time>2017-05-16T16:34:04Z</time>
      </trkpt>
      <trkpt lat="49.31655" lon="1.23043">
        <ele>10</ele>
        <time>2017-05-16T16:34:23Z</time>
      </trkpt>
      <trkpt lat="49.31659" lon="1.23044">
        <ele>10</ele>
        <time>2017-05-16T16:34:23Z</time>
      </trkpt>
      <trkpt lat="49.31666" lon="1.23045">
        <ele>10</ele>
        <time>2017-05-16T16:34:23Z</time>
      </trkpt>
      <trkpt lat="49.31667" lon="1.23046">
        <ele>10</ele>
        <time>2017-05-16T16:34:23Z</time>
      </trkpt>
      <trkpt lat="49.31671" lon="1.23046">
        <ele>10</ele>
        <time>2017-05-16T16:34:40Z</time>
      </trkpt>
      <trkpt lat="49.31676" lon="1.23045">
        <ele>10</ele>
        <time>2017-05-16T16:34:40Z</time>
      </trkpt>
      <trkpt lat="49.31682" lon="1.23045">
        <ele>10</ele>
        <time>2017-05-16T16:34:40Z</time>
      </trkpt>
      <trkpt lat="49.3169" lon="1.23044">
        <ele>10</ele>
        <time>2017-05-16T16:34:40Z</time>
      </trkpt>
      <trkpt lat="49.31695" lon="1.23043">
        <ele>10</ele>
        <time>2017-05-16T16:34:55Z</time>
      </trkpt>
      <trkpt lat="49.31698" lon="1.23042">
        <ele>9</ele>
        <time>2017-05-16T16:34:55Z</time>
      </trkpt>
      <trkpt lat="49.31702" lon="1.23041">
        <ele>9</ele>
        <time>2017-05-16T16:34:55Z</time>
      </trkpt>
      <trkpt lat="49.31706" lon="1.23041">
        <ele>9</ele>
        <time>2017-05-16T16:34:55Z</time>
      </trkpt>
      <trkpt lat="49.3171" lon="1.23041">
        <ele>8</ele>
        <time>2017-05-16T16:35:16Z</time>
      </trkpt>
      <trkpt lat="49.31715" lon="1.23041">
        <ele>8</ele>
        <time>2017-05-16T16:35:16Z</time>
      </trkpt>
      <trkpt lat="49.31716" lon="1.2304">
        <ele>8</ele>
        <time>2017-05-16T16:35:16Z</time>
      </trkpt>
      <trkpt lat="49.31719" lon="1.23039">
        <ele>8</ele>
        <time>2017-05-16T16:35:16Z</time>
      </trkpt>
      <trkpt lat="49.31724" lon="1.23038">
        <ele>8</ele>
        <time>2017-05-16T16:35:16Z</time>
      </trkpt>
      <trkpt lat="49.31729" lon="1.23038">
        <ele>8</ele>
        <time>2017-05-16T16:35:32Z</time>
      </trkpt>
      <trkpt lat="49.31732" lon="1.23038">
        <ele>8</ele>
        <time>2017-05-16T16:35:32Z</time>
      </trkpt>
      <trkpt lat="49.31739" lon="1.23036">
        <ele>8</ele>
        <time>2017-05-16T16:35:32Z</time>
      </trkpt>
      <trkpt lat="49.31745" lon="1.23035">
        <ele>8</ele>
        <time>2017-05-16T16:35:32Z</time>
      </trkpt>
      <trkpt lat="49.31751" lon="1.23036">
        <ele>8</ele>
        <time>2017-05-16T16:35:47Z</time>
      </trkpt>
      <trkpt lat="49.31755" lon="1.23036">
        <ele>8</ele>
        <time>2017-05-16T16:35:47Z</time>
      </trkpt>
      <trkpt lat="49.31762" lon="1.23037">
        <ele>8</ele>
        <time>2017-05-16T16:35:47Z</time>
      </trkpt>
      <trkpt lat="49.31767" lon="1.23037">
        <ele>8</ele>
        <time>2017-05-16T16:35:47Z</time>
      </trkpt>
      <trkpt lat="49.31773" lon="1.23037">
        <ele>8</ele>
        <time>2017-05-16T16:36:03Z</time>
      </trkpt>
      <trkpt lat="49.31779" lon="1.23036">
        <ele>8</ele>
        <time>2017-05-16T16:36:03Z</time>
      </trkpt>
      <trkpt lat="49.31783" lon="1.23038">
        <ele>8</ele>
        <time>2017-05-16T16:36:04Z</time>
      </trkpt>
      <trkpt lat="49.31785" lon="1.23038">
        <ele>8</ele>
        <time>2017-05-16T16:36:06Z</time>
      </trkpt>
      <trkpt lat="49.31789" lon="1.23037">
        <ele>8</ele>
        <time>2017-05-16T16:36:20Z</time>
      </trkpt>
      <trkpt lat="49.31798" lon="1.23041">
        <ele>10</ele>
        <time>2017-05-16T16:36:20Z</time>
      </trkpt>
      <trkpt lat="49.31801" lon="1.23041">
        <ele>10</ele>
        <time>2017-05-16T16:36:20Z</time>
      </trkpt>
      <trkpt lat="49.31803" lon="1.23045">
        <ele>8</ele>
        <time>2017-05-16T16:36:20Z</time>
      </trkpt>
      <trkpt lat="49.31808" lon="1.23045">
        <ele>8</ele>
        <time>2017-05-16T16:36:35Z</time>
      </trkpt>
      <trkpt lat="49.31812" lon="1.23041">
        <ele>10</ele>
        <time>2017-05-16T16:36:35Z</time>
      </trkpt>
      <trkpt lat="49.31817" lon="1.2304">
        <ele>10</ele>
        <time>2017-05-16T16:36:35Z</time>
      </trkpt>
      <trkpt lat="49.31825" lon="1.23037">
        <ele>10</ele>
        <time>2017-05-16T16:36:35Z</time>
      </trkpt>
      <trkpt lat="49.31828" lon="1.23036">
        <ele>10</ele>
        <time>2017-05-16T16:36:51Z</time>
      </trkpt>
      <trkpt lat="49.31828" lon="1.23034">
        <ele>10</ele>
        <time>2017-05-16T16:36:51Z</time>
      </trkpt>
      <trkpt lat="49.31832" lon="1.23035">
        <ele>10</ele>
        <time>2017-05-16T16:36:52Z</time>
      </trkpt>
      <trkpt lat="49.31838" lon="1.23034">
        <ele>10</ele>
        <time>2017-05-16T16:36:52Z</time>
      </trkpt>
      <trkpt lat="49.31848" lon="1.23034">
        <ele>10</ele>
        <time>2017-05-16T16:37:28Z</time>
      </trkpt>
      <trkpt lat="49.31849" lon="1.23033">
        <ele>10</ele>
        <time>2017-05-16T16:37:28Z</time>
      </trkpt>
      <trkpt lat="49.3185" lon="1.23019">
        <ele>10</ele>
        <time>2017-05-16T16:37:28Z</time>
      </trkpt>
      <trkpt lat="49.31847" lon="1.23014">
        <ele>10</ele>
        <time>2017-05-16T16:37:28Z</time>
      </trkpt>
      <trkpt lat="49.31849" lon="1.23006">
        <ele>10</ele>
        <time>2017-05-16T16:37:28Z</time>
      </trkpt>
      <trkpt lat="49.31852" lon="1.23003">
        <ele>10</ele>
        <time>2017-05-16T16:37:44Z</time>
      </trkpt>
      <trkpt lat="49.31854" lon="1.22992">
        <ele>10</ele>
        <time>2017-05-16T16:37:44Z</time>
      </trkpt>
      <trkpt lat="49.31856" lon="1.22983">
        <ele>10</ele>
        <time>2017-05-16T16:37:44Z</time>
      </trkpt>
      <trkpt lat="49.31859" lon="1.22977">
        <ele>10</ele>
        <time>2017-05-16T16:37:44Z</time>
      </trkpt>
      <trkpt lat="49.31859" lon="1.2297">
        <ele>10</ele>
        <time>2017-05-16T16:38:00Z</time>
      </trkpt>
      <trkpt lat="49.31859" lon="1.22964">
        <ele>10</ele>
        <time>2017-05-16T16:38:00Z</time>
      </trkpt>
      <trkpt lat="49.3186" lon="1.22955">
        <ele>10</ele>
        <time>2017-05-16T16:38:00Z</time>
      </trkpt>
      <trkpt lat="49.31861" lon="1.22946">
        <ele>10</ele>
        <time>2017-05-16T16:38:00Z</time>
      </trkpt>
      <trkpt lat="49.31861" lon="1.22938">
        <ele>10</ele>
        <time>2017-05-16T16:38:16Z</time>
      </trkpt>
      <trkpt lat="49.31863" lon="1.22932">
        <ele>10</ele>
        <time>2017-05-16T16:38:16Z</time>
      </trkpt>
      <trkpt lat="49.31864" lon="1.22927">
        <ele>10</ele>
        <time>2017-05-16T16:38:16Z</time>
      </trkpt>
      <trkpt lat="49.31866" lon="1.22919">
        <ele>10</ele>
        <time>2017-05-16T16:38:16Z</time>
      </trkpt>
      <trkpt lat="49.31866" lon="1.2291">
        <ele>10</ele>
        <time>2017-05-16T16:38:31Z</time>
      </trkpt>
      <trkpt lat="49.31867" lon="1.22904">
        <ele>10</ele>
        <time>2017-05-16T16:38:31Z</time>
      </trkpt>
      <trkpt lat="49.31867" lon="1.22896">
        <ele>10</ele>
        <time>2017-05-16T16:38:31Z</time>
      </trkpt>
      <trkpt lat="49.31869" lon="1.22887">
        <ele>10</ele>
        <time>2017-05-16T16:38:31Z</time>
      </trkpt>
      <trkpt lat="49.31869" lon="1.22879">
        <ele>10</ele>
        <time>2017-05-16T16:38:47Z</time>
      </trkpt>
      <trkpt lat="49.31868" lon="1.22872">
        <ele>10</ele>
        <time>2017-05-16T16:38:47Z</time>
      </trkpt>
      <trkpt lat="49.3187" lon="1.22866">
        <ele>10</ele>
        <time>2017-05-16T16:38:47Z</time>
      </trkpt>
      <trkpt lat="49.31868" lon="1.22854">
        <ele>10</ele>
        <time>2017-05-16T16:38:47Z</time>
      </trkpt>
      <trkpt lat="49.31876" lon="1.22849">
        <ele>12</ele>
        <time>2017-05-16T16:39:07Z</time>
      </trkpt>
      <trkpt lat="49.31871" lon="1.22841">
        <ele>10</ele>
        <time>2017-05-16T16:39:07Z</time>
      </trkpt>
      <trkpt lat="49.31873" lon="1.22824">
        <ele>10</ele>
        <time>2017-05-16T16:39:07Z</time>
      </trkpt>
      <trkpt lat="49.31872" lon="1.22815">
        <ele>10</ele>
        <time>2017-05-16T16:39:07Z</time>
      </trkpt>
      <trkpt lat="49.31872" lon="1.22807">
        <ele>10</ele>
        <time>2017-05-16T16:39:23Z</time>
      </trkpt>
      <trkpt lat="49.31873" lon="1.228">
        <ele>10</ele>
        <time>2017-05-16T16:39:23Z</time>
      </trkpt>
      <trkpt lat="49.31875" lon="1.22792">
        <ele>10</ele>
        <time>2017-05-16T16:39:23Z</time>
      </trkpt>
      <trkpt lat="49.31875" lon="1.22785">
        <ele>13</ele>
        <time>2017-05-16T16:39:23Z</time>
      </trkpt>
      <trkpt lat="49.31877" lon="1.22781">
        <ele>13</ele>
        <time>2017-05-16T16:39:40Z</time>
      </trkpt>
      <trkpt lat="49.31878" lon="1.22775">
        <ele>13</ele>
        <time>2017-05-16T16:39:40Z</time>
      </trkpt>
      <trkpt lat="49.31881" lon="1.22768">
        <ele>13</ele>
        <time>2017-05-16T16:39:40Z</time>
      </trkpt>
      <trkpt lat="49.31882" lon="1.22762">
        <ele>13</ele>
        <time>2017-05-16T16:39:40Z</time>
      </trkpt>
      <trkpt lat="49.31882" lon="1.22756">
        <ele>13</ele>
        <time>2017-05-16T16:39:55Z</time>
      </trkpt>
      <trkpt lat="49.31883" lon="1.22744">
        <ele>13</ele>
        <time>2017-05-16T16:39:55Z</time>
      </trkpt>
      <trkpt lat="49.31884" lon="1.22737">
        <ele>13</ele>
        <time>2017-05-16T16:39:55Z</time>
      </trkpt>
      <trkpt lat="49.31884" lon="1.2273">
        <ele>13</ele>
        <time>2017-05-16T16:39:55Z</time>
      </trkpt>
      <trkpt lat="49.31886" lon="1.2272">
        <ele>13</ele>
        <time>2017-05-16T16:40:15Z</time>
      </trkpt>
      <trkpt lat="49.31886" lon="1.22712">
        <ele>13</ele>
        <time>2017-05-16T16:40:15Z</time>
      </trkpt>
      <trkpt lat="49.31887" lon="1.22699">
        <ele>14</ele>
        <time>2017-05-16T16:40:15Z</time>
      </trkpt>
      <trkpt lat="49.31888" lon="1.22691">
        <ele>14</ele>
        <time>2017-05-16T16:40:15Z</time>
      </trkpt>
      <trkpt lat="49.31888" lon="1.22688">
        <ele>14</ele>
        <time>2017-05-16T16:40:31Z</time>
      </trkpt>
      <trkpt lat="49.31887" lon="1.2268">
        <ele>14</ele>
        <time>2017-05-16T16:40:31Z</time>
      </trkpt>
      <trkpt lat="49.31888" lon="1.22672">
        <ele>14</ele>
        <time>2017-05-16T16:40:31Z</time>
      </trkpt>
      <trkpt lat="49.3189" lon="1.22665">
        <ele>14</ele>
        <time>2017-05-16T16:40:31Z</time>
      </trkpt>
      <trkpt lat="49.31894" lon="1.22661">
        <ele>14</ele>
        <time>2017-05-16T16:40:47Z</time>
      </trkpt>
      <trkpt lat="49.319" lon="1.22656">
        <ele>14</ele>
        <time>2017-05-16T16:40:47Z</time>
      </trkpt>
      <trkpt lat="49.31917" lon="1.22653">
        <ele>14</ele>
        <time>2017-05-16T16:40:47Z</time>
      </trkpt>
      <trkpt lat="49.31916" lon="1.22643">
        <ele>14</ele>
        <time>2017-05-16T16:40:47Z</time>
      </trkpt>
      <trkpt lat="49.31901" lon="1.22632">
        <ele>14</ele>
        <time>2017-05-16T16:41:03Z</time>
      </trkpt>
      <trkpt lat="49.31894" lon="1.22623">
        <ele>15</ele>
        <time>2017-05-16T16:41:03Z</time>
      </trkpt>
      <trkpt lat="49.3189" lon="1.22613">
        <ele>15</ele>
        <time>2017-05-16T16:41:03Z</time>
      </trkpt>
      <trkpt lat="49.31887" lon="1.22604">
        <ele>15</ele>
        <time>2017-05-16T16:41:03Z</time>
      </trkpt>
      <trkpt lat="49.31886" lon="1.22603">
        <ele>15</ele>
        <time>2017-05-16T16:41:19Z</time>
      </trkpt>
      <trkpt lat="49.3189" lon="1.22599">
        <ele>15</ele>
        <time>2017-05-16T16:41:19Z</time>
      </trkpt>
      <trkpt lat="49.31894" lon="1.22589">
        <ele>15</ele>
        <time>2017-05-16T16:41:19Z</time>
      </trkpt>
      <trkpt lat="49.31896" lon="1.22581">
        <ele>15</ele>
        <time>2017-05-16T16:41:19Z</time>
      </trkpt>
      <trkpt lat="49.31899" lon="1.22568">
        <ele>15</ele>
        <time>2017-05-16T16:42:03Z</time>
      </trkpt>
      <trkpt lat="49.319" lon="1.22569">
        <ele>15</ele>
        <time>2017-05-16T16:42:03Z</time>
      </trkpt>
      <trkpt lat="49.319" lon="1.22569">
        <ele>15</ele>
        <time>2017-05-16T16:42:03Z</time>
      </trkpt>
      <trkpt lat="49.31904" lon="1.2257">
        <ele>15</ele>
        <time>2017-05-16T16:42:03Z</time>
      </trkpt>
      <trkpt lat="49.3191" lon="1.2257">
        <ele>15</ele>
        <time>2017-05-16T16:42:03Z</time>
      </trkpt>
      <trkpt lat="49.31914" lon="1.22574">
        <ele>15</ele>
        <time>2017-05-16T16:42:19Z</time>
      </trkpt>
      <trkpt lat="49.31921" lon="1.22572">
        <ele>15</ele>
        <time>2017-05-16T16:42:19Z</time>
      </trkpt>
      <trkpt lat="49.31927" lon="1.22573">
        <ele>15</ele>
        <time>2017-05-16T16:42:19Z</time>
      </trkpt>
      <trkpt lat="49.31932" lon="1.22574">
        <ele>15</ele>
        <time>2017-05-16T16:42:19Z</time>
      </trkpt>
      <trkpt lat="49.31938" lon="1.22574">
        <ele>15</ele>
        <time>2017-05-16T16:42:35Z</time>
      </trkpt>
      <trkpt lat="49.31941" lon="1.22577">
        <ele>15</ele>
        <time>2017-05-16T16:42:35Z</time>
      </trkpt>
      <trkpt lat="49.31947" lon="1.22578">
        <ele>15</ele>
        <time>2017-05-16T16:42:35Z</time>
      </trkpt>
      <trkpt lat="49.31948" lon="1.22577">
        <ele>15</ele>
        <time>2017-05-16T16:42:35Z</time>
      </trkpt>
      <trkpt lat="49.31951" lon="1.2257">
        <ele>15</ele>
        <time>2017-05-16T16:42:51Z</time>
      </trkpt>
      <trkpt lat="49.31959" lon="1.2257">
        <ele>15</ele>
        <time>2017-05-16T16:42:51Z</time>
      </trkpt>
      <trkpt lat="49.31963" lon="1.22569">
        <ele>15</ele>
        <time>2017-05-16T16:42:51Z</time>
      </trkpt>
      <trkpt lat="49.31972" lon="1.22571">
        <ele>15</ele>
        <time>2017-05-16T16:42:51Z</time>
      </trkpt>
      <trkpt lat="49.31976" lon="1.22573">
        <ele>15</ele>
        <time>2017-05-16T16:43:07Z</time>
      </trkpt>
      <trkpt lat="49.31981" lon="1.22574">
        <ele>15</ele>
        <time>2017-05-16T16:43:07Z</time>
      </trkpt>
      <trkpt lat="49.31986" lon="1.22574">
        <ele>15</ele>
        <time>2017-05-16T16:43:07Z</time>
      </trkpt>
      <trkpt lat="49.31989" lon="1.22571">
        <ele>15</ele>
        <time>2017-05-16T16:43:07Z</time>
      </trkpt>
      <trkpt lat="49.31994" lon="1.22571">
        <ele>15</ele>
        <time>2017-05-16T16:43:23Z</time>
      </trkpt>
      <trkpt lat="49.32" lon="1.2257">
        <ele>15</ele>
        <time>2017-05-16T16:43:23Z</time>
      </trkpt>
      <trkpt lat="49.32005" lon="1.2257">
        <ele>15</ele>
        <time>2017-05-16T16:43:23Z</time>
      </trkpt>
      <trkpt lat="49.32007" lon="1.22571">
        <ele>15</ele>
        <time>2017-05-16T16:43:23Z</time>
      </trkpt>
      <trkpt lat="49.32013" lon="1.22569">
        <ele>15</ele>
        <time>2017-05-16T16:43:39Z</time>
      </trkpt>
      <trkpt lat="49.32019" lon="1.2257">
        <ele>15</ele>
        <time>2017-05-16T16:43:40Z</time>
      </trkpt>
      <trkpt lat="49.32024" lon="1.2257">
        <ele>15</ele>
        <time>2017-05-16T16:43:40Z</time>
      </trkpt>
      <trkpt lat="49.32029" lon="1.22567">
        <ele>15</ele>
        <time>2017-05-16T16:43:40Z</time>
      </trkpt>
      <trkpt lat="49.32032" lon="1.22565">
        <ele>15</ele>
        <time>2017-05-16T16:43:55Z</time>
      </trkpt>
      <trkpt lat="49.32039" lon="1.22562">
        <ele>15</ele>
        <time>2017-05-16T16:43:56Z</time>
      </trkpt>
      <trkpt lat="49.32043" lon="1.22562">
        <ele>15</ele>
        <time>2017-05-16T16:43:56Z</time>
      </trkpt>
      <trkpt lat="49.32049" lon="1.22562">
        <ele>15</ele>
        <time>2017-05-16T16:43:56Z</time>
      </trkpt>
      <trkpt lat="49.32055" lon="1.22563">
        <ele>15</ele>
        <time>2017-05-16T16:44:11Z</time>
      </trkpt>
      <trkpt lat="49.3206" lon="1.22562">
        <ele>15</ele>
        <time>2017-05-16T16:44:11Z</time>
      </trkpt>
      <trkpt lat="49.32067" lon="1.2256">
        <ele>15</ele>
        <time>2017-05-16T16:44:12Z</time>
      </trkpt>
      <trkpt lat="49.32071" lon="1.22562">
        <ele>15</ele>
        <time>2017-05-16T16:44:12Z</time>
      </trkpt>
      <trkpt lat="49.32077" lon="1.22561">
        <ele>15</ele>
        <time>2017-05-16T16:44:28Z</time>
      </trkpt>
      <trkpt lat="49.32083" lon="1.22559">
        <ele>15</ele>
        <time>2017-05-16T16:44:28Z</time>
      </trkpt>
      <trkpt lat="49.32088" lon="1.2256">
        <ele>15</ele>
        <time>2017-05-16T16:44:29Z</time>
      </trkpt>
      <trkpt lat="49.32092" lon="1.2256">
        <ele>15</ele>
        <time>2017-05-16T16:44:29Z</time>
      </trkpt>
      <trkpt lat="49.32097" lon="1.22558">
        <ele>15</ele>
        <time>2017-05-16T16:44:43Z</time>
      </trkpt>
      <trkpt lat="49.32101" lon="1.22557">
        <ele>15</ele>
        <time>2017-05-16T16:44:44Z</time>
      </trkpt>
      <trkpt lat="49.32105" lon="1.22558">
        <ele>15</ele>
        <time>2017-05-16T16:44:44Z</time>
      </trkpt>
      <trkpt lat="49.32108" lon="1.22557">
        <ele>15</ele>
        <time>2017-05-16T16:44:44Z</time>
      </trkpt>
      <trkpt lat="49.32115" lon="1.22556">
        <ele>15</ele>
        <time>2017-05-16T16:44:59Z</time>
      </trkpt>
      <trkpt lat="49.32119" lon="1.22555">
        <ele>15</ele>
        <time>2017-05-16T16:44:59Z</time>
      </trkpt>
      <trkpt lat="49.32125" lon="1.22554">
        <ele>16</ele>
        <time>2017-05-16T16:44:59Z</time>
      </trkpt>
      <trkpt lat="49.3213" lon="1.22552">
        <ele>16</ele>
        <time>2017-05-16T16:44:59Z</time>
      </trkpt>
      <trkpt lat="49.32135" lon="1.22551">
        <ele>16</ele>
        <time>2017-05-16T16:45:15Z</time>
      </trkpt>
      <trkpt lat="49.3214" lon="1.2255">
        <ele>16</ele>
        <time>2017-05-16T16:45:15Z</time>
      </trkpt>
      <trkpt lat="49.32145" lon="1.22548">
        <ele>16</ele>
        <time>2017-05-16T16:45:15Z</time>
      </trkpt>
      <trkpt lat="49.32149" lon="1.22547">
        <ele>16</ele>
        <time>2017-05-16T16:45:15Z</time>
      </trkpt>
      <trkpt lat="49.32154" lon="1.22546">
        <ele>16</ele>
        <time>2017-05-16T16:45:31Z</time>
      </trkpt>
      <trkpt lat="49.32157" lon="1.22544">
        <ele>16</ele>
        <time>2017-05-16T16:45:31Z</time>
      </trkpt>
      <trkpt lat="49.32162" lon="1.22544">
        <ele>16</ele>
        <time>2017-05-16T16:45:31Z</time>
      </trkpt>
      <trkpt lat="49.32166" lon="1.22542">
        <ele>16</ele>
        <time>2017-05-16T16:45:31Z</time>
      </trkpt>
      <trkpt lat="49.32172" lon="1.22541">
        <ele>16</ele>
        <time>2017-05-16T16:45:47Z</time>
      </trkpt>
      <trkpt lat="49.32176" lon="1.22539">
        <ele>16</ele>
        <time>2017-05-16T16:45:47Z</time>
      </trkpt>
      <trkpt lat="49.3218" lon="1.22536">
        <ele>16</ele>
        <time>2017-05-16T16:45:47Z</time>
      </trkpt>
      <trkpt lat="49.32183" lon="1.22532">
        <ele>16</ele>
        <time>2017-05-16T16:45:47Z</time>
      </trkpt>
      <trkpt lat="49.32183" lon="1.2253">
        <ele>16</ele>
        <time>2017-05-16T16:46:19Z</time>
      </trkpt>
      <trkpt lat="49.32186" lon="1.22525">
        <ele>16</ele>
        <time>2017-05-16T16:46:19Z</time>
      </trkpt>
      <trkpt lat="49.32192" lon="1.22522">
        <ele>16</ele>
        <time>2017-05-16T16:46:19Z</time>
      </trkpt>
      <trkpt lat="49.32197" lon="1.22521">
        <ele>16</ele>
        <time>2017-05-16T16:46:19Z</time>
      </trkpt>
      <trkpt lat="49.32202" lon="1.22518">
        <ele>16</ele>
        <time>2017-05-16T16:46:19Z</time>
      </trkpt>
      <trkpt lat="49.32207" lon="1.22514">
        <ele>16</ele>
        <time>2017-05-16T16:46:36Z</time>
      </trkpt>
      <trkpt lat="49.32209" lon="1.22512">
        <ele>18</ele>
        <time>2017-05-16T16:46:36Z</time>
      </trkpt>
      <trkpt lat="49.32215" lon="1.22507">
        <ele>18</ele>
        <time>2017-05-16T16:46:36Z</time>
      </trkpt>
      <trkpt lat="49.32218" lon="1.22505">
        <ele>18</ele>
        <time>2017-05-16T16:46:36Z</time>
      </trkpt>
      <trkpt lat="49.32225" lon="1.22502">
        <ele>18</ele>
        <time>2017-05-16T16:46:52Z</time>
      </trkpt>
      <trkpt lat="49.32226" lon="1.22502">
        <ele>18</ele>
        <time>2017-05-16T16:46:52Z</time>
      </trkpt>
      <trkpt lat="49.32237" lon="1.22502">
        <ele>18</ele>
        <time>2017-05-16T16:46:52Z</time>
      </trkpt>
      <trkpt lat="49.3224" lon="1.22502">
        <ele>18</ele>
        <time>2017-05-16T16:46:52Z</time>
      </trkpt>
      <trkpt lat="49.32237" lon="1.22502">
        <ele>18</ele>
        <time>2017-05-16T16:47:21Z</time>
      </trkpt>
      <trkpt lat="49.32237" lon="1.22502">
        <ele>18</ele>
        <time>2017-05-16T16:47:21Z</time>
      </trkpt>
      <trkpt lat="49.3224" lon="1.22496">
        <ele>18</ele>
        <time>2017-05-16T16:47:21Z</time>
      </trkpt>
      <trkpt lat="49.32242" lon="1.22492">
        <ele>18</ele>
        <time>2017-05-16T16:47:21Z</time>
      </trkpt>
      <trkpt lat="49.32245" lon="1.22485">
        <ele>18</ele>
        <time>2017-05-16T16:47:21Z</time>
      </trkpt>
      <trkpt lat="49.32247" lon="1.22482">
        <ele>18</ele>
        <time>2017-05-16T16:47:35Z</time>
      </trkpt>
      <trkpt lat="49.32251" lon="1.22472">
        <ele>18</ele>
        <time>2017-05-16T16:47:35Z</time>
      </trkpt>
      <trkpt lat="49.32254" lon="1.22465">
        <ele>18</ele>
        <time>2017-05-16T16:47:35Z</time>
      </trkpt>
      <trkpt lat="49.32255" lon="1.2246">
        <ele>18</ele>
        <time>2017-05-16T16:47:35Z</time>
      </trkpt>
      <trkpt lat="49.32258" lon="1.22451">
        <ele>18</ele>
        <time>2017-05-16T16:47:52Z</time>
      </trkpt>
      <trkpt lat="49.3226" lon="1.22443">
        <ele>18</ele>
        <time>2017-05-16T16:47:52Z</time>
      </trkpt>
      <trkpt lat="49.32263" lon="1.22437">
        <ele>18</ele>
        <time>2017-05-16T16:47:52Z</time>
      </trkpt>
      <trkpt lat="49.32266" lon="1.22431">
        <ele>18</ele>
        <time>2017-05-16T16:47:52Z</time>
      </trkpt>
      <trkpt lat="49.32269" lon="1.22425">
        <ele>18</ele>
        <time>2017-05-16T16:48:35Z</time>
      </trkpt>
      <trkpt lat="49.32269" lon="1.22431">
        <ele>18</ele>
        <time>2017-05-16T16:48:35Z</time>
      </trkpt>
      <trkpt lat="49.32274" lon="1.22435">
        <ele>18</ele>
        <time>2017-05-16T16:48:35Z</time>
      </trkpt>
      <trkpt lat="49.3228" lon="1.22437">
        <ele>18</ele>
        <time>2017-05-16T16:48:35Z</time>
      </trkpt>
      <trkpt lat="49.32285" lon="1.22439">
        <ele>18</ele>
        <time>2017-05-16T16:48:36Z</time>
      </trkpt>
      <trkpt lat="49.3229" lon="1.22441">
        <ele>18</ele>
        <time>2017-05-16T16:48:52Z</time>
      </trkpt>
      <trkpt lat="49.32294" lon="1.22443">
        <ele>18</ele>
        <time>2017-05-16T16:48:52Z</time>
      </trkpt>
      <trkpt lat="49.32299" lon="1.22442">
        <ele>18</ele>
        <time>2017-05-16T16:48:52Z</time>
      </trkpt>
      <trkpt lat="49.32303" lon="1.22443">
        <ele>18</ele>
        <time>2017-05-16T16:48:52Z</time>
      </trkpt>
      <trkpt lat="49.32307" lon="1.22442">
        <ele>18</ele>
        <time>2017-05-16T16:49:07Z</time>
      </trkpt>
      <trkpt lat="49.32314" lon="1.22443">
        <ele>18</ele>
        <time>2017-05-16T16:49:07Z</time>
      </trkpt>
      <trkpt lat="49.32319" lon="1.22443">
        <ele>18</ele>
        <time>2017-05-16T16:49:07Z</time>
      </trkpt>
      <trkpt lat="49.32325" lon="1.22445">
        <ele>18</ele>
        <time>2017-05-16T16:49:07Z</time>
      </trkpt>
      <trkpt lat="49.32328" lon="1.22446">
        <ele>18</ele>
        <time>2017-05-16T16:49:24Z</time>
      </trkpt>
      <trkpt lat="49.3233" lon="1.22446">
        <ele>18</ele>
        <time>2017-05-16T16:49:24Z</time>
      </trkpt>
      <trkpt lat="49.32342" lon="1.22444">
        <ele>18</ele>
        <time>2017-05-16T16:49:24Z</time>
      </trkpt>
      <trkpt lat="49.32346" lon="1.22445">
        <ele>18</ele>
        <time>2017-05-16T16:49:25Z</time>
      </trkpt>
      <trkpt lat="49.32355" lon="1.22446">
        <ele>18</ele>
        <time>2017-05-16T16:49:44Z</time>
      </trkpt>
      <trkpt lat="49.32358" lon="1.22446">
        <ele>18</ele>
        <time>2017-05-16T16:49:44Z</time>
      </trkpt>
      <trkpt lat="49.32358" lon="1.22447">
        <ele>18</ele>
        <time>2017-05-16T16:49:45Z</time>
      </trkpt>
      <trkpt lat="49.32365" lon="1.22448">
        <ele>18</ele>
        <time>2017-05-16T16:49:45Z</time>
      </trkpt>
      <trkpt lat="49.32371" lon="1.22447">
        <ele>18</ele>
        <time>2017-05-16T16:49:59Z</time>
      </trkpt>
      <trkpt lat="49.32377" lon="1.22447">
        <ele>18</ele>
        <time>2017-05-16T16:50:00Z</time>
      </trkpt>
      <trkpt lat="49.32384" lon="1.22447">
        <ele>18</ele>
        <time>2017-05-16T16:50:00Z</time>
      </trkpt>
      <trkpt lat="49.32385" lon="1.22447">
        <ele>18</ele>
        <time>2017-05-16T16:50:00Z</time>
      </trkpt>
      <trkpt lat="49.32392" lon="1.22447">
        <ele>18</ele>
        <time>2017-05-16T16:50:16Z</time>
      </trkpt>
      <trkpt lat="49.32399" lon="1.22448">
        <ele>18</ele>
        <time>2017-05-16T16:50:16Z</time>
      </trkpt>
      <trkpt lat="49.32404" lon="1.22447">
        <ele>18</ele>
        <time>2017-05-16T16:50:17Z</time>
      </trkpt>
      <trkpt lat="49.32409" lon="1.22447">
        <ele>18</ele>
        <time>2017-05-16T16:50:17Z</time>
      </trkpt>
      <trkpt lat="49.32416" lon="1.22446">
        <ele>18</ele>
        <time>2017-05-16T16:50:31Z</time>
      </trkpt>
      <trkpt lat="49.32421" lon="1.22447">
        <ele>18</ele>
        <time>2017-05-16T16:50:31Z</time>
      </trkpt>
      <trkpt lat="49.32426" lon="1.22449">
        <ele>18</ele>
        <time>2017-05-16T16:50:31Z</time>
      </trkpt>
      <trkpt lat="49.32429" lon="1.2245">
        <ele>18</ele>
        <time>2017-05-16T16:50:31Z</time>
      </trkpt>
      <trkpt lat="49.32436" lon="1.22453">
        <ele>18</ele>
        <time>2017-05-16T16:50:47Z</time>
      </trkpt>
      <trkpt lat="49.32439" lon="1.22453">
        <ele>18</ele>
        <time>2017-05-16T16:50:47Z</time>
      </trkpt>
      <trkpt lat="49.32444" lon="1.22456">
        <ele>18</ele>
        <time>2017-05-16T16:50:47Z</time>
      </trkpt>
      <trkpt lat="49.32449" lon="1.22457">
        <ele>18</ele>
        <time>2017-05-16T16:50:47Z</time>
      </trkpt>
      <trkpt lat="49.32456" lon="1.22457">
        <ele>18</ele>
        <time>2017-05-16T16:51:04Z</time>
      </trkpt>
      <trkpt lat="49.32462" lon="1.22455">
        <ele>18</ele>
        <time>2017-05-16T16:51:05Z</time>
      </trkpt>
      <trkpt lat="49.32466" lon="1.22455">
        <ele>18</ele>
        <time>2017-05-16T16:51:05Z</time>
      </trkpt>
      <trkpt lat="49.3247" lon="1.22454">
        <ele>18</ele>
        <time>2017-05-16T16:51:05Z</time>
      </trkpt>
      <trkpt lat="49.32474" lon="1.22455">
        <ele>18</ele>
        <time>2017-05-16T16:51:19Z</time>
      </trkpt>
      <trkpt lat="49.32478" lon="1.22455">
        <ele>18</ele>
        <time>2017-05-16T16:51:20Z</time>
      </trkpt>
      <trkpt lat="49.32484" lon="1.22454">
        <ele>18</ele>
        <time>2017-05-16T16:51:20Z</time>
      </trkpt>
      <trkpt lat="49.32487" lon="1.22453">
        <ele>18</ele>
        <time>2017-05-16T16:51:20Z</time>
      </trkpt>
      <trkpt lat="49.32493" lon="1.22452">
        <ele>18</ele>
        <time>2017-05-16T16:51:35Z</time>
      </trkpt>
      <trkpt lat="49.32497" lon="1.22451">
        <ele>18</ele>
        <time>2017-05-16T16:51:37Z</time>
      </trkpt>
      <trkpt lat="49.32502" lon="1.22452">
        <ele>18</ele>
        <time>2017-05-16T16:51:37Z</time>
      </trkpt>
      <trkpt lat="49.32507" lon="1.22451">
        <ele>18</ele>
        <time>2017-05-16T16:51:37Z</time>
      </trkpt>
      <trkpt lat="49.32514" lon="1.22451">
        <ele>18</ele>
        <time>2017-05-16T16:51:56Z</time>
      </trkpt>
      <trkpt lat="49.32518" lon="1.22451">
        <ele>18</ele>
        <time>2017-05-16T16:51:56Z</time>
      </trkpt>
      <trkpt lat="49.32525" lon="1.2245">
        <ele>18</ele>
        <time>2017-05-16T16:51:56Z</time>
      </trkpt>
      <trkpt lat="49.32529" lon="1.22449">
        <ele>18</ele>
        <time>2017-05-16T16:51:56Z</time>
      </trkpt>
      <trkpt lat="49.32532" lon="1.2245">
        <ele>18</ele>
        <time>2017-05-16T16:52:11Z</time>
      </trkpt>
      <trkpt lat="49.32536" lon="1.22449">
        <ele>18</ele>
        <time>2017-05-16T16:52:11Z</time>
      </trkpt>
      <trkpt lat="49.3254" lon="1.22449">
        <ele>18</ele>
        <time>2017-05-16T16:52:11Z</time>
      </trkpt>
      <trkpt lat="49.32546" lon="1.22447">
        <ele>21</ele>
        <time>2017-05-16T16:52:11Z</time>
      </trkpt>
      <trkpt lat="49.3255" lon="1.22446">
        <ele>21</ele>
        <time>2017-05-16T16:52:28Z</time>
      </trkpt>
      <trkpt lat="49.32555" lon="1.22444">
        <ele>21</ele>
        <time>2017-05-16T16:52:28Z</time>
      </trkpt>
      <trkpt lat="49.3256" lon="1.22442">
        <ele>21</ele>
        <time>2017-05-16T16:52:28Z</time>
      </trkpt>
      <trkpt lat="49.32563" lon="1.22439">
        <ele>21</ele>
        <time>2017-05-16T16:52:28Z</time>
      </trkpt>
      <trkpt lat="49.32567" lon="1.22439">
        <ele>21</ele>
        <time>2017-05-16T16:52:43Z</time>
      </trkpt>
      <trkpt lat="49.32574" lon="1.22436">
        <ele>21</ele>
        <time>2017-05-16T16:52:43Z</time>
      </trkpt>
      <trkpt lat="49.32578" lon="1.22432">
        <ele>21</ele>
        <time>2017-05-16T16:52:43Z</time>
      </trkpt>
      <trkpt lat="49.32582" lon="1.2243">
        <ele>21</ele>
        <time>2017-05-16T16:52:43Z</time>
      </trkpt>
      <trkpt lat="49.32587" lon="1.22426">
        <ele>21</ele>
        <time>2017-05-16T16:52:59Z</time>
      </trkpt>
      <trkpt lat="49.32591" lon="1.22423">
        <ele>21</ele>
        <time>2017-05-16T16:53:00Z</time>
      </trkpt>
      <trkpt lat="49.32595" lon="1.2242">
        <ele>21</ele>
        <time>2017-05-16T16:53:00Z</time>
      </trkpt>
      <trkpt lat="49.32599" lon="1.22416">
        <ele>21</ele>
        <time>2017-05-16T16:53:00Z</time>
      </trkpt>
      <trkpt lat="49.32604" lon="1.22413">
        <ele>21</ele>
        <time>2017-05-16T16:53:16Z</time>
      </trkpt>
      <trkpt lat="49.32608" lon="1.2241">
        <ele>21</ele>
        <time>2017-05-16T16:53:16Z</time>
      </trkpt>
      <trkpt lat="49.32613" lon="1.2241">
        <ele>21</ele>
        <time>2017-05-16T16:53:16Z</time>
      </trkpt>
      <trkpt lat="49.32618" lon="1.2241">
        <ele>21</ele>
        <time>2017-05-16T16:53:16Z</time>
      </trkpt>
      <trkpt lat="49.32622" lon="1.2241">
        <ele>21</ele>
        <time>2017-05-16T16:53:31Z</time>
      </trkpt>
      <trkpt lat="49.32625" lon="1.22407">
        <ele>21</ele>
        <time>2017-05-16T16:53:31Z</time>
      </trkpt>
      <trkpt lat="49.32632" lon="1.22404">
        <ele>25</ele>
        <time>2017-05-16T16:53:31Z</time>
      </trkpt>
      <trkpt lat="49.32635" lon="1.22403">
        <ele>25</ele>
        <time>2017-05-16T16:53:32Z</time>
      </trkpt>
      <trkpt lat="49.3264" lon="1.22401">
        <ele>25</ele>
        <time>2017-05-16T16:53:48Z</time>
      </trkpt>
      <trkpt lat="49.32647" lon="1.22399">
        <ele>25</ele>
        <time>2017-05-16T16:53:48Z</time>
      </trkpt>
      <trkpt lat="49.32649" lon="1.22399">
        <ele>25</ele>
        <time>2017-05-16T16:53:48Z</time>
      </trkpt>
      <trkpt lat="49.32655" lon="1.22396">
        <ele>25</ele>
        <time>2017-05-16T16:53:48Z</time>
      </trkpt>
      <trkpt lat="49.32659" lon="1.22396">
        <ele>25</ele>
        <time>2017-05-16T16:54:03Z</time>
      </trkpt>
      <trkpt lat="49.32662" lon="1.22395">
        <ele>25</ele>
        <time>2017-05-16T16:54:03Z</time>
      </trkpt>
      <trkpt lat="49.32665" lon="1.22396">
        <ele>25</ele>
        <time>2017-05-16T16:54:03Z</time>
      </trkpt>
      <trkpt lat="49.32671" lon="1.22396">
        <ele>25</ele>
        <time>2017-05-16T16:54:03Z</time>
      </trkpt>
      <trkpt lat="49.32681" lon="1.22394">
        <ele>25</ele>
        <time>2017-05-16T16:54:25Z</time>
      </trkpt>
      <trkpt lat="49.32686" lon="1.22393">
        <ele>25</ele>
        <time>2017-05-16T16:54:25Z</time>
      </trkpt>
      <trkpt lat="49.3269" lon="1.22393">
        <ele>25</ele>
        <time>2017-05-16T16:54:25Z</time>
      </trkpt>
      <trkpt lat="49.32694" lon="1.2239">
        <ele>25</ele>
        <time>2017-05-16T16:54:25Z</time>
      </trkpt>
      <trkpt lat="49.32697" lon="1.22389">
        <ele>25</ele>
        <time>2017-05-16T16:54:40Z</time>
      </trkpt>
      <trkpt lat="49.32704" lon="1.2239">
        <ele>25</ele>
        <time>2017-05-16T16:54:40Z</time>
      </trkpt>
      <trkpt lat="49.32707" lon="1.22389">
        <ele>25</ele>
        <time>2017-05-16T16:54:40Z</time>
      </trkpt>
      <trkpt lat="49.32713" lon="1.22389">
        <ele>26</ele>
        <time>2017-05-16T16:54:40Z</time>
      </trkpt>
      <trkpt lat="49.32718" lon="1.22388">
        <ele>26</ele>
        <time>2017-05-16T16:54:55Z</time>
      </trkpt>
      <trkpt lat="49.32724" lon="1.22387">
        <ele>26</ele>
        <time>2017-05-16T16:54:55Z</time>
      </trkpt>
      <trkpt lat="49.32725" lon="1.22387">
        <ele>26</ele>
        <time>2017-05-16T16:54:55Z</time>
      </trkpt>
      <trkpt lat="49.32731" lon="1.22388">
        <ele>26</ele>
        <time>2017-05-16T16:54:55Z</time>
      </trkpt>
      <trkpt lat="49.32737" lon="1.22386">
        <ele>26</ele>
        <time>2017-05-16T16:56:08Z</time>
      </trkpt>
      <trkpt lat="49.32738" lon="1.22386">
        <ele>26</ele>
        <time>2017-05-16T16:56:08Z</time>
      </trkpt>
      <trkpt lat="49.32738" lon="1.22386">
        <ele>26</ele>
        <time>2017-05-16T16:56:08Z</time>
      </trkpt>
      <trkpt lat="49.32744" lon="1.22384">
        <ele>26</ele>
        <time>2017-05-16T16:56:08Z</time>
      </trkpt>
      <trkpt lat="49.32749" lon="1.22383">
        <ele>26</ele>
        <time>2017-05-16T16:56:08Z</time>
      </trkpt>
      <trkpt lat="49.32754" lon="1.22379">
        <ele>26</ele>
        <time>2017-05-16T16:56:24Z</time>
      </trkpt>
      <trkpt lat="49.32758" lon="1.2238">
        <ele>26</ele>
        <time>2017-05-16T16:56:24Z</time>
      </trkpt>
      <trkpt lat="49.32765" lon="1.22377">
        <ele>26</ele>
        <time>2017-05-16T16:56:24Z</time>
      </trkpt>
      <trkpt lat="49.3277" lon="1.22375">
        <ele>27</ele>
        <time>2017-05-16T16:56:24Z</time>
      </trkpt>
      <trkpt lat="49.32775" lon="1.22373">
        <ele>27</ele>
        <time>2017-05-16T16:56:39Z</time>
      </trkpt>
      <trkpt lat="49.3278" lon="1.22371">
        <ele>27</ele>
        <time>2017-05-16T16:56:39Z</time>
      </trkpt>
      <trkpt lat="49.32785" lon="1.22368">
        <ele>27</ele>
        <time>2017-05-16T16:56:39Z</time>
      </trkpt>
      <trkpt lat="49.32789" lon="1.22367">
        <ele>27</ele>
        <time>2017-05-16T16:56:39Z</time>
      </trkpt>
      <trkpt lat="49.32793" lon="1.22366">
        <ele>30</ele>
        <time>2017-05-16T16:56:55Z</time>
      </trkpt>
      <trkpt lat="49.32797" lon="1.22365">
        <ele>30</ele>
        <time>2017-05-16T16:56:55Z</time>
      </trkpt>
      <trkpt lat="49.32804" lon="1.22362">
        <ele>30</ele>
        <time>2017-05-16T16:56:55Z</time>
      </trkpt>
      <trkpt lat="49.32806" lon="1.2236">
        <ele>30</ele>
        <time>2017-05-16T16:56:55Z</time>
      </trkpt>
      <trkpt lat="49.32815" lon="1.22353">
        <ele>30</ele>
        <time>2017-05-16T16:57:12Z</time>
      </trkpt>
      <trkpt lat="49.32817" lon="1.22354">
        <ele>30</ele>
        <time>2017-05-16T16:57:12Z</time>
      </trkpt>
      <trkpt lat="49.32823" lon="1.22352">
        <ele>30</ele>
        <time>2017-05-16T16:57:12Z</time>
      </trkpt>
      <trkpt lat="49.32826" lon="1.22351">
        <ele>30</ele>
        <time>2017-05-16T16:57:12Z</time>
      </trkpt>
      <trkpt lat="49.32828" lon="1.22352">
        <ele>30</ele>
        <time>2017-05-16T16:57:28Z</time>
      </trkpt>
      <trkpt lat="49.32828" lon="1.22351">
        <ele>30</ele>
        <time>2017-05-16T16:57:28Z</time>
      </trkpt>
      <trkpt lat="49.32831" lon="1.22351">
        <ele>30</ele>
        <time>2017-05-16T16:57:28Z</time>
      </trkpt>
      <trkpt lat="49.32838" lon="1.22348">
        <ele>30</ele>
        <time>2017-05-16T16:57:29Z</time>
      </trkpt>
      <trkpt lat="49.32846" lon="1.22344">
        <ele>30</ele>
        <time>2017-05-16T16:57:47Z</time>
      </trkpt>
      <trkpt lat="49.32852" lon="1.22342">
        <ele>30</ele>
        <time>2017-05-16T16:57:47Z</time>
      </trkpt>
      <trkpt lat="49.32857" lon="1.2234">
        <ele>30</ele>
        <time>2017-05-16T16:57:47Z</time>
      </trkpt>
      <trkpt lat="49.32862" lon="1.22339">
        <ele>30</ele>
        <time>2017-05-16T16:57:47Z</time>
      </trkpt>
      <trkpt lat="49.32866" lon="1.22337">
        <ele>30</ele>
        <time>2017-05-16T16:58:03Z</time>
      </trkpt>
      <trkpt lat="49.3287" lon="1.22335">
        <ele>30</ele>
        <time>2017-05-16T16:58:03Z</time>
      </trkpt>
      <trkpt lat="49.32877" lon="1.22332">
        <ele>31</ele>
        <time>2017-05-16T16:58:03Z</time>
      </trkpt>
      <trkpt lat="49.32882" lon="1.22331">
        <ele>31</ele>
        <time>2017-05-16T16:58:03Z</time>
      </trkpt>
      <trkpt lat="49.32887" lon="1.22329">
        <ele>31</ele>
        <time>2017-05-16T16:58:20Z</time>
      </trkpt>
      <trkpt lat="49.32891" lon="1.22327">
        <ele>31</ele>
        <time>2017-05-16T16:58:20Z</time>
      </trkpt>
      <trkpt lat="49.32896" lon="1.22326">
        <ele>31</ele>
        <time>2017-05-16T16:58:20Z</time>
      </trkpt>
      <trkpt lat="49.329" lon="1.22325">
        <ele>31</ele>
        <time>2017-05-16T16:58:20Z</time>
      </trkpt>
      <trkpt lat="49.32907" lon="1.22322">
        <ele>31</ele>
        <time>2017-05-16T16:58:35Z</time>
      </trkpt>
      <trkpt lat="49.32912" lon="1.2232">
        <ele>31</ele>
        <time>2017-05-16T16:58:35Z</time>
      </trkpt>
      <trkpt lat="49.32916" lon="1.22317">
        <ele>31</ele>
        <time>2017-05-16T16:58:35Z</time>
      </trkpt>
      <trkpt lat="49.3292" lon="1.22315">
        <ele>31</ele>
        <time>2017-05-16T16:58:35Z</time>
      </trkpt>
      <trkpt lat="49.32923" lon="1.22313">
        <ele>31</ele>
        <time>2017-05-16T16:58:52Z</time>
      </trkpt>
      <trkpt lat="49.32928" lon="1.2231">
        <ele>31</ele>
        <time>2017-05-16T16:58:52Z</time>
      </trkpt>
      <trkpt lat="49.32932" lon="1.22304">
        <ele>31</ele>
        <time>2017-05-16T16:58:52Z</time>
      </trkpt>
      <trkpt lat="49.32936" lon="1.22301">
        <ele>31</ele>
        <time>2017-05-16T16:58:52Z</time>
      </trkpt>
      <trkpt lat="49.32939" lon="1.22297">
        <ele>31</ele>
        <time>2017-05-16T16:59:07Z</time>
      </trkpt>
      <trkpt lat="49.32942" lon="1.22294">
        <ele>31</ele>
        <time>2017-05-16T16:59:07Z</time>
      </trkpt>
      <trkpt lat="49.32948" lon="1.22289">
        <ele>30</ele>
        <time>2017-05-16T16:59:07Z</time>
      </trkpt>
      <trkpt lat="49.32953" lon="1.22285">
        <ele>30</ele>
        <time>2017-05-16T16:59:07Z</time>
      </trkpt>
      <trkpt lat="49.32957" lon="1.22281">
        <ele>30</ele>
        <time>2017-05-16T16:59:24Z</time>
      </trkpt>
      <trkpt lat="49.32963" lon="1.22278">
        <ele>27</ele>
        <time>2017-05-16T16:59:24Z</time>
      </trkpt>
      <trkpt lat="49.32968" lon="1.22275">
        <ele>27</ele>
        <time>2017-05-16T16:59:24Z</time>
      </trkpt>
      <trkpt lat="49.32974" lon="1.22271">
        <ele>27</ele>
        <time>2017-05-16T16:59:24Z</time>
      </trkpt>
      <trkpt lat="49.32977" lon="1.2227">
        <ele>27</ele>
        <time>2017-05-16T16:59:40Z</time>
      </trkpt>
      <trkpt lat="49.32981" lon="1.22269">
        <ele>27</ele>
        <time>2017-05-16T16:59:40Z</time>
      </trkpt>
      <trkpt lat="49.32984" lon="1.22268">
        <ele>27</ele>
        <time>2017-05-16T16:59:41Z</time>
      </trkpt>
      <trkpt lat="49.32989" lon="1.22267">
        <ele>27</ele>
        <time>2017-05-16T16:59:41Z</time>
      </trkpt>
      <trkpt lat="49.33017" lon="1.22262">
        <ele>27</ele>
        <time>2017-05-16T17:00:15Z</time>
      </trkpt>
      <trkpt lat="49.33022" lon="1.22261">
        <ele>27</ele>
        <time>2017-05-16T17:00:15Z</time>
      </trkpt>
      <trkpt lat="49.33025" lon="1.22259">
        <ele>27</ele>
        <time>2017-05-16T17:00:16Z</time>
      </trkpt>
      <trkpt lat="49.3303" lon="1.22257">
        <ele>27</ele>
        <time>2017-05-16T17:00:16Z</time>
      </trkpt>
      <trkpt lat="49.33037" lon="1.22255">
        <ele>27</ele>
        <time>2017-05-16T17:00:31Z</time>
      </trkpt>
      <trkpt lat="49.33041" lon="1.22253">
        <ele>27</ele>
        <time>2017-05-16T17:00:31Z</time>
      </trkpt>
      <trkpt lat="49.33044" lon="1.22252">
        <ele>28</ele>
        <time>2017-05-16T17:00:31Z</time>
      </trkpt>
      <trkpt lat="49.33049" lon="1.2225">
        <ele>28</ele>
        <time>2017-05-16T17:00:31Z</time>
      </trkpt>
      <trkpt lat="49.33055" lon="1.22247">
        <ele>28</ele>
        <time>2017-05-16T17:00:48Z</time>
      </trkpt>
      <trkpt lat="49.33057" lon="1.22246">
        <ele>28</ele>
        <time>2017-05-16T17:00:48Z</time>
      </trkpt>
      <trkpt lat="49.33064" lon="1.22241">
        <ele>28</ele>
        <time>2017-05-16T17:00:48Z</time>
      </trkpt>
      <trkpt lat="49.3307" lon="1.22237">
        <ele>28</ele>
        <time>2017-05-16T17:00:48Z</time>
      </trkpt>
      <trkpt lat="49.33073" lon="1.22236">
        <ele>28</ele>
        <time>2017-05-16T17:01:03Z</time>
      </trkpt>
      <trkpt lat="49.33078" lon="1.22233">
        <ele>28</ele>
        <time>2017-05-16T17:01:03Z</time>
      </trkpt>
      <trkpt lat="49.33083" lon="1.22231">
        <ele>28</ele>
        <time>2017-05-16T17:01:03Z</time>
      </trkpt>
      <trkpt lat="49.33087" lon="1.2223">
        <ele>28</ele>
        <time>2017-05-16T17:01:04Z</time>
      </trkpt>
      <trkpt lat="49.33094" lon="1.22226">
        <ele>28</ele>
        <time>2017-05-16T17:01:19Z</time>
      </trkpt>
      <trkpt lat="49.33098" lon="1.22222">
        <ele>28</ele>
        <time>2017-05-16T17:01:20Z</time>
      </trkpt>
      <trkpt lat="49.33103" lon="1.2222">
        <ele>28</ele>
        <time>2017-05-16T17:01:20Z</time>
      </trkpt>
      <trkpt lat="49.33105" lon="1.22218">
        <ele>28</ele>
        <time>2017-05-16T17:01:20Z</time>
      </trkpt>
      <trkpt lat="49.33118" lon="1.22214">
        <ele>28</ele>
        <time>2017-05-16T17:01:40Z</time>
      </trkpt>
      <trkpt lat="49.33121" lon="1.2221">
        <ele>28</ele>
        <time>2017-05-16T17:01:40Z</time>
      </trkpt>
      <trkpt lat="49.33124" lon="1.22207">
        <ele>26</ele>
        <time>2017-05-16T17:01:40Z</time>
      </trkpt>
      <trkpt lat="49.33127" lon="1.222">
        <ele>41</ele>
        <time>2017-05-16T17:01:40Z</time>
      </trkpt>
      <trkpt lat="49.33133" lon="1.22201">
        <ele>41</ele>
        <time>2017-05-16T17:01:55Z</time>
      </trkpt>
      <trkpt lat="49.33138" lon="1.22195">
        <ele>41</ele>
        <time>2017-05-16T17:01:55Z</time>
      </trkpt>
      <trkpt lat="49.33141" lon="1.22192">
        <ele>41</ele>
        <time>2017-05-16T17:01:55Z</time>
      </trkpt>
      <trkpt lat="49.33145" lon="1.22185">
        <ele>41</ele>
        <time>2017-05-16T17:01:55Z</time>
      </trkpt>
      <trkpt lat="49.33151" lon="1.22185">
        <ele>41</ele>
        <time>2017-05-16T17:02:15Z</time>
      </trkpt>
      <trkpt lat="49.33154" lon="1.22183">
        <ele>41</ele>
        <time>2017-05-16T17:02:15Z</time>
      </trkpt>
      <trkpt lat="49.33154" lon="1.22184">
        <ele>41</ele>
        <time>2017-05-16T17:02:15Z</time>
      </trkpt>
      <trkpt lat="49.33159" lon="1.22182">
        <ele>41</ele>
        <time>2017-05-16T17:02:15Z</time>
      </trkpt>
      <trkpt lat="49.33161" lon="1.22175">
        <ele>41</ele>
        <time>2017-05-16T17:02:15Z</time>
      </trkpt>
      <trkpt lat="49.33165" lon="1.22171">
        <ele>41</ele>
        <time>2017-05-16T17:02:31Z</time>
      </trkpt>
      <trkpt lat="49.33168" lon="1.22163">
        <ele>41</ele>
        <time>2017-05-16T17:02:31Z</time>
      </trkpt>
      <trkpt lat="49.33173" lon="1.2216">
        <ele>41</ele>
        <time>2017-05-16T17:02:31Z</time>
      </trkpt>
      <trkpt lat="49.33174" lon="1.22159">
        <ele>41</ele>
        <time>2017-05-16T17:02:31Z</time>
      </trkpt>
      <trkpt lat="49.3318" lon="1.22153">
        <ele>41</ele>
        <time>2017-05-16T17:02:48Z</time>
      </trkpt>
      <trkpt lat="49.33185" lon="1.22149">
        <ele>41</ele>
        <time>2017-05-16T17:02:48Z</time>
      </trkpt>
      <trkpt lat="49.33191" lon="1.22147">
        <ele>41</ele>
        <time>2017-05-16T17:02:48Z</time>
      </trkpt>
      <trkpt lat="49.33196" lon="1.22142">
        <ele>41</ele>
        <time>2017-05-16T17:02:48Z</time>
      </trkpt>
      <trkpt lat="49.33197" lon="1.22142">
        <ele>41</ele>
        <time>2017-05-16T17:03:04Z</time>
      </trkpt>
      <trkpt lat="49.33204" lon="1.22129">
        <ele>41</ele>
        <time>2017-05-16T17:03:04Z</time>
      </trkpt>
      <trkpt lat="49.33211" lon="1.22133">
        <ele>49</ele>
        <time>2017-05-16T17:03:04Z</time>
      </trkpt>
      <trkpt lat="49.3322" lon="1.22133">
        <ele>49</ele>
        <time>2017-05-16T17:03:04Z</time>
      </trkpt>
      <trkpt lat="49.33225" lon="1.22116">
        <ele>53</ele>
        <time>2017-05-16T17:03:27Z</time>
      </trkpt>
      <trkpt lat="49.33229" lon="1.2211">
        <ele>53</ele>
        <time>2017-05-16T17:03:27Z</time>
      </trkpt>
      <trkpt lat="49.33234" lon="1.22107">
        <ele>53</ele>
        <time>2017-05-16T17:03:27Z</time>
      </trkpt>
      <trkpt lat="49.33238" lon="1.22103">
        <ele>53</ele>
        <time>2017-05-16T17:03:27Z</time>
      </trkpt>
      <trkpt lat="49.33241" lon="1.22103">
        <ele>53</ele>
        <time>2017-05-16T17:03:43Z</time>
      </trkpt>
      <trkpt lat="49.33245" lon="1.22098">
        <ele>53</ele>
        <time>2017-05-16T17:03:43Z</time>
      </trkpt>
      <trkpt lat="49.33249" lon="1.22099">
        <ele>53</ele>
        <time>2017-05-16T17:03:43Z</time>
      </trkpt>
      <trkpt lat="49.33251" lon="1.22092">
        <ele>53</ele>
        <time>2017-05-16T17:03:43Z</time>
      </trkpt>
      <trkpt lat="49.33255" lon="1.22085">
        <ele>53</ele>
        <time>2017-05-16T17:04:00Z</time>
      </trkpt>
      <trkpt lat="49.33259" lon="1.22083">
        <ele>53</ele>
        <time>2017-05-16T17:04:00Z</time>
      </trkpt>
      <trkpt lat="49.33262" lon="1.22082">
        <ele>53</ele>
        <time>2017-05-16T17:04:00Z</time>
      </trkpt>
      <trkpt lat="49.33268" lon="1.22079">
        <ele>53</ele>
        <time>2017-05-16T17:04:00Z</time>
      </trkpt>
      <trkpt lat="49.33271" lon="1.22074">
        <ele>53</ele>
        <time>2017-05-16T17:04:15Z</time>
      </trkpt>
      <trkpt lat="49.33276" lon="1.22067">
        <ele>53</ele>
        <time>2017-05-16T17:04:15Z</time>
      </trkpt>
      <trkpt lat="49.3328" lon="1.22067">
        <ele>53</ele>
        <time>2017-05-16T17:04:15Z</time>
      </trkpt>
      <trkpt lat="49.33284" lon="1.22057">
        <ele>53</ele>
        <time>2017-05-16T17:04:15Z</time>
      </trkpt>
      <trkpt lat="49.33288" lon="1.22055">
        <ele>53</ele>
        <time>2017-05-16T17:04:33Z</time>
      </trkpt>
      <trkpt lat="49.33295" lon="1.22047">
        <ele>60</ele>
        <time>2017-05-16T17:04:33Z</time>
      </trkpt>
      <trkpt lat="49.33299" lon="1.22043">
        <ele>60</ele>
        <time>2017-05-16T17:04:33Z</time>
      </trkpt>
      <trkpt lat="49.33305" lon="1.22038">
        <ele>64</ele>
        <time>2017-05-16T17:04:33Z</time>
      </trkpt>
      <trkpt lat="49.33308" lon="1.22036">
        <ele>64</ele>
        <time>2017-05-16T17:04:47Z</time>
      </trkpt>
      <trkpt lat="49.33311" lon="1.22033">
        <ele>64</ele>
        <time>2017-05-16T17:04:47Z</time>
      </trkpt>
      <trkpt lat="49.33314" lon="1.22029">
        <ele>64</ele>
        <time>2017-05-16T17:04:47Z</time>
      </trkpt>
      <trkpt lat="49.33318" lon="1.22028">
        <ele>64</ele>
        <time>2017-05-16T17:04:47Z</time>
      </trkpt>
      <trkpt lat="49.33322" lon="1.22025">
        <ele>64</ele>
        <time>2017-05-16T17:05:03Z</time>
      </trkpt>
      <trkpt lat="49.33324" lon="1.22014">
        <ele>64</ele>
        <time>2017-05-16T17:05:03Z</time>
      </trkpt>
      <trkpt lat="49.33325" lon="1.22011">
        <ele>64</ele>
        <time>2017-05-16T17:05:03Z</time>
      </trkpt>
      <trkpt lat="49.33331" lon="1.22007">
        <ele>64</ele>
        <time>2017-05-16T17:05:03Z</time>
      </trkpt>
      <trkpt lat="49.33334" lon="1.21997">
        <ele>64</ele>
        <time>2017-05-16T17:05:20Z</time>
      </trkpt>
      <trkpt lat="49.3334" lon="1.22002">
        <ele>64</ele>
        <time>2017-05-16T17:05:20Z</time>
      </trkpt>
      <trkpt lat="49.33346" lon="1.22002">
        <ele>64</ele>
        <time>2017-05-16T17:05:20Z</time>
      </trkpt>
      <trkpt lat="49.33348" lon="1.22002">
        <ele>64</ele>
        <time>2017-05-16T17:05:20Z</time>
      </trkpt>
      <trkpt lat="49.33351" lon="1.21994">
        <ele>64</ele>
        <time>2017-05-16T17:05:35Z</time>
      </trkpt>
      <trkpt lat="49.33356" lon="1.21988">
        <ele>64</ele>
        <time>2017-05-16T17:05:35Z</time>
      </trkpt>
      <trkpt lat="49.33361" lon="1.21992">
        <ele>64</ele>
        <time>2017-05-16T17:05:35Z</time>
      </trkpt>
      <trkpt lat="49.33366" lon="1.21992">
        <ele>64</ele>
        <time>2017-05-16T17:05:35Z</time>
      </trkpt>
      <trkpt lat="49.33371" lon="1.21986">
        <ele>64</ele>
        <time>2017-05-16T17:05:51Z</time>
      </trkpt>
      <trkpt lat="49.33373" lon="1.2198">
        <ele>64</ele>
        <time>2017-05-16T17:05:51Z</time>
      </trkpt>
      <trkpt lat="49.33375" lon="1.21979">
        <ele>71</ele>
        <time>2017-05-16T17:05:52Z</time>
      </trkpt>
      <trkpt lat="49.33381" lon="1.2197">
        <ele>71</ele>
        <time>2017-05-16T17:05:53Z</time>
      </trkpt>
      <trkpt lat="49.33394" lon="1.21966">
        <ele>71</ele>
        <time>2017-05-16T17:06:12Z</time>
      </trkpt>
      <trkpt lat="49.33398" lon="1.21965">
        <ele>71</ele>
        <time>2017-05-16T17:06:12Z</time>
      </trkpt>
      <trkpt lat="49.33401" lon="1.21962">
        <ele>71</ele>
        <time>2017-05-16T17:06:12Z</time>
      </trkpt>
      <trkpt lat="49.33406" lon="1.2196">
        <ele>71</ele>
        <time>2017-05-16T17:06:12Z</time>
      </trkpt>
      <trkpt lat="49.33411" lon="1.21957">
        <ele>74</ele>
        <time>2017-05-16T17:06:27Z</time>
      </trkpt>
      <trkpt lat="49.33415" lon="1.21951">
        <ele>74</ele>
        <time>2017-05-16T17:06:27Z</time>
      </trkpt>
      <trkpt lat="49.33418" lon="1.21945">
        <ele>74</ele>
        <time>2017-05-16T17:06:27Z</time>
      </trkpt>
      <trkpt lat="49.33423" lon="1.21942">
        <ele>74</ele>
        <time>2017-05-16T17:06:27Z</time>
      </trkpt>
      <trkpt lat="49.33427" lon="1.21935">
        <ele>74</ele>
        <time>2017-05-16T17:06:43Z</time>
      </trkpt>
      <trkpt lat="49.33431" lon="1.2193">
        <ele>74</ele>
        <time>2017-05-16T17:06:43Z</time>
      </trkpt>
      <trkpt lat="49.33433" lon="1.21921">
        <ele>74</ele>
        <time>2017-05-16T17:06:43Z</time>
      </trkpt>
      <trkpt lat="49.33439" lon="1.21925">
        <ele>74</ele>
        <time>2017-05-16T17:06:43Z</time>
      </trkpt>
      <trkpt lat="49.33441" lon="1.21917">
        <ele>74</ele>
        <time>2017-05-16T17:06:59Z</time>
      </trkpt>
      <trkpt lat="49.33446" lon="1.21911">
        <ele>74</ele>
        <time>2017-05-16T17:06:59Z</time>
      </trkpt>
      <trkpt lat="49.3345" lon="1.21909">
        <ele>74</ele>
        <time>2017-05-16T17:07:00Z</time>
      </trkpt>
      <trkpt lat="49.33453" lon="1.21907">
        <ele>74</ele>
        <time>2017-05-16T17:07:00Z</time>
      </trkpt>
      <trkpt lat="49.3346" lon="1.21904">
        <ele>78</ele>
        <time>2017-05-16T17:07:15Z</time>
      </trkpt>
      <trkpt lat="49.33463" lon="1.219">
        <ele>78</ele>
        <time>2017-05-16T17:07:15Z</time>
      </trkpt>
      <trkpt lat="49.33471" lon="1.21893">
        <ele>78</ele>
        <time>2017-05-16T17:07:15Z</time>
      </trkpt>
      <trkpt lat="49.33475" lon="1.21892">
        <ele>78</ele>
        <time>2017-05-16T17:07:15Z</time>
      </trkpt>
      <trkpt lat="49.33478" lon="1.21885">
        <ele>78</ele>
        <time>2017-05-16T17:07:31Z</time>
      </trkpt>
      <trkpt lat="49.33489" lon="1.21884">
        <ele>78</ele>
        <time>2017-05-16T17:07:31Z</time>
      </trkpt>
      <trkpt lat="49.33489" lon="1.21877">
        <ele>78</ele>
        <time>2017-05-16T17:07:31Z</time>
      </trkpt>
      <trkpt lat="49.33492" lon="1.21876">
        <ele>78</ele>
        <time>2017-05-16T17:07:31Z</time>
      </trkpt>
      <trkpt lat="49.33498" lon="1.21874">
        <ele>81</ele>
        <time>2017-05-16T17:07:47Z</time>
      </trkpt>
      <trkpt lat="49.33503" lon="1.21872">
        <ele>81</ele>
        <time>2017-05-16T17:07:47Z</time>
      </trkpt>
      <trkpt lat="49.33506" lon="1.21864">
        <ele>81</ele>
        <time>2017-05-16T17:07:47Z</time>
      </trkpt>
      <trkpt lat="49.3351" lon="1.21863">
        <ele>81</ele>
        <time>2017-05-16T17:07:47Z</time>
      </trkpt>
      <trkpt lat="49.33514" lon="1.21856">
        <ele>81</ele>
        <time>2017-05-16T17:08:04Z</time>
      </trkpt>
      <trkpt lat="49.3352" lon="1.21856">
        <ele>81</ele>
        <time>2017-05-16T17:08:04Z</time>
      </trkpt>
      <trkpt lat="49.33529" lon="1.21854">
        <ele>81</ele>
        <time>2017-05-16T17:08:04Z</time>
      </trkpt>
      <trkpt lat="49.3353" lon="1.21847">
        <ele>81</ele>
        <time>2017-05-16T17:08:04Z</time>
      </trkpt>
      <trkpt lat="49.33532" lon="1.21841">
        <ele>81</ele>
        <time>2017-05-16T17:08:19Z</time>
      </trkpt>
      <trkpt lat="49.33536" lon="1.21834">
        <ele>81</ele>
        <time>2017-05-16T17:08:19Z</time>
      </trkpt>
      <trkpt lat="49.33546" lon="1.21835">
        <ele>89</ele>
        <time>2017-05-16T17:08:19Z</time>
      </trkpt>
      <trkpt lat="49.33548" lon="1.21831">
        <ele>89</ele>
        <time>2017-05-16T17:08:19Z</time>
      </trkpt>
      <trkpt lat="49.33551" lon="1.21823">
        <ele>89</ele>
        <time>2017-05-16T17:08:35Z</time>
      </trkpt>
      <trkpt lat="49.33552" lon="1.21819">
        <ele>89</ele>
        <time>2017-05-16T17:08:35Z</time>
      </trkpt>
      <trkpt lat="49.3356" lon="1.21814">
        <ele>89</ele>
        <time>2017-05-16T17:08:35Z</time>
      </trkpt>
      <trkpt lat="49.33564" lon="1.21807">
        <ele>89</ele>
        <time>2017-05-16T17:08:35Z</time>
      </trkpt>
      <trkpt lat="49.33569" lon="1.21803">
        <ele>89</ele>
        <time>2017-05-16T17:08:52Z</time>
      </trkpt>
      <trkpt lat="49.33575" lon="1.21803">
        <ele>89</ele>
        <time>2017-05-16T17:08:52Z</time>
      </trkpt>
      <trkpt lat="49.3358" lon="1.218">
        <ele>89</ele>
        <time>2017-05-16T17:08:52Z</time>
      </trkpt>
      <trkpt lat="49.33585" lon="1.21799">
        <ele>89</ele>
        <time>2017-05-16T17:08:52Z</time>
      </trkpt>
      <trkpt lat="49.33585" lon="1.21797">
        <ele>89</ele>
        <time>2017-05-16T17:09:07Z</time>
      </trkpt>
      <trkpt lat="49.33594" lon="1.21798">
        <ele>89</ele>
        <time>2017-05-16T17:09:07Z</time>
      </trkpt>
      <trkpt lat="49.33596" lon="1.21797">
        <ele>89</ele>
        <time>2017-05-16T17:09:07Z</time>
      </trkpt>
      <trkpt lat="49.33602" lon="1.21793">
        <ele>89</ele>
        <time>2017-05-16T17:09:07Z</time>
      </trkpt>
      <trkpt lat="49.33604" lon="1.21792">
        <ele>91</ele>
        <time>2017-05-16T17:09:24Z</time>
      </trkpt>
      <trkpt lat="49.33609" lon="1.21784">
        <ele>91</ele>
        <time>2017-05-16T17:09:24Z</time>
      </trkpt>
      <trkpt lat="49.33611" lon="1.21779">
        <ele>91</ele>
        <time>2017-05-16T17:09:24Z</time>
      </trkpt>
      <trkpt lat="49.33617" lon="1.21772">
        <ele>91</ele>
        <time>2017-05-16T17:09:25Z</time>
      </trkpt>
      <trkpt lat="49.3362" lon="1.21767">
        <ele>91</ele>
        <time>2017-05-16T17:09:39Z</time>
      </trkpt>
      <trkpt lat="49.33624" lon="1.21762">
        <ele>91</ele>
        <time>2017-05-16T17:09:39Z</time>
      </trkpt>
      <trkpt lat="49.33629" lon="1.21763">
        <ele>97</ele>
        <time>2017-05-16T17:09:39Z</time>
      </trkpt>
      <trkpt lat="49.33634" lon="1.21761">
        <ele>97</ele>
        <time>2017-05-16T17:09:39Z</time>
      </trkpt>
      <trkpt lat="49.33639" lon="1.21753">
        <ele>97</ele>
        <time>2017-05-16T17:09:55Z</time>
      </trkpt>
      <trkpt lat="49.33643" lon="1.21751">
        <ele>97</ele>
        <time>2017-05-16T17:09:55Z</time>
      </trkpt>
      <trkpt lat="49.3365" lon="1.21746">
        <ele>97</ele>
        <time>2017-05-16T17:09:55Z</time>
      </trkpt>
      <trkpt lat="49.33655" lon="1.21741">
        <ele>97</ele>
        <time>2017-05-16T17:09:55Z</time>
      </trkpt>
      <trkpt lat="49.33657" lon="1.21736">
        <ele>97</ele>
        <time>2017-05-16T17:10:11Z</time>
      </trkpt>
      <trkpt lat="49.33663" lon="1.21732">
        <ele>97</ele>
        <time>2017-05-16T17:10:11Z</time>
      </trkpt>
      <trkpt lat="49.3367" lon="1.21729">
        <ele>97</ele>
        <time>2017-05-16T17:10:11Z</time>
      </trkpt>
      <trkpt lat="49.33672" lon="1.21728">
        <ele>97</ele>
        <time>2017-05-16T17:10:11Z</time>
      </trkpt>
      <trkpt lat="49.3368" lon="1.21723">
        <ele>97</ele>
        <time>2017-05-16T17:10:28Z</time>
      </trkpt>
      <trkpt lat="49.33685" lon="1.21718">
        <ele>97</ele>
        <time>2017-05-16T17:10:28Z</time>
      </trkpt>
      <trkpt lat="49.3369" lon="1.2171">
        <ele>97</ele>
        <time>2017-05-16T17:10:28Z</time>
      </trkpt>
      <trkpt lat="49.33692" lon="1.21707">
        <ele>98</ele>
        <time>2017-05-16T17:10:28Z</time>
      </trkpt>
      <trkpt lat="49.33693" lon="1.21707">
        <ele>98</ele>
        <time>2017-05-16T17:10:43Z</time>
      </trkpt>
      <trkpt lat="49.337" lon="1.217">
        <ele>98</ele>
        <time>2017-05-16T17:10:44Z</time>
      </trkpt>
      <trkpt lat="49.33705" lon="1.21695">
        <ele>98</ele>
        <time>2017-05-16T17:10:45Z</time>
      </trkpt>
      <trkpt lat="49.33709" lon="1.21695">
        <ele>104</ele>
        <time>2017-05-16T17:10:45Z</time>
      </trkpt>
      <trkpt lat="49.33714" lon="1.21692">
        <ele>104</ele>
        <time>2017-05-16T17:10:59Z</time>
      </trkpt>
      <trkpt lat="49.33718" lon="1.2169">
        <ele>104</ele>
        <time>2017-05-16T17:10:59Z</time>
      </trkpt>
      <trkpt lat="49.33722" lon="1.21686">
        <ele>104</ele>
        <time>2017-05-16T17:10:59Z</time>
      </trkpt>
      <trkpt lat="49.33726" lon="1.21677">
        <ele>104</ele>
        <time>2017-05-16T17:10:59Z</time>
      </trkpt>
      <trkpt lat="49.33729" lon="1.21672">
        <ele>104</ele>
        <time>2017-05-16T17:11:39Z</time>
      </trkpt>
      <trkpt lat="49.3373" lon="1.21671">
        <ele>104</ele>
        <time>2017-05-16T17:11:39Z</time>
      </trkpt>
      <trkpt lat="49.33734" lon="1.21669">
        <ele>104</ele>
        <time>2017-05-16T17:11:39Z</time>
      </trkpt>
      <trkpt lat="49.33737" lon="1.21669">
        <ele>104</ele>
        <time>2017-05-16T17:11:39Z</time>
      </trkpt>
      <trkpt lat="49.3375" lon="1.21648">
        <ele>104</ele>
        <time>2017-05-16T17:11:39Z</time>
      </trkpt>
      <trkpt lat="49.33746" lon="1.21651">
        <ele>104</ele>
        <time>2017-05-16T17:17:32Z</time>
      </trkpt>
      <trkpt lat="49.33746" lon="1.21651">
        <ele>104</ele>
        <time>2017-05-16T17:17:32Z</time>
      </trkpt>
      <trkpt lat="49.33744" lon="1.21658">
        <ele>104</ele>
        <time>2017-05-16T17:17:32Z</time>
      </trkpt>
      <trkpt lat="49.33741" lon="1.21664">
        <ele>104</ele>
        <time>2017-05-16T17:17:32Z</time>
      </trkpt>
      <trkpt lat="49.33741" lon="1.21664">
        <ele>104</ele>
        <time>2017-05-16T17:17:33Z</time>
      </trkpt>
      <trkpt lat="49.3374" lon="1.21666">
        <ele>104</ele>
        <time>2017-05-16T17:18:08Z</time>
      </trkpt>
      <trkpt lat="49.33741" lon="1.21659">
        <ele>104</ele>
        <time>2017-05-16T17:18:08Z</time>
      </trkpt>
      <trkpt lat="49.33746" lon="1.2165">
        <ele>104</ele>
        <time>2017-05-16T17:18:08Z</time>
      </trkpt>
      <trkpt lat="49.33746" lon="1.2165">
        <ele>104</ele>
        <time>2017-05-16T17:18:08Z</time>
      </trkpt>
      <trkpt lat="49.3375" lon="1.21653">
        <ele>104</ele>
        <time>2017-05-16T17:18:08Z</time>
      </trkpt>
      <trkpt lat="49.33745" lon="1.21634">
        <ele>104</ele>
        <time>2017-05-16T17:19:15Z</time>
      </trkpt>
      <trkpt lat="49.33745" lon="1.21634">
        <ele>104</ele>
        <time>2017-05-16T17:19:15Z</time>
      </trkpt>
      <trkpt lat="49.33745" lon="1.21633">
        <ele>104</ele>
        <time>2017-05-16T17:19:15Z</time>
      </trkpt>
      <trkpt lat="49.33745" lon="1.21633">
        <ele>104</ele>
        <time>2017-05-16T17:19:15Z</time>
      </trkpt>
      <trkpt lat="49.33745" lon="1.21633">
        <ele>104</ele>
        <time>2017-05-16T17:19:15Z</time>
      </trkpt>
      <trkpt lat="49.33745" lon="1.21632">
        <ele>104</ele>
        <time>2017-05-16T17:19:39Z</time>
      </trkpt>
      <trkpt lat="49.33745" lon="1.21632">
        <ele>104</ele>
        <time>2017-05-16T17:19:39Z</time>
      </trkpt>
      <trkpt lat="49.33745" lon="1.21632">
        <ele>104</ele>
        <time>2017-05-16T17:19:39Z</time>
      </trkpt>
      <trkpt lat="49.33744" lon="1.21631">
        <ele>104</ele>
        <time>2017-05-16T17:19:39Z</time>
      </trkpt>
      <trkpt lat="49.33744" lon="1.21617">
        <ele>106</ele>
        <time>2017-05-16T17:19:39Z</time>
      </trkpt>
      <trkpt lat="49.33743" lon="1.21611">
        <ele>106</ele>
        <time>2017-05-16T17:20:07Z</time>
      </trkpt>
      <trkpt lat="49.33741" lon="1.21595">
        <ele>106</ele>
        <time>2017-05-16T17:20:07Z</time>
      </trkpt>
      <trkpt lat="49.33743" lon="1.2159">
        <ele>106</ele>
        <time>2017-05-16T17:20:07Z</time>
      </trkpt>
      <trkpt lat="49.33741" lon="1.21585">
        <ele>106</ele>
        <time>2017-05-16T17:20:07Z</time>
      </trkpt>
      <trkpt lat="49.33739" lon="1.21578">
        <ele>106</ele>
        <time>2017-05-16T17:20:07Z</time>
      </trkpt>
      <trkpt lat="49.3374" lon="1.21569">
        <ele>106</ele>
        <time>2017-05-16T17:20:23Z</time>
      </trkpt>
      <trkpt lat="49.33739" lon="1.21565">
        <ele>106</ele>
        <time>2017-05-16T17:20:23Z</time>
      </trkpt>
      <trkpt lat="49.33739" lon="1.21553">
        <ele>106</ele>
        <time>2017-05-16T17:20:23Z</time>
      </trkpt>
      <trkpt lat="49.33738" lon="1.21552">
        <ele>106</ele>
        <time>2017-05-16T17:20:23Z</time>
      </trkpt>
      <trkpt lat="49.33736" lon="1.21544">
        <ele>106</ele>
        <time>2017-05-16T17:20:40Z</time>
      </trkpt>
      <trkpt lat="49.33734" lon="1.21532">
        <ele>110</ele>
        <time>2017-05-16T17:20:40Z</time>
      </trkpt>
      <trkpt lat="49.33733" lon="1.21524">
        <ele>110</ele>
        <time>2017-05-16T17:20:41Z</time>
      </trkpt>
      <trkpt lat="49.3373" lon="1.21512">
        <ele>110</ele>
        <time>2017-05-16T17:20:41Z</time>
      </trkpt>
      <trkpt lat="49.3373" lon="1.21469">
        <ele>110</ele>
        <time>2017-05-16T17:21:16Z</time>
      </trkpt>
      <trkpt lat="49.3373" lon="1.21465">
        <ele>110</ele>
        <time>2017-05-16T17:21:16Z</time>
      </trkpt>
      <trkpt lat="49.33728" lon="1.21452">
        <ele>109</ele>
        <time>2017-05-16T17:21:17Z</time>
      </trkpt>
      <trkpt lat="49.33727" lon="1.21442">
        <ele>109</ele>
        <time>2017-05-16T17:21:17Z</time>
      </trkpt>
      <trkpt lat="49.33723" lon="1.21423">
        <ele>109</ele>
        <time>2017-05-16T17:21:36Z</time>
      </trkpt>
      <trkpt lat="49.33723" lon="1.21418">
        <ele>109</ele>
        <time>2017-05-16T17:21:36Z</time>
      </trkpt>
      <trkpt lat="49.33722" lon="1.21411">
        <ele>109</ele>
        <time>2017-05-16T17:21:36Z</time>
      </trkpt>
      <trkpt lat="49.33723" lon="1.21407">
        <ele>109</ele>
        <time>2017-05-16T17:21:36Z</time>
      </trkpt>
      <trkpt lat="49.33722" lon="1.21401">
        <ele>109</ele>
        <time>2017-05-16T17:21:51Z</time>
      </trkpt>
      <trkpt lat="49.33724" lon="1.214">
        <ele>109</ele>
        <time>2017-05-16T17:21:51Z</time>
      </trkpt>
      <trkpt lat="49.33726" lon="1.21394">
        <ele>109</ele>
        <time>2017-05-16T17:21:52Z</time>
      </trkpt>
      <trkpt lat="49.33724" lon="1.21383">
        <ele>109</ele>
        <time>2017-05-16T17:21:52Z</time>
      </trkpt>
      <trkpt lat="49.33719" lon="1.21364">
        <ele>110</ele>
        <time>2017-05-16T17:22:12Z</time>
      </trkpt>
      <trkpt lat="49.33723" lon="1.21362">
        <ele>110</ele>
        <time>2017-05-16T17:22:12Z</time>
      </trkpt>
      <trkpt lat="49.3372" lon="1.21358">
        <ele>110</ele>
        <time>2017-05-16T17:22:12Z</time>
      </trkpt>
      <trkpt lat="49.33718" lon="1.21351">
        <ele>110</ele>
        <time>2017-05-16T17:22:12Z</time>
      </trkpt>
      <trkpt lat="49.33715" lon="1.21337">
        <ele>110</ele>
        <time>2017-05-16T17:22:12Z</time>
      </trkpt>
      <trkpt lat="49.33712" lon="1.21326">
        <ele>110</ele>
        <time>2017-05-16T17:22:32Z</time>
      </trkpt>
      <trkpt lat="49.33712" lon="1.21321">
        <ele>110</ele>
        <time>2017-05-16T17:22:32Z</time>
      </trkpt>
      <trkpt lat="49.33711" lon="1.21318">
        <ele>110</ele>
        <time>2017-05-16T17:22:32Z</time>
      </trkpt>
      <trkpt lat="49.33711" lon="1.21314">
        <ele>110</ele>
        <time>2017-05-16T17:22:32Z</time>
      </trkpt>
      <trkpt lat="49.33711" lon="1.21308">
        <ele>110</ele>
        <time>2017-05-16T17:22:32Z</time>
      </trkpt>
      <trkpt lat="49.33715" lon="1.21304">
        <ele>110</ele>
        <time>2017-05-16T17:22:48Z</time>
      </trkpt>
      <trkpt lat="49.33715" lon="1.21295">
        <ele>110</ele>
        <time>2017-05-16T17:22:48Z</time>
      </trkpt>
      <trkpt lat="49.33714" lon="1.21286">
        <ele>112</ele>
        <time>2017-05-16T17:22:49Z</time>
      </trkpt>
      <trkpt lat="49.33714" lon="1.21282">
        <ele>112</ele>
        <time>2017-05-16T17:22:49Z</time>
      </trkpt>
      <trkpt lat="49.33712" lon="1.21266">
        <ele>112</ele>
        <time>2017-05-16T17:23:03Z</time>
      </trkpt>
      <trkpt lat="49.3371" lon="1.21257">
        <ele>112</ele>
        <time>2017-05-16T17:23:03Z</time>
      </trkpt>
      <trkpt lat="49.33709" lon="1.21253">
        <ele>112</ele>
        <time>2017-05-16T17:23:03Z</time>
      </trkpt>
      <trkpt lat="49.33709" lon="1.21246">
        <ele>112</ele>
        <time>2017-05-16T17:23:04Z</time>
      </trkpt>
      <trkpt lat="49.33707" lon="1.21241">
        <ele>101</ele>
        <time>2017-05-16T17:23:20Z</time>
      </trkpt>
      <trkpt lat="49.33705" lon="1.21231">
        <ele>101</ele>
        <time>2017-05-16T17:23:20Z</time>
      </trkpt>
      <trkpt lat="49.33708" lon="1.21223">
        <ele>101</ele>
        <time>2017-05-16T17:23:20Z</time>
      </trkpt>
      <trkpt lat="49.33706" lon="1.21216">
        <ele>101</ele>
        <time>2017-05-16T17:23:21Z</time>
      </trkpt>
      <trkpt lat="49.33706" lon="1.21213">
        <ele>101</ele>
        <time>2017-05-16T17:23:35Z</time>
      </trkpt>
      <trkpt lat="49.33705" lon="1.21205">
        <ele>98</ele>
        <time>2017-05-16T17:23:35Z</time>
      </trkpt>
      <trkpt lat="49.33709" lon="1.21198">
        <ele>113</ele>
        <time>2017-05-16T17:23:35Z</time>
      </trkpt>
      <trkpt lat="49.33707" lon="1.21191">
        <ele>98</ele>
        <time>2017-05-16T17:23:35Z</time>
      </trkpt>
      <trkpt lat="49.33707" lon="1.21188">
        <ele>98</ele>
        <time>2017-05-16T17:23:52Z</time>
      </trkpt>
      <trkpt lat="49.33708" lon="1.21179">
        <ele>98</ele>
        <time>2017-05-16T17:23:52Z</time>
      </trkpt>
      <trkpt lat="49.33706" lon="1.21173">
        <ele>98</ele>
        <time>2017-05-16T17:23:52Z</time>
      </trkpt>
      <trkpt lat="49.33706" lon="1.21168">
        <ele>98</ele>
        <time>2017-05-16T17:23:52Z</time>
      </trkpt>
      <trkpt lat="49.33705" lon="1.2116">
        <ele>98</ele>
        <time>2017-05-16T17:24:07Z</time>
      </trkpt>
      <trkpt lat="49.33704" lon="1.21152">
        <ele>98</ele>
        <time>2017-05-16T17:24:07Z</time>
      </trkpt>
      <trkpt lat="49.33702" lon="1.21146">
        <ele>98</ele>
        <time>2017-05-16T17:24:07Z</time>
      </trkpt>
      <trkpt lat="49.33699" lon="1.21139">
        <ele>98</ele>
        <time>2017-05-16T17:24:07Z</time>
      </trkpt>
      <trkpt lat="49.33699" lon="1.21131">
        <ele>98</ele>
        <time>2017-05-16T17:24:23Z</time>
      </trkpt>
      <trkpt lat="49.33697" lon="1.21113">
        <ele>93</ele>
        <time>2017-05-16T17:24:23Z</time>
      </trkpt>
      <trkpt lat="49.33696" lon="1.21106">
        <ele>93</ele>
        <time>2017-05-16T17:24:23Z</time>
      </trkpt>
      <trkpt lat="49.33695" lon="1.21097">
        <ele>93</ele>
        <time>2017-05-16T17:24:23Z</time>
      </trkpt>
      <trkpt lat="49.33693" lon="1.21063">
        <ele>93</ele>
        <time>2017-05-16T17:24:56Z</time>
      </trkpt>
      <trkpt lat="49.33693" lon="1.21053">
        <ele>93</ele>
        <time>2017-05-16T17:24:56Z</time>
      </trkpt>
      <trkpt lat="49.33694" lon="1.2105">
        <ele>93</ele>
        <time>2017-05-16T17:24:56Z</time>
      </trkpt>
      <trkpt lat="49.33694" lon="1.21036">
        <ele>87</ele>
        <time>2017-05-16T17:24:57Z</time>
      </trkpt>
      <trkpt lat="49.33694" lon="1.21032">
        <ele>87</ele>
        <time>2017-05-16T17:25:11Z</time>
      </trkpt>
      <trkpt lat="49.33691" lon="1.21022">
        <ele>87</ele>
        <time>2017-05-16T17:25:11Z</time>
      </trkpt>
      <trkpt lat="49.33691" lon="1.21017">
        <ele>87</ele>
        <time>2017-05-16T17:25:11Z</time>
      </trkpt>
      <trkpt lat="49.3369" lon="1.21013">
        <ele>87</ele>
        <time>2017-05-16T17:25:11Z</time>
      </trkpt>
      <trkpt lat="49.3369" lon="1.21001">
        <ele>87</ele>
        <time>2017-05-16T17:25:40Z</time>
      </trkpt>
      <trkpt lat="49.3369" lon="1.20995">
        <ele>87</ele>
        <time>2017-05-16T17:25:40Z</time>
      </trkpt>
      <trkpt lat="49.33687" lon="1.20983">
        <ele>87</ele>
        <time>2017-05-16T17:25:40Z</time>
      </trkpt>
      <trkpt lat="49.33686" lon="1.20977">
        <ele>87</ele>
        <time>2017-05-16T17:25:40Z</time>
      </trkpt>
      <trkpt lat="49.33685" lon="1.20968">
        <ele>87</ele>
        <time>2017-05-16T17:25:40Z</time>
      </trkpt>
      <trkpt lat="49.33685" lon="1.20965">
        <ele>87</ele>
        <time>2017-05-16T17:25:59Z</time>
      </trkpt>
      <trkpt lat="49.33686" lon="1.20962">
        <ele>87</ele>
        <time>2017-05-16T17:25:59Z</time>
      </trkpt>
      <trkpt lat="49.33686" lon="1.20958">
        <ele>78</ele>
        <time>2017-05-16T17:25:59Z</time>
      </trkpt>
      <trkpt lat="49.33686" lon="1.20954">
        <ele>78</ele>
        <time>2017-05-16T17:26:00Z</time>
      </trkpt>
      <trkpt lat="49.33686" lon="1.20947">
        <ele>78</ele>
        <time>2017-05-16T17:26:00Z</time>
      </trkpt>
      <trkpt lat="49.33685" lon="1.20946">
        <ele>78</ele>
        <time>2017-05-16T17:26:19Z</time>
      </trkpt>
      <trkpt lat="49.33685" lon="1.20944">
        <ele>78</ele>
        <time>2017-05-16T17:26:19Z</time>
      </trkpt>
      <trkpt lat="49.33686" lon="1.2094">
        <ele>78</ele>
        <time>2017-05-16T17:26:19Z</time>
      </trkpt>
      <trkpt lat="49.33686" lon="1.20937">
        <ele>78</ele>
        <time>2017-05-16T17:26:19Z</time>
      </trkpt>
      <trkpt lat="49.33688" lon="1.20932">
        <ele>78</ele>
        <time>2017-05-16T17:26:19Z</time>
      </trkpt>
      <trkpt lat="49.33684" lon="1.20921">
        <ele>78</ele>
        <time>2017-05-16T17:26:40Z</time>
      </trkpt>
      <trkpt lat="49.33684" lon="1.20915">
        <ele>78</ele>
        <time>2017-05-16T17:26:40Z</time>
      </trkpt>
      <trkpt lat="49.33682" lon="1.20912">
        <ele>78</ele>
        <time>2017-05-16T17:26:41Z</time>
      </trkpt>
      <trkpt lat="49.33682" lon="1.20909">
        <ele>78</ele>
        <time>2017-05-16T17:26:41Z</time>
      </trkpt>
      <trkpt lat="49.33681" lon="1.20905">
        <ele>78</ele>
        <time>2017-05-16T17:26:41Z</time>
      </trkpt>
      <trkpt lat="49.33681" lon="1.209">
        <ele>78</ele>
        <time>2017-05-16T17:26:56Z</time>
      </trkpt>
      <trkpt lat="49.33682" lon="1.20893">
        <ele>78</ele>
        <time>2017-05-16T17:26:56Z</time>
      </trkpt>
      <trkpt lat="49.33681" lon="1.20882">
        <ele>78</ele>
        <time>2017-05-16T17:26:57Z</time>
      </trkpt>
      <trkpt lat="49.33682" lon="1.20877">
        <ele>78</ele>
        <time>2017-05-16T17:26:57Z</time>
      </trkpt>
      <trkpt lat="49.33685" lon="1.20851">
        <ele>64</ele>
        <time>2017-05-16T17:28:47Z</time>
      </trkpt>
      <trkpt lat="49.33685" lon="1.20849">
        <ele>64</ele>
        <time>2017-05-16T17:28:47Z</time>
      </trkpt>
      <trkpt lat="49.33688" lon="1.20838">
        <ele>64</ele>
        <time>2017-05-16T17:28:47Z</time>
      </trkpt>
      <trkpt lat="49.33692" lon="1.2083">
        <ele>64</ele>
        <time>2017-05-16T17:28:47Z</time>
      </trkpt>
      <trkpt lat="49.33696" lon="1.2083">
        <ele>64</ele>
        <time>2017-05-16T17:28:47Z</time>
      </trkpt>
      <trkpt lat="49.33698" lon="1.20827">
        <ele>64</ele>
        <time>2017-05-16T17:29:04Z</time>
      </trkpt>
      <trkpt lat="49.33701" lon="1.2082">
        <ele>64</ele>
        <time>2017-05-16T17:29:04Z</time>
      </trkpt>
      <trkpt lat="49.33704" lon="1.20816">
        <ele>64</ele>
        <time>2017-05-16T17:29:04Z</time>
      </trkpt>
      <trkpt lat="49.33708" lon="1.20814">
        <ele>64</ele>
        <time>2017-05-16T17:29:04Z</time>
      </trkpt>
      <trkpt lat="49.33714" lon="1.20809">
        <ele>87</ele>
        <time>2017-05-16T17:29:19Z</time>
      </trkpt>
      <trkpt lat="49.33719" lon="1.20807">
        <ele>87</ele>
        <time>2017-05-16T17:29:19Z</time>
      </trkpt>
      <trkpt lat="49.33721" lon="1.20807">
        <ele>87</ele>
        <time>2017-05-16T17:29:19Z</time>
      </trkpt>
      <trkpt lat="49.33724" lon="1.20805">
        <ele>87</ele>
        <time>2017-05-16T17:29:19Z</time>
      </trkpt>
      <trkpt lat="49.33725" lon="1.20798">
        <ele>87</ele>
        <time>2017-05-16T17:29:35Z</time>
      </trkpt>
      <trkpt lat="49.33729" lon="1.20789">
        <ele>72</ele>
        <time>2017-05-16T17:29:35Z</time>
      </trkpt>
      <trkpt lat="49.33733" lon="1.20785">
        <ele>72</ele>
        <time>2017-05-16T17:29:35Z</time>
      </trkpt>
      <trkpt lat="49.33738" lon="1.20786">
        <ele>72</ele>
        <time>2017-05-16T17:29:35Z</time>
      </trkpt>
      <trkpt lat="49.33746" lon="1.20774">
        <ele>72</ele>
        <time>2017-05-16T17:29:55Z</time>
      </trkpt>
      <trkpt lat="49.3375" lon="1.20771">
        <ele>72</ele>
        <time>2017-05-16T17:29:56Z</time>
      </trkpt>
      <trkpt lat="49.33754" lon="1.20767">
        <ele>72</ele>
        <time>2017-05-16T17:29:56Z</time>
      </trkpt>
      <trkpt lat="49.33756" lon="1.20761">
        <ele>72</ele>
        <time>2017-05-16T17:29:56Z</time>
      </trkpt>
      <trkpt lat="49.33765" lon="1.20749">
        <ele>72</ele>
        <time>2017-05-16T17:30:15Z</time>
      </trkpt>
      <trkpt lat="49.33769" lon="1.20746">
        <ele>72</ele>
        <time>2017-05-16T17:30:15Z</time>
      </trkpt>
      <trkpt lat="49.33772" lon="1.20741">
        <ele>72</ele>
        <time>2017-05-16T17:30:15Z</time>
      </trkpt>
      <trkpt lat="49.33777" lon="1.20749">
        <ele>72</ele>
        <time>2017-05-16T17:30:15Z</time>
      </trkpt>
      <trkpt lat="49.3378" lon="1.20747">
        <ele>72</ele>
        <time>2017-05-16T17:30:32Z</time>
      </trkpt>
      <trkpt lat="49.33781" lon="1.20736">
        <ele>72</ele>
        <time>2017-05-16T17:30:32Z</time>
      </trkpt>
      <trkpt lat="49.33783" lon="1.20729">
        <ele>72</ele>
        <time>2017-05-16T17:30:32Z</time>
      </trkpt>
      <trkpt lat="49.33787" lon="1.20729">
        <ele>72</ele>
        <time>2017-05-16T17:30:32Z</time>
      </trkpt>
      <trkpt lat="49.3379" lon="1.20729">
        <ele>72</ele>
        <time>2017-05-16T17:30:48Z</time>
      </trkpt>
      <trkpt lat="49.33791" lon="1.20717">
        <ele>72</ele>
        <time>2017-05-16T17:30:48Z</time>
      </trkpt>
      <trkpt lat="49.33794" lon="1.20715">
        <ele>95</ele>
        <time>2017-05-16T17:30:48Z</time>
      </trkpt>
      <trkpt lat="49.33799" lon="1.20716">
        <ele>95</ele>
        <time>2017-05-16T17:30:48Z</time>
      </trkpt>
      <trkpt lat="49.338" lon="1.20713">
        <ele>95</ele>
        <time>2017-05-16T17:31:03Z</time>
      </trkpt>
      <trkpt lat="49.33806" lon="1.20706">
        <ele>80</ele>
        <time>2017-05-16T17:31:03Z</time>
      </trkpt>
      <trkpt lat="49.33811" lon="1.20709">
        <ele>95</ele>
        <time>2017-05-16T17:31:03Z</time>
      </trkpt>
      <trkpt lat="49.33814" lon="1.20706">
        <ele>80</ele>
        <time>2017-05-16T17:31:03Z</time>
      </trkpt>
      <trkpt lat="49.33822" lon="1.20702">
        <ele>80</ele>
        <time>2017-05-16T17:31:31Z</time>
      </trkpt>
      <trkpt lat="49.33825" lon="1.20695">
        <ele>80</ele>
        <time>2017-05-16T17:31:31Z</time>
      </trkpt>
      <trkpt lat="49.3383" lon="1.20683">
        <ele>80</ele>
        <time>2017-05-16T17:31:31Z</time>
      </trkpt>
      <trkpt lat="49.33836" lon="1.20681">
        <ele>80</ele>
        <time>2017-05-16T17:31:31Z</time>
      </trkpt>
      <trkpt lat="49.33837" lon="1.20672">
        <ele>80</ele>
        <time>2017-05-16T17:31:31Z</time>
      </trkpt>
      <trkpt lat="49.33842" lon="1.20662">
        <ele>80</ele>
        <time>2017-05-16T17:31:52Z</time>
      </trkpt>
      <trkpt lat="49.33843" lon="1.20659">
        <ele>80</ele>
        <time>2017-05-16T17:31:52Z</time>
      </trkpt>
      <trkpt lat="49.33851" lon="1.20657">
        <ele>80</ele>
        <time>2017-05-16T17:31:52Z</time>
      </trkpt>
      <trkpt lat="49.33855" lon="1.20655">
        <ele>80</ele>
        <time>2017-05-16T17:31:52Z</time>
      </trkpt>
      <trkpt lat="49.33865" lon="1.20653">
        <ele>80</ele>
        <time>2017-05-16T17:33:20Z</time>
      </trkpt>
      <trkpt lat="49.33865" lon="1.20653">
        <ele>80</ele>
        <time>2017-05-16T17:33:20Z</time>
      </trkpt>
      <trkpt lat="49.33867" lon="1.2065">
        <ele>80</ele>
        <time>2017-05-16T17:33:21Z</time>
      </trkpt>
      <trkpt lat="49.33871" lon="1.20644">
        <ele>80</ele>
        <time>2017-05-16T17:33:21Z</time>
      </trkpt>
      <trkpt lat="49.33874" lon="1.20646">
        <ele>80</ele>
        <time>2017-05-16T17:33:21Z</time>
      </trkpt>
      <trkpt lat="49.33878" lon="1.20629">
        <ele>100</ele>
        <time>2017-05-16T17:33:35Z</time>
      </trkpt>
      <trkpt lat="49.33881" lon="1.20631">
        <ele>100</ele>
        <time>2017-05-16T17:33:35Z</time>
      </trkpt>
      <trkpt lat="49.33884" lon="1.20636">
        <ele>100</ele>
        <time>2017-05-16T17:33:35Z</time>
      </trkpt>
      <trkpt lat="49.33885" lon="1.20641">
        <ele>100</ele>
        <time>2017-05-16T17:33:35Z</time>
      </trkpt>
      <trkpt lat="49.33889" lon="1.2064">
        <ele>100</ele>
        <time>2017-05-16T17:36:27Z</time>
      </trkpt>
      <trkpt lat="49.33895" lon="1.20639">
        <ele>100</ele>
        <time>2017-05-16T17:36:28Z</time>
      </trkpt>
      <trkpt lat="49.33901" lon="1.20622">
        <ele>86</ele>
        <time>2017-05-16T17:36:28Z</time>
      </trkpt>
      <trkpt lat="49.33902" lon="1.2062">
        <ele>86</ele>
        <time>2017-05-16T17:36:28Z</time>
      </trkpt>
      <trkpt lat="49.33911" lon="1.2061">
        <ele>86</ele>
        <time>2017-05-16T17:36:28Z</time>
      </trkpt>
      <trkpt lat="49.3392" lon="1.2061">
        <ele>86</ele>
        <time>2017-05-16T17:36:43Z</time>
      </trkpt>
      <trkpt lat="49.33923" lon="1.20603">
        <ele>86</ele>
        <time>2017-05-16T17:36:43Z</time>
      </trkpt>
      <trkpt lat="49.33929" lon="1.20599">
        <ele>86</ele>
        <time>2017-05-16T17:36:43Z</time>
      </trkpt>
      <trkpt lat="49.33937" lon="1.20593">
        <ele>86</ele>
        <time>2017-05-16T17:36:43Z</time>
      </trkpt>
      <trkpt lat="49.33946" lon="1.20579">
        <ele>86</ele>
        <time>2017-05-16T17:36:59Z</time>
      </trkpt>
      <trkpt lat="49.33953" lon="1.20583">
        <ele>86</ele>
        <time>2017-05-16T17:36:59Z</time>
      </trkpt>
      <trkpt lat="49.33957" lon="1.20578">
        <ele>86</ele>
        <time>2017-05-16T17:36:59Z</time>
      </trkpt>
      <trkpt lat="49.3396" lon="1.20576">
        <ele>103</ele>
        <time>2017-05-16T17:36:59Z</time>
      </trkpt>
      <trkpt lat="49.33967" lon="1.20578">
        <ele>103</ele>
        <time>2017-05-16T17:37:15Z</time>
      </trkpt>
      <trkpt lat="49.33972" lon="1.20578">
        <ele>103</ele>
        <time>2017-05-16T17:37:15Z</time>
      </trkpt>
      <trkpt lat="49.33977" lon="1.20576">
        <ele>103</ele>
        <time>2017-05-16T17:37:15Z</time>
      </trkpt>
      <trkpt lat="49.33978" lon="1.2057">
        <ele>103</ele>
        <time>2017-05-16T17:37:15Z</time>
      </trkpt>
      <trkpt lat="49.33988" lon="1.20564">
        <ele>103</ele>
        <time>2017-05-16T17:37:31Z</time>
      </trkpt>
      <trkpt lat="49.33992" lon="1.20563">
        <ele>103</ele>
        <time>2017-05-16T17:37:31Z</time>
      </trkpt>
      <trkpt lat="49.33995" lon="1.20567">
        <ele>103</ele>
        <time>2017-05-16T17:37:31Z</time>
      </trkpt>
      <trkpt lat="49.34005" lon="1.20561">
        <ele>103</ele>
        <time>2017-05-16T17:37:31Z</time>
      </trkpt>
      <trkpt lat="49.34009" lon="1.20559">
        <ele>103</ele>
        <time>2017-05-16T17:37:47Z</time>
      </trkpt>
      <trkpt lat="49.34012" lon="1.20558">
        <ele>103</ele>
        <time>2017-05-16T17:37:47Z</time>
      </trkpt>
      <trkpt lat="49.34019" lon="1.20556">
        <ele>103</ele>
        <time>2017-05-16T17:37:47Z</time>
      </trkpt>
      <trkpt lat="49.34021" lon="1.20557">
        <ele>103</ele>
        <time>2017-05-16T17:37:47Z</time>
      </trkpt>
      <trkpt lat="49.34031" lon="1.20562">
        <ele>103</ele>
        <time>2017-05-16T17:38:24Z</time>
      </trkpt>
      <trkpt lat="49.34032" lon="1.20562">
        <ele>103</ele>
        <time>2017-05-16T17:38:24Z</time>
      </trkpt>
      <trkpt lat="49.34032" lon="1.20562">
        <ele>103</ele>
        <time>2017-05-16T17:38:24Z</time>
      </trkpt>
      <trkpt lat="49.34032" lon="1.20562">
        <ele>103</ele>
        <time>2017-05-16T17:38:24Z</time>
      </trkpt>
      <trkpt lat="49.34037" lon="1.20565">
        <ele>103</ele>
        <time>2017-05-16T17:38:24Z</time>
      </trkpt>
      <trkpt lat="49.34044" lon="1.20577">
        <ele>108</ele>
        <time>2017-05-16T17:38:39Z</time>
      </trkpt>
      <trkpt lat="49.34052" lon="1.20578">
        <ele>108</ele>
        <time>2017-05-16T17:38:39Z</time>
      </trkpt>
      <trkpt lat="49.34062" lon="1.20582">
        <ele>108</ele>
        <time>2017-05-16T17:38:39Z</time>
      </trkpt>
      <trkpt lat="49.34066" lon="1.20583">
        <ele>108</ele>
        <time>2017-05-16T17:38:39Z</time>
      </trkpt>
      <trkpt lat="49.34071" lon="1.20587">
        <ele>108</ele>
        <time>2017-05-16T17:38:55Z</time>
      </trkpt>
      <trkpt lat="49.3408" lon="1.20592">
        <ele>108</ele>
        <time>2017-05-16T17:38:55Z</time>
      </trkpt>
      <trkpt lat="49.34083" lon="1.20595">
        <ele>108</ele>
        <time>2017-05-16T17:38:55Z</time>
      </trkpt>
      <trkpt lat="49.34086" lon="1.20598">
        <ele>108</ele>
        <time>2017-05-16T17:38:55Z</time>
      </trkpt>
      <trkpt lat="49.34092" lon="1.20602">
        <ele>108</ele>
        <time>2017-05-16T17:39:15Z</time>
      </trkpt>
      <trkpt lat="49.34095" lon="1.20605">
        <ele>108</ele>
        <time>2017-05-16T17:39:15Z</time>
      </trkpt>
      <trkpt lat="49.34099" lon="1.20605">
        <ele>108</ele>
        <time>2017-05-16T17:39:15Z</time>
      </trkpt>
      <trkpt lat="49.34099" lon="1.20606">
        <ele>108</ele>
        <time>2017-05-16T17:39:15Z</time>
      </trkpt>
      <trkpt lat="49.34101" lon="1.20609">
        <ele>108</ele>
        <time>2017-05-16T17:39:15Z</time>
      </trkpt>
      <trkpt lat="49.34107" lon="1.20607">
        <ele>108</ele>
        <time>2017-05-16T17:41:47Z</time>
      </trkpt>
      <trkpt lat="49.34107" lon="1.20607">
        <ele>108</ele>
        <time>2017-05-16T17:41:47Z</time>
      </trkpt>
      <trkpt lat="49.34107" lon="1.20606">
        <ele>108</ele>
        <time>2017-05-16T17:41:47Z</time>
      </trkpt>
      <trkpt lat="49.34107" lon="1.20606">
        <ele>108</ele>
        <time>2017-05-16T17:41:47Z</time>
      </trkpt>
      <trkpt lat="49.34111" lon="1.20603">
        <ele>108</ele>
        <time>2017-05-16T17:41:47Z</time>
      </trkpt>
      <trkpt lat="49.34117" lon="1.20585">
        <ele>108</ele>
        <time>2017-05-16T17:42:03Z</time>
      </trkpt>
      <trkpt lat="49.34118" lon="1.2058">
        <ele>108</ele>
        <time>2017-05-16T17:42:04Z</time>
      </trkpt>
      <trkpt lat="49.34121" lon="1.20572">
        <ele>108</ele>
        <time>2017-05-16T17:42:04Z</time>
      </trkpt>
      <trkpt lat="49.34121" lon="1.20565">
        <ele>108</ele>
        <time>2017-05-16T17:42:04Z</time>
      </trkpt>
      <trkpt lat="49.34123" lon="1.20551">
        <ele>108</ele>
        <time>2017-05-16T17:42:24Z</time>
      </trkpt>
      <trkpt lat="49.34124" lon="1.20551">
        <ele>108</ele>
        <time>2017-05-16T17:42:25Z</time>
      </trkpt>
      <trkpt lat="49.34124" lon="1.20542">
        <ele>94</ele>
        <time>2017-05-16T17:42:25Z</time>
      </trkpt>
      <trkpt lat="49.34125" lon="1.20527">
        <ele>113</ele>
        <time>2017-05-16T17:42:25Z</time>
      </trkpt>
      <trkpt lat="49.34126" lon="1.20524">
        <ele>113</ele>
        <time>2017-05-16T17:42:39Z</time>
      </trkpt>
      <trkpt lat="49.34123" lon="1.20509">
        <ele>94</ele>
        <time>2017-05-16T17:42:39Z</time>
      </trkpt>
      <trkpt lat="49.34125" lon="1.20503">
        <ele>94</ele>
        <time>2017-05-16T17:42:40Z</time>
      </trkpt>
      <trkpt lat="49.34126" lon="1.20498">
        <ele>113</ele>
        <time>2017-05-16T17:42:40Z</time>
      </trkpt>
      <trkpt lat="49.34124" lon="1.20491">
        <ele>94</ele>
        <time>2017-05-16T17:42:55Z</time>
      </trkpt>
      <trkpt lat="49.34128" lon="1.20483">
        <ele>113</ele>
        <time>2017-05-16T17:42:55Z</time>
      </trkpt>
      <trkpt lat="49.34131" lon="1.20476">
        <ele>113</ele>
        <time>2017-05-16T17:42:55Z</time>
      </trkpt>
      <trkpt lat="49.34131" lon="1.20469">
        <ele>113</ele>
        <time>2017-05-16T17:42:55Z</time>
      </trkpt>
      <trkpt lat="49.34126" lon="1.20454">
        <ele>108</ele>
        <time>2017-05-16T17:43:39Z</time>
      </trkpt>
      <trkpt lat="49.34125" lon="1.20454">
        <ele>108</ele>
        <time>2017-05-16T17:43:39Z</time>
      </trkpt>
      <trkpt lat="49.34126" lon="1.20454">
        <ele>108</ele>
        <time>2017-05-16T17:43:39Z</time>
      </trkpt>
      <trkpt lat="49.34125" lon="1.20453">
        <ele>108</ele>
        <time>2017-05-16T17:43:39Z</time>
      </trkpt>
      <trkpt lat="49.34132" lon="1.20438">
        <ele>108</ele>
        <time>2017-05-16T17:43:39Z</time>
      </trkpt>
      <trkpt lat="49.34129" lon="1.20381">
        <ele>108</ele>
        <time>2017-05-16T17:44:11Z</time>
      </trkpt>
      <trkpt lat="49.34131" lon="1.20376">
        <ele>108</ele>
        <time>2017-05-16T17:44:11Z</time>
      </trkpt>
      <trkpt lat="49.34132" lon="1.20373">
        <ele>99</ele>
        <time>2017-05-16T17:44:11Z</time>
      </trkpt>
      <trkpt lat="49.34133" lon="1.20366">
        <ele>99</ele>
        <time>2017-05-16T17:44:11Z</time>
      </trkpt>
      <trkpt lat="49.34134" lon="1.20351">
        <ele>99</ele>
        <time>2017-05-16T17:44:12Z</time>
      </trkpt>
      <trkpt lat="49.34138" lon="1.20349">
        <ele>99</ele>
        <time>2017-05-16T17:44:27Z</time>
      </trkpt>
      <trkpt lat="49.3414" lon="1.20329">
        <ele>99</ele>
        <time>2017-05-16T17:44:28Z</time>
      </trkpt>
      <trkpt lat="49.34143" lon="1.20328">
        <ele>99</ele>
        <time>2017-05-16T17:44:28Z</time>
      </trkpt>
      <trkpt lat="49.34144" lon="1.20328">
        <ele>99</ele>
        <time>2017-05-16T17:44:28Z</time>
      </trkpt>
      <trkpt lat="49.34148" lon="1.20327">
        <ele>99</ele>
        <time>2017-05-16T17:44:44Z</time>
      </trkpt>
      <trkpt lat="49.34152" lon="1.20321">
        <ele>99</ele>
        <time>2017-05-16T17:44:44Z</time>
      </trkpt>
      <trkpt lat="49.34157" lon="1.20312">
        <ele>99</ele>
        <time>2017-05-16T17:44:44Z</time>
      </trkpt>
      <trkpt lat="49.34161" lon="1.20305">
        <ele>99</ele>
        <time>2017-05-16T17:44:44Z</time>
      </trkpt>
      <trkpt lat="49.34161" lon="1.20303">
        <ele>99</ele>
        <time>2017-05-16T17:44:59Z</time>
      </trkpt>
      <trkpt lat="49.34165" lon="1.20299">
        <ele>99</ele>
        <time>2017-05-16T17:44:59Z</time>
      </trkpt>
      <trkpt lat="49.34169" lon="1.20293">
        <ele>99</ele>
        <time>2017-05-16T17:44:59Z</time>
      </trkpt>
      <trkpt lat="49.34173" lon="1.2029">
        <ele>82</ele>
        <time>2017-05-16T17:44:59Z</time>
      </trkpt>
      <trkpt lat="49.34177" lon="1.20293">
        <ele>99</ele>
        <time>2017-05-16T17:45:16Z</time>
      </trkpt>
      <trkpt lat="49.34182" lon="1.20285">
        <ele>82</ele>
        <time>2017-05-16T17:45:16Z</time>
      </trkpt>
      <trkpt lat="49.34187" lon="1.20283">
        <ele>82</ele>
        <time>2017-05-16T17:45:16Z</time>
      </trkpt>
      <trkpt lat="49.34189" lon="1.20278">
        <ele>82</ele>
        <time>2017-05-16T17:45:16Z</time>
      </trkpt>
      <trkpt lat="49.34192" lon="1.20278">
        <ele>82</ele>
        <time>2017-05-16T17:45:31Z</time>
      </trkpt>
      <trkpt lat="49.34198" lon="1.2027">
        <ele>82</ele>
        <time>2017-05-16T17:45:31Z</time>
      </trkpt>
      <trkpt lat="49.34204" lon="1.20275">
        <ele>82</ele>
        <time>2017-05-16T17:45:31Z</time>
      </trkpt>
      <trkpt lat="49.3421" lon="1.20272">
        <ele>89</ele>
        <time>2017-05-16T17:45:31Z</time>
      </trkpt>
      <trkpt lat="49.34213" lon="1.20271">
        <ele>89</ele>
        <time>2017-05-16T17:45:48Z</time>
      </trkpt>
      <trkpt lat="49.34217" lon="1.20264">
        <ele>89</ele>
        <time>2017-05-16T17:45:48Z</time>
      </trkpt>
      <trkpt lat="49.34221" lon="1.20266">
        <ele>89</ele>
        <time>2017-05-16T17:45:48Z</time>
      </trkpt>
      <trkpt lat="49.34225" lon="1.20261">
        <ele>89</ele>
        <time>2017-05-16T17:45:48Z</time>
      </trkpt>
      <trkpt lat="49.34228" lon="1.2026">
        <ele>89</ele>
        <time>2017-05-16T17:46:04Z</time>
      </trkpt>
      <trkpt lat="49.34231" lon="1.20255">
        <ele>89</ele>
        <time>2017-05-16T17:46:04Z</time>
      </trkpt>
      <trkpt lat="49.34236" lon="1.20258">
        <ele>89</ele>
        <time>2017-05-16T17:46:04Z</time>
      </trkpt>
      <trkpt lat="49.34239" lon="1.20256">
        <ele>89</ele>
        <time>2017-05-16T17:46:05Z</time>
      </trkpt>
      <trkpt lat="49.34243" lon="1.20252">
        <ele>89</ele>
        <time>2017-05-16T17:46:20Z</time>
      </trkpt>
      <trkpt lat="49.34248" lon="1.20249">
        <ele>89</ele>
        <time>2017-05-16T17:46:20Z</time>
      </trkpt>
      <trkpt lat="49.3425" lon="1.20245">
        <ele>89</ele>
        <time>2017-05-16T17:46:20Z</time>
      </trkpt>
      <trkpt lat="49.34257" lon="1.20233">
        <ele>89</ele>
        <time>2017-05-16T17:46:20Z</time>
      </trkpt>
      <trkpt lat="49.3426" lon="1.20236">
        <ele>89</ele>
        <time>2017-05-16T17:46:35Z</time>
      </trkpt>
      <trkpt lat="49.34265" lon="1.20232">
        <ele>89</ele>
        <time>2017-05-16T17:46:35Z</time>
      </trkpt>
      <trkpt lat="49.34266" lon="1.20231">
        <ele>89</ele>
        <time>2017-05-16T17:46:35Z</time>
      </trkpt>
      <trkpt lat="49.34269" lon="1.20227">
        <ele>89</ele>
        <time>2017-05-16T17:46:36Z</time>
      </trkpt>
      <trkpt lat="49.34275" lon="1.20227">
        <ele>89</ele>
        <time>2017-05-16T17:46:52Z</time>
      </trkpt>
      <trkpt lat="49.34282" lon="1.20224">
        <ele>89</ele>
        <time>2017-05-16T17:46:52Z</time>
      </trkpt>
      <trkpt lat="49.34291" lon="1.20228">
        <ele>89</ele>
        <time>2017-05-16T17:46:52Z</time>
      </trkpt>
      <trkpt lat="49.34293" lon="1.20215">
        <ele>98</ele>
        <time>2017-05-16T17:46:52Z</time>
      </trkpt>
      <trkpt lat="49.34296" lon="1.20213">
        <ele>98</ele>
        <time>2017-05-16T17:47:07Z</time>
      </trkpt>
      <trkpt lat="49.34299" lon="1.20203">
        <ele>78</ele>
        <time>2017-05-16T17:47:08Z</time>
      </trkpt>
      <trkpt lat="49.34305" lon="1.20202">
        <ele>78</ele>
        <time>2017-05-16T17:47:08Z</time>
      </trkpt>
      <trkpt lat="49.34306" lon="1.20199">
        <ele>78</ele>
        <time>2017-05-16T17:47:08Z</time>
      </trkpt>
      <trkpt lat="49.34314" lon="1.20198">
        <ele>78</ele>
        <time>2017-05-16T17:47:40Z</time>
      </trkpt>
      <trkpt lat="49.34314" lon="1.20197">
        <ele>78</ele>
        <time>2017-05-16T17:47:40Z</time>
      </trkpt>
      <trkpt lat="49.34314" lon="1.20197">
        <ele>78</ele>
        <time>2017-05-16T17:47:40Z</time>
      </trkpt>
      <trkpt lat="49.34314" lon="1.20197">
        <ele>78</ele>
        <time>2017-05-16T17:47:40Z</time>
      </trkpt>
      <trkpt lat="49.34321" lon="1.20198">
        <ele>78</ele>
        <time>2017-05-16T17:47:40Z</time>
      </trkpt>
      <trkpt lat="49.34326" lon="1.20196">
        <ele>78</ele>
        <time>2017-05-16T17:47:55Z</time>
      </trkpt>
      <trkpt lat="49.34334" lon="1.2019">
        <ele>78</ele>
        <time>2017-05-16T17:47:55Z</time>
      </trkpt>
      <trkpt lat="49.34337" lon="1.20186">
        <ele>78</ele>
        <time>2017-05-16T17:47:55Z</time>
      </trkpt>
      <trkpt lat="49.34338" lon="1.20184">
        <ele>78</ele>
        <time>2017-05-16T17:47:55Z</time>
      </trkpt>
      <trkpt lat="49.34341" lon="1.20186">
        <ele>78</ele>
        <time>2017-05-16T17:48:11Z</time>
      </trkpt>
      <trkpt lat="49.34345" lon="1.2019">
        <ele>78</ele>
        <time>2017-05-16T17:48:11Z</time>
      </trkpt>
      <trkpt lat="49.3435" lon="1.20189">
        <ele>78</ele>
        <time>2017-05-16T17:48:11Z</time>
      </trkpt>
      <trkpt lat="49.34363" lon="1.20179">
        <ele>78</ele>
        <time>2017-05-16T17:48:11Z</time>
      </trkpt>
      <trkpt lat="49.34357" lon="1.2017">
        <ele>78</ele>
        <time>2017-05-16T17:48:52Z</time>
      </trkpt>
      <trkpt lat="49.34362" lon="1.20156">
        <ele>78</ele>
        <time>2017-05-16T17:48:52Z</time>
      </trkpt>
      <trkpt lat="49.34367" lon="1.20158">
        <ele>78</ele>
        <time>2017-05-16T17:48:52Z</time>
      </trkpt>
      <trkpt lat="49.34372" lon="1.20149">
        <ele>78</ele>
        <time>2017-05-16T17:48:52Z</time>
      </trkpt>
      <trkpt lat="49.34379" lon="1.2015">
        <ele>90</ele>
        <time>2017-05-16T17:48:52Z</time>
      </trkpt>
      <trkpt lat="49.3438" lon="1.2014">
        <ele>90</ele>
        <time>2017-05-16T17:49:09Z</time>
      </trkpt>
      <trkpt lat="49.34381" lon="1.20131">
        <ele>90</ele>
        <time>2017-05-16T17:49:09Z</time>
      </trkpt>
      <trkpt lat="49.34385" lon="1.20118">
        <ele>71</ele>
        <time>2017-05-16T17:49:09Z</time>
      </trkpt>
      <trkpt lat="49.3439" lon="1.20119">
        <ele>71</ele>
        <time>2017-05-16T17:49:09Z</time>
      </trkpt>
      <trkpt lat="49.34408" lon="1.20092">
        <ele>71</ele>
        <time>2017-05-16T17:49:43Z</time>
      </trkpt>
      <trkpt lat="49.3441" lon="1.20092">
        <ele>71</ele>
        <time>2017-05-16T17:49:43Z</time>
      </trkpt>
      <trkpt lat="49.34414" lon="1.20091">
        <ele>71</ele>
        <time>2017-05-16T17:49:43Z</time>
      </trkpt>
      <trkpt lat="49.3442" lon="1.20085">
        <ele>71</ele>
        <time>2017-05-16T17:49:43Z</time>
      </trkpt>
      <trkpt lat="49.34423" lon="1.20085">
        <ele>71</ele>
        <time>2017-05-16T17:49:59Z</time>
      </trkpt>
      <trkpt lat="49.34427" lon="1.20081">
        <ele>71</ele>
        <time>2017-05-16T17:49:59Z</time>
      </trkpt>
      <trkpt lat="49.34433" lon="1.20082">
        <ele>71</ele>
        <time>2017-05-16T17:49:59Z</time>
      </trkpt>
      <trkpt lat="49.34437" lon="1.20081">
        <ele>71</ele>
        <time>2017-05-16T17:49:59Z</time>
      </trkpt>
      <trkpt lat="49.34442" lon="1.2008">
        <ele>71</ele>
        <time>2017-05-16T17:50:17Z</time>
      </trkpt>
      <trkpt lat="49.3445" lon="1.20082">
        <ele>71</ele>
        <time>2017-05-16T17:50:17Z</time>
      </trkpt>
      <trkpt lat="49.34452" lon="1.20075">
        <ele>71</ele>
        <time>2017-05-16T17:50:17Z</time>
      </trkpt>
      <trkpt lat="49.34455" lon="1.20073">
        <ele>71</ele>
        <time>2017-05-16T17:50:17Z</time>
      </trkpt>
      <trkpt lat="49.34468" lon="1.20067">
        <ele>76</ele>
        <time>2017-05-16T17:50:39Z</time>
      </trkpt>
      <trkpt lat="49.34472" lon="1.20062">
        <ele>76</ele>
        <time>2017-05-16T17:50:39Z</time>
      </trkpt>
      <trkpt lat="49.34473" lon="1.20056">
        <ele>76</ele>
        <time>2017-05-16T17:50:39Z</time>
      </trkpt>
      <trkpt lat="49.34479" lon="1.20059">
        <ele>76</ele>
        <time>2017-05-16T17:50:39Z</time>
      </trkpt>
      <trkpt lat="49.34492" lon="1.20064">
        <ele>76</ele>
        <time>2017-05-16T17:50:55Z</time>
      </trkpt>
      <trkpt lat="49.34493" lon="1.2006">
        <ele>76</ele>
        <time>2017-05-16T17:50:55Z</time>
      </trkpt>
      <trkpt lat="49.34496" lon="1.20058">
        <ele>76</ele>
        <time>2017-05-16T17:50:55Z</time>
      </trkpt>
      <trkpt lat="49.34501" lon="1.20062">
        <ele>76</ele>
        <time>2017-05-16T17:50:55Z</time>
      </trkpt>
      <trkpt lat="49.34511" lon="1.20053">
        <ele>76</ele>
        <time>2017-05-16T17:52:00Z</time>
      </trkpt>
      <trkpt lat="49.34518" lon="1.20051">
        <ele>76</ele>
        <time>2017-05-16T17:52:00Z</time>
      </trkpt>
      <trkpt lat="49.34527" lon="1.20049">
        <ele>76</ele>
        <time>2017-05-16T17:52:00Z</time>
      </trkpt>
      <trkpt lat="49.34536" lon="1.20051">
        <ele>76</ele>
        <time>2017-05-16T17:52:00Z</time>
      </trkpt>
      <trkpt lat="49.34551" lon="1.20046">
        <ele>82</ele>
        <time>2017-05-16T17:52:00Z</time>
      </trkpt>
      <trkpt lat="49.34556" lon="1.20043">
        <ele>82</ele>
        <time>2017-05-16T17:52:15Z</time>
      </trkpt>
      <trkpt lat="49.34563" lon="1.20037">
        <ele>62</ele>
        <time>2017-05-16T17:52:15Z</time>
      </trkpt>
      <trkpt lat="49.34571" lon="1.20033">
        <ele>62</ele>
        <time>2017-05-16T17:52:15Z</time>
      </trkpt>
      <trkpt lat="49.34577" lon="1.20036">
        <ele>62</ele>
        <time>2017-05-16T17:52:15Z</time>
      </trkpt>
      <trkpt lat="49.34581" lon="1.20024">
        <ele>62</ele>
        <time>2017-05-16T17:52:31Z</time>
      </trkpt>
      <trkpt lat="49.34583" lon="1.20015">
        <ele>62</ele>
        <time>2017-05-16T17:52:31Z</time>
      </trkpt>
      <trkpt lat="49.34586" lon="1.20015">
        <ele>62</ele>
        <time>2017-05-16T17:52:31Z</time>
      </trkpt>
      <trkpt lat="49.34591" lon="1.20015">
        <ele>62</ele>
        <time>2017-05-16T17:52:31Z</time>
      </trkpt>
      <trkpt lat="49.34595" lon="1.2001">
        <ele>62</ele>
        <time>2017-05-16T17:52:48Z</time>
      </trkpt>
      <trkpt lat="49.34599" lon="1.20003">
        <ele>62</ele>
        <time>2017-05-16T17:52:48Z</time>
      </trkpt>
      <trkpt lat="49.34601" lon="1.20001">
        <ele>62</ele>
        <time>2017-05-16T17:52:48Z</time>
      </trkpt>
      <trkpt lat="49.34604" lon="1.19995">
        <ele>62</ele>
        <time>2017-05-16T17:52:48Z</time>
      </trkpt>
      <trkpt lat="49.34608" lon="1.19997">
        <ele>62</ele>
        <time>2017-05-16T17:53:04Z</time>
      </trkpt>
      <trkpt lat="49.34611" lon="1.19994">
        <ele>62</ele>
        <time>2017-05-16T17:53:04Z</time>
      </trkpt>
      <trkpt lat="49.34611" lon="1.19993">
        <ele>62</ele>
        <time>2017-05-16T17:53:04Z</time>
      </trkpt>
      <trkpt lat="49.34617" lon="1.19989">
        <ele>62</ele>
        <time>2017-05-16T17:53:04Z</time>
      </trkpt>
      <trkpt lat="49.3462" lon="1.19991">
        <ele>62</ele>
        <time>2017-05-16T17:53:19Z</time>
      </trkpt>
      <trkpt lat="49.34625" lon="1.19982">
        <ele>62</ele>
        <time>2017-05-16T17:53:19Z</time>
      </trkpt>
      <trkpt lat="49.3463" lon="1.1998">
        <ele>71</ele>
        <time>2017-05-16T17:53:19Z</time>
      </trkpt>
      <trkpt lat="49.34633" lon="1.19979">
        <ele>71</ele>
        <time>2017-05-16T17:53:19Z</time>
      </trkpt>
      <trkpt lat="49.34638" lon="1.19973">
        <ele>71</ele>
        <time>2017-05-16T17:53:36Z</time>
      </trkpt>
      <trkpt lat="49.34644" lon="1.19968">
        <ele>71</ele>
        <time>2017-05-16T17:53:37Z</time>
      </trkpt>
      <trkpt lat="49.34651" lon="1.19967">
        <ele>71</ele>
        <time>2017-05-16T17:53:37Z</time>
      </trkpt>
      <trkpt lat="49.34655" lon="1.19963">
        <ele>71</ele>
        <time>2017-05-16T17:53:37Z</time>
      </trkpt>
      <trkpt lat="49.34656" lon="1.19961">
        <ele>71</ele>
        <time>2017-05-16T17:53:51Z</time>
      </trkpt>
      <trkpt lat="49.34661" lon="1.1995">
        <ele>58</ele>
        <time>2017-05-16T17:53:51Z</time>
      </trkpt>
      <trkpt lat="49.34664" lon="1.19946">
        <ele>58</ele>
        <time>2017-05-16T17:53:51Z</time>
      </trkpt>
      <trkpt lat="49.34671" lon="1.19942">
        <ele>58</ele>
        <time>2017-05-16T17:53:51Z</time>
      </trkpt>
      <trkpt lat="49.34673" lon="1.19933">
        <ele>58</ele>
        <time>2017-05-16T17:54:07Z</time>
      </trkpt>
      <trkpt lat="49.34676" lon="1.19925">
        <ele>58</ele>
        <time>2017-05-16T17:54:07Z</time>
      </trkpt>
      <trkpt lat="49.34678" lon="1.19921">
        <ele>58</ele>
        <time>2017-05-16T17:54:07Z</time>
      </trkpt>
      <trkpt lat="49.34682" lon="1.1992">
        <ele>58</ele>
        <time>2017-05-16T17:54:07Z</time>
      </trkpt>
      <trkpt lat="49.34681" lon="1.19883">
        <ele>58</ele>
        <time>2017-05-16T17:54:51Z</time>
      </trkpt>
      <trkpt lat="49.3468" lon="1.19875">
        <ele>58</ele>
        <time>2017-05-16T17:54:51Z</time>
      </trkpt>
      <trkpt lat="49.34679" lon="1.19871">
        <ele>63</ele>
        <time>2017-05-16T17:54:51Z</time>
      </trkpt>
      <trkpt lat="49.34678" lon="1.19863">
        <ele>63</ele>
        <time>2017-05-16T17:54:51Z</time>
      </trkpt>
      <trkpt lat="49.34677" lon="1.19856">
        <ele>63</ele>
        <time>2017-05-16T17:54:51Z</time>
      </trkpt>
      <trkpt lat="49.34675" lon="1.19845">
        <ele>63</ele>
        <time>2017-05-16T17:55:07Z</time>
      </trkpt>
      <trkpt lat="49.34673" lon="1.1984">
        <ele>63</ele>
        <time>2017-05-16T17:55:07Z</time>
      </trkpt>
      <trkpt lat="49.34675" lon="1.19836">
        <ele>63</ele>
        <time>2017-05-16T17:55:08Z</time>
      </trkpt>
      <trkpt lat="49.34673" lon="1.19831">
        <ele>63</ele>
        <time>2017-05-16T17:55:08Z</time>
      </trkpt>
      <trkpt lat="49.34675" lon="1.19825">
        <ele>63</ele>
        <time>2017-05-16T17:55:43Z</time>
      </trkpt>
      <trkpt lat="49.34675" lon="1.19825">
        <ele>63</ele>
        <time>2017-05-16T17:55:43Z</time>
      </trkpt>
      <trkpt lat="49.34682" lon="1.19826">
        <ele>63</ele>
        <time>2017-05-16T17:55:43Z</time>
      </trkpt>
      <trkpt lat="49.34694" lon="1.19824">
        <ele>63</ele>
        <time>2017-05-16T17:55:43Z</time>
      </trkpt>
      <trkpt lat="49.34698" lon="1.19819">
        <ele>63</ele>
        <time>2017-05-16T17:55:43Z</time>
      </trkpt>
      <trkpt lat="49.34701" lon="1.19817">
        <ele>63</ele>
        <time>2017-05-16T17:55:59Z</time>
      </trkpt>
      <trkpt lat="49.34703" lon="1.19815">
        <ele>63</ele>
        <time>2017-05-16T17:55:59Z</time>
      </trkpt>
      <trkpt lat="49.34711" lon="1.19815">
        <ele>62</ele>
        <time>2017-05-16T17:55:59Z</time>
      </trkpt>
      <trkpt lat="49.34718" lon="1.19813">
        <ele>62</ele>
        <time>2017-05-16T17:55:59Z</time>
      </trkpt>
      <trkpt lat="49.3472" lon="1.19815">
        <ele>62</ele>
        <time>2017-05-16T17:56:16Z</time>
      </trkpt>
      <trkpt lat="49.34726" lon="1.19816">
        <ele>62</ele>
        <time>2017-05-16T17:56:16Z</time>
      </trkpt>
      <trkpt lat="49.34728" lon="1.19817">
        <ele>62</ele>
        <time>2017-05-16T17:56:16Z</time>
      </trkpt>
      <trkpt lat="49.34731" lon="1.19816">
        <ele>62</ele>
        <time>2017-05-16T17:56:16Z</time>
      </trkpt>
      <trkpt lat="49.34732" lon="1.19816">
        <ele>62</ele>
        <time>2017-05-16T17:56:31Z</time>
      </trkpt>
      <trkpt lat="49.34732" lon="1.19816">
        <ele>62</ele>
        <time>2017-05-16T17:56:31Z</time>
      </trkpt>
      <trkpt lat="49.34748" lon="1.19819">
        <ele>62</ele>
        <time>2017-05-16T17:56:31Z</time>
      </trkpt>
      <trkpt lat="49.34753" lon="1.19819">
        <ele>62</ele>
        <time>2017-05-16T17:56:31Z</time>
      </trkpt>
      <trkpt lat="49.34774" lon="1.19828">
        <ele>62</ele>
        <time>2017-05-16T17:57:03Z</time>
      </trkpt>
      <trkpt lat="49.34781" lon="1.1983">
        <ele>62</ele>
        <time>2017-05-16T17:57:03Z</time>
      </trkpt>
      <trkpt lat="49.34784" lon="1.19831">
        <ele>62</ele>
        <time>2017-05-16T17:57:03Z</time>
      </trkpt>
      <trkpt lat="49.34789" lon="1.19831">
        <ele>62</ele>
        <time>2017-05-16T17:57:03Z</time>
      </trkpt>
      <trkpt lat="49.34799" lon="1.1983">
        <ele>64</ele>
        <time>2017-05-16T17:57:03Z</time>
      </trkpt>
      <trkpt lat="49.34801" lon="1.1983">
        <ele>64</ele>
        <time>2017-05-16T17:57:19Z</time>
      </trkpt>
      <trkpt lat="49.34804" lon="1.19829">
        <ele>64</ele>
        <time>2017-05-16T17:57:20Z</time>
      </trkpt>
      <trkpt lat="49.34806" lon="1.19827">
        <ele>64</ele>
        <time>2017-05-16T17:57:20Z</time>
      </trkpt>
      <trkpt lat="49.34813" lon="1.19829">
        <ele>64</ele>
        <time>2017-05-16T17:57:20Z</time>
      </trkpt>
      <trkpt lat="49.34821" lon="1.19825">
        <ele>64</ele>
        <time>2017-05-16T17:57:35Z</time>
      </trkpt>
      <trkpt lat="49.34826" lon="1.19822">
        <ele>64</ele>
        <time>2017-05-16T17:57:35Z</time>
      </trkpt>
      <trkpt lat="49.34829" lon="1.19819">
        <ele>64</ele>
        <time>2017-05-16T17:57:35Z</time>
      </trkpt>
      <trkpt lat="49.34831" lon="1.19818">
        <ele>64</ele>
        <time>2017-05-16T17:57:36Z</time>
      </trkpt>
      <trkpt lat="49.34836" lon="1.19813">
        <ele>64</ele>
        <time>2017-05-16T17:57:55Z</time>
      </trkpt>
      <trkpt lat="49.34836" lon="1.19813">
        <ele>64</ele>
        <time>2017-05-16T17:57:55Z</time>
      </trkpt>
      <trkpt lat="49.34839" lon="1.19811">
        <ele>64</ele>
        <time>2017-05-16T17:57:55Z</time>
      </trkpt>
      <trkpt lat="49.34842" lon="1.19804">
        <ele>64</ele>
        <time>2017-05-16T17:57:55Z</time>
      </trkpt>
      <trkpt lat="49.34845" lon="1.19798">
        <ele>64</ele>
        <time>2017-05-16T17:57:55Z</time>
      </trkpt>
      <trkpt lat="49.34846" lon="1.19794">
        <ele>64</ele>
        <time>2017-05-16T17:58:19Z</time>
      </trkpt>
      <trkpt lat="49.34847" lon="1.19792">
        <ele>64</ele>
        <time>2017-05-16T17:58:19Z</time>
      </trkpt>
      <trkpt lat="49.34847" lon="1.19792">
        <ele>79</ele>
        <time>2017-05-16T17:58:19Z</time>
      </trkpt>
      <trkpt lat="49.34848" lon="1.19791">
        <ele>79</ele>
        <time>2017-05-16T17:58:19Z</time>
      </trkpt>
      <trkpt lat="49.3486" lon="1.19781">
        <ele>79</ele>
        <time>2017-05-16T17:58:19Z</time>
      </trkpt>
      <trkpt lat="49.34868" lon="1.19772">
        <ele>79</ele>
        <time>2017-05-16T17:58:39Z</time>
      </trkpt>
      <trkpt lat="49.34869" lon="1.19764">
        <ele>79</ele>
        <time>2017-05-16T17:58:39Z</time>
      </trkpt>
      <trkpt lat="49.34871" lon="1.19762">
        <ele>79</ele>
        <time>2017-05-16T17:58:39Z</time>
      </trkpt>
      <trkpt lat="49.34875" lon="1.1976">
        <ele>79</ele>
        <time>2017-05-16T17:58:39Z</time>
      </trkpt>
      <trkpt lat="49.34882" lon="1.1976">
        <ele>84</ele>
        <time>2017-05-16T17:59:19Z</time>
      </trkpt>
      <trkpt lat="49.34885" lon="1.19759">
        <ele>84</ele>
        <time>2017-05-16T17:59:20Z</time>
      </trkpt>
      <trkpt lat="49.34894" lon="1.1976">
        <ele>84</ele>
        <time>2017-05-16T17:59:20Z</time>
      </trkpt>
      <trkpt lat="49.34899" lon="1.19761">
        <ele>84</ele>
        <time>2017-05-16T17:59:20Z</time>
      </trkpt>
      <trkpt lat="49.34903" lon="1.1976">
        <ele>84</ele>
        <time>2017-05-16T17:59:20Z</time>
      </trkpt>
      <trkpt lat="49.34911" lon="1.19767">
        <ele>84</ele>
        <time>2017-05-16T17:59:36Z</time>
      </trkpt>
      <trkpt lat="49.34921" lon="1.19769">
        <ele>84</ele>
        <time>2017-05-16T17:59:36Z</time>
      </trkpt>
      <trkpt lat="49.34923" lon="1.19774">
        <ele>84</ele>
        <time>2017-05-16T17:59:36Z</time>
      </trkpt>
      <trkpt lat="49.34931" lon="1.19776">
        <ele>84</ele>
        <time>2017-05-16T17:59:36Z</time>
      </trkpt>
      <trkpt lat="49.34932" lon="1.19774">
        <ele>84</ele>
        <time>2017-05-16T17:59:55Z</time>
      </trkpt>
      <trkpt lat="49.34935" lon="1.19773">
        <ele>84</ele>
        <time>2017-05-16T17:59:55Z</time>
      </trkpt>
      <trkpt lat="49.34941" lon="1.19772">
        <ele>84</ele>
        <time>2017-05-16T17:59:55Z</time>
      </trkpt>
      <trkpt lat="49.34944" lon="1.19775">
        <ele>84</ele>
        <time>2017-05-16T17:59:55Z</time>
      </trkpt>
      <trkpt lat="49.34954" lon="1.19777">
        <ele>84</ele>
        <time>2017-05-16T18:00:29Z</time>
      </trkpt>
      <trkpt lat="49.34955" lon="1.19777">
        <ele>84</ele>
        <time>2017-05-16T18:00:29Z</time>
      </trkpt>
      <trkpt lat="49.34955" lon="1.19777">
        <ele>84</ele>
        <time>2017-05-16T18:00:29Z</time>
      </trkpt>
      <trkpt lat="49.34955" lon="1.19777">
        <ele>84</ele>
        <time>2017-05-16T18:00:29Z</time>
      </trkpt>
      <trkpt lat="49.34964" lon="1.19778">
        <ele>78</ele>
        <time>2017-05-16T18:00:29Z</time>
      </trkpt>
      <trkpt lat="49.34972" lon="1.19762">
        <ele>78</ele>
        <time>2017-05-16T18:03:47Z</time>
      </trkpt>
      <trkpt lat="49.34972" lon="1.19762">
        <ele>78</ele>
        <time>2017-05-16T18:03:47Z</time>
      </trkpt>
      <trkpt lat="49.34973" lon="1.1976">
        <ele>78</ele>
        <time>2017-05-16T18:03:47Z</time>
      </trkpt>
      <trkpt lat="49.34975" lon="1.19759">
        <ele>78</ele>
        <time>2017-05-16T18:03:47Z</time>
      </trkpt>
      <trkpt lat="49.34976" lon="1.19759">
        <ele>78</ele>
        <time>2017-05-16T18:03:47Z</time>
      </trkpt>
      <trkpt lat="49.34973" lon="1.1975">
        <ele>78</ele>
        <time>2017-05-16T18:04:03Z</time>
      </trkpt>
      <trkpt lat="49.34974" lon="1.19746">
        <ele>78</ele>
        <time>2017-05-16T18:04:03Z</time>
      </trkpt>
      <trkpt lat="49.34974" lon="1.1974">
        <ele>78</ele>
        <time>2017-05-16T18:04:03Z</time>
      </trkpt>
      <trkpt lat="49.34975" lon="1.19732">
        <ele>78</ele>
        <time>2017-05-16T18:04:03Z</time>
      </trkpt>
      <trkpt lat="49.34974" lon="1.19724">
        <ele>78</ele>
        <time>2017-05-16T18:04:19Z</time>
      </trkpt>
      <trkpt lat="49.34973" lon="1.19716">
        <ele>78</ele>
        <time>2017-05-16T18:04:19Z</time>
      </trkpt>
      <trkpt lat="49.34974" lon="1.1971">
        <ele>78</ele>
        <time>2017-05-16T18:04:19Z</time>
      </trkpt>
      <trkpt lat="49.34971" lon="1.19704">
        <ele>84</ele>
        <time>2017-05-16T18:04:19Z</time>
      </trkpt>
      <trkpt lat="49.3497" lon="1.19698">
        <ele>84</ele>
        <time>2017-05-16T18:04:35Z</time>
      </trkpt>
      <trkpt lat="49.34967" lon="1.19692">
        <ele>84</ele>
        <time>2017-05-16T18:04:36Z</time>
      </trkpt>
      <trkpt lat="49.34967" lon="1.19683">
        <ele>84</ele>
        <time>2017-05-16T18:04:36Z</time>
      </trkpt>
      <trkpt lat="49.34963" lon="1.19675">
        <ele>84</ele>
        <time>2017-05-16T18:04:36Z</time>
      </trkpt>
      <trkpt lat="49.34963" lon="1.19673">
        <ele>84</ele>
        <time>2017-05-16T18:04:51Z</time>
      </trkpt>
      <trkpt lat="49.34966" lon="1.19672">
        <ele>84</ele>
        <time>2017-05-16T18:04:51Z</time>
      </trkpt>
      <trkpt lat="49.34966" lon="1.19661">
        <ele>84</ele>
        <time>2017-05-16T18:04:51Z</time>
      </trkpt>
      <trkpt lat="49.34968" lon="1.19655">
        <ele>84</ele>
        <time>2017-05-16T18:04:51Z</time>
      </trkpt>
      <trkpt lat="49.34969" lon="1.19628">
        <ele>84</ele>
        <time>2017-05-16T18:05:23Z</time>
      </trkpt>
      <trkpt lat="49.34975" lon="1.19624">
        <ele>87</ele>
        <time>2017-05-16T18:05:23Z</time>
      </trkpt>
      <trkpt lat="49.34976" lon="1.19612">
        <ele>87</ele>
        <time>2017-05-16T18:05:23Z</time>
      </trkpt>
      <trkpt lat="49.34975" lon="1.19605">
        <ele>87</ele>
        <time>2017-05-16T18:05:23Z</time>
      </trkpt>
      <trkpt lat="49.34968" lon="1.19593">
        <ele>87</ele>
        <time>2017-05-16T18:05:23Z</time>
      </trkpt>
      <trkpt lat="49.34974" lon="1.19593">
        <ele>87</ele>
        <time>2017-05-16T18:05:40Z</time>
      </trkpt>
      <trkpt lat="49.34974" lon="1.19587">
        <ele>87</ele>
        <time>2017-05-16T18:05:40Z</time>
      </trkpt>
      <trkpt lat="49.34973" lon="1.19582">
        <ele>87</ele>
        <time>2017-05-16T18:05:40Z</time>
      </trkpt>
      <trkpt lat="49.34974" lon="1.19576">
        <ele>87</ele>
        <time>2017-05-16T18:05:40Z</time>
      </trkpt>
      <trkpt lat="49.34971" lon="1.19563">
        <ele>87</ele>
        <time>2017-05-16T18:05:55Z</time>
      </trkpt>
      <trkpt lat="49.34976" lon="1.19552">
        <ele>87</ele>
        <time>2017-05-16T18:05:55Z</time>
      </trkpt>
      <trkpt lat="49.34977" lon="1.19543">
        <ele>87</ele>
        <time>2017-05-16T18:05:55Z</time>
      </trkpt>
      <trkpt lat="49.34978" lon="1.19542">
        <ele>89</ele>
        <time>2017-05-16T18:05:55Z</time>
      </trkpt>
      <trkpt lat="49.34978" lon="1.19534">
        <ele>89</ele>
        <time>2017-05-16T18:06:13Z</time>
      </trkpt>
      <trkpt lat="49.34979" lon="1.19528">
        <ele>89</ele>
        <time>2017-05-16T18:06:13Z</time>
      </trkpt>
      <trkpt lat="49.34979" lon="1.19523">
        <ele>89</ele>
        <time>2017-05-16T18:06:13Z</time>
      </trkpt>
      <trkpt lat="49.34983" lon="1.19515">
        <ele>89</ele>
        <time>2017-05-16T18:06:13Z</time>
      </trkpt>
      <trkpt lat="49.34985" lon="1.19504">
        <ele>89</ele>
        <time>2017-05-16T18:06:32Z</time>
      </trkpt>
      <trkpt lat="49.34986" lon="1.19496">
        <ele>89</ele>
        <time>2017-05-16T18:06:32Z</time>
      </trkpt>
      <trkpt lat="49.34985" lon="1.19488">
        <ele>89</ele>
        <time>2017-05-16T18:06:32Z</time>
      </trkpt>
      <trkpt lat="49.34986" lon="1.19483">
        <ele>89</ele>
        <time>2017-05-16T18:06:32Z</time>
      </trkpt>
      <trkpt lat="49.34989" lon="1.19466">
        <ele>89</ele>
        <time>2017-05-16T18:07:04Z</time>
      </trkpt>
      <trkpt lat="49.34989" lon="1.19466">
        <ele>89</ele>
        <time>2017-05-16T18:07:04Z</time>
      </trkpt>
      <trkpt lat="49.34988" lon="1.19465">
        <ele>89</ele>
        <time>2017-05-16T18:07:04Z</time>
      </trkpt>
      <trkpt lat="49.34988" lon="1.19465">
        <ele>89</ele>
        <time>2017-05-16T18:07:04Z</time>
      </trkpt>
      <trkpt lat="49.34988" lon="1.19461">
        <ele>89</ele>
        <time>2017-05-16T18:07:04Z</time>
      </trkpt>
      <trkpt lat="49.3499" lon="1.19457">
        <ele>91</ele>
        <time>2017-05-16T18:07:20Z</time>
      </trkpt>
      <trkpt lat="49.34991" lon="1.19449">
        <ele>91</ele>
        <time>2017-05-16T18:07:20Z</time>
      </trkpt>
      <trkpt lat="49.34995" lon="1.19442">
        <ele>91</ele>
        <time>2017-05-16T18:07:20Z</time>
      </trkpt>
      <trkpt lat="49.34995" lon="1.19439">
        <ele>91</ele>
        <time>2017-05-16T18:07:20Z</time>
      </trkpt>
      <trkpt lat="49.34995" lon="1.19438">
        <ele>91</ele>
        <time>2017-05-16T18:07:40Z</time>
      </trkpt>
      <trkpt lat="49.34994" lon="1.19434">
        <ele>91</ele>
        <time>2017-05-16T18:07:40Z</time>
      </trkpt>
      <trkpt lat="49.34994" lon="1.19432">
        <ele>91</ele>
        <time>2017-05-16T18:07:40Z</time>
      </trkpt>
      <trkpt lat="49.34994" lon="1.19431">
        <ele>91</ele>
        <time>2017-05-16T18:07:40Z</time>
      </trkpt>
      <trkpt lat="49.34994" lon="1.19423">
        <ele>91</ele>
        <time>2017-05-16T18:07:40Z</time>
      </trkpt>
      <trkpt lat="49.34999" lon="1.19415">
        <ele>91</ele>
        <time>2017-05-16T18:07:57Z</time>
      </trkpt>
      <trkpt lat="49.35001" lon="1.19411">
        <ele>91</ele>
        <time>2017-05-16T18:07:57Z</time>
      </trkpt>
      <trkpt lat="49.35003" lon="1.19406">
        <ele>91</ele>
        <time>2017-05-16T18:07:57Z</time>
      </trkpt>
      <trkpt lat="49.35007" lon="1.19399">
        <ele>91</ele>
        <time>2017-05-16T18:07:57Z</time>
      </trkpt>
      <trkpt lat="49.35006" lon="1.19393">
        <ele>91</ele>
        <time>2017-05-16T18:08:37Z</time>
      </trkpt>
      <trkpt lat="49.35008" lon="1.19392">
        <ele>91</ele>
        <time>2017-05-16T18:08:37Z</time>
      </trkpt>
      <trkpt lat="49.35012" lon="1.19386">
        <ele>91</ele>
        <time>2017-05-16T18:08:37Z</time>
      </trkpt>
      <trkpt lat="49.35017" lon="1.19382">
        <ele>91</ele>
        <time>2017-05-16T18:08:37Z</time>
      </trkpt>
      <trkpt lat="49.3502" lon="1.19381">
        <ele>91</ele>
        <time>2017-05-16T18:08:37Z</time>
      </trkpt>
      <trkpt lat="49.35021" lon="1.19382">
        <ele>91</ele>
        <time>2017-05-16T18:08:51Z</time>
      </trkpt>
      <trkpt lat="49.35021" lon="1.19382">
        <ele>91</ele>
        <time>2017-05-16T18:08:51Z</time>
      </trkpt>
      <trkpt lat="49.35027" lon="1.19378">
        <ele>91</ele>
        <time>2017-05-16T18:08:51Z</time>
      </trkpt>
      <trkpt lat="49.35034" lon="1.19372">
        <ele>99</ele>
        <time>2017-05-16T18:08:51Z</time>
      </trkpt>
      <trkpt lat="49.35037" lon="1.19367">
        <ele>99</ele>
        <time>2017-05-16T18:09:07Z</time>
      </trkpt>
      <trkpt lat="49.35039" lon="1.1936">
        <ele>99</ele>
        <time>2017-05-16T18:09:09Z</time>
      </trkpt>
      <trkpt lat="49.35041" lon="1.19356">
        <ele>99</ele>
        <time>2017-05-16T18:09:09Z</time>
      </trkpt>
      <trkpt lat="49.35045" lon="1.19349">
        <ele>96</ele>
        <time>2017-05-16T18:09:09Z</time>
      </trkpt>
      <trkpt lat="49.35056" lon="1.19343">
        <ele>96</ele>
        <time>2017-05-16T18:09:31Z</time>
      </trkpt>
      <trkpt lat="49.3506" lon="1.1934">
        <ele>96</ele>
        <time>2017-05-16T18:09:31Z</time>
      </trkpt>
      <trkpt lat="49.35064" lon="1.19334">
        <ele>96</ele>
        <time>2017-05-16T18:09:31Z</time>
      </trkpt>
      <trkpt lat="49.35067" lon="1.19324">
        <ele>96</ele>
        <time>2017-05-16T18:09:31Z</time>
      </trkpt>
      <trkpt lat="49.3507" lon="1.1932">
        <ele>96</ele>
        <time>2017-05-16T18:09:47Z</time>
      </trkpt>
      <trkpt lat="49.35074" lon="1.19314">
        <ele>96</ele>
        <time>2017-05-16T18:09:47Z</time>
      </trkpt>
      <trkpt lat="49.35076" lon="1.19311">
        <ele>96</ele>
        <time>2017-05-16T18:09:47Z</time>
      </trkpt>
      <trkpt lat="49.35079" lon="1.19306">
        <ele>96</ele>
        <time>2017-05-16T18:09:47Z</time>
      </trkpt>
      <trkpt lat="49.35084" lon="1.19304">
        <ele>96</ele>
        <time>2017-05-16T18:10:08Z</time>
      </trkpt>
      <trkpt lat="49.35086" lon="1.19299">
        <ele>96</ele>
        <time>2017-05-16T18:10:08Z</time>
      </trkpt>
      <trkpt lat="49.35088" lon="1.19297">
        <ele>96</ele>
        <time>2017-05-16T18:10:09Z</time>
      </trkpt>
      <trkpt lat="49.3509" lon="1.19295">
        <ele>96</ele>
        <time>2017-05-16T18:10:09Z</time>
      </trkpt>
      <trkpt lat="49.35094" lon="1.1929">
        <ele>104</ele>
        <time>2017-05-16T18:10:09Z</time>
      </trkpt>
      <trkpt lat="49.35094" lon="1.19287">
        <ele>104</ele>
        <time>2017-05-16T18:10:24Z</time>
      </trkpt>
      <trkpt lat="49.35094" lon="1.19285">
        <ele>104</ele>
        <time>2017-05-16T18:10:24Z</time>
      </trkpt>
      <trkpt lat="49.35097" lon="1.19278">
        <ele>104</ele>
        <time>2017-05-16T18:10:24Z</time>
      </trkpt>
      <trkpt lat="49.35099" lon="1.19272">
        <ele>104</ele>
        <time>2017-05-16T18:10:24Z</time>
      </trkpt>
      <trkpt lat="49.351" lon="1.19269">
        <ele>104</ele>
        <time>2017-05-16T18:10:40Z</time>
      </trkpt>
      <trkpt lat="49.35102" lon="1.19263">
        <ele>104</ele>
        <time>2017-05-16T18:10:40Z</time>
      </trkpt>
      <trkpt lat="49.35104" lon="1.19259">
        <ele>104</ele>
        <time>2017-05-16T18:10:40Z</time>
      </trkpt>
      <trkpt lat="49.35105" lon="1.19248">
        <ele>104</ele>
        <time>2017-05-16T18:10:40Z</time>
      </trkpt>
      <trkpt lat="49.35107" lon="1.19245">
        <ele>104</ele>
        <time>2017-05-16T18:10:55Z</time>
      </trkpt>
      <trkpt lat="49.35109" lon="1.1924">
        <ele>104</ele>
        <time>2017-05-16T18:10:55Z</time>
      </trkpt>
      <trkpt lat="49.3511" lon="1.19233">
        <ele>104</ele>
        <time>2017-05-16T18:10:55Z</time>
      </trkpt>
      <trkpt lat="49.35111" lon="1.19227">
        <ele>104</ele>
        <time>2017-05-16T18:10:55Z</time>
      </trkpt>
      <trkpt lat="49.35111" lon="1.19223">
        <ele>104</ele>
        <time>2017-05-16T18:11:11Z</time>
      </trkpt>
      <trkpt lat="49.35114" lon="1.19217">
        <ele>104</ele>
        <time>2017-05-16T18:11:12Z</time>
      </trkpt>
      <trkpt lat="49.35117" lon="1.1921">
        <ele>104</ele>
        <time>2017-05-16T18:11:12Z</time>
      </trkpt>
      <trkpt lat="49.35117" lon="1.19204">
        <ele>116</ele>
        <time>2017-05-16T18:11:12Z</time>
      </trkpt>
      <trkpt lat="49.35119" lon="1.19197">
        <ele>116</ele>
        <time>2017-05-16T18:11:27Z</time>
      </trkpt>
      <trkpt lat="49.35121" lon="1.1919">
        <ele>116</ele>
        <time>2017-05-16T18:11:27Z</time>
      </trkpt>
      <trkpt lat="49.35123" lon="1.19183">
        <ele>116</ele>
        <time>2017-05-16T18:11:27Z</time>
      </trkpt>
      <trkpt lat="49.35124" lon="1.19177">
        <ele>116</ele>
        <time>2017-05-16T18:11:27Z</time>
      </trkpt>
      <trkpt lat="49.35126" lon="1.19171">
        <ele>111</ele>
        <time>2017-05-16T18:11:44Z</time>
      </trkpt>
      <trkpt lat="49.3513" lon="1.19165">
        <ele>111</ele>
        <time>2017-05-16T18:11:44Z</time>
      </trkpt>
      <trkpt lat="49.35132" lon="1.1916">
        <ele>111</ele>
        <time>2017-05-16T18:11:44Z</time>
      </trkpt>
      <trkpt lat="49.35131" lon="1.19148">
        <ele>111</ele>
        <time>2017-05-16T18:11:44Z</time>
      </trkpt>
      <trkpt lat="49.35138" lon="1.19138">
        <ele>111</ele>
        <time>2017-05-16T18:12:04Z</time>
      </trkpt>
      <trkpt lat="49.35139" lon="1.19128">
        <ele>111</ele>
        <time>2017-05-16T18:12:04Z</time>
      </trkpt>
      <trkpt lat="49.3514" lon="1.19124">
        <ele>115</ele>
        <time>2017-05-16T18:12:04Z</time>
      </trkpt>
      <trkpt lat="49.35143" lon="1.19118">
        <ele>115</ele>
        <time>2017-05-16T18:12:04Z</time>
      </trkpt>
      <trkpt lat="49.35146" lon="1.19114">
        <ele>115</ele>
        <time>2017-05-16T18:12:19Z</time>
      </trkpt>
      <trkpt lat="49.35151" lon="1.1911">
        <ele>115</ele>
        <time>2017-05-16T18:12:19Z</time>
      </trkpt>
      <trkpt lat="49.35154" lon="1.19106">
        <ele>115</ele>
        <time>2017-05-16T18:12:19Z</time>
      </trkpt>
      <trkpt lat="49.3516" lon="1.19105">
        <ele>115</ele>
        <time>2017-05-16T18:12:19Z</time>
      </trkpt>
      <trkpt lat="49.35163" lon="1.19103">
        <ele>115</ele>
        <time>2017-05-16T18:12:35Z</time>
      </trkpt>
      <trkpt lat="49.35168" lon="1.19102">
        <ele>115</ele>
        <time>2017-05-16T18:12:37Z</time>
      </trkpt>
      <trkpt lat="49.35173" lon="1.19101">
        <ele>115</ele>
        <time>2017-05-16T18:12:37Z</time>
      </trkpt>
      <trkpt lat="49.35178" lon="1.19099">
        <ele>115</ele>
        <time>2017-05-16T18:12:37Z</time>
      </trkpt>
      <trkpt lat="49.35185" lon="1.19094">
        <ele>115</ele>
        <time>2017-05-16T18:12:55Z</time>
      </trkpt>
      <trkpt lat="49.3519" lon="1.19092">
        <ele>115</ele>
        <time>2017-05-16T18:12:55Z</time>
      </trkpt>
      <trkpt lat="49.35195" lon="1.1909">
        <ele>115</ele>
        <time>2017-05-16T18:12:55Z</time>
      </trkpt>
      <trkpt lat="49.352" lon="1.1909">
        <ele>115</ele>
        <time>2017-05-16T18:12:55Z</time>
      </trkpt>
      <trkpt lat="49.35203" lon="1.19089">
        <ele>115</ele>
        <time>2017-05-16T18:13:11Z</time>
      </trkpt>
      <trkpt lat="49.35207" lon="1.19086">
        <ele>115</ele>
        <time>2017-05-16T18:13:12Z</time>
      </trkpt>
      <trkpt lat="49.3521" lon="1.19084">
        <ele>120</ele>
        <time>2017-05-16T18:13:12Z</time>
      </trkpt>
      <trkpt lat="49.35215" lon="1.1908">
        <ele>120</ele>
        <time>2017-05-16T18:13:12Z</time>
      </trkpt>
      <trkpt lat="49.35221" lon="1.19072">
        <ele>120</ele>
        <time>2017-05-16T18:13:31Z</time>
      </trkpt>
      <trkpt lat="49.35225" lon="1.1907">
        <ele>120</ele>
        <time>2017-05-16T18:13:31Z</time>
      </trkpt>
      <trkpt lat="49.35228" lon="1.19068">
        <ele>120</ele>
        <time>2017-05-16T18:13:31Z</time>
      </trkpt>
      <trkpt lat="49.35233" lon="1.19066">
        <ele>120</ele>
        <time>2017-05-16T18:13:31Z</time>
      </trkpt>
      <trkpt lat="49.35238" lon="1.19064">
        <ele>120</ele>
        <time>2017-05-16T18:13:47Z</time>
      </trkpt>
      <trkpt lat="49.35243" lon="1.1906">
        <ele>120</ele>
        <time>2017-05-16T18:13:47Z</time>
      </trkpt>
      <trkpt lat="49.35245" lon="1.19058">
        <ele>120</ele>
        <time>2017-05-16T18:13:47Z</time>
      </trkpt>
      <trkpt lat="49.35247" lon="1.19056">
        <ele>120</ele>
        <time>2017-05-16T18:13:47Z</time>
      </trkpt>
      <trkpt lat="49.35254" lon="1.19055">
        <ele>120</ele>
        <time>2017-05-16T18:14:04Z</time>
      </trkpt>
      <trkpt lat="49.35257" lon="1.19052">
        <ele>120</ele>
        <time>2017-05-16T18:14:04Z</time>
      </trkpt>
      <trkpt lat="49.35259" lon="1.19051">
        <ele>120</ele>
        <time>2017-05-16T18:14:04Z</time>
      </trkpt>
      <trkpt lat="49.35262" lon="1.19049">
        <ele>120</ele>
        <time>2017-05-16T18:14:04Z</time>
      </trkpt>
      <trkpt lat="49.35261" lon="1.19049">
        <ele>120</ele>
        <time>2017-05-16T18:14:24Z</time>
      </trkpt>
      <trkpt lat="49.35265" lon="1.19049">
        <ele>120</ele>
        <time>2017-05-16T18:14:24Z</time>
      </trkpt>
      <trkpt lat="49.35269" lon="1.19054">
        <ele>120</ele>
        <time>2017-05-16T18:14:24Z</time>
      </trkpt>
      <trkpt lat="49.35269" lon="1.19053">
        <ele>120</ele>
        <time>2017-05-16T18:14:24Z</time>
      </trkpt>
      <trkpt lat="49.3527" lon="1.19053">
        <ele>120</ele>
        <time>2017-05-16T18:14:24Z</time>
      </trkpt>
      <trkpt lat="49.35273" lon="1.19053">
        <ele>120</ele>
        <time>2017-05-16T18:14:43Z</time>
      </trkpt>
      <trkpt lat="49.35277" lon="1.19049">
        <ele>120</ele>
        <time>2017-05-16T18:14:43Z</time>
      </trkpt>
      <trkpt lat="49.35279" lon="1.19048">
        <ele>120</ele>
        <time>2017-05-16T18:14:43Z</time>
      </trkpt>
      <trkpt lat="49.35281" lon="1.19045">
        <ele>120</ele>
        <time>2017-05-16T18:14:43Z</time>
      </trkpt>
      <trkpt lat="49.35285" lon="1.19044">
        <ele>120</ele>
        <time>2017-05-16T18:15:00Z</time>
      </trkpt>
      <trkpt lat="49.35289" lon="1.19045">
        <ele>120</ele>
        <time>2017-05-16T18:15:00Z</time>
      </trkpt>
      <trkpt lat="49.35291" lon="1.1904">
        <ele>126</ele>
        <time>2017-05-16T18:15:00Z</time>
      </trkpt>
      <trkpt lat="49.35295" lon="1.19034">
        <ele>127</ele>
        <time>2017-05-16T18:15:00Z</time>
      </trkpt>
      <trkpt lat="49.35298" lon="1.19029">
        <ele>127</ele>
        <time>2017-05-16T18:15:16Z</time>
      </trkpt>
      <trkpt lat="49.35303" lon="1.19026">
        <ele>127</ele>
        <time>2017-05-16T18:15:16Z</time>
      </trkpt>
      <trkpt lat="49.35306" lon="1.19024">
        <ele>127</ele>
        <time>2017-05-16T18:15:16Z</time>
      </trkpt>
      <trkpt lat="49.35311" lon="1.19023">
        <ele>127</ele>
        <time>2017-05-16T18:15:16Z</time>
      </trkpt>
      <trkpt lat="49.35338" lon="1.19005">
        <ele>127</ele>
        <time>2017-05-16T18:15:55Z</time>
      </trkpt>
      <trkpt lat="49.35339" lon="1.19003">
        <ele>127</ele>
        <time>2017-05-16T18:15:56Z</time>
      </trkpt>
      <trkpt lat="49.35343" lon="1.18998">
        <ele>127</ele>
        <time>2017-05-16T18:15:56Z</time>
      </trkpt>
      <trkpt lat="49.35345" lon="1.18997">
        <ele>127</ele>
        <time>2017-05-16T18:15:56Z</time>
      </trkpt>
      <trkpt lat="49.35349" lon="1.18992">
        <ele>127</ele>
        <time>2017-05-16T18:16:11Z</time>
      </trkpt>
      <trkpt lat="49.35352" lon="1.18992">
        <ele>127</ele>
        <time>2017-05-16T18:16:11Z</time>
      </trkpt>
      <trkpt lat="49.35355" lon="1.1899">
        <ele>127</ele>
        <time>2017-05-16T18:16:12Z</time>
      </trkpt>
      <trkpt lat="49.35358" lon="1.18989">
        <ele>127</ele>
        <time>2017-05-16T18:16:12Z</time>
      </trkpt>
      <trkpt lat="49.35362" lon="1.18987">
        <ele>127</ele>
        <time>2017-05-16T18:16:27Z</time>
      </trkpt>
      <trkpt lat="49.35367" lon="1.18985">
        <ele>127</ele>
        <time>2017-05-16T18:16:27Z</time>
      </trkpt>
      <trkpt lat="49.3537" lon="1.18985">
        <ele>127</ele>
        <time>2017-05-16T18:16:27Z</time>
      </trkpt>
      <trkpt lat="49.35375" lon="1.18985">
        <ele>127</ele>
        <time>2017-05-16T18:16:27Z</time>
      </trkpt>
      <trkpt lat="49.35382" lon="1.18989">
        <ele>132</ele>
        <time>2017-05-16T18:16:43Z</time>
      </trkpt>
      <trkpt lat="49.35387" lon="1.1899">
        <ele>132</ele>
        <time>2017-05-16T18:16:43Z</time>
      </trkpt>
      <trkpt lat="49.3539" lon="1.18988">
        <ele>132</ele>
        <time>2017-05-16T18:16:43Z</time>
      </trkpt>
      <trkpt lat="49.35394" lon="1.18991">
        <ele>132</ele>
        <time>2017-05-16T18:16:43Z</time>
      </trkpt>
      <trkpt lat="49.35398" lon="1.18992">
        <ele>132</ele>
        <time>2017-05-16T18:16:59Z</time>
      </trkpt>
      <trkpt lat="49.354" lon="1.18992">
        <ele>132</ele>
        <time>2017-05-16T18:16:59Z</time>
      </trkpt>
      <trkpt lat="49.35408" lon="1.18993">
        <ele>132</ele>
        <time>2017-05-16T18:16:59Z</time>
      </trkpt>
      <trkpt lat="49.35411" lon="1.18992">
        <ele>132</ele>
        <time>2017-05-16T18:16:59Z</time>
      </trkpt>
      <trkpt lat="49.35416" lon="1.18992">
        <ele>132</ele>
        <time>2017-05-16T18:17:15Z</time>
      </trkpt>
      <trkpt lat="49.3542" lon="1.18989">
        <ele>132</ele>
        <time>2017-05-16T18:17:15Z</time>
      </trkpt>
      <trkpt lat="49.35425" lon="1.18987">
        <ele>132</ele>
        <time>2017-05-16T18:17:15Z</time>
      </trkpt>
      <trkpt lat="49.35429" lon="1.18983">
        <ele>132</ele>
        <time>2017-05-16T18:17:15Z</time>
      </trkpt>
      <trkpt lat="49.35432" lon="1.18982">
        <ele>132</ele>
        <time>2017-05-16T18:17:31Z</time>
      </trkpt>
      <trkpt lat="49.35433" lon="1.18982">
        <ele>132</ele>
        <time>2017-05-16T18:17:31Z</time>
      </trkpt>
      <trkpt lat="49.35437" lon="1.18982">
        <ele>132</ele>
        <time>2017-05-16T18:17:31Z</time>
      </trkpt>
      <trkpt lat="49.35443" lon="1.1898">
        <ele>132</ele>
        <time>2017-05-16T18:17:31Z</time>
      </trkpt>
      <trkpt lat="49.35447" lon="1.18975">
        <ele>132</ele>
        <time>2017-05-16T18:17:48Z</time>
      </trkpt>
      <trkpt lat="49.35451" lon="1.18972">
        <ele>132</ele>
        <time>2017-05-16T18:17:48Z</time>
      </trkpt>
      <trkpt lat="49.35453" lon="1.18966">
        <ele>132</ele>
        <time>2017-05-16T18:17:48Z</time>
      </trkpt>
      <trkpt lat="49.35457" lon="1.18964">
        <ele>132</ele>
        <time>2017-05-16T18:17:48Z</time>
      </trkpt>
    </trkseg>
  </trk>
</gpx>